<?xml version="1.0" encoding="UTF-8" standalone="no" ?>
<gpx xmlns="http://www.topografix.com/GPX/1/1" xmlns:xsi="http://www.w3.org/2001/XMLSchema-instance" xsi:schemaLocation="http://www.topografix.com/GPX/1/1 http://www.topografix.com/GPX/1/1/gpx.xsd" version="1.1" creator="VisuGPX - https://www.visugpx.com">
  <metadata>
    <name>Bretagne Nord J4 De Morlaix à Plougasnou</name>
    <desc><![CDATA[La plus longue étape du périple mais pas la plus difficile]]></desc>
  </metadata>
  <trk>
    <name><![CDATA[SityTrail - Bretagne Nord J4 De Morlaix à Plougasnou]]></name>
    <desc><![CDATA[La plus longue étape du périple mais pas la plus difficile]]></desc>
    <trkseg>
      <trkpt lat="48.58467" lon="-3.83688">
        <ele>12</ele>
        <time>2021-06-03T06:34:02.086Z</time>
      </trkpt>
      <trkpt lat="48.58468" lon="-3.83687">
        <ele>12</ele>
        <time>2021-06-03T06:34:03.090Z</time>
      </trkpt>
      <trkpt lat="48.58474" lon="-3.83686">
        <ele>12</ele>
        <time>2021-06-03T06:34:08.076Z</time>
      </trkpt>
      <trkpt lat="48.58479" lon="-3.83683">
        <ele>12</ele>
        <time>2021-06-03T06:34:13.073Z</time>
      </trkpt>
      <trkpt lat="48.58483" lon="-3.83677">
        <ele>7</ele>
        <time>2021-06-03T06:34:18.080Z</time>
      </trkpt>
      <trkpt lat="48.58488" lon="-3.83671">
        <ele>7</ele>
        <time>2021-06-03T06:34:23.071Z</time>
      </trkpt>
      <trkpt lat="48.58491" lon="-3.83667">
        <ele>7</ele>
        <time>2021-06-03T06:34:27.078Z</time>
      </trkpt>
      <trkpt lat="48.58495" lon="-3.83663">
        <ele>7</ele>
        <time>2021-06-03T06:34:32.073Z</time>
      </trkpt>
      <trkpt lat="48.58498" lon="-3.8366">
        <ele>7</ele>
        <time>2021-06-03T06:34:36.086Z</time>
      </trkpt>
      <trkpt lat="48.585" lon="-3.83652">
        <ele>5</ele>
        <time>2021-06-03T06:34:41.074Z</time>
      </trkpt>
      <trkpt lat="48.58499" lon="-3.83644">
        <ele>5</ele>
        <time>2021-06-03T06:34:46.068Z</time>
      </trkpt>
      <trkpt lat="48.585" lon="-3.83635">
        <ele>5</ele>
        <time>2021-06-03T06:34:51.082Z</time>
      </trkpt>
      <trkpt lat="48.58503" lon="-3.83627">
        <ele>5</ele>
        <time>2021-06-03T06:34:56.071Z</time>
      </trkpt>
      <trkpt lat="48.58506" lon="-3.83621">
        <ele>4</ele>
        <time>2021-06-03T06:35:00.074Z</time>
      </trkpt>
      <trkpt lat="48.58506" lon="-3.83615">
        <ele>4</ele>
        <time>2021-06-03T06:35:04.075Z</time>
      </trkpt>
      <trkpt lat="48.58504" lon="-3.83606">
        <ele>4</ele>
        <time>2021-06-03T06:35:09.074Z</time>
      </trkpt>
      <trkpt lat="48.58501" lon="-3.83601">
        <ele>4</ele>
        <time>2021-06-03T06:35:13.079Z</time>
      </trkpt>
      <trkpt lat="48.58497" lon="-3.83595">
        <ele>3</ele>
        <time>2021-06-03T06:35:18.075Z</time>
      </trkpt>
      <trkpt lat="48.58494" lon="-3.83589">
        <ele>3</ele>
        <time>2021-06-03T06:35:23.069Z</time>
      </trkpt>
      <trkpt lat="48.58491" lon="-3.83583">
        <ele>3</ele>
        <time>2021-06-03T06:35:27.078Z</time>
      </trkpt>
      <trkpt lat="48.58488" lon="-3.83578">
        <ele>3</ele>
        <time>2021-06-03T06:35:31.084Z</time>
      </trkpt>
      <trkpt lat="48.58483" lon="-3.83572">
        <ele>5</ele>
        <time>2021-06-03T06:35:36.093Z</time>
      </trkpt>
      <trkpt lat="48.58478" lon="-3.83565">
        <ele>5</ele>
        <time>2021-06-03T06:35:41.069Z</time>
      </trkpt>
      <trkpt lat="48.58474" lon="-3.83559">
        <ele>5</ele>
        <time>2021-06-03T06:35:46.087Z</time>
      </trkpt>
      <trkpt lat="48.58471" lon="-3.83553">
        <ele>5</ele>
        <time>2021-06-03T06:35:50.179Z</time>
      </trkpt>
      <trkpt lat="48.58466" lon="-3.83548">
        <ele>5</ele>
        <time>2021-06-03T06:35:55.077Z</time>
      </trkpt>
      <trkpt lat="48.58461" lon="-3.83542">
        <ele>5</ele>
        <time>2021-06-03T06:36:00.077Z</time>
      </trkpt>
      <trkpt lat="48.58458" lon="-3.83536">
        <ele>6</ele>
        <time>2021-06-03T06:36:04.087Z</time>
      </trkpt>
      <trkpt lat="48.58453" lon="-3.8353">
        <ele>6</ele>
        <time>2021-06-03T06:36:09.090Z</time>
      </trkpt>
      <trkpt lat="48.58449" lon="-3.83525">
        <ele>6</ele>
        <time>2021-06-03T06:36:14.074Z</time>
      </trkpt>
      <trkpt lat="48.58447" lon="-3.83519">
        <ele>6</ele>
        <time>2021-06-03T06:36:18.082Z</time>
      </trkpt>
      <trkpt lat="48.5845" lon="-3.83511">
        <ele>6</ele>
        <time>2021-06-03T06:36:23.073Z</time>
      </trkpt>
      <trkpt lat="48.58451" lon="-3.83505">
        <ele>6</ele>
        <time>2021-06-03T06:36:27.095Z</time>
      </trkpt>
      <trkpt lat="48.58453" lon="-3.83514">
        <ele>6</ele>
        <time>2021-06-03T06:36:52.052Z</time>
      </trkpt>
      <trkpt lat="48.58455" lon="-3.83507">
        <ele>6</ele>
        <time>2021-06-03T06:36:57.069Z</time>
      </trkpt>
      <trkpt lat="48.58456" lon="-3.83503">
        <ele>6</ele>
        <time>2021-06-03T06:37:01.074Z</time>
      </trkpt>
      <trkpt lat="48.58457" lon="-3.83497">
        <ele>6</ele>
        <time>2021-06-03T06:37:05.087Z</time>
      </trkpt>
      <trkpt lat="48.58459" lon="-3.8349">
        <ele>9</ele>
        <time>2021-06-03T06:37:10.068Z</time>
      </trkpt>
      <trkpt lat="48.58461" lon="-3.83483">
        <ele>10</ele>
        <time>2021-06-03T06:37:15.091Z</time>
      </trkpt>
      <trkpt lat="48.58463" lon="-3.83476">
        <ele>10</ele>
        <time>2021-06-03T06:37:20.083Z</time>
      </trkpt>
      <trkpt lat="48.58467" lon="-3.83469">
        <ele>10</ele>
        <time>2021-06-03T06:37:25.082Z</time>
      </trkpt>
      <trkpt lat="48.58469" lon="-3.83464">
        <ele>10</ele>
        <time>2021-06-03T06:37:29.181Z</time>
      </trkpt>
      <trkpt lat="48.58473" lon="-3.83461">
        <ele>10</ele>
        <time>2021-06-03T06:37:34.080Z</time>
      </trkpt>
      <trkpt lat="48.58477" lon="-3.83463">
        <ele>10</ele>
        <time>2021-06-03T06:37:39.075Z</time>
      </trkpt>
      <trkpt lat="48.58481" lon="-3.83466">
        <ele>10</ele>
        <time>2021-06-03T06:37:44.074Z</time>
      </trkpt>
      <trkpt lat="48.58485" lon="-3.83469">
        <ele>10</ele>
        <time>2021-06-03T06:37:48.089Z</time>
      </trkpt>
      <trkpt lat="48.5849" lon="-3.83472">
        <ele>13</ele>
        <time>2021-06-03T06:37:53.065Z</time>
      </trkpt>
      <trkpt lat="48.58495" lon="-3.83476">
        <ele>13</ele>
        <time>2021-06-03T06:37:57.084Z</time>
      </trkpt>
      <trkpt lat="48.58501" lon="-3.83479">
        <ele>13</ele>
        <time>2021-06-03T06:38:02.071Z</time>
      </trkpt>
      <trkpt lat="48.58506" lon="-3.83484">
        <ele>13</ele>
        <time>2021-06-03T06:38:07.071Z</time>
      </trkpt>
      <trkpt lat="48.58512" lon="-3.8349">
        <ele>10</ele>
        <time>2021-06-03T06:38:12.063Z</time>
      </trkpt>
      <trkpt lat="48.58517" lon="-3.83493">
        <ele>9</ele>
        <time>2021-06-03T06:38:17.067Z</time>
      </trkpt>
      <trkpt lat="48.58522" lon="-3.83497">
        <ele>9</ele>
        <time>2021-06-03T06:38:21.075Z</time>
      </trkpt>
      <trkpt lat="48.58527" lon="-3.83503">
        <ele>9</ele>
        <time>2021-06-03T06:38:26.063Z</time>
      </trkpt>
      <trkpt lat="48.5853" lon="-3.83508">
        <ele>9</ele>
        <time>2021-06-03T06:38:30.071Z</time>
      </trkpt>
      <trkpt lat="48.58535" lon="-3.83513">
        <ele>9</ele>
        <time>2021-06-03T06:38:35.074Z</time>
      </trkpt>
      <trkpt lat="48.58539" lon="-3.83517">
        <ele>7</ele>
        <time>2021-06-03T06:38:39.088Z</time>
      </trkpt>
      <trkpt lat="48.58545" lon="-3.83522">
        <ele>9</ele>
        <time>2021-06-03T06:38:44.078Z</time>
      </trkpt>
      <trkpt lat="48.58549" lon="-3.83528">
        <ele>9</ele>
        <time>2021-06-03T06:38:49.066Z</time>
      </trkpt>
      <trkpt lat="48.58554" lon="-3.83533">
        <ele>9</ele>
        <time>2021-06-03T06:38:54.077Z</time>
      </trkpt>
      <trkpt lat="48.58559" lon="-3.83539">
        <ele>9</ele>
        <time>2021-06-03T06:38:59.071Z</time>
      </trkpt>
      <trkpt lat="48.58565" lon="-3.83545">
        <ele>8</ele>
        <time>2021-06-03T06:39:04.067Z</time>
      </trkpt>
      <trkpt lat="48.58568" lon="-3.8355">
        <ele>8</ele>
        <time>2021-06-03T06:39:08.082Z</time>
      </trkpt>
      <trkpt lat="48.58574" lon="-3.83558">
        <ele>12</ele>
        <time>2021-06-03T06:39:13.063Z</time>
      </trkpt>
      <trkpt lat="48.58579" lon="-3.83563">
        <ele>12</ele>
        <time>2021-06-03T06:39:17.072Z</time>
      </trkpt>
      <trkpt lat="48.58582" lon="-3.83568">
        <ele>12</ele>
        <time>2021-06-03T06:39:21.075Z</time>
      </trkpt>
      <trkpt lat="48.58588" lon="-3.83575">
        <ele>10</ele>
        <time>2021-06-03T06:39:26.067Z</time>
      </trkpt>
      <trkpt lat="48.58592" lon="-3.83579">
        <ele>10</ele>
        <time>2021-06-03T06:39:30.088Z</time>
      </trkpt>
      <trkpt lat="48.58597" lon="-3.83586">
        <ele>10</ele>
        <time>2021-06-03T06:39:35.078Z</time>
      </trkpt>
      <trkpt lat="48.58602" lon="-3.83592">
        <ele>11</ele>
        <time>2021-06-03T06:39:40.068Z</time>
      </trkpt>
      <trkpt lat="48.58606" lon="-3.83595">
        <ele>11</ele>
        <time>2021-06-03T06:39:44.093Z</time>
      </trkpt>
      <trkpt lat="48.58611" lon="-3.836">
        <ele>8</ele>
        <time>2021-06-03T06:39:49.074Z</time>
      </trkpt>
      <trkpt lat="48.58615" lon="-3.83603">
        <ele>8</ele>
        <time>2021-06-03T06:39:54.072Z</time>
      </trkpt>
      <trkpt lat="48.58621" lon="-3.83606">
        <ele>8</ele>
        <time>2021-06-03T06:39:59.066Z</time>
      </trkpt>
      <trkpt lat="48.58626" lon="-3.83609">
        <ele>10</ele>
        <time>2021-06-03T06:40:04.068Z</time>
      </trkpt>
      <trkpt lat="48.58632" lon="-3.83612">
        <ele>10</ele>
        <time>2021-06-03T06:40:09.065Z</time>
      </trkpt>
      <trkpt lat="48.58636" lon="-3.83615">
        <ele>10</ele>
        <time>2021-06-03T06:40:13.064Z</time>
      </trkpt>
      <trkpt lat="48.5864" lon="-3.83619">
        <ele>10</ele>
        <time>2021-06-03T06:40:18.075Z</time>
      </trkpt>
      <trkpt lat="48.58646" lon="-3.83623">
        <ele>10</ele>
        <time>2021-06-03T06:40:23.065Z</time>
      </trkpt>
      <trkpt lat="48.58651" lon="-3.83626">
        <ele>6</ele>
        <time>2021-06-03T06:40:27.078Z</time>
      </trkpt>
      <trkpt lat="48.58657" lon="-3.83629">
        <ele>10</ele>
        <time>2021-06-03T06:40:32.077Z</time>
      </trkpt>
      <trkpt lat="48.58661" lon="-3.83632">
        <ele>10</ele>
        <time>2021-06-03T06:40:36.083Z</time>
      </trkpt>
      <trkpt lat="48.58668" lon="-3.83636">
        <ele>10</ele>
        <time>2021-06-03T06:40:41.069Z</time>
      </trkpt>
      <trkpt lat="48.58673" lon="-3.8364">
        <ele>10</ele>
        <time>2021-06-03T06:40:46.072Z</time>
      </trkpt>
      <trkpt lat="48.58678" lon="-3.83643">
        <ele>10</ele>
        <time>2021-06-03T06:40:50.085Z</time>
      </trkpt>
      <trkpt lat="48.58683" lon="-3.83646">
        <ele>13</ele>
        <time>2021-06-03T06:40:55.071Z</time>
      </trkpt>
      <trkpt lat="48.58689" lon="-3.8365">
        <ele>13</ele>
        <time>2021-06-03T06:41:00.077Z</time>
      </trkpt>
      <trkpt lat="48.58694" lon="-3.83654">
        <ele>9</ele>
        <time>2021-06-03T06:41:05.065Z</time>
      </trkpt>
      <trkpt lat="48.58698" lon="-3.8366">
        <ele>9</ele>
        <time>2021-06-03T06:41:10.058Z</time>
      </trkpt>
      <trkpt lat="48.58699" lon="-3.83661">
        <ele>9</ele>
        <time>2021-06-03T06:41:14.099Z</time>
      </trkpt>
      <trkpt lat="48.587" lon="-3.83663">
        <ele>9</ele>
        <time>2021-06-03T06:41:32.070Z</time>
      </trkpt>
      <trkpt lat="48.58705" lon="-3.83664">
        <ele>9</ele>
        <time>2021-06-03T06:41:37.071Z</time>
      </trkpt>
      <trkpt lat="48.5871" lon="-3.83667">
        <ele>10</ele>
        <time>2021-06-03T06:41:42.061Z</time>
      </trkpt>
      <trkpt lat="48.58715" lon="-3.8367">
        <ele>10</ele>
        <time>2021-06-03T06:41:46.136Z</time>
      </trkpt>
      <trkpt lat="48.5872" lon="-3.83676">
        <ele>10</ele>
        <time>2021-06-03T06:41:51.071Z</time>
      </trkpt>
      <trkpt lat="48.58724" lon="-3.83681">
        <ele>7</ele>
        <time>2021-06-03T06:41:55.077Z</time>
      </trkpt>
      <trkpt lat="48.58727" lon="-3.8369">
        <ele>7</ele>
        <time>2021-06-03T06:42:00.062Z</time>
      </trkpt>
      <trkpt lat="48.58728" lon="-3.83691">
        <ele>7</ele>
        <time>2021-06-03T06:42:04.070Z</time>
      </trkpt>
      <trkpt lat="48.58733" lon="-3.83693">
        <ele>7</ele>
        <time>2021-06-03T06:42:09.069Z</time>
      </trkpt>
      <trkpt lat="48.58737" lon="-3.83694">
        <ele>10</ele>
        <time>2021-06-03T06:42:13.075Z</time>
      </trkpt>
      <trkpt lat="48.58742" lon="-3.83694">
        <ele>10</ele>
        <time>2021-06-03T06:42:17.077Z</time>
      </trkpt>
      <trkpt lat="48.58747" lon="-3.83698">
        <ele>10</ele>
        <time>2021-06-03T06:42:22.081Z</time>
      </trkpt>
      <trkpt lat="48.58753" lon="-3.83701">
        <ele>10</ele>
        <time>2021-06-03T06:42:27.076Z</time>
      </trkpt>
      <trkpt lat="48.58759" lon="-3.83702">
        <ele>10</ele>
        <time>2021-06-03T06:42:32.079Z</time>
      </trkpt>
      <trkpt lat="48.58766" lon="-3.83702">
        <ele>11</ele>
        <time>2021-06-03T06:42:37.068Z</time>
      </trkpt>
      <trkpt lat="48.58771" lon="-3.83701">
        <ele>11</ele>
        <time>2021-06-03T06:42:41.083Z</time>
      </trkpt>
      <trkpt lat="48.58777" lon="-3.83705">
        <ele>11</ele>
        <time>2021-06-03T06:42:46.069Z</time>
      </trkpt>
      <trkpt lat="48.58783" lon="-3.83708">
        <ele>11</ele>
        <time>2021-06-03T06:42:51.065Z</time>
      </trkpt>
      <trkpt lat="48.58787" lon="-3.83712">
        <ele>8</ele>
        <time>2021-06-03T06:42:55.083Z</time>
      </trkpt>
      <trkpt lat="48.58792" lon="-3.83716">
        <ele>9</ele>
        <time>2021-06-03T06:43:00.074Z</time>
      </trkpt>
      <trkpt lat="48.58797" lon="-3.83722">
        <ele>9</ele>
        <time>2021-06-03T06:43:04.081Z</time>
      </trkpt>
      <trkpt lat="48.58802" lon="-3.83725">
        <ele>9</ele>
        <time>2021-06-03T06:43:08.084Z</time>
      </trkpt>
      <trkpt lat="48.58807" lon="-3.83726">
        <ele>9</ele>
        <time>2021-06-03T06:43:13.071Z</time>
      </trkpt>
      <trkpt lat="48.58813" lon="-3.83721">
        <ele>9</ele>
        <time>2021-06-03T06:43:18.068Z</time>
      </trkpt>
      <trkpt lat="48.58819" lon="-3.83719">
        <ele>9</ele>
        <time>2021-06-03T06:43:23.067Z</time>
      </trkpt>
      <trkpt lat="48.58824" lon="-3.83724">
        <ele>10</ele>
        <time>2021-06-03T06:43:28.076Z</time>
      </trkpt>
      <trkpt lat="48.58829" lon="-3.83727">
        <ele>10</ele>
        <time>2021-06-03T06:43:33.077Z</time>
      </trkpt>
      <trkpt lat="48.58835" lon="-3.83729">
        <ele>10</ele>
        <time>2021-06-03T06:43:38.081Z</time>
      </trkpt>
      <trkpt lat="48.5884" lon="-3.83731">
        <ele>10</ele>
        <time>2021-06-03T06:43:42.093Z</time>
      </trkpt>
      <trkpt lat="48.58846" lon="-3.83735">
        <ele>10</ele>
        <time>2021-06-03T06:43:47.072Z</time>
      </trkpt>
      <trkpt lat="48.58852" lon="-3.83736">
        <ele>9</ele>
        <time>2021-06-03T06:43:52.075Z</time>
      </trkpt>
      <trkpt lat="48.58858" lon="-3.8374">
        <ele>9</ele>
        <time>2021-06-03T06:43:57.067Z</time>
      </trkpt>
      <trkpt lat="48.58863" lon="-3.83742">
        <ele>9</ele>
        <time>2021-06-03T06:44:02.075Z</time>
      </trkpt>
      <trkpt lat="48.58868" lon="-3.83744">
        <ele>9</ele>
        <time>2021-06-03T06:44:06.086Z</time>
      </trkpt>
      <trkpt lat="48.58873" lon="-3.83748">
        <ele>9</ele>
        <time>2021-06-03T06:44:11.077Z</time>
      </trkpt>
      <trkpt lat="48.58878" lon="-3.83751">
        <ele>12</ele>
        <time>2021-06-03T06:44:15.079Z</time>
      </trkpt>
      <trkpt lat="48.58883" lon="-3.83753">
        <ele>12</ele>
        <time>2021-06-03T06:44:19.090Z</time>
      </trkpt>
      <trkpt lat="48.58888" lon="-3.83753">
        <ele>12</ele>
        <time>2021-06-03T06:44:23.085Z</time>
      </trkpt>
      <trkpt lat="48.58894" lon="-3.83754">
        <ele>12</ele>
        <time>2021-06-03T06:44:28.075Z</time>
      </trkpt>
      <trkpt lat="48.589" lon="-3.83756">
        <ele>12</ele>
        <time>2021-06-03T06:44:33.079Z</time>
      </trkpt>
      <trkpt lat="48.58906" lon="-3.83758">
        <ele>15</ele>
        <time>2021-06-03T06:44:38.068Z</time>
      </trkpt>
      <trkpt lat="48.58912" lon="-3.83763">
        <ele>15</ele>
        <time>2021-06-03T06:44:43.086Z</time>
      </trkpt>
      <trkpt lat="48.58917" lon="-3.83767">
        <ele>10</ele>
        <time>2021-06-03T06:44:48.094Z</time>
      </trkpt>
      <trkpt lat="48.58923" lon="-3.83771">
        <ele>10</ele>
        <time>2021-06-03T06:44:53.070Z</time>
      </trkpt>
      <trkpt lat="48.5893" lon="-3.83775">
        <ele>10</ele>
        <time>2021-06-03T06:44:58.090Z</time>
      </trkpt>
      <trkpt lat="48.58936" lon="-3.83779">
        <ele>13</ele>
        <time>2021-06-03T06:45:03.075Z</time>
      </trkpt>
      <trkpt lat="48.58942" lon="-3.83783">
        <ele>13</ele>
        <time>2021-06-03T06:45:08.072Z</time>
      </trkpt>
      <trkpt lat="48.58948" lon="-3.83785">
        <ele>13</ele>
        <time>2021-06-03T06:45:13.067Z</time>
      </trkpt>
      <trkpt lat="48.58954" lon="-3.83788">
        <ele>13</ele>
        <time>2021-06-03T06:45:18.066Z</time>
      </trkpt>
      <trkpt lat="48.58961" lon="-3.8379">
        <ele>17</ele>
        <time>2021-06-03T06:45:23.077Z</time>
      </trkpt>
      <trkpt lat="48.58966" lon="-3.83794">
        <ele>13</ele>
        <time>2021-06-03T06:45:28.060Z</time>
      </trkpt>
      <trkpt lat="48.58972" lon="-3.83797">
        <ele>13</ele>
        <time>2021-06-03T06:45:33.061Z</time>
      </trkpt>
      <trkpt lat="48.58978" lon="-3.83801">
        <ele>13</ele>
        <time>2021-06-03T06:45:37.076Z</time>
      </trkpt>
      <trkpt lat="48.58983" lon="-3.83806">
        <ele>13</ele>
        <time>2021-06-03T06:45:42.080Z</time>
      </trkpt>
      <trkpt lat="48.58987" lon="-3.8381">
        <ele>16</ele>
        <time>2021-06-03T06:45:46.082Z</time>
      </trkpt>
      <trkpt lat="48.58993" lon="-3.83813">
        <ele>16</ele>
        <time>2021-06-03T06:45:51.082Z</time>
      </trkpt>
      <trkpt lat="48.58999" lon="-3.83816">
        <ele>16</ele>
        <time>2021-06-03T06:45:56.068Z</time>
      </trkpt>
      <trkpt lat="48.59006" lon="-3.83818">
        <ele>16</ele>
        <time>2021-06-03T06:46:01.076Z</time>
      </trkpt>
      <trkpt lat="48.59011" lon="-3.83822">
        <ele>13</ele>
        <time>2021-06-03T06:46:06.080Z</time>
      </trkpt>
      <trkpt lat="48.59017" lon="-3.83825">
        <ele>18</ele>
        <time>2021-06-03T06:46:11.075Z</time>
      </trkpt>
      <trkpt lat="48.59023" lon="-3.83828">
        <ele>18</ele>
        <time>2021-06-03T06:46:16.058Z</time>
      </trkpt>
      <trkpt lat="48.59028" lon="-3.83831">
        <ele>18</ele>
        <time>2021-06-03T06:46:20.071Z</time>
      </trkpt>
      <trkpt lat="48.59034" lon="-3.83833">
        <ele>18</ele>
        <time>2021-06-03T06:46:25.089Z</time>
      </trkpt>
      <trkpt lat="48.5904" lon="-3.83837">
        <ele>18</ele>
        <time>2021-06-03T06:46:30.067Z</time>
      </trkpt>
      <trkpt lat="48.59046" lon="-3.83838">
        <ele>19</ele>
        <time>2021-06-03T06:46:35.080Z</time>
      </trkpt>
      <trkpt lat="48.59053" lon="-3.83838">
        <ele>19</ele>
        <time>2021-06-03T06:46:40.078Z</time>
      </trkpt>
      <trkpt lat="48.59058" lon="-3.83837">
        <ele>19</ele>
        <time>2021-06-03T06:46:44.082Z</time>
      </trkpt>
      <trkpt lat="48.59064" lon="-3.83836">
        <ele>19</ele>
        <time>2021-06-03T06:46:49.075Z</time>
      </trkpt>
      <trkpt lat="48.59071" lon="-3.83836">
        <ele>17</ele>
        <time>2021-06-03T06:46:54.062Z</time>
      </trkpt>
      <trkpt lat="48.59076" lon="-3.83843">
        <ele>17</ele>
        <time>2021-06-03T06:47:07.065Z</time>
      </trkpt>
      <trkpt lat="48.59082" lon="-3.8384">
        <ele>17</ele>
        <time>2021-06-03T06:47:11.086Z</time>
      </trkpt>
      <trkpt lat="48.5909" lon="-3.83838">
        <ele>17</ele>
        <time>2021-06-03T06:47:16.076Z</time>
      </trkpt>
      <trkpt lat="48.59096" lon="-3.83835">
        <ele>17</ele>
        <time>2021-06-03T06:47:21.069Z</time>
      </trkpt>
      <trkpt lat="48.59102" lon="-3.83834">
        <ele>11</ele>
        <time>2021-06-03T06:47:26.064Z</time>
      </trkpt>
      <trkpt lat="48.59111" lon="-3.83833">
        <ele>11</ele>
        <time>2021-06-03T06:47:31.070Z</time>
      </trkpt>
      <trkpt lat="48.59117" lon="-3.83832">
        <ele>11</ele>
        <time>2021-06-03T06:47:35.210Z</time>
      </trkpt>
      <trkpt lat="48.59123" lon="-3.83831">
        <ele>11</ele>
        <time>2021-06-03T06:47:40.063Z</time>
      </trkpt>
      <trkpt lat="48.59129" lon="-3.8383">
        <ele>6</ele>
        <time>2021-06-03T06:47:45.079Z</time>
      </trkpt>
      <trkpt lat="48.59137" lon="-3.83828">
        <ele>6</ele>
        <time>2021-06-03T06:47:50.063Z</time>
      </trkpt>
      <trkpt lat="48.59144" lon="-3.83827">
        <ele>6</ele>
        <time>2021-06-03T06:47:55.069Z</time>
      </trkpt>
      <trkpt lat="48.59151" lon="-3.83826">
        <ele>6</ele>
        <time>2021-06-03T06:48:00.063Z</time>
      </trkpt>
      <trkpt lat="48.59157" lon="-3.83824">
        <ele>6</ele>
        <time>2021-06-03T06:48:05.070Z</time>
      </trkpt>
      <trkpt lat="48.59163" lon="-3.83821">
        <ele>6</ele>
        <time>2021-06-03T06:48:10.054Z</time>
      </trkpt>
      <trkpt lat="48.59169" lon="-3.83817">
        <ele>11</ele>
        <time>2021-06-03T06:48:15.054Z</time>
      </trkpt>
      <trkpt lat="48.59175" lon="-3.83815">
        <ele>11</ele>
        <time>2021-06-03T06:48:20.055Z</time>
      </trkpt>
      <trkpt lat="48.59181" lon="-3.83812">
        <ele>11</ele>
        <time>2021-06-03T06:48:25.054Z</time>
      </trkpt>
      <trkpt lat="48.59187" lon="-3.83811">
        <ele>11</ele>
        <time>2021-06-03T06:48:29.059Z</time>
      </trkpt>
      <trkpt lat="48.59193" lon="-3.83807">
        <ele>11</ele>
        <time>2021-06-03T06:48:34.071Z</time>
      </trkpt>
      <trkpt lat="48.59199" lon="-3.83806">
        <ele>11</ele>
        <time>2021-06-03T06:48:38.061Z</time>
      </trkpt>
      <trkpt lat="48.59204" lon="-3.83802">
        <ele>11</ele>
        <time>2021-06-03T06:48:43.065Z</time>
      </trkpt>
      <trkpt lat="48.59209" lon="-3.83798">
        <ele>14</ele>
        <time>2021-06-03T06:48:47.064Z</time>
      </trkpt>
      <trkpt lat="48.59215" lon="-3.83794">
        <ele>14</ele>
        <time>2021-06-03T06:48:51.082Z</time>
      </trkpt>
      <trkpt lat="48.5922" lon="-3.8379">
        <ele>20</ele>
        <time>2021-06-03T06:48:56.080Z</time>
      </trkpt>
      <trkpt lat="48.59225" lon="-3.83785">
        <ele>20</ele>
        <time>2021-06-03T06:49:01.070Z</time>
      </trkpt>
      <trkpt lat="48.5923" lon="-3.83783">
        <ele>20</ele>
        <time>2021-06-03T06:49:05.081Z</time>
      </trkpt>
      <trkpt lat="48.59236" lon="-3.83781">
        <ele>18</ele>
        <time>2021-06-03T06:49:10.066Z</time>
      </trkpt>
      <trkpt lat="48.59242" lon="-3.83777">
        <ele>18</ele>
        <time>2021-06-03T06:49:15.061Z</time>
      </trkpt>
      <trkpt lat="48.59248" lon="-3.83776">
        <ele>18</ele>
        <time>2021-06-03T06:49:20.058Z</time>
      </trkpt>
      <trkpt lat="48.59251" lon="-3.83776">
        <ele>18</ele>
        <time>2021-06-03T06:49:24.061Z</time>
      </trkpt>
      <trkpt lat="48.59257" lon="-3.83775">
        <ele>18</ele>
        <time>2021-06-03T06:49:28.076Z</time>
      </trkpt>
      <trkpt lat="48.59263" lon="-3.83774">
        <ele>18</ele>
        <time>2021-06-03T06:49:33.055Z</time>
      </trkpt>
      <trkpt lat="48.59268" lon="-3.83774">
        <ele>15</ele>
        <time>2021-06-03T06:49:38.071Z</time>
      </trkpt>
      <trkpt lat="48.59274" lon="-3.8377">
        <ele>15</ele>
        <time>2021-06-03T06:49:43.059Z</time>
      </trkpt>
      <trkpt lat="48.59279" lon="-3.83767">
        <ele>15</ele>
        <time>2021-06-03T06:49:47.067Z</time>
      </trkpt>
      <trkpt lat="48.59285" lon="-3.83765">
        <ele>15</ele>
        <time>2021-06-03T06:49:52.057Z</time>
      </trkpt>
      <trkpt lat="48.59291" lon="-3.83764">
        <ele>15</ele>
        <time>2021-06-03T06:49:57.062Z</time>
      </trkpt>
      <trkpt lat="48.59297" lon="-3.83762">
        <ele>21</ele>
        <time>2021-06-03T06:50:02.052Z</time>
      </trkpt>
      <trkpt lat="48.593" lon="-3.83759">
        <ele>21</ele>
        <time>2021-06-03T06:50:06.055Z</time>
      </trkpt>
      <trkpt lat="48.59308" lon="-3.83759">
        <ele>21</ele>
        <time>2021-06-03T06:50:11.062Z</time>
      </trkpt>
      <trkpt lat="48.59314" lon="-3.83759">
        <ele>21</ele>
        <time>2021-06-03T06:50:15.056Z</time>
      </trkpt>
      <trkpt lat="48.59322" lon="-3.8376">
        <ele>22</ele>
        <time>2021-06-03T06:50:20.065Z</time>
      </trkpt>
      <trkpt lat="48.5933" lon="-3.83761">
        <ele>22</ele>
        <time>2021-06-03T06:50:25.073Z</time>
      </trkpt>
      <trkpt lat="48.59333" lon="-3.83756">
        <ele>22</ele>
        <time>2021-06-03T06:50:30.057Z</time>
      </trkpt>
      <trkpt lat="48.59336" lon="-3.83753">
        <ele>22</ele>
        <time>2021-06-03T06:50:34.062Z</time>
      </trkpt>
      <trkpt lat="48.59339" lon="-3.83757">
        <ele>22</ele>
        <time>2021-06-03T06:50:38.069Z</time>
      </trkpt>
      <trkpt lat="48.59344" lon="-3.83758">
        <ele>22</ele>
        <time>2021-06-03T06:50:43.068Z</time>
      </trkpt>
      <trkpt lat="48.59348" lon="-3.8376">
        <ele>26</ele>
        <time>2021-06-03T06:50:47.085Z</time>
      </trkpt>
      <trkpt lat="48.59353" lon="-3.83764">
        <ele>23</ele>
        <time>2021-06-03T06:50:52.068Z</time>
      </trkpt>
      <trkpt lat="48.59361" lon="-3.83764">
        <ele>26</ele>
        <time>2021-06-03T06:51:40.076Z</time>
      </trkpt>
      <trkpt lat="48.59363" lon="-3.83763">
        <ele>26</ele>
        <time>2021-06-03T06:51:44.085Z</time>
      </trkpt>
      <trkpt lat="48.59367" lon="-3.83767">
        <ele>23</ele>
        <time>2021-06-03T06:51:49.077Z</time>
      </trkpt>
      <trkpt lat="48.59372" lon="-3.83766">
        <ele>23</ele>
        <time>2021-06-03T06:51:53.134Z</time>
      </trkpt>
      <trkpt lat="48.59377" lon="-3.83766">
        <ele>25</ele>
        <time>2021-06-03T06:51:58.081Z</time>
      </trkpt>
      <trkpt lat="48.59382" lon="-3.83769">
        <ele>25</ele>
        <time>2021-06-03T06:52:02.089Z</time>
      </trkpt>
      <trkpt lat="48.59388" lon="-3.8377">
        <ele>25</ele>
        <time>2021-06-03T06:52:07.068Z</time>
      </trkpt>
      <trkpt lat="48.59394" lon="-3.83772">
        <ele>25</ele>
        <time>2021-06-03T06:52:12.071Z</time>
      </trkpt>
      <trkpt lat="48.59399" lon="-3.83773">
        <ele>25</ele>
        <time>2021-06-03T06:52:16.070Z</time>
      </trkpt>
      <trkpt lat="48.59405" lon="-3.83776">
        <ele>26</ele>
        <time>2021-06-03T06:52:21.072Z</time>
      </trkpt>
      <trkpt lat="48.5941" lon="-3.83779">
        <ele>26</ele>
        <time>2021-06-03T06:52:26.065Z</time>
      </trkpt>
      <trkpt lat="48.59418" lon="-3.83784">
        <ele>26</ele>
        <time>2021-06-03T06:52:31.071Z</time>
      </trkpt>
      <trkpt lat="48.59423" lon="-3.83789">
        <ele>26</ele>
        <time>2021-06-03T06:52:36.077Z</time>
      </trkpt>
      <trkpt lat="48.5943" lon="-3.83792">
        <ele>26</ele>
        <time>2021-06-03T06:52:41.079Z</time>
      </trkpt>
      <trkpt lat="48.59436" lon="-3.83797">
        <ele>24</ele>
        <time>2021-06-03T06:52:46.066Z</time>
      </trkpt>
      <trkpt lat="48.59443" lon="-3.83801">
        <ele>24</ele>
        <time>2021-06-03T06:52:51.057Z</time>
      </trkpt>
      <trkpt lat="48.59449" lon="-3.83803">
        <ele>24</ele>
        <time>2021-06-03T06:52:56.052Z</time>
      </trkpt>
      <trkpt lat="48.59456" lon="-3.83807">
        <ele>24</ele>
        <time>2021-06-03T06:53:01.052Z</time>
      </trkpt>
      <trkpt lat="48.59462" lon="-3.83808">
        <ele>24</ele>
        <time>2021-06-03T06:53:05.065Z</time>
      </trkpt>
      <trkpt lat="48.59468" lon="-3.83809">
        <ele>24</ele>
        <time>2021-06-03T06:53:10.061Z</time>
      </trkpt>
      <trkpt lat="48.59475" lon="-3.8381">
        <ele>24</ele>
        <time>2021-06-03T06:53:15.061Z</time>
      </trkpt>
      <trkpt lat="48.5948" lon="-3.83814">
        <ele>24</ele>
        <time>2021-06-03T06:53:19.070Z</time>
      </trkpt>
      <trkpt lat="48.59485" lon="-3.83818">
        <ele>24</ele>
        <time>2021-06-03T06:53:24.065Z</time>
      </trkpt>
      <trkpt lat="48.5949" lon="-3.83822">
        <ele>22</ele>
        <time>2021-06-03T06:53:28.068Z</time>
      </trkpt>
      <trkpt lat="48.59497" lon="-3.83824">
        <ele>22</ele>
        <time>2021-06-03T06:53:33.060Z</time>
      </trkpt>
      <trkpt lat="48.59504" lon="-3.83827">
        <ele>22</ele>
        <time>2021-06-03T06:53:37.077Z</time>
      </trkpt>
      <trkpt lat="48.59512" lon="-3.8383">
        <ele>22</ele>
        <time>2021-06-03T06:53:42.082Z</time>
      </trkpt>
      <trkpt lat="48.5952" lon="-3.83834">
        <ele>23</ele>
        <time>2021-06-03T06:53:47.058Z</time>
      </trkpt>
      <trkpt lat="48.59523" lon="-3.83838">
        <ele>23</ele>
        <time>2021-06-03T06:53:51.090Z</time>
      </trkpt>
      <trkpt lat="48.59528" lon="-3.83836">
        <ele>23</ele>
        <time>2021-06-03T06:53:56.063Z</time>
      </trkpt>
      <trkpt lat="48.59536" lon="-3.83837">
        <ele>23</ele>
        <time>2021-06-03T06:54:01.058Z</time>
      </trkpt>
      <trkpt lat="48.59541" lon="-3.83838">
        <ele>23</ele>
        <time>2021-06-03T06:54:05.069Z</time>
      </trkpt>
      <trkpt lat="48.59549" lon="-3.83838">
        <ele>26</ele>
        <time>2021-06-03T06:54:10.081Z</time>
      </trkpt>
      <trkpt lat="48.59558" lon="-3.83841">
        <ele>26</ele>
        <time>2021-06-03T06:54:15.072Z</time>
      </trkpt>
      <trkpt lat="48.59566" lon="-3.83842">
        <ele>26</ele>
        <time>2021-06-03T06:54:20.075Z</time>
      </trkpt>
      <trkpt lat="48.59575" lon="-3.83841">
        <ele>28</ele>
        <time>2021-06-03T06:54:25.073Z</time>
      </trkpt>
      <trkpt lat="48.59582" lon="-3.83841">
        <ele>28</ele>
        <time>2021-06-03T06:54:30.073Z</time>
      </trkpt>
      <trkpt lat="48.59587" lon="-3.8384">
        <ele>28</ele>
        <time>2021-06-03T06:54:35.073Z</time>
      </trkpt>
      <trkpt lat="48.59592" lon="-3.83839">
        <ele>28</ele>
        <time>2021-06-03T06:54:39.080Z</time>
      </trkpt>
      <trkpt lat="48.59598" lon="-3.83839">
        <ele>29</ele>
        <time>2021-06-03T06:54:44.072Z</time>
      </trkpt>
      <trkpt lat="48.59603" lon="-3.83839">
        <ele>29</ele>
        <time>2021-06-03T06:54:48.072Z</time>
      </trkpt>
      <trkpt lat="48.59608" lon="-3.83838">
        <ele>29</ele>
        <time>2021-06-03T06:54:53.084Z</time>
      </trkpt>
      <trkpt lat="48.59617" lon="-3.83837">
        <ele>29</ele>
        <time>2021-06-03T06:54:58.069Z</time>
      </trkpt>
      <trkpt lat="48.59623" lon="-3.83836">
        <ele>29</ele>
        <time>2021-06-03T06:55:03.071Z</time>
      </trkpt>
      <trkpt lat="48.59629" lon="-3.83835">
        <ele>31</ele>
        <time>2021-06-03T06:55:07.077Z</time>
      </trkpt>
      <trkpt lat="48.59633" lon="-3.83833">
        <ele>31</ele>
        <time>2021-06-03T06:55:12.072Z</time>
      </trkpt>
      <trkpt lat="48.59639" lon="-3.83833">
        <ele>31</ele>
        <time>2021-06-03T06:55:17.073Z</time>
      </trkpt>
      <trkpt lat="48.59644" lon="-3.83833">
        <ele>31</ele>
        <time>2021-06-03T06:55:22.068Z</time>
      </trkpt>
      <trkpt lat="48.59649" lon="-3.83831">
        <ele>31</ele>
        <time>2021-06-03T06:55:26.069Z</time>
      </trkpt>
      <trkpt lat="48.59654" lon="-3.83829">
        <ele>33</ele>
        <time>2021-06-03T06:55:30.086Z</time>
      </trkpt>
      <trkpt lat="48.5966" lon="-3.83825">
        <ele>33</ele>
        <time>2021-06-03T06:55:35.077Z</time>
      </trkpt>
      <trkpt lat="48.59666" lon="-3.8382">
        <ele>33</ele>
        <time>2021-06-03T06:55:40.069Z</time>
      </trkpt>
      <trkpt lat="48.59671" lon="-3.83816">
        <ele>36</ele>
        <time>2021-06-03T06:55:44.071Z</time>
      </trkpt>
      <trkpt lat="48.59677" lon="-3.83812">
        <ele>36</ele>
        <time>2021-06-03T06:55:49.080Z</time>
      </trkpt>
      <trkpt lat="48.59681" lon="-3.83804">
        <ele>36</ele>
        <time>2021-06-03T06:55:54.073Z</time>
      </trkpt>
      <trkpt lat="48.59685" lon="-3.83797">
        <ele>36</ele>
        <time>2021-06-03T06:55:58.072Z</time>
      </trkpt>
      <trkpt lat="48.5969" lon="-3.83791">
        <ele>38</ele>
        <time>2021-06-03T06:56:03.085Z</time>
      </trkpt>
      <trkpt lat="48.59696" lon="-3.83784">
        <ele>38</ele>
        <time>2021-06-03T06:56:08.091Z</time>
      </trkpt>
      <trkpt lat="48.59701" lon="-3.83775">
        <ele>38</ele>
        <time>2021-06-03T06:56:13.066Z</time>
      </trkpt>
      <trkpt lat="48.59705" lon="-3.83767">
        <ele>38</ele>
        <time>2021-06-03T06:56:18.077Z</time>
      </trkpt>
      <trkpt lat="48.5971" lon="-3.8376">
        <ele>37</ele>
        <time>2021-06-03T06:56:23.088Z</time>
      </trkpt>
      <trkpt lat="48.59714" lon="-3.83754">
        <ele>37</ele>
        <time>2021-06-03T06:56:28.071Z</time>
      </trkpt>
      <trkpt lat="48.59719" lon="-3.83752">
        <ele>37</ele>
        <time>2021-06-03T06:56:32.133Z</time>
      </trkpt>
      <trkpt lat="48.59724" lon="-3.83746">
        <ele>37</ele>
        <time>2021-06-03T06:56:37.063Z</time>
      </trkpt>
      <trkpt lat="48.59728" lon="-3.83739">
        <ele>37</ele>
        <time>2021-06-03T06:56:42.059Z</time>
      </trkpt>
      <trkpt lat="48.59732" lon="-3.83733">
        <ele>38</ele>
        <time>2021-06-03T06:56:46.087Z</time>
      </trkpt>
      <trkpt lat="48.59736" lon="-3.83724">
        <ele>33</ele>
        <time>2021-06-03T06:56:51.080Z</time>
      </trkpt>
      <trkpt lat="48.59739" lon="-3.83715">
        <ele>33</ele>
        <time>2021-06-03T06:56:56.071Z</time>
      </trkpt>
      <trkpt lat="48.59742" lon="-3.83706">
        <ele>36</ele>
        <time>2021-06-03T06:57:01.069Z</time>
      </trkpt>
      <trkpt lat="48.59746" lon="-3.837">
        <ele>36</ele>
        <time>2021-06-03T06:57:05.065Z</time>
      </trkpt>
      <trkpt lat="48.59751" lon="-3.83693">
        <ele>36</ele>
        <time>2021-06-03T06:57:10.076Z</time>
      </trkpt>
      <trkpt lat="48.59755" lon="-3.83685">
        <ele>36</ele>
        <time>2021-06-03T06:57:15.065Z</time>
      </trkpt>
      <trkpt lat="48.5976" lon="-3.83678">
        <ele>38</ele>
        <time>2021-06-03T06:57:20.067Z</time>
      </trkpt>
      <trkpt lat="48.59764" lon="-3.83672">
        <ele>31</ele>
        <time>2021-06-03T06:57:24.074Z</time>
      </trkpt>
      <trkpt lat="48.59768" lon="-3.83666">
        <ele>31</ele>
        <time>2021-06-03T06:57:28.085Z</time>
      </trkpt>
      <trkpt lat="48.59773" lon="-3.8366">
        <ele>31</ele>
        <time>2021-06-03T06:57:33.068Z</time>
      </trkpt>
      <trkpt lat="48.59777" lon="-3.83656">
        <ele>31</ele>
        <time>2021-06-03T06:57:37.072Z</time>
      </trkpt>
      <trkpt lat="48.59783" lon="-3.83651">
        <ele>35</ele>
        <time>2021-06-03T06:57:42.063Z</time>
      </trkpt>
      <trkpt lat="48.59788" lon="-3.83646">
        <ele>35</ele>
        <time>2021-06-03T06:57:47.075Z</time>
      </trkpt>
      <trkpt lat="48.59792" lon="-3.83639">
        <ele>28</ele>
        <time>2021-06-03T06:57:52.076Z</time>
      </trkpt>
      <trkpt lat="48.59798" lon="-3.83633">
        <ele>28</ele>
        <time>2021-06-03T06:57:57.085Z</time>
      </trkpt>
      <trkpt lat="48.59804" lon="-3.83627">
        <ele>28</ele>
        <time>2021-06-03T06:58:02.073Z</time>
      </trkpt>
      <trkpt lat="48.5981" lon="-3.83625">
        <ele>28</ele>
        <time>2021-06-03T06:58:07.086Z</time>
      </trkpt>
      <trkpt lat="48.59813" lon="-3.83624">
        <ele>31</ele>
        <time>2021-06-03T06:58:12.065Z</time>
      </trkpt>
      <trkpt lat="48.59813" lon="-3.83623">
        <ele>31</ele>
        <time>2021-06-03T06:58:16.074Z</time>
      </trkpt>
      <trkpt lat="48.59815" lon="-3.83622">
        <ele>31</ele>
        <time>2021-06-03T07:01:45.080Z</time>
      </trkpt>
      <trkpt lat="48.59815" lon="-3.83623">
        <ele>31</ele>
        <time>2021-06-03T07:01:49.170Z</time>
      </trkpt>
      <trkpt lat="48.59817" lon="-3.83621">
        <ele>31</ele>
        <time>2021-06-03T07:01:54.063Z</time>
      </trkpt>
      <trkpt lat="48.59819" lon="-3.8362">
        <ele>31</ele>
        <time>2021-06-03T07:01:58.074Z</time>
      </trkpt>
      <trkpt lat="48.59827" lon="-3.83621">
        <ele>27</ele>
        <time>2021-06-03T07:02:03.068Z</time>
      </trkpt>
      <trkpt lat="48.59831" lon="-3.83624">
        <ele>27</ele>
        <time>2021-06-03T07:02:07.071Z</time>
      </trkpt>
      <trkpt lat="48.59835" lon="-3.83628">
        <ele>26</ele>
        <time>2021-06-03T07:02:11.077Z</time>
      </trkpt>
      <trkpt lat="48.5984" lon="-3.83634">
        <ele>26</ele>
        <time>2021-06-03T07:02:16.072Z</time>
      </trkpt>
      <trkpt lat="48.59846" lon="-3.83638">
        <ele>26</ele>
        <time>2021-06-03T07:02:21.072Z</time>
      </trkpt>
      <trkpt lat="48.59851" lon="-3.83642">
        <ele>29</ele>
        <time>2021-06-03T07:02:25.073Z</time>
      </trkpt>
      <trkpt lat="48.59856" lon="-3.83647">
        <ele>29</ele>
        <time>2021-06-03T07:02:30.067Z</time>
      </trkpt>
      <trkpt lat="48.5986" lon="-3.83647">
        <ele>29</ele>
        <time>2021-06-03T07:02:35.065Z</time>
      </trkpt>
      <trkpt lat="48.59863" lon="-3.8365">
        <ele>29</ele>
        <time>2021-06-03T07:02:40.092Z</time>
      </trkpt>
      <trkpt lat="48.59867" lon="-3.83654">
        <ele>31</ele>
        <time>2021-06-03T07:02:45.061Z</time>
      </trkpt>
      <trkpt lat="48.59869" lon="-3.83655">
        <ele>31</ele>
        <time>2021-06-03T07:02:49.078Z</time>
      </trkpt>
      <trkpt lat="48.59872" lon="-3.83659">
        <ele>31</ele>
        <time>2021-06-03T07:02:54.066Z</time>
      </trkpt>
      <trkpt lat="48.59872" lon="-3.83664">
        <ele>31</ele>
        <time>2021-06-03T07:02:58.067Z</time>
      </trkpt>
      <trkpt lat="48.59874" lon="-3.83669">
        <ele>31</ele>
        <time>2021-06-03T07:03:02.064Z</time>
      </trkpt>
      <trkpt lat="48.59874" lon="-3.83678">
        <ele>31</ele>
        <time>2021-06-03T07:03:07.064Z</time>
      </trkpt>
      <trkpt lat="48.59875" lon="-3.83684">
        <ele>33</ele>
        <time>2021-06-03T07:03:11.066Z</time>
      </trkpt>
      <trkpt lat="48.59874" lon="-3.83688">
        <ele>33</ele>
        <time>2021-06-03T07:03:15.080Z</time>
      </trkpt>
      <trkpt lat="48.59875" lon="-3.83695">
        <ele>36</ele>
        <time>2021-06-03T07:03:20.064Z</time>
      </trkpt>
      <trkpt lat="48.59878" lon="-3.83703">
        <ele>36</ele>
        <time>2021-06-03T07:03:33.071Z</time>
      </trkpt>
      <trkpt lat="48.59877" lon="-3.83708">
        <ele>36</ele>
        <time>2021-06-03T07:03:38.077Z</time>
      </trkpt>
      <trkpt lat="48.59876" lon="-3.83715">
        <ele>37</ele>
        <time>2021-06-03T07:03:43.060Z</time>
      </trkpt>
      <trkpt lat="48.59877" lon="-3.83721">
        <ele>37</ele>
        <time>2021-06-03T07:03:48.060Z</time>
      </trkpt>
      <trkpt lat="48.59877" lon="-3.83728">
        <ele>37</ele>
        <time>2021-06-03T07:03:53.071Z</time>
      </trkpt>
      <trkpt lat="48.5988" lon="-3.83727">
        <ele>37</ele>
        <time>2021-06-03T07:04:16.069Z</time>
      </trkpt>
      <trkpt lat="48.5988" lon="-3.83727">
        <ele>37</ele>
        <time>2021-06-03T07:04:21.058Z</time>
      </trkpt>
      <trkpt lat="48.59885" lon="-3.83732">
        <ele>37</ele>
        <time>2021-06-03T07:04:26.074Z</time>
      </trkpt>
      <trkpt lat="48.5988" lon="-3.83736">
        <ele>36</ele>
        <time>2021-06-03T07:04:31.077Z</time>
      </trkpt>
      <trkpt lat="48.59876" lon="-3.83746">
        <ele>36</ele>
        <time>2021-06-03T07:04:36.068Z</time>
      </trkpt>
      <trkpt lat="48.5987" lon="-3.83755">
        <ele>29</ele>
        <time>2021-06-03T07:04:55.065Z</time>
      </trkpt>
      <trkpt lat="48.59872" lon="-3.83748">
        <ele>29</ele>
        <time>2021-06-03T07:05:00.059Z</time>
      </trkpt>
      <trkpt lat="48.59876" lon="-3.83742">
        <ele>36</ele>
        <time>2021-06-03T07:05:05.067Z</time>
      </trkpt>
      <trkpt lat="48.59879" lon="-3.83739">
        <ele>36</ele>
        <time>2021-06-03T07:05:10.062Z</time>
      </trkpt>
      <trkpt lat="48.5988" lon="-3.83734">
        <ele>37</ele>
        <time>2021-06-03T07:05:14.071Z</time>
      </trkpt>
      <trkpt lat="48.59881" lon="-3.83728">
        <ele>37</ele>
        <time>2021-06-03T07:05:18.070Z</time>
      </trkpt>
      <trkpt lat="48.5988" lon="-3.83722">
        <ele>37</ele>
        <time>2021-06-03T07:05:22.079Z</time>
      </trkpt>
      <trkpt lat="48.59878" lon="-3.83714">
        <ele>37</ele>
        <time>2021-06-03T07:05:27.061Z</time>
      </trkpt>
      <trkpt lat="48.59876" lon="-3.83708">
        <ele>36</ele>
        <time>2021-06-03T07:05:31.073Z</time>
      </trkpt>
      <trkpt lat="48.59875" lon="-3.83706">
        <ele>36</ele>
        <time>2021-06-03T07:05:36.068Z</time>
      </trkpt>
      <trkpt lat="48.59874" lon="-3.83706">
        <ele>33</ele>
        <time>2021-06-03T07:05:41.075Z</time>
      </trkpt>
      <trkpt lat="48.59872" lon="-3.83696">
        <ele>33</ele>
        <time>2021-06-03T07:05:46.056Z</time>
      </trkpt>
      <trkpt lat="48.59874" lon="-3.83685">
        <ele>33</ele>
        <time>2021-06-03T07:05:51.071Z</time>
      </trkpt>
      <trkpt lat="48.59871" lon="-3.83676">
        <ele>31</ele>
        <time>2021-06-03T07:05:55.069Z</time>
      </trkpt>
      <trkpt lat="48.59871" lon="-3.83667">
        <ele>31</ele>
        <time>2021-06-03T07:05:59.091Z</time>
      </trkpt>
      <trkpt lat="48.59878" lon="-3.8366">
        <ele>35</ele>
        <time>2021-06-03T07:06:04.063Z</time>
      </trkpt>
      <trkpt lat="48.59884" lon="-3.83655">
        <ele>35</ele>
        <time>2021-06-03T07:06:09.068Z</time>
      </trkpt>
      <trkpt lat="48.59891" lon="-3.83649">
        <ele>33</ele>
        <time>2021-06-03T07:06:32.074Z</time>
      </trkpt>
      <trkpt lat="48.59891" lon="-3.83649">
        <ele>33</ele>
        <time>2021-06-03T07:06:37.085Z</time>
      </trkpt>
      <trkpt lat="48.59891" lon="-3.83649">
        <ele>33</ele>
        <time>2021-06-03T07:06:42.072Z</time>
      </trkpt>
      <trkpt lat="48.59894" lon="-3.83647">
        <ele>33</ele>
        <time>2021-06-03T07:06:46.077Z</time>
      </trkpt>
      <trkpt lat="48.59899" lon="-3.83642">
        <ele>33</ele>
        <time>2021-06-03T07:06:50.072Z</time>
      </trkpt>
      <trkpt lat="48.59905" lon="-3.83638">
        <ele>37</ele>
        <time>2021-06-03T07:06:55.082Z</time>
      </trkpt>
      <trkpt lat="48.59909" lon="-3.83634">
        <ele>37</ele>
        <time>2021-06-03T07:07:00.064Z</time>
      </trkpt>
      <trkpt lat="48.59914" lon="-3.83628">
        <ele>37</ele>
        <time>2021-06-03T07:07:05.074Z</time>
      </trkpt>
      <trkpt lat="48.59918" lon="-3.83625">
        <ele>37</ele>
        <time>2021-06-03T07:07:09.078Z</time>
      </trkpt>
      <trkpt lat="48.59924" lon="-3.8362">
        <ele>35</ele>
        <time>2021-06-03T07:07:14.064Z</time>
      </trkpt>
      <trkpt lat="48.59928" lon="-3.83616">
        <ele>35</ele>
        <time>2021-06-03T07:07:18.075Z</time>
      </trkpt>
      <trkpt lat="48.59933" lon="-3.83616">
        <ele>40</ele>
        <time>2021-06-03T07:07:23.081Z</time>
      </trkpt>
      <trkpt lat="48.59934" lon="-3.83627">
        <ele>42</ele>
        <time>2021-06-03T07:07:28.068Z</time>
      </trkpt>
      <trkpt lat="48.59933" lon="-3.83635">
        <ele>42</ele>
        <time>2021-06-03T07:07:33.064Z</time>
      </trkpt>
      <trkpt lat="48.59932" lon="-3.83642">
        <ele>42</ele>
        <time>2021-06-03T07:07:37.078Z</time>
      </trkpt>
      <trkpt lat="48.59931" lon="-3.8365">
        <ele>42</ele>
        <time>2021-06-03T07:07:42.071Z</time>
      </trkpt>
      <trkpt lat="48.59931" lon="-3.83656">
        <ele>42</ele>
        <time>2021-06-03T07:07:46.081Z</time>
      </trkpt>
      <trkpt lat="48.59934" lon="-3.83666">
        <ele>42</ele>
        <time>2021-06-03T07:08:44.069Z</time>
      </trkpt>
      <trkpt lat="48.59936" lon="-3.83658">
        <ele>42</ele>
        <time>2021-06-03T07:08:49.063Z</time>
      </trkpt>
      <trkpt lat="48.59934" lon="-3.83653">
        <ele>42</ele>
        <time>2021-06-03T07:08:53.085Z</time>
      </trkpt>
      <trkpt lat="48.59932" lon="-3.83645">
        <ele>42</ele>
        <time>2021-06-03T07:08:58.060Z</time>
      </trkpt>
      <trkpt lat="48.59932" lon="-3.83639">
        <ele>42</ele>
        <time>2021-06-03T07:09:02.059Z</time>
      </trkpt>
      <trkpt lat="48.59932" lon="-3.83633">
        <ele>42</ele>
        <time>2021-06-03T07:09:06.067Z</time>
      </trkpt>
      <trkpt lat="48.59934" lon="-3.83625">
        <ele>42</ele>
        <time>2021-06-03T07:09:11.069Z</time>
      </trkpt>
      <trkpt lat="48.59935" lon="-3.8362">
        <ele>40</ele>
        <time>2021-06-03T07:09:15.086Z</time>
      </trkpt>
      <trkpt lat="48.59938" lon="-3.83616">
        <ele>40</ele>
        <time>2021-06-03T07:09:20.063Z</time>
      </trkpt>
      <trkpt lat="48.5994" lon="-3.83616">
        <ele>40</ele>
        <time>2021-06-03T07:09:38.085Z</time>
      </trkpt>
      <trkpt lat="48.59939" lon="-3.83612">
        <ele>40</ele>
        <time>2021-06-03T07:09:43.085Z</time>
      </trkpt>
      <trkpt lat="48.5994" lon="-3.83607">
        <ele>40</ele>
        <time>2021-06-03T07:09:48.079Z</time>
      </trkpt>
      <trkpt lat="48.59942" lon="-3.83604">
        <ele>40</ele>
        <time>2021-06-03T07:09:52.082Z</time>
      </trkpt>
      <trkpt lat="48.59945" lon="-3.83601">
        <ele>40</ele>
        <time>2021-06-03T07:09:56.091Z</time>
      </trkpt>
      <trkpt lat="48.59948" lon="-3.83597">
        <ele>39</ele>
        <time>2021-06-03T07:10:01.081Z</time>
      </trkpt>
      <trkpt lat="48.5995" lon="-3.83594">
        <ele>39</ele>
        <time>2021-06-03T07:10:05.087Z</time>
      </trkpt>
      <trkpt lat="48.59952" lon="-3.83586">
        <ele>39</ele>
        <time>2021-06-03T07:10:10.064Z</time>
      </trkpt>
      <trkpt lat="48.59955" lon="-3.83583">
        <ele>39</ele>
        <time>2021-06-03T07:10:14.070Z</time>
      </trkpt>
      <trkpt lat="48.59958" lon="-3.8358">
        <ele>39</ele>
        <time>2021-06-03T07:10:19.075Z</time>
      </trkpt>
      <trkpt lat="48.59961" lon="-3.83578">
        <ele>45</ele>
        <time>2021-06-03T07:10:23.084Z</time>
      </trkpt>
      <trkpt lat="48.59964" lon="-3.83577">
        <ele>45</ele>
        <time>2021-06-03T07:10:28.073Z</time>
      </trkpt>
      <trkpt lat="48.59968" lon="-3.83574">
        <ele>45</ele>
        <time>2021-06-03T07:10:33.078Z</time>
      </trkpt>
      <trkpt lat="48.59972" lon="-3.83569">
        <ele>43</ele>
        <time>2021-06-03T07:10:38.071Z</time>
      </trkpt>
      <trkpt lat="48.59976" lon="-3.83568">
        <ele>43</ele>
        <time>2021-06-03T07:10:42.076Z</time>
      </trkpt>
      <trkpt lat="48.5998" lon="-3.83568">
        <ele>43</ele>
        <time>2021-06-03T07:10:47.087Z</time>
      </trkpt>
      <trkpt lat="48.59984" lon="-3.83573">
        <ele>45</ele>
        <time>2021-06-03T07:10:52.083Z</time>
      </trkpt>
      <trkpt lat="48.59986" lon="-3.83573">
        <ele>52</ele>
        <time>2021-06-03T07:10:56.089Z</time>
      </trkpt>
      <trkpt lat="48.5999" lon="-3.83573">
        <ele>52</ele>
        <time>2021-06-03T07:11:01.087Z</time>
      </trkpt>
      <trkpt lat="48.59993" lon="-3.83573">
        <ele>52</ele>
        <time>2021-06-03T07:11:06.069Z</time>
      </trkpt>
      <trkpt lat="48.59996" lon="-3.83574">
        <ele>52</ele>
        <time>2021-06-03T07:11:11.073Z</time>
      </trkpt>
      <trkpt lat="48.59999" lon="-3.83575">
        <ele>52</ele>
        <time>2021-06-03T07:11:44.088Z</time>
      </trkpt>
      <trkpt lat="48.60002" lon="-3.83579">
        <ele>52</ele>
        <time>2021-06-03T07:11:49.073Z</time>
      </trkpt>
      <trkpt lat="48.60005" lon="-3.83582">
        <ele>52</ele>
        <time>2021-06-03T07:11:54.067Z</time>
      </trkpt>
      <trkpt lat="48.60008" lon="-3.83585">
        <ele>52</ele>
        <time>2021-06-03T07:11:58.082Z</time>
      </trkpt>
      <trkpt lat="48.60011" lon="-3.83588">
        <ele>52</ele>
        <time>2021-06-03T07:12:03.073Z</time>
      </trkpt>
      <trkpt lat="48.60013" lon="-3.8359">
        <ele>52</ele>
        <time>2021-06-03T07:12:07.083Z</time>
      </trkpt>
      <trkpt lat="48.60017" lon="-3.83591">
        <ele>54</ele>
        <time>2021-06-03T07:12:11.188Z</time>
      </trkpt>
      <trkpt lat="48.60021" lon="-3.83595">
        <ele>54</ele>
        <time>2021-06-03T07:12:16.075Z</time>
      </trkpt>
      <trkpt lat="48.60025" lon="-3.83598">
        <ele>55</ele>
        <time>2021-06-03T07:12:21.083Z</time>
      </trkpt>
      <trkpt lat="48.60029" lon="-3.83603">
        <ele>55</ele>
        <time>2021-06-03T07:12:25.087Z</time>
      </trkpt>
      <trkpt lat="48.60031" lon="-3.83608">
        <ele>55</ele>
        <time>2021-06-03T07:12:29.088Z</time>
      </trkpt>
      <trkpt lat="48.60034" lon="-3.83613">
        <ele>55</ele>
        <time>2021-06-03T07:12:34.072Z</time>
      </trkpt>
      <trkpt lat="48.60038" lon="-3.83619">
        <ele>55</ele>
        <time>2021-06-03T07:12:39.092Z</time>
      </trkpt>
      <trkpt lat="48.60039" lon="-3.83626">
        <ele>55</ele>
        <time>2021-06-03T07:12:44.091Z</time>
      </trkpt>
      <trkpt lat="48.60038" lon="-3.83635">
        <ele>55</ele>
        <time>2021-06-03T07:12:49.058Z</time>
      </trkpt>
      <trkpt lat="48.60037" lon="-3.83641">
        <ele>55</ele>
        <time>2021-06-03T07:12:53.092Z</time>
      </trkpt>
      <trkpt lat="48.60036" lon="-3.83649">
        <ele>55</ele>
        <time>2021-06-03T07:12:58.074Z</time>
      </trkpt>
      <trkpt lat="48.60033" lon="-3.83658">
        <ele>55</ele>
        <time>2021-06-03T07:13:03.076Z</time>
      </trkpt>
      <trkpt lat="48.6003" lon="-3.83667">
        <ele>55</ele>
        <time>2021-06-03T07:13:08.067Z</time>
      </trkpt>
      <trkpt lat="48.60029" lon="-3.83673">
        <ele>55</ele>
        <time>2021-06-03T07:13:12.080Z</time>
      </trkpt>
      <trkpt lat="48.60027" lon="-3.83682">
        <ele>55</ele>
        <time>2021-06-03T07:13:17.077Z</time>
      </trkpt>
      <trkpt lat="48.60025" lon="-3.8369">
        <ele>55</ele>
        <time>2021-06-03T07:13:21.087Z</time>
      </trkpt>
      <trkpt lat="48.60024" lon="-3.83698">
        <ele>55</ele>
        <time>2021-06-03T07:13:26.072Z</time>
      </trkpt>
      <trkpt lat="48.60023" lon="-3.83709">
        <ele>51</ele>
        <time>2021-06-03T07:13:31.082Z</time>
      </trkpt>
      <trkpt lat="48.60025" lon="-3.83717">
        <ele>51</ele>
        <time>2021-06-03T07:13:36.090Z</time>
      </trkpt>
      <trkpt lat="48.60031" lon="-3.8372">
        <ele>51</ele>
        <time>2021-06-03T07:13:41.064Z</time>
      </trkpt>
      <trkpt lat="48.60035" lon="-3.83722">
        <ele>51</ele>
        <time>2021-06-03T07:13:45.081Z</time>
      </trkpt>
      <trkpt lat="48.6004" lon="-3.83726">
        <ele>51</ele>
        <time>2021-06-03T07:13:50.067Z</time>
      </trkpt>
      <trkpt lat="48.60044" lon="-3.83727">
        <ele>50</ele>
        <time>2021-06-03T07:13:54.074Z</time>
      </trkpt>
      <trkpt lat="48.60049" lon="-3.83728">
        <ele>50</ele>
        <time>2021-06-03T07:13:59.056Z</time>
      </trkpt>
      <trkpt lat="48.60054" lon="-3.8373">
        <ele>50</ele>
        <time>2021-06-03T07:14:03.072Z</time>
      </trkpt>
      <trkpt lat="48.60059" lon="-3.83732">
        <ele>50</ele>
        <time>2021-06-03T07:14:07.071Z</time>
      </trkpt>
      <trkpt lat="48.60065" lon="-3.83733">
        <ele>50</ele>
        <time>2021-06-03T07:14:12.080Z</time>
      </trkpt>
      <trkpt lat="48.6007" lon="-3.83734">
        <ele>49</ele>
        <time>2021-06-03T07:14:17.073Z</time>
      </trkpt>
      <trkpt lat="48.60074" lon="-3.83736">
        <ele>49</ele>
        <time>2021-06-03T07:14:21.095Z</time>
      </trkpt>
      <trkpt lat="48.6008" lon="-3.83736">
        <ele>49</ele>
        <time>2021-06-03T07:14:26.079Z</time>
      </trkpt>
      <trkpt lat="48.60084" lon="-3.83738">
        <ele>49</ele>
        <time>2021-06-03T07:14:31.074Z</time>
      </trkpt>
      <trkpt lat="48.60088" lon="-3.83739">
        <ele>49</ele>
        <time>2021-06-03T07:14:35.083Z</time>
      </trkpt>
      <trkpt lat="48.60094" lon="-3.83741">
        <ele>49</ele>
        <time>2021-06-03T07:14:40.079Z</time>
      </trkpt>
      <trkpt lat="48.601" lon="-3.83744">
        <ele>50</ele>
        <time>2021-06-03T07:14:45.084Z</time>
      </trkpt>
      <trkpt lat="48.60105" lon="-3.83746">
        <ele>50</ele>
        <time>2021-06-03T07:14:50.083Z</time>
      </trkpt>
      <trkpt lat="48.60111" lon="-3.8375">
        <ele>50</ele>
        <time>2021-06-03T07:14:55.063Z</time>
      </trkpt>
      <trkpt lat="48.60115" lon="-3.83752">
        <ele>50</ele>
        <time>2021-06-03T07:14:59.076Z</time>
      </trkpt>
      <trkpt lat="48.6012" lon="-3.83756">
        <ele>50</ele>
        <time>2021-06-03T07:15:04.078Z</time>
      </trkpt>
      <trkpt lat="48.60125" lon="-3.8376">
        <ele>50</ele>
        <time>2021-06-03T07:15:09.069Z</time>
      </trkpt>
      <trkpt lat="48.6013" lon="-3.83764">
        <ele>50</ele>
        <time>2021-06-03T07:15:14.064Z</time>
      </trkpt>
      <trkpt lat="48.60134" lon="-3.83768">
        <ele>50</ele>
        <time>2021-06-03T07:15:18.073Z</time>
      </trkpt>
      <trkpt lat="48.60138" lon="-3.83772">
        <ele>50</ele>
        <time>2021-06-03T07:15:23.086Z</time>
      </trkpt>
      <trkpt lat="48.6014" lon="-3.83774">
        <ele>50</ele>
        <time>2021-06-03T07:15:28.083Z</time>
      </trkpt>
      <trkpt lat="48.60145" lon="-3.83773">
        <ele>50</ele>
        <time>2021-06-03T07:15:33.071Z</time>
      </trkpt>
      <trkpt lat="48.60148" lon="-3.83766">
        <ele>50</ele>
        <time>2021-06-03T07:15:38.076Z</time>
      </trkpt>
      <trkpt lat="48.60152" lon="-3.83758">
        <ele>50</ele>
        <time>2021-06-03T07:15:43.076Z</time>
      </trkpt>
      <trkpt lat="48.60156" lon="-3.83755">
        <ele>51</ele>
        <time>2021-06-03T07:15:48.079Z</time>
      </trkpt>
      <trkpt lat="48.60161" lon="-3.83753">
        <ele>51</ele>
        <time>2021-06-03T07:15:53.072Z</time>
      </trkpt>
      <trkpt lat="48.60165" lon="-3.83753">
        <ele>51</ele>
        <time>2021-06-03T07:15:57.076Z</time>
      </trkpt>
      <trkpt lat="48.60169" lon="-3.83755">
        <ele>51</ele>
        <time>2021-06-03T07:16:02.066Z</time>
      </trkpt>
      <trkpt lat="48.60171" lon="-3.8376">
        <ele>51</ele>
        <time>2021-06-03T07:16:07.080Z</time>
      </trkpt>
      <trkpt lat="48.60172" lon="-3.83758">
        <ele>51</ele>
        <time>2021-06-03T07:16:12.072Z</time>
      </trkpt>
      <trkpt lat="48.60175" lon="-3.83761">
        <ele>51</ele>
        <time>2021-06-03T07:16:16.078Z</time>
      </trkpt>
      <trkpt lat="48.60179" lon="-3.83765">
        <ele>51</ele>
        <time>2021-06-03T07:16:21.069Z</time>
      </trkpt>
      <trkpt lat="48.60185" lon="-3.8377">
        <ele>51</ele>
        <time>2021-06-03T07:16:26.081Z</time>
      </trkpt>
      <trkpt lat="48.60191" lon="-3.83776">
        <ele>51</ele>
        <time>2021-06-03T07:16:31.066Z</time>
      </trkpt>
      <trkpt lat="48.60196" lon="-3.83782">
        <ele>51</ele>
        <time>2021-06-03T07:16:36.078Z</time>
      </trkpt>
      <trkpt lat="48.602" lon="-3.83784">
        <ele>51</ele>
        <time>2021-06-03T07:16:41.067Z</time>
      </trkpt>
      <trkpt lat="48.60206" lon="-3.83788">
        <ele>51</ele>
        <time>2021-06-03T07:16:46.072Z</time>
      </trkpt>
      <trkpt lat="48.60211" lon="-3.83792">
        <ele>50</ele>
        <time>2021-06-03T07:17:00.084Z</time>
      </trkpt>
      <trkpt lat="48.60211" lon="-3.83792">
        <ele>50</ele>
        <time>2021-06-03T07:17:04.084Z</time>
      </trkpt>
      <trkpt lat="48.60213" lon="-3.83789">
        <ele>51</ele>
        <time>2021-06-03T07:17:09.075Z</time>
      </trkpt>
      <trkpt lat="48.60216" lon="-3.83787">
        <ele>51</ele>
        <time>2021-06-03T07:17:13.088Z</time>
      </trkpt>
      <trkpt lat="48.6022" lon="-3.83782">
        <ele>51</ele>
        <time>2021-06-03T07:17:17.087Z</time>
      </trkpt>
      <trkpt lat="48.60222" lon="-3.83777">
        <ele>51</ele>
        <time>2021-06-03T07:17:21.099Z</time>
      </trkpt>
      <trkpt lat="48.60228" lon="-3.83771">
        <ele>51</ele>
        <time>2021-06-03T07:17:26.099Z</time>
      </trkpt>
      <trkpt lat="48.60233" lon="-3.83765">
        <ele>51</ele>
        <time>2021-06-03T07:17:31.084Z</time>
      </trkpt>
      <trkpt lat="48.60238" lon="-3.83759">
        <ele>52</ele>
        <time>2021-06-03T07:17:36.072Z</time>
      </trkpt>
      <trkpt lat="48.60242" lon="-3.83754">
        <ele>52</ele>
        <time>2021-06-03T07:17:40.079Z</time>
      </trkpt>
      <trkpt lat="48.60246" lon="-3.83749">
        <ele>52</ele>
        <time>2021-06-03T07:17:45.078Z</time>
      </trkpt>
      <trkpt lat="48.6025" lon="-3.83745">
        <ele>52</ele>
        <time>2021-06-03T07:17:49.084Z</time>
      </trkpt>
      <trkpt lat="48.60255" lon="-3.83739">
        <ele>52</ele>
        <time>2021-06-03T07:17:54.075Z</time>
      </trkpt>
      <trkpt lat="48.60259" lon="-3.83733">
        <ele>55</ele>
        <time>2021-06-03T07:17:59.076Z</time>
      </trkpt>
      <trkpt lat="48.60264" lon="-3.83728">
        <ele>55</ele>
        <time>2021-06-03T07:18:04.069Z</time>
      </trkpt>
      <trkpt lat="48.60268" lon="-3.83723">
        <ele>55</ele>
        <time>2021-06-03T07:18:08.093Z</time>
      </trkpt>
      <trkpt lat="48.60273" lon="-3.83719">
        <ele>55</ele>
        <time>2021-06-03T07:18:13.064Z</time>
      </trkpt>
      <trkpt lat="48.60277" lon="-3.83714">
        <ele>55</ele>
        <time>2021-06-03T07:18:17.079Z</time>
      </trkpt>
      <trkpt lat="48.60282" lon="-3.83708">
        <ele>56</ele>
        <time>2021-06-03T07:18:22.072Z</time>
      </trkpt>
      <trkpt lat="48.60285" lon="-3.83704">
        <ele>56</ele>
        <time>2021-06-03T07:18:26.080Z</time>
      </trkpt>
      <trkpt lat="48.60289" lon="-3.83698">
        <ele>56</ele>
        <time>2021-06-03T07:18:31.094Z</time>
      </trkpt>
      <trkpt lat="48.60293" lon="-3.83693">
        <ele>57</ele>
        <time>2021-06-03T07:18:36.093Z</time>
      </trkpt>
      <trkpt lat="48.60298" lon="-3.83687">
        <ele>57</ele>
        <time>2021-06-03T07:18:41.091Z</time>
      </trkpt>
      <trkpt lat="48.60302" lon="-3.83681">
        <ele>57</ele>
        <time>2021-06-03T07:18:46.076Z</time>
      </trkpt>
      <trkpt lat="48.60307" lon="-3.83677">
        <ele>59</ele>
        <time>2021-06-03T07:18:51.087Z</time>
      </trkpt>
      <trkpt lat="48.60312" lon="-3.83672">
        <ele>59</ele>
        <time>2021-06-03T07:18:56.085Z</time>
      </trkpt>
      <trkpt lat="48.60316" lon="-3.83667">
        <ele>59</ele>
        <time>2021-06-03T07:19:01.075Z</time>
      </trkpt>
      <trkpt lat="48.60321" lon="-3.83661">
        <ele>59</ele>
        <time>2021-06-03T07:19:06.075Z</time>
      </trkpt>
      <trkpt lat="48.60325" lon="-3.83656">
        <ele>59</ele>
        <time>2021-06-03T07:19:11.090Z</time>
      </trkpt>
      <trkpt lat="48.60329" lon="-3.83652">
        <ele>61</ele>
        <time>2021-06-03T07:19:16.071Z</time>
      </trkpt>
      <trkpt lat="48.60333" lon="-3.83649">
        <ele>61</ele>
        <time>2021-06-03T07:19:20.072Z</time>
      </trkpt>
      <trkpt lat="48.60338" lon="-3.83644">
        <ele>61</ele>
        <time>2021-06-03T07:19:25.072Z</time>
      </trkpt>
      <trkpt lat="48.60342" lon="-3.8364">
        <ele>61</ele>
        <time>2021-06-03T07:19:29.085Z</time>
      </trkpt>
      <trkpt lat="48.60347" lon="-3.83633">
        <ele>61</ele>
        <time>2021-06-03T07:19:34.083Z</time>
      </trkpt>
      <trkpt lat="48.60352" lon="-3.83627">
        <ele>62</ele>
        <time>2021-06-03T07:19:39.085Z</time>
      </trkpt>
      <trkpt lat="48.60357" lon="-3.83621">
        <ele>63</ele>
        <time>2021-06-03T07:19:44.090Z</time>
      </trkpt>
      <trkpt lat="48.60362" lon="-3.83616">
        <ele>63</ele>
        <time>2021-06-03T07:19:49.075Z</time>
      </trkpt>
      <trkpt lat="48.60368" lon="-3.83611">
        <ele>63</ele>
        <time>2021-06-03T07:19:54.091Z</time>
      </trkpt>
      <trkpt lat="48.60373" lon="-3.83607">
        <ele>63</ele>
        <time>2021-06-03T07:19:59.093Z</time>
      </trkpt>
      <trkpt lat="48.6038" lon="-3.83604">
        <ele>66</ele>
        <time>2021-06-03T07:20:04.094Z</time>
      </trkpt>
      <trkpt lat="48.60385" lon="-3.83601">
        <ele>66</ele>
        <time>2021-06-03T07:20:09.076Z</time>
      </trkpt>
      <trkpt lat="48.60389" lon="-3.83598">
        <ele>66</ele>
        <time>2021-06-03T07:20:14.069Z</time>
      </trkpt>
      <trkpt lat="48.60393" lon="-3.83596">
        <ele>67</ele>
        <time>2021-06-03T07:20:18.094Z</time>
      </trkpt>
      <trkpt lat="48.60399" lon="-3.83594">
        <ele>67</ele>
        <time>2021-06-03T07:20:23.088Z</time>
      </trkpt>
      <trkpt lat="48.60404" lon="-3.83593">
        <ele>67</ele>
        <time>2021-06-03T07:20:28.077Z</time>
      </trkpt>
      <trkpt lat="48.60408" lon="-3.83591">
        <ele>67</ele>
        <time>2021-06-03T07:20:32.072Z</time>
      </trkpt>
      <trkpt lat="48.60414" lon="-3.83588">
        <ele>67</ele>
        <time>2021-06-03T07:20:37.085Z</time>
      </trkpt>
      <trkpt lat="48.6042" lon="-3.83585">
        <ele>67</ele>
        <time>2021-06-03T07:20:42.088Z</time>
      </trkpt>
      <trkpt lat="48.60426" lon="-3.83585">
        <ele>67</ele>
        <time>2021-06-03T07:20:47.074Z</time>
      </trkpt>
      <trkpt lat="48.60432" lon="-3.83583">
        <ele>68</ele>
        <time>2021-06-03T07:20:51.091Z</time>
      </trkpt>
      <trkpt lat="48.60438" lon="-3.83581">
        <ele>68</ele>
        <time>2021-06-03T07:20:56.084Z</time>
      </trkpt>
      <trkpt lat="48.60446" lon="-3.8358">
        <ele>68</ele>
        <time>2021-06-03T07:21:01.069Z</time>
      </trkpt>
      <trkpt lat="48.6045" lon="-3.8358">
        <ele>68</ele>
        <time>2021-06-03T07:21:05.082Z</time>
      </trkpt>
      <trkpt lat="48.60457" lon="-3.83579">
        <ele>68</ele>
        <time>2021-06-03T07:21:10.093Z</time>
      </trkpt>
      <trkpt lat="48.60463" lon="-3.83578">
        <ele>68</ele>
        <time>2021-06-03T07:21:15.080Z</time>
      </trkpt>
      <trkpt lat="48.6047" lon="-3.83577">
        <ele>68</ele>
        <time>2021-06-03T07:21:20.076Z</time>
      </trkpt>
      <trkpt lat="48.60475" lon="-3.83578">
        <ele>68</ele>
        <time>2021-06-03T07:21:24.087Z</time>
      </trkpt>
      <trkpt lat="48.60481" lon="-3.83576">
        <ele>68</ele>
        <time>2021-06-03T07:21:29.090Z</time>
      </trkpt>
      <trkpt lat="48.60488" lon="-3.83576">
        <ele>67</ele>
        <time>2021-06-03T07:21:34.084Z</time>
      </trkpt>
      <trkpt lat="48.60493" lon="-3.83575">
        <ele>67</ele>
        <time>2021-06-03T07:21:39.071Z</time>
      </trkpt>
      <trkpt lat="48.60499" lon="-3.83575">
        <ele>67</ele>
        <time>2021-06-03T07:21:43.089Z</time>
      </trkpt>
      <trkpt lat="48.60504" lon="-3.83573">
        <ele>67</ele>
        <time>2021-06-03T07:21:47.093Z</time>
      </trkpt>
      <trkpt lat="48.60511" lon="-3.83574">
        <ele>67</ele>
        <time>2021-06-03T07:21:52.092Z</time>
      </trkpt>
      <trkpt lat="48.60517" lon="-3.83574">
        <ele>67</ele>
        <time>2021-06-03T07:21:57.086Z</time>
      </trkpt>
      <trkpt lat="48.60523" lon="-3.83573">
        <ele>67</ele>
        <time>2021-06-03T07:22:02.064Z</time>
      </trkpt>
      <trkpt lat="48.60529" lon="-3.83571">
        <ele>67</ele>
        <time>2021-06-03T07:22:06.080Z</time>
      </trkpt>
      <trkpt lat="48.60536" lon="-3.83571">
        <ele>67</ele>
        <time>2021-06-03T07:22:11.085Z</time>
      </trkpt>
      <trkpt lat="48.60542" lon="-3.83571">
        <ele>67</ele>
        <time>2021-06-03T07:22:16.075Z</time>
      </trkpt>
      <trkpt lat="48.60548" lon="-3.83573">
        <ele>67</ele>
        <time>2021-06-03T07:22:20.076Z</time>
      </trkpt>
      <trkpt lat="48.60554" lon="-3.83579">
        <ele>67</ele>
        <time>2021-06-03T07:22:25.076Z</time>
      </trkpt>
      <trkpt lat="48.60557" lon="-3.83585">
        <ele>67</ele>
        <time>2021-06-03T07:22:29.092Z</time>
      </trkpt>
      <trkpt lat="48.60562" lon="-3.83593">
        <ele>67</ele>
        <time>2021-06-03T07:22:34.085Z</time>
      </trkpt>
      <trkpt lat="48.60567" lon="-3.836">
        <ele>66</ele>
        <time>2021-06-03T07:22:39.083Z</time>
      </trkpt>
      <trkpt lat="48.60571" lon="-3.83606">
        <ele>65</ele>
        <time>2021-06-03T07:22:44.083Z</time>
      </trkpt>
      <trkpt lat="48.60574" lon="-3.83611">
        <ele>65</ele>
        <time>2021-06-03T07:22:49.074Z</time>
      </trkpt>
      <trkpt lat="48.60579" lon="-3.83618">
        <ele>65</ele>
        <time>2021-06-03T07:22:54.066Z</time>
      </trkpt>
      <trkpt lat="48.60583" lon="-3.83623">
        <ele>65</ele>
        <time>2021-06-03T07:22:58.072Z</time>
      </trkpt>
      <trkpt lat="48.60588" lon="-3.8363">
        <ele>64</ele>
        <time>2021-06-03T07:23:03.072Z</time>
      </trkpt>
      <trkpt lat="48.60591" lon="-3.83636">
        <ele>64</ele>
        <time>2021-06-03T07:23:07.083Z</time>
      </trkpt>
      <trkpt lat="48.60595" lon="-3.83643">
        <ele>64</ele>
        <time>2021-06-03T07:23:12.069Z</time>
      </trkpt>
      <trkpt lat="48.60598" lon="-3.83649">
        <ele>65</ele>
        <time>2021-06-03T07:23:16.081Z</time>
      </trkpt>
      <trkpt lat="48.60602" lon="-3.83655">
        <ele>64</ele>
        <time>2021-06-03T07:23:20.094Z</time>
      </trkpt>
      <trkpt lat="48.60609" lon="-3.83656">
        <ele>64</ele>
        <time>2021-06-03T07:23:25.075Z</time>
      </trkpt>
      <trkpt lat="48.60613" lon="-3.8366">
        <ele>64</ele>
        <time>2021-06-03T07:23:29.078Z</time>
      </trkpt>
      <trkpt lat="48.60618" lon="-3.8366">
        <ele>64</ele>
        <time>2021-06-03T07:23:33.092Z</time>
      </trkpt>
      <trkpt lat="48.60618" lon="-3.83655">
        <ele>64</ele>
        <time>2021-06-03T07:23:38.085Z</time>
      </trkpt>
      <trkpt lat="48.60618" lon="-3.83655">
        <ele>64</ele>
        <time>2021-06-03T07:23:43.088Z</time>
      </trkpt>
      <trkpt lat="48.60616" lon="-3.83662">
        <ele>64</ele>
        <time>2021-06-03T07:23:47.095Z</time>
      </trkpt>
      <trkpt lat="48.60622" lon="-3.83672">
        <ele>64</ele>
        <time>2021-06-03T07:23:52.072Z</time>
      </trkpt>
      <trkpt lat="48.60629" lon="-3.83676">
        <ele>64</ele>
        <time>2021-06-03T07:23:57.074Z</time>
      </trkpt>
      <trkpt lat="48.60635" lon="-3.83679">
        <ele>64</ele>
        <time>2021-06-03T07:24:02.073Z</time>
      </trkpt>
      <trkpt lat="48.60641" lon="-3.83681">
        <ele>64</ele>
        <time>2021-06-03T07:24:07.064Z</time>
      </trkpt>
      <trkpt lat="48.60647" lon="-3.83684">
        <ele>64</ele>
        <time>2021-06-03T07:24:12.077Z</time>
      </trkpt>
      <trkpt lat="48.60652" lon="-3.83687">
        <ele>64</ele>
        <time>2021-06-03T07:24:16.086Z</time>
      </trkpt>
      <trkpt lat="48.60656" lon="-3.83688">
        <ele>63</ele>
        <time>2021-06-03T07:24:20.092Z</time>
      </trkpt>
      <trkpt lat="48.60662" lon="-3.83688">
        <ele>63</ele>
        <time>2021-06-03T07:24:25.061Z</time>
      </trkpt>
      <trkpt lat="48.60666" lon="-3.83693">
        <ele>63</ele>
        <time>2021-06-03T07:24:29.081Z</time>
      </trkpt>
      <trkpt lat="48.60673" lon="-3.83697">
        <ele>63</ele>
        <time>2021-06-03T07:24:34.086Z</time>
      </trkpt>
      <trkpt lat="48.60678" lon="-3.83699">
        <ele>63</ele>
        <time>2021-06-03T07:24:38.091Z</time>
      </trkpt>
      <trkpt lat="48.60683" lon="-3.83703">
        <ele>62</ele>
        <time>2021-06-03T07:24:43.075Z</time>
      </trkpt>
      <trkpt lat="48.60689" lon="-3.83706">
        <ele>62</ele>
        <time>2021-06-03T07:24:47.083Z</time>
      </trkpt>
      <trkpt lat="48.60696" lon="-3.83711">
        <ele>62</ele>
        <time>2021-06-03T07:24:52.078Z</time>
      </trkpt>
      <trkpt lat="48.607" lon="-3.83713">
        <ele>62</ele>
        <time>2021-06-03T07:24:56.093Z</time>
      </trkpt>
      <trkpt lat="48.60706" lon="-3.83716">
        <ele>62</ele>
        <time>2021-06-03T07:25:01.083Z</time>
      </trkpt>
      <trkpt lat="48.6071" lon="-3.8372">
        <ele>62</ele>
        <time>2021-06-03T07:25:05.091Z</time>
      </trkpt>
      <trkpt lat="48.60715" lon="-3.83725">
        <ele>62</ele>
        <time>2021-06-03T07:25:10.065Z</time>
      </trkpt>
      <trkpt lat="48.60719" lon="-3.8373">
        <ele>62</ele>
        <time>2021-06-03T07:25:14.077Z</time>
      </trkpt>
      <trkpt lat="48.60723" lon="-3.83734">
        <ele>62</ele>
        <time>2021-06-03T07:25:18.089Z</time>
      </trkpt>
      <trkpt lat="48.60728" lon="-3.8374">
        <ele>62</ele>
        <time>2021-06-03T07:25:23.088Z</time>
      </trkpt>
      <trkpt lat="48.60732" lon="-3.83747">
        <ele>62</ele>
        <time>2021-06-03T07:25:28.082Z</time>
      </trkpt>
      <trkpt lat="48.60737" lon="-3.83753">
        <ele>63</ele>
        <time>2021-06-03T07:25:33.083Z</time>
      </trkpt>
      <trkpt lat="48.60741" lon="-3.83761">
        <ele>63</ele>
        <time>2021-06-03T07:25:38.077Z</time>
      </trkpt>
      <trkpt lat="48.60744" lon="-3.83767">
        <ele>62</ele>
        <time>2021-06-03T07:25:42.090Z</time>
      </trkpt>
      <trkpt lat="48.60747" lon="-3.83776">
        <ele>62</ele>
        <time>2021-06-03T07:25:47.093Z</time>
      </trkpt>
      <trkpt lat="48.6075" lon="-3.83787">
        <ele>62</ele>
        <time>2021-06-03T07:25:52.093Z</time>
      </trkpt>
      <trkpt lat="48.60751" lon="-3.83797">
        <ele>62</ele>
        <time>2021-06-03T07:25:57.091Z</time>
      </trkpt>
      <trkpt lat="48.60751" lon="-3.83805">
        <ele>62</ele>
        <time>2021-06-03T07:26:01.106Z</time>
      </trkpt>
      <trkpt lat="48.60752" lon="-3.83813">
        <ele>62</ele>
        <time>2021-06-03T07:26:05.193Z</time>
      </trkpt>
      <trkpt lat="48.60754" lon="-3.83823">
        <ele>60</ele>
        <time>2021-06-03T07:26:10.087Z</time>
      </trkpt>
      <trkpt lat="48.60755" lon="-3.83832">
        <ele>60</ele>
        <time>2021-06-03T07:26:15.092Z</time>
      </trkpt>
      <trkpt lat="48.60758" lon="-3.83841">
        <ele>60</ele>
        <time>2021-06-03T07:26:20.069Z</time>
      </trkpt>
      <trkpt lat="48.6076" lon="-3.8385">
        <ele>59</ele>
        <time>2021-06-03T07:26:25.087Z</time>
      </trkpt>
      <trkpt lat="48.60762" lon="-3.8386">
        <ele>59</ele>
        <time>2021-06-03T07:26:30.073Z</time>
      </trkpt>
      <trkpt lat="48.60763" lon="-3.83869">
        <ele>59</ele>
        <time>2021-06-03T07:26:34.121Z</time>
      </trkpt>
      <trkpt lat="48.60764" lon="-3.83879">
        <ele>60</ele>
        <time>2021-06-03T07:26:39.096Z</time>
      </trkpt>
      <trkpt lat="48.60766" lon="-3.83888">
        <ele>60</ele>
        <time>2021-06-03T07:26:44.088Z</time>
      </trkpt>
      <trkpt lat="48.60768" lon="-3.83898">
        <ele>60</ele>
        <time>2021-06-03T07:26:49.074Z</time>
      </trkpt>
      <trkpt lat="48.60769" lon="-3.83905">
        <ele>59</ele>
        <time>2021-06-03T07:26:53.077Z</time>
      </trkpt>
      <trkpt lat="48.60771" lon="-3.83914">
        <ele>59</ele>
        <time>2021-06-03T07:26:58.068Z</time>
      </trkpt>
      <trkpt lat="48.60772" lon="-3.83922">
        <ele>59</ele>
        <time>2021-06-03T07:27:02.077Z</time>
      </trkpt>
      <trkpt lat="48.60774" lon="-3.83931">
        <ele>59</ele>
        <time>2021-06-03T07:27:07.088Z</time>
      </trkpt>
      <trkpt lat="48.60777" lon="-3.83939">
        <ele>59</ele>
        <time>2021-06-03T07:27:12.070Z</time>
      </trkpt>
      <trkpt lat="48.60778" lon="-3.83947">
        <ele>59</ele>
        <time>2021-06-03T07:27:16.072Z</time>
      </trkpt>
      <trkpt lat="48.6078" lon="-3.83955">
        <ele>59</ele>
        <time>2021-06-03T07:27:21.093Z</time>
      </trkpt>
      <trkpt lat="48.60782" lon="-3.83964">
        <ele>58</ele>
        <time>2021-06-03T07:27:26.061Z</time>
      </trkpt>
      <trkpt lat="48.60784" lon="-3.83971">
        <ele>58</ele>
        <time>2021-06-03T07:27:30.067Z</time>
      </trkpt>
      <trkpt lat="48.60785" lon="-3.83978">
        <ele>58</ele>
        <time>2021-06-03T07:27:34.072Z</time>
      </trkpt>
      <trkpt lat="48.60786" lon="-3.83986">
        <ele>57</ele>
        <time>2021-06-03T07:27:39.084Z</time>
      </trkpt>
      <trkpt lat="48.60789" lon="-3.83996">
        <ele>57</ele>
        <time>2021-06-03T07:27:44.090Z</time>
      </trkpt>
      <trkpt lat="48.60791" lon="-3.84006">
        <ele>57</ele>
        <time>2021-06-03T07:27:49.095Z</time>
      </trkpt>
      <trkpt lat="48.60795" lon="-3.84013">
        <ele>59</ele>
        <time>2021-06-03T07:27:54.086Z</time>
      </trkpt>
      <trkpt lat="48.608" lon="-3.84021">
        <ele>58</ele>
        <time>2021-06-03T07:27:59.079Z</time>
      </trkpt>
      <trkpt lat="48.60804" lon="-3.84026">
        <ele>58</ele>
        <time>2021-06-03T07:28:03.086Z</time>
      </trkpt>
      <trkpt lat="48.60809" lon="-3.84031">
        <ele>58</ele>
        <time>2021-06-03T07:28:08.086Z</time>
      </trkpt>
      <trkpt lat="48.60816" lon="-3.84035">
        <ele>58</ele>
        <time>2021-06-03T07:28:13.076Z</time>
      </trkpt>
      <trkpt lat="48.6082" lon="-3.84038">
        <ele>58</ele>
        <time>2021-06-03T07:28:17.084Z</time>
      </trkpt>
      <trkpt lat="48.60826" lon="-3.84041">
        <ele>58</ele>
        <time>2021-06-03T07:28:22.077Z</time>
      </trkpt>
      <trkpt lat="48.60833" lon="-3.84044">
        <ele>57</ele>
        <time>2021-06-03T07:28:27.077Z</time>
      </trkpt>
      <trkpt lat="48.60837" lon="-3.84049">
        <ele>57</ele>
        <time>2021-06-03T07:28:32.071Z</time>
      </trkpt>
      <trkpt lat="48.60843" lon="-3.84051">
        <ele>57</ele>
        <time>2021-06-03T07:28:36.085Z</time>
      </trkpt>
      <trkpt lat="48.60849" lon="-3.84055">
        <ele>58</ele>
        <time>2021-06-03T07:28:41.078Z</time>
      </trkpt>
      <trkpt lat="48.60856" lon="-3.84058">
        <ele>58</ele>
        <time>2021-06-03T07:28:46.080Z</time>
      </trkpt>
      <trkpt lat="48.60862" lon="-3.84061">
        <ele>58</ele>
        <time>2021-06-03T07:28:51.075Z</time>
      </trkpt>
      <trkpt lat="48.60867" lon="-3.84063">
        <ele>58</ele>
        <time>2021-06-03T07:28:55.088Z</time>
      </trkpt>
      <trkpt lat="48.60873" lon="-3.84066">
        <ele>58</ele>
        <time>2021-06-03T07:29:00.095Z</time>
      </trkpt>
      <trkpt lat="48.60879" lon="-3.84068">
        <ele>59</ele>
        <time>2021-06-03T07:29:05.080Z</time>
      </trkpt>
      <trkpt lat="48.60884" lon="-3.8407">
        <ele>58</ele>
        <time>2021-06-03T07:29:09.086Z</time>
      </trkpt>
      <trkpt lat="48.60891" lon="-3.84072">
        <ele>58</ele>
        <time>2021-06-03T07:29:14.089Z</time>
      </trkpt>
      <trkpt lat="48.60898" lon="-3.84075">
        <ele>58</ele>
        <time>2021-06-03T07:29:19.088Z</time>
      </trkpt>
      <trkpt lat="48.60904" lon="-3.84078">
        <ele>59</ele>
        <time>2021-06-03T07:29:24.088Z</time>
      </trkpt>
      <trkpt lat="48.6091" lon="-3.8408">
        <ele>59</ele>
        <time>2021-06-03T07:29:29.069Z</time>
      </trkpt>
      <trkpt lat="48.60917" lon="-3.84083">
        <ele>59</ele>
        <time>2021-06-03T07:29:34.071Z</time>
      </trkpt>
      <trkpt lat="48.60923" lon="-3.84085">
        <ele>59</ele>
        <time>2021-06-03T07:29:38.089Z</time>
      </trkpt>
      <trkpt lat="48.60929" lon="-3.84087">
        <ele>59</ele>
        <time>2021-06-03T07:29:43.091Z</time>
      </trkpt>
      <trkpt lat="48.60935" lon="-3.84091">
        <ele>60</ele>
        <time>2021-06-03T07:29:48.089Z</time>
      </trkpt>
      <trkpt lat="48.60939" lon="-3.84092">
        <ele>60</ele>
        <time>2021-06-03T07:29:52.093Z</time>
      </trkpt>
      <trkpt lat="48.60945" lon="-3.84094">
        <ele>60</ele>
        <time>2021-06-03T07:29:57.087Z</time>
      </trkpt>
      <trkpt lat="48.60951" lon="-3.84097">
        <ele>61</ele>
        <time>2021-06-03T07:30:02.091Z</time>
      </trkpt>
      <trkpt lat="48.60955" lon="-3.84101">
        <ele>61</ele>
        <time>2021-06-03T07:30:07.089Z</time>
      </trkpt>
      <trkpt lat="48.60959" lon="-3.84103">
        <ele>62</ele>
        <time>2021-06-03T07:30:12.075Z</time>
      </trkpt>
      <trkpt lat="48.60963" lon="-3.84106">
        <ele>62</ele>
        <time>2021-06-03T07:30:17.061Z</time>
      </trkpt>
      <trkpt lat="48.60967" lon="-3.84109">
        <ele>62</ele>
        <time>2021-06-03T07:30:21.077Z</time>
      </trkpt>
      <trkpt lat="48.60972" lon="-3.84111">
        <ele>62</ele>
        <time>2021-06-03T07:30:26.073Z</time>
      </trkpt>
      <trkpt lat="48.60977" lon="-3.84112">
        <ele>62</ele>
        <time>2021-06-03T07:30:31.074Z</time>
      </trkpt>
      <trkpt lat="48.60981" lon="-3.84113">
        <ele>62</ele>
        <time>2021-06-03T07:30:35.086Z</time>
      </trkpt>
      <trkpt lat="48.60987" lon="-3.84115">
        <ele>63</ele>
        <time>2021-06-03T07:30:40.068Z</time>
      </trkpt>
      <trkpt lat="48.60991" lon="-3.84117">
        <ele>63</ele>
        <time>2021-06-03T07:30:44.077Z</time>
      </trkpt>
      <trkpt lat="48.60996" lon="-3.84119">
        <ele>63</ele>
        <time>2021-06-03T07:30:49.172Z</time>
      </trkpt>
      <trkpt lat="48.61002" lon="-3.84121">
        <ele>63</ele>
        <time>2021-06-03T07:30:54.077Z</time>
      </trkpt>
      <trkpt lat="48.61007" lon="-3.84123">
        <ele>63</ele>
        <time>2021-06-03T07:30:59.071Z</time>
      </trkpt>
      <trkpt lat="48.61011" lon="-3.84124">
        <ele>63</ele>
        <time>2021-06-03T07:31:03.079Z</time>
      </trkpt>
      <trkpt lat="48.61017" lon="-3.84126">
        <ele>65</ele>
        <time>2021-06-03T07:31:08.064Z</time>
      </trkpt>
      <trkpt lat="48.61021" lon="-3.84128">
        <ele>65</ele>
        <time>2021-06-03T07:31:12.064Z</time>
      </trkpt>
      <trkpt lat="48.61026" lon="-3.8413">
        <ele>65</ele>
        <time>2021-06-03T07:31:17.077Z</time>
      </trkpt>
      <trkpt lat="48.61032" lon="-3.84133">
        <ele>65</ele>
        <time>2021-06-03T07:31:22.070Z</time>
      </trkpt>
      <trkpt lat="48.61038" lon="-3.84136">
        <ele>65</ele>
        <time>2021-06-03T07:31:27.079Z</time>
      </trkpt>
      <trkpt lat="48.61043" lon="-3.84138">
        <ele>68</ele>
        <time>2021-06-03T07:31:31.092Z</time>
      </trkpt>
      <trkpt lat="48.61049" lon="-3.84141">
        <ele>68</ele>
        <time>2021-06-03T07:31:36.111Z</time>
      </trkpt>
      <trkpt lat="48.61055" lon="-3.84144">
        <ele>68</ele>
        <time>2021-06-03T07:31:41.091Z</time>
      </trkpt>
      <trkpt lat="48.61061" lon="-3.84146">
        <ele>68</ele>
        <time>2021-06-03T07:31:46.078Z</time>
      </trkpt>
      <trkpt lat="48.61067" lon="-3.84149">
        <ele>68</ele>
        <time>2021-06-03T07:31:51.091Z</time>
      </trkpt>
      <trkpt lat="48.61072" lon="-3.84152">
        <ele>69</ele>
        <time>2021-06-03T07:31:56.106Z</time>
      </trkpt>
      <trkpt lat="48.61077" lon="-3.84155">
        <ele>68</ele>
        <time>2021-06-03T07:32:01.091Z</time>
      </trkpt>
      <trkpt lat="48.61082" lon="-3.84159">
        <ele>68</ele>
        <time>2021-06-03T07:32:06.082Z</time>
      </trkpt>
      <trkpt lat="48.61087" lon="-3.84165">
        <ele>68</ele>
        <time>2021-06-03T07:32:11.094Z</time>
      </trkpt>
      <trkpt lat="48.61091" lon="-3.84172">
        <ele>68</ele>
        <time>2021-06-03T07:32:16.088Z</time>
      </trkpt>
      <trkpt lat="48.61095" lon="-3.84181">
        <ele>67</ele>
        <time>2021-06-03T07:32:21.102Z</time>
      </trkpt>
      <trkpt lat="48.61098" lon="-3.84187">
        <ele>69</ele>
        <time>2021-06-03T07:32:25.213Z</time>
      </trkpt>
      <trkpt lat="48.61102" lon="-3.84194">
        <ele>69</ele>
        <time>2021-06-03T07:32:30.106Z</time>
      </trkpt>
      <trkpt lat="48.61107" lon="-3.84198">
        <ele>69</ele>
        <time>2021-06-03T07:32:35.077Z</time>
      </trkpt>
      <trkpt lat="48.61111" lon="-3.84199">
        <ele>69</ele>
        <time>2021-06-03T07:32:39.075Z</time>
      </trkpt>
      <trkpt lat="48.61117" lon="-3.842">
        <ele>69</ele>
        <time>2021-06-03T07:32:44.061Z</time>
      </trkpt>
      <trkpt lat="48.61123" lon="-3.84201">
        <ele>69</ele>
        <time>2021-06-03T07:32:48.085Z</time>
      </trkpt>
      <trkpt lat="48.61129" lon="-3.84202">
        <ele>69</ele>
        <time>2021-06-03T07:32:53.072Z</time>
      </trkpt>
      <trkpt lat="48.61135" lon="-3.84208">
        <ele>69</ele>
        <time>2021-06-03T07:32:58.064Z</time>
      </trkpt>
      <trkpt lat="48.61138" lon="-3.84214">
        <ele>68</ele>
        <time>2021-06-03T07:33:02.064Z</time>
      </trkpt>
      <trkpt lat="48.61141" lon="-3.84222">
        <ele>68</ele>
        <time>2021-06-03T07:33:07.078Z</time>
      </trkpt>
      <trkpt lat="48.61142" lon="-3.84231">
        <ele>68</ele>
        <time>2021-06-03T07:33:11.078Z</time>
      </trkpt>
      <trkpt lat="48.61143" lon="-3.84242">
        <ele>68</ele>
        <time>2021-06-03T07:33:16.069Z</time>
      </trkpt>
      <trkpt lat="48.61145" lon="-3.8425">
        <ele>68</ele>
        <time>2021-06-03T07:33:20.069Z</time>
      </trkpt>
      <trkpt lat="48.61146" lon="-3.84259">
        <ele>68</ele>
        <time>2021-06-03T07:33:25.061Z</time>
      </trkpt>
      <trkpt lat="48.61147" lon="-3.84269">
        <ele>69</ele>
        <time>2021-06-03T07:33:30.065Z</time>
      </trkpt>
      <trkpt lat="48.61148" lon="-3.84278">
        <ele>69</ele>
        <time>2021-06-03T07:33:35.072Z</time>
      </trkpt>
      <trkpt lat="48.61148" lon="-3.84289">
        <ele>69</ele>
        <time>2021-06-03T07:33:40.095Z</time>
      </trkpt>
      <trkpt lat="48.61149" lon="-3.84297">
        <ele>70</ele>
        <time>2021-06-03T07:33:45.088Z</time>
      </trkpt>
      <trkpt lat="48.61149" lon="-3.84305">
        <ele>70</ele>
        <time>2021-06-03T07:33:49.111Z</time>
      </trkpt>
      <trkpt lat="48.61147" lon="-3.84312">
        <ele>70</ele>
        <time>2021-06-03T07:33:54.090Z</time>
      </trkpt>
      <trkpt lat="48.61147" lon="-3.84319">
        <ele>70</ele>
        <time>2021-06-03T07:33:59.072Z</time>
      </trkpt>
      <trkpt lat="48.61146" lon="-3.84321">
        <ele>70</ele>
        <time>2021-06-03T07:34:03.096Z</time>
      </trkpt>
      <trkpt lat="48.6115" lon="-3.84326">
        <ele>70</ele>
        <time>2021-06-03T07:34:08.087Z</time>
      </trkpt>
      <trkpt lat="48.61153" lon="-3.84329">
        <ele>69</ele>
        <time>2021-06-03T07:34:12.089Z</time>
      </trkpt>
      <trkpt lat="48.61155" lon="-3.8433">
        <ele>69</ele>
        <time>2021-06-03T07:34:17.085Z</time>
      </trkpt>
      <trkpt lat="48.61154" lon="-3.8433">
        <ele>69</ele>
        <time>2021-06-03T07:34:36.160Z</time>
      </trkpt>
      <trkpt lat="48.61156" lon="-3.84329">
        <ele>69</ele>
        <time>2021-06-03T07:34:41.095Z</time>
      </trkpt>
      <trkpt lat="48.61153" lon="-3.84326">
        <ele>70</ele>
        <time>2021-06-03T07:34:46.089Z</time>
      </trkpt>
      <trkpt lat="48.61149" lon="-3.84324">
        <ele>70</ele>
        <time>2021-06-03T07:34:51.086Z</time>
      </trkpt>
      <trkpt lat="48.61146" lon="-3.84321">
        <ele>70</ele>
        <time>2021-06-03T07:34:55.086Z</time>
      </trkpt>
      <trkpt lat="48.61154" lon="-3.84321">
        <ele>69</ele>
        <time>2021-06-03T07:37:05.064Z</time>
      </trkpt>
      <trkpt lat="48.61154" lon="-3.8432">
        <ele>69</ele>
        <time>2021-06-03T07:37:10.065Z</time>
      </trkpt>
      <trkpt lat="48.61154" lon="-3.84321">
        <ele>69</ele>
        <time>2021-06-03T07:37:14.073Z</time>
      </trkpt>
      <trkpt lat="48.61154" lon="-3.84321">
        <ele>69</ele>
        <time>2021-06-03T07:37:18.091Z</time>
      </trkpt>
      <trkpt lat="48.61155" lon="-3.84321">
        <ele>69</ele>
        <time>2021-06-03T07:37:23.066Z</time>
      </trkpt>
      <trkpt lat="48.61155" lon="-3.84322">
        <ele>69</ele>
        <time>2021-06-03T07:37:47.079Z</time>
      </trkpt>
      <trkpt lat="48.61155" lon="-3.84322">
        <ele>69</ele>
        <time>2021-06-03T07:37:52.074Z</time>
      </trkpt>
      <trkpt lat="48.61155" lon="-3.84323">
        <ele>69</ele>
        <time>2021-06-03T07:37:57.072Z</time>
      </trkpt>
      <trkpt lat="48.61159" lon="-3.84327">
        <ele>69</ele>
        <time>2021-06-03T07:38:01.071Z</time>
      </trkpt>
      <trkpt lat="48.61164" lon="-3.84331">
        <ele>69</ele>
        <time>2021-06-03T07:38:06.076Z</time>
      </trkpt>
      <trkpt lat="48.61171" lon="-3.84334">
        <ele>69</ele>
        <time>2021-06-03T07:38:11.077Z</time>
      </trkpt>
      <trkpt lat="48.61178" lon="-3.84338">
        <ele>69</ele>
        <time>2021-06-03T07:38:16.067Z</time>
      </trkpt>
      <trkpt lat="48.61185" lon="-3.84341">
        <ele>68</ele>
        <time>2021-06-03T07:38:21.068Z</time>
      </trkpt>
      <trkpt lat="48.61191" lon="-3.84342">
        <ele>68</ele>
        <time>2021-06-03T07:38:25.172Z</time>
      </trkpt>
      <trkpt lat="48.61198" lon="-3.84343">
        <ele>68</ele>
        <time>2021-06-03T07:38:30.070Z</time>
      </trkpt>
      <trkpt lat="48.61205" lon="-3.84345">
        <ele>68</ele>
        <time>2021-06-03T07:38:35.065Z</time>
      </trkpt>
      <trkpt lat="48.61211" lon="-3.84348">
        <ele>69</ele>
        <time>2021-06-03T07:38:40.079Z</time>
      </trkpt>
      <trkpt lat="48.61219" lon="-3.8435">
        <ele>69</ele>
        <time>2021-06-03T07:38:45.070Z</time>
      </trkpt>
      <trkpt lat="48.61226" lon="-3.84351">
        <ele>69</ele>
        <time>2021-06-03T07:38:50.093Z</time>
      </trkpt>
      <trkpt lat="48.61233" lon="-3.84351">
        <ele>69</ele>
        <time>2021-06-03T07:38:55.065Z</time>
      </trkpt>
      <trkpt lat="48.61241" lon="-3.84353">
        <ele>70</ele>
        <time>2021-06-03T07:39:00.072Z</time>
      </trkpt>
      <trkpt lat="48.61246" lon="-3.84352">
        <ele>70</ele>
        <time>2021-06-03T07:39:04.074Z</time>
      </trkpt>
      <trkpt lat="48.61253" lon="-3.84351">
        <ele>70</ele>
        <time>2021-06-03T07:39:09.069Z</time>
      </trkpt>
      <trkpt lat="48.61256" lon="-3.84352">
        <ele>70</ele>
        <time>2021-06-03T07:39:13.076Z</time>
      </trkpt>
      <trkpt lat="48.61264" lon="-3.84352">
        <ele>70</ele>
        <time>2021-06-03T07:39:18.064Z</time>
      </trkpt>
      <trkpt lat="48.6127" lon="-3.84352">
        <ele>70</ele>
        <time>2021-06-03T07:39:22.074Z</time>
      </trkpt>
      <trkpt lat="48.61277" lon="-3.8435">
        <ele>70</ele>
        <time>2021-06-03T07:39:27.068Z</time>
      </trkpt>
      <trkpt lat="48.61285" lon="-3.84349">
        <ele>70</ele>
        <time>2021-06-03T07:39:32.067Z</time>
      </trkpt>
      <trkpt lat="48.61291" lon="-3.84348">
        <ele>70</ele>
        <time>2021-06-03T07:39:36.082Z</time>
      </trkpt>
      <trkpt lat="48.61299" lon="-3.84347">
        <ele>69</ele>
        <time>2021-06-03T07:39:41.077Z</time>
      </trkpt>
      <trkpt lat="48.61307" lon="-3.84348">
        <ele>69</ele>
        <time>2021-06-03T07:39:46.077Z</time>
      </trkpt>
      <trkpt lat="48.61315" lon="-3.84347">
        <ele>69</ele>
        <time>2021-06-03T07:39:51.074Z</time>
      </trkpt>
      <trkpt lat="48.61323" lon="-3.84345">
        <ele>67</ele>
        <time>2021-06-03T07:39:56.071Z</time>
      </trkpt>
      <trkpt lat="48.61329" lon="-3.84341">
        <ele>67</ele>
        <time>2021-06-03T07:40:01.071Z</time>
      </trkpt>
      <trkpt lat="48.61332" lon="-3.8434">
        <ele>67</ele>
        <time>2021-06-03T07:40:05.083Z</time>
      </trkpt>
      <trkpt lat="48.61338" lon="-3.84338">
        <ele>67</ele>
        <time>2021-06-03T07:40:10.095Z</time>
      </trkpt>
      <trkpt lat="48.61344" lon="-3.84336">
        <ele>67</ele>
        <time>2021-06-03T07:40:15.069Z</time>
      </trkpt>
      <trkpt lat="48.61347" lon="-3.84334">
        <ele>65</ele>
        <time>2021-06-03T07:40:19.090Z</time>
      </trkpt>
      <trkpt lat="48.61353" lon="-3.8433">
        <ele>65</ele>
        <time>2021-06-03T07:40:24.080Z</time>
      </trkpt>
      <trkpt lat="48.61359" lon="-3.84328">
        <ele>65</ele>
        <time>2021-06-03T07:40:29.073Z</time>
      </trkpt>
      <trkpt lat="48.61363" lon="-3.84327">
        <ele>65</ele>
        <time>2021-06-03T07:40:33.079Z</time>
      </trkpt>
      <trkpt lat="48.61369" lon="-3.84324">
        <ele>65</ele>
        <time>2021-06-03T07:40:38.077Z</time>
      </trkpt>
      <trkpt lat="48.61381" lon="-3.84323">
        <ele>64</ele>
        <time>2021-06-03T07:40:53.093Z</time>
      </trkpt>
      <trkpt lat="48.61381" lon="-3.84324">
        <ele>64</ele>
        <time>2021-06-03T07:40:58.094Z</time>
      </trkpt>
      <trkpt lat="48.61381" lon="-3.84324">
        <ele>64</ele>
        <time>2021-06-03T07:41:03.092Z</time>
      </trkpt>
      <trkpt lat="48.61382" lon="-3.84325">
        <ele>64</ele>
        <time>2021-06-03T07:41:08.072Z</time>
      </trkpt>
      <trkpt lat="48.61384" lon="-3.84324">
        <ele>64</ele>
        <time>2021-06-03T07:41:12.063Z</time>
      </trkpt>
      <trkpt lat="48.61389" lon="-3.84323">
        <ele>64</ele>
        <time>2021-06-03T07:41:17.065Z</time>
      </trkpt>
      <trkpt lat="48.61393" lon="-3.84323">
        <ele>64</ele>
        <time>2021-06-03T07:41:21.072Z</time>
      </trkpt>
      <trkpt lat="48.61396" lon="-3.84323">
        <ele>64</ele>
        <time>2021-06-03T07:41:25.079Z</time>
      </trkpt>
      <trkpt lat="48.61402" lon="-3.84322">
        <ele>64</ele>
        <time>2021-06-03T07:41:30.082Z</time>
      </trkpt>
      <trkpt lat="48.61407" lon="-3.84323">
        <ele>63</ele>
        <time>2021-06-03T07:41:35.080Z</time>
      </trkpt>
      <trkpt lat="48.61413" lon="-3.84323">
        <ele>63</ele>
        <time>2021-06-03T07:41:40.068Z</time>
      </trkpt>
      <trkpt lat="48.61419" lon="-3.84325">
        <ele>63</ele>
        <time>2021-06-03T07:41:45.071Z</time>
      </trkpt>
      <trkpt lat="48.61423" lon="-3.84325">
        <ele>63</ele>
        <time>2021-06-03T07:41:49.075Z</time>
      </trkpt>
      <trkpt lat="48.61436" lon="-3.84323">
        <ele>61</ele>
        <time>2021-06-03T07:42:12.076Z</time>
      </trkpt>
      <trkpt lat="48.61436" lon="-3.84324">
        <ele>61</ele>
        <time>2021-06-03T07:42:17.080Z</time>
      </trkpt>
      <trkpt lat="48.61437" lon="-3.84324">
        <ele>61</ele>
        <time>2021-06-03T07:42:22.074Z</time>
      </trkpt>
      <trkpt lat="48.61437" lon="-3.84324">
        <ele>61</ele>
        <time>2021-06-03T07:42:27.081Z</time>
      </trkpt>
      <trkpt lat="48.61438" lon="-3.84323">
        <ele>61</ele>
        <time>2021-06-03T07:42:32.066Z</time>
      </trkpt>
      <trkpt lat="48.61441" lon="-3.84321">
        <ele>61</ele>
        <time>2021-06-03T07:42:36.084Z</time>
      </trkpt>
      <trkpt lat="48.61444" lon="-3.84322">
        <ele>61</ele>
        <time>2021-06-03T07:42:41.079Z</time>
      </trkpt>
      <trkpt lat="48.61447" lon="-3.84323">
        <ele>61</ele>
        <time>2021-06-03T07:42:46.070Z</time>
      </trkpt>
      <trkpt lat="48.61449" lon="-3.84326">
        <ele>61</ele>
        <time>2021-06-03T07:42:50.077Z</time>
      </trkpt>
      <trkpt lat="48.61454" lon="-3.84326">
        <ele>61</ele>
        <time>2021-06-03T07:42:55.068Z</time>
      </trkpt>
      <trkpt lat="48.61457" lon="-3.84324">
        <ele>61</ele>
        <time>2021-06-03T07:42:59.079Z</time>
      </trkpt>
      <trkpt lat="48.61459" lon="-3.84327">
        <ele>60</ele>
        <time>2021-06-03T07:43:03.076Z</time>
      </trkpt>
      <trkpt lat="48.61462" lon="-3.84325">
        <ele>60</ele>
        <time>2021-06-03T07:43:08.073Z</time>
      </trkpt>
      <trkpt lat="48.61466" lon="-3.84326">
        <ele>60</ele>
        <time>2021-06-03T07:43:13.071Z</time>
      </trkpt>
      <trkpt lat="48.6147" lon="-3.84326">
        <ele>60</ele>
        <time>2021-06-03T07:43:17.076Z</time>
      </trkpt>
      <trkpt lat="48.61475" lon="-3.84323">
        <ele>60</ele>
        <time>2021-06-03T07:43:22.074Z</time>
      </trkpt>
      <trkpt lat="48.6148" lon="-3.84322">
        <ele>60</ele>
        <time>2021-06-03T07:43:27.067Z</time>
      </trkpt>
      <trkpt lat="48.61485" lon="-3.84321">
        <ele>60</ele>
        <time>2021-06-03T07:43:31.074Z</time>
      </trkpt>
      <trkpt lat="48.6149" lon="-3.8432">
        <ele>60</ele>
        <time>2021-06-03T07:43:35.083Z</time>
      </trkpt>
      <trkpt lat="48.61496" lon="-3.84316">
        <ele>62</ele>
        <time>2021-06-03T07:43:40.067Z</time>
      </trkpt>
      <trkpt lat="48.61501" lon="-3.84315">
        <ele>62</ele>
        <time>2021-06-03T07:43:44.080Z</time>
      </trkpt>
      <trkpt lat="48.61509" lon="-3.84313">
        <ele>62</ele>
        <time>2021-06-03T07:43:49.076Z</time>
      </trkpt>
      <trkpt lat="48.61515" lon="-3.84311">
        <ele>62</ele>
        <time>2021-06-03T07:43:54.078Z</time>
      </trkpt>
      <trkpt lat="48.61522" lon="-3.84308">
        <ele>62</ele>
        <time>2021-06-03T07:43:59.079Z</time>
      </trkpt>
      <trkpt lat="48.6153" lon="-3.84306">
        <ele>62</ele>
        <time>2021-06-03T07:44:04.079Z</time>
      </trkpt>
      <trkpt lat="48.61537" lon="-3.84306">
        <ele>62</ele>
        <time>2021-06-03T07:44:09.067Z</time>
      </trkpt>
      <trkpt lat="48.61544" lon="-3.84306">
        <ele>62</ele>
        <time>2021-06-03T07:44:14.069Z</time>
      </trkpt>
      <trkpt lat="48.61549" lon="-3.84306">
        <ele>62</ele>
        <time>2021-06-03T07:44:18.073Z</time>
      </trkpt>
      <trkpt lat="48.61555" lon="-3.84305">
        <ele>62</ele>
        <time>2021-06-03T07:44:23.069Z</time>
      </trkpt>
      <trkpt lat="48.61562" lon="-3.84302">
        <ele>62</ele>
        <time>2021-06-03T07:44:28.066Z</time>
      </trkpt>
      <trkpt lat="48.61568" lon="-3.843">
        <ele>62</ele>
        <time>2021-06-03T07:44:32.135Z</time>
      </trkpt>
      <trkpt lat="48.61577" lon="-3.84297">
        <ele>62</ele>
        <time>2021-06-03T07:44:37.064Z</time>
      </trkpt>
      <trkpt lat="48.61583" lon="-3.84291">
        <ele>64</ele>
        <time>2021-06-03T07:44:42.070Z</time>
      </trkpt>
      <trkpt lat="48.61588" lon="-3.84287">
        <ele>64</ele>
        <time>2021-06-03T07:44:46.075Z</time>
      </trkpt>
      <trkpt lat="48.61593" lon="-3.84284">
        <ele>64</ele>
        <time>2021-06-03T07:44:51.075Z</time>
      </trkpt>
      <trkpt lat="48.61597" lon="-3.8428">
        <ele>64</ele>
        <time>2021-06-03T07:44:56.080Z</time>
      </trkpt>
      <trkpt lat="48.61603" lon="-3.84276">
        <ele>64</ele>
        <time>2021-06-03T07:45:01.072Z</time>
      </trkpt>
      <trkpt lat="48.61609" lon="-3.84274">
        <ele>64</ele>
        <time>2021-06-03T07:45:06.082Z</time>
      </trkpt>
      <trkpt lat="48.61612" lon="-3.84268">
        <ele>64</ele>
        <time>2021-06-03T07:45:11.079Z</time>
      </trkpt>
      <trkpt lat="48.61616" lon="-3.84265">
        <ele>64</ele>
        <time>2021-06-03T07:45:15.085Z</time>
      </trkpt>
      <trkpt lat="48.61618" lon="-3.84271">
        <ele>64</ele>
        <time>2021-06-03T07:45:20.067Z</time>
      </trkpt>
      <trkpt lat="48.61623" lon="-3.84269">
        <ele>64</ele>
        <time>2021-06-03T07:45:24.072Z</time>
      </trkpt>
      <trkpt lat="48.61629" lon="-3.84267">
        <ele>64</ele>
        <time>2021-06-03T07:45:28.079Z</time>
      </trkpt>
      <trkpt lat="48.61635" lon="-3.84264">
        <ele>64</ele>
        <time>2021-06-03T07:45:33.093Z</time>
      </trkpt>
      <trkpt lat="48.61641" lon="-3.8426">
        <ele>64</ele>
        <time>2021-06-03T07:45:38.067Z</time>
      </trkpt>
      <trkpt lat="48.61646" lon="-3.84257">
        <ele>64</ele>
        <time>2021-06-03T07:45:43.078Z</time>
      </trkpt>
      <trkpt lat="48.61654" lon="-3.84255">
        <ele>65</ele>
        <time>2021-06-03T07:45:48.068Z</time>
      </trkpt>
      <trkpt lat="48.61659" lon="-3.84254">
        <ele>65</ele>
        <time>2021-06-03T07:45:52.116Z</time>
      </trkpt>
      <trkpt lat="48.61666" lon="-3.84254">
        <ele>65</ele>
        <time>2021-06-03T07:45:57.075Z</time>
      </trkpt>
      <trkpt lat="48.61671" lon="-3.84255">
        <ele>65</ele>
        <time>2021-06-03T07:46:01.088Z</time>
      </trkpt>
      <trkpt lat="48.61677" lon="-3.84253">
        <ele>65</ele>
        <time>2021-06-03T07:46:06.082Z</time>
      </trkpt>
      <trkpt lat="48.61683" lon="-3.84253">
        <ele>68</ele>
        <time>2021-06-03T07:46:11.076Z</time>
      </trkpt>
      <trkpt lat="48.6169" lon="-3.84252">
        <ele>68</ele>
        <time>2021-06-03T07:46:16.081Z</time>
      </trkpt>
      <trkpt lat="48.61697" lon="-3.84252">
        <ele>68</ele>
        <time>2021-06-03T07:46:21.081Z</time>
      </trkpt>
      <trkpt lat="48.61704" lon="-3.8425">
        <ele>68</ele>
        <time>2021-06-03T07:46:26.072Z</time>
      </trkpt>
      <trkpt lat="48.61709" lon="-3.84251">
        <ele>69</ele>
        <time>2021-06-03T07:46:30.069Z</time>
      </trkpt>
      <trkpt lat="48.61716" lon="-3.84251">
        <ele>69</ele>
        <time>2021-06-03T07:46:35.073Z</time>
      </trkpt>
      <trkpt lat="48.61723" lon="-3.84251">
        <ele>69</ele>
        <time>2021-06-03T07:46:40.076Z</time>
      </trkpt>
      <trkpt lat="48.61732" lon="-3.84252">
        <ele>69</ele>
        <time>2021-06-03T07:46:45.074Z</time>
      </trkpt>
      <trkpt lat="48.6174" lon="-3.84254">
        <ele>69</ele>
        <time>2021-06-03T07:46:50.070Z</time>
      </trkpt>
      <trkpt lat="48.61749" lon="-3.84256">
        <ele>69</ele>
        <time>2021-06-03T07:46:55.079Z</time>
      </trkpt>
      <trkpt lat="48.61756" lon="-3.84256">
        <ele>69</ele>
        <time>2021-06-03T07:47:00.068Z</time>
      </trkpt>
      <trkpt lat="48.61763" lon="-3.84257">
        <ele>69</ele>
        <time>2021-06-03T07:47:05.079Z</time>
      </trkpt>
      <trkpt lat="48.6177" lon="-3.84259">
        <ele>69</ele>
        <time>2021-06-03T07:47:10.092Z</time>
      </trkpt>
      <trkpt lat="48.61777" lon="-3.8426">
        <ele>69</ele>
        <time>2021-06-03T07:47:15.067Z</time>
      </trkpt>
      <trkpt lat="48.61782" lon="-3.84263">
        <ele>69</ele>
        <time>2021-06-03T07:47:19.070Z</time>
      </trkpt>
      <trkpt lat="48.61788" lon="-3.84266">
        <ele>68</ele>
        <time>2021-06-03T07:47:24.074Z</time>
      </trkpt>
      <trkpt lat="48.61793" lon="-3.84267">
        <ele>68</ele>
        <time>2021-06-03T07:47:28.078Z</time>
      </trkpt>
      <trkpt lat="48.618" lon="-3.84268">
        <ele>68</ele>
        <time>2021-06-03T07:47:33.064Z</time>
      </trkpt>
      <trkpt lat="48.61807" lon="-3.84271">
        <ele>68</ele>
        <time>2021-06-03T07:47:38.069Z</time>
      </trkpt>
      <trkpt lat="48.61813" lon="-3.84274">
        <ele>68</ele>
        <time>2021-06-03T07:47:43.069Z</time>
      </trkpt>
      <trkpt lat="48.61818" lon="-3.84275">
        <ele>68</ele>
        <time>2021-06-03T07:47:48.065Z</time>
      </trkpt>
      <trkpt lat="48.61824" lon="-3.84277">
        <ele>69</ele>
        <time>2021-06-03T07:47:53.065Z</time>
      </trkpt>
      <trkpt lat="48.61828" lon="-3.84279">
        <ele>69</ele>
        <time>2021-06-03T07:47:57.078Z</time>
      </trkpt>
      <trkpt lat="48.61834" lon="-3.84282">
        <ele>69</ele>
        <time>2021-06-03T07:48:02.073Z</time>
      </trkpt>
      <trkpt lat="48.61839" lon="-3.84284">
        <ele>69</ele>
        <time>2021-06-03T07:48:06.072Z</time>
      </trkpt>
      <trkpt lat="48.61845" lon="-3.84287">
        <ele>69</ele>
        <time>2021-06-03T07:48:11.080Z</time>
      </trkpt>
      <trkpt lat="48.61851" lon="-3.84288">
        <ele>69</ele>
        <time>2021-06-03T07:48:16.074Z</time>
      </trkpt>
      <trkpt lat="48.61855" lon="-3.8429">
        <ele>69</ele>
        <time>2021-06-03T07:48:20.077Z</time>
      </trkpt>
      <trkpt lat="48.6186" lon="-3.84293">
        <ele>69</ele>
        <time>2021-06-03T07:48:25.085Z</time>
      </trkpt>
      <trkpt lat="48.61866" lon="-3.84295">
        <ele>69</ele>
        <time>2021-06-03T07:48:30.064Z</time>
      </trkpt>
      <trkpt lat="48.61873" lon="-3.84299">
        <ele>69</ele>
        <time>2021-06-03T07:48:35.066Z</time>
      </trkpt>
      <trkpt lat="48.61877" lon="-3.843">
        <ele>72</ele>
        <time>2021-06-03T07:48:39.079Z</time>
      </trkpt>
      <trkpt lat="48.61883" lon="-3.84304">
        <ele>72</ele>
        <time>2021-06-03T07:48:44.065Z</time>
      </trkpt>
      <trkpt lat="48.61889" lon="-3.84305">
        <ele>72</ele>
        <time>2021-06-03T07:48:48.089Z</time>
      </trkpt>
      <trkpt lat="48.61895" lon="-3.84304">
        <ele>72</ele>
        <time>2021-06-03T07:48:53.176Z</time>
      </trkpt>
      <trkpt lat="48.61901" lon="-3.84307">
        <ele>72</ele>
        <time>2021-06-03T07:48:58.074Z</time>
      </trkpt>
      <trkpt lat="48.61907" lon="-3.84308">
        <ele>75</ele>
        <time>2021-06-03T07:49:03.072Z</time>
      </trkpt>
      <trkpt lat="48.61912" lon="-3.84309">
        <ele>75</ele>
        <time>2021-06-03T07:49:07.084Z</time>
      </trkpt>
      <trkpt lat="48.61918" lon="-3.84309">
        <ele>75</ele>
        <time>2021-06-03T07:49:12.082Z</time>
      </trkpt>
      <trkpt lat="48.61922" lon="-3.8431">
        <ele>75</ele>
        <time>2021-06-03T07:49:16.089Z</time>
      </trkpt>
      <trkpt lat="48.61928" lon="-3.84309">
        <ele>75</ele>
        <time>2021-06-03T07:49:21.083Z</time>
      </trkpt>
      <trkpt lat="48.61934" lon="-3.84309">
        <ele>77</ele>
        <time>2021-06-03T07:49:26.076Z</time>
      </trkpt>
      <trkpt lat="48.61938" lon="-3.84308">
        <ele>77</ele>
        <time>2021-06-03T07:49:30.081Z</time>
      </trkpt>
      <trkpt lat="48.61943" lon="-3.84308">
        <ele>77</ele>
        <time>2021-06-03T07:49:34.089Z</time>
      </trkpt>
      <trkpt lat="48.61949" lon="-3.84307">
        <ele>77</ele>
        <time>2021-06-03T07:49:39.070Z</time>
      </trkpt>
      <trkpt lat="48.61955" lon="-3.84305">
        <ele>77</ele>
        <time>2021-06-03T07:49:44.073Z</time>
      </trkpt>
      <trkpt lat="48.61959" lon="-3.84306">
        <ele>80</ele>
        <time>2021-06-03T07:49:48.077Z</time>
      </trkpt>
      <trkpt lat="48.61964" lon="-3.84304">
        <ele>80</ele>
        <time>2021-06-03T07:49:53.076Z</time>
      </trkpt>
      <trkpt lat="48.61968" lon="-3.84303">
        <ele>80</ele>
        <time>2021-06-03T07:49:57.081Z</time>
      </trkpt>
      <trkpt lat="48.61974" lon="-3.843">
        <ele>80</ele>
        <time>2021-06-03T07:50:02.075Z</time>
      </trkpt>
      <trkpt lat="48.61979" lon="-3.84299">
        <ele>80</ele>
        <time>2021-06-03T07:50:06.089Z</time>
      </trkpt>
      <trkpt lat="48.61984" lon="-3.84296">
        <ele>80</ele>
        <time>2021-06-03T07:50:11.082Z</time>
      </trkpt>
      <trkpt lat="48.6199" lon="-3.84292">
        <ele>81</ele>
        <time>2021-06-03T07:50:16.080Z</time>
      </trkpt>
      <trkpt lat="48.61996" lon="-3.84289">
        <ele>78</ele>
        <time>2021-06-03T07:50:21.092Z</time>
      </trkpt>
      <trkpt lat="48.62002" lon="-3.84286">
        <ele>78</ele>
        <time>2021-06-03T07:50:26.088Z</time>
      </trkpt>
      <trkpt lat="48.62008" lon="-3.84283">
        <ele>78</ele>
        <time>2021-06-03T07:50:31.073Z</time>
      </trkpt>
      <trkpt lat="48.62013" lon="-3.84279">
        <ele>78</ele>
        <time>2021-06-03T07:50:35.072Z</time>
      </trkpt>
      <trkpt lat="48.62017" lon="-3.84273">
        <ele>79</ele>
        <time>2021-06-03T07:50:39.095Z</time>
      </trkpt>
      <trkpt lat="48.62022" lon="-3.84266">
        <ele>79</ele>
        <time>2021-06-03T07:50:44.080Z</time>
      </trkpt>
      <trkpt lat="48.62026" lon="-3.84259">
        <ele>76</ele>
        <time>2021-06-03T07:50:49.085Z</time>
      </trkpt>
      <trkpt lat="48.62029" lon="-3.84254">
        <ele>76</ele>
        <time>2021-06-03T07:50:53.089Z</time>
      </trkpt>
      <trkpt lat="48.62031" lon="-3.84246">
        <ele>76</ele>
        <time>2021-06-03T07:50:58.079Z</time>
      </trkpt>
      <trkpt lat="48.62032" lon="-3.84239">
        <ele>76</ele>
        <time>2021-06-03T07:51:02.092Z</time>
      </trkpt>
      <trkpt lat="48.62032" lon="-3.84229">
        <ele>74</ele>
        <time>2021-06-03T07:51:07.074Z</time>
      </trkpt>
      <trkpt lat="48.62032" lon="-3.84221">
        <ele>74</ele>
        <time>2021-06-03T07:51:11.092Z</time>
      </trkpt>
      <trkpt lat="48.62032" lon="-3.84211">
        <ele>74</ele>
        <time>2021-06-03T07:51:16.086Z</time>
      </trkpt>
      <trkpt lat="48.62032" lon="-3.84202">
        <ele>71</ele>
        <time>2021-06-03T07:51:21.087Z</time>
      </trkpt>
      <trkpt lat="48.62032" lon="-3.84194">
        <ele>71</ele>
        <time>2021-06-03T07:51:26.087Z</time>
      </trkpt>
      <trkpt lat="48.62033" lon="-3.84185">
        <ele>71</ele>
        <time>2021-06-03T07:51:31.072Z</time>
      </trkpt>
      <trkpt lat="48.62033" lon="-3.84179">
        <ele>69</ele>
        <time>2021-06-03T07:51:35.086Z</time>
      </trkpt>
      <trkpt lat="48.62034" lon="-3.8417">
        <ele>69</ele>
        <time>2021-06-03T07:51:40.072Z</time>
      </trkpt>
      <trkpt lat="48.62034" lon="-3.84161">
        <ele>69</ele>
        <time>2021-06-03T07:51:45.086Z</time>
      </trkpt>
      <trkpt lat="48.62034" lon="-3.84152">
        <ele>67</ele>
        <time>2021-06-03T07:51:50.085Z</time>
      </trkpt>
      <trkpt lat="48.62035" lon="-3.84142">
        <ele>67</ele>
        <time>2021-06-03T07:51:55.071Z</time>
      </trkpt>
      <trkpt lat="48.62034" lon="-3.84135">
        <ele>67</ele>
        <time>2021-06-03T07:51:59.083Z</time>
      </trkpt>
      <trkpt lat="48.62036" lon="-3.84125">
        <ele>67</ele>
        <time>2021-06-03T07:52:04.076Z</time>
      </trkpt>
      <trkpt lat="48.62035" lon="-3.84117">
        <ele>65</ele>
        <time>2021-06-03T07:52:09.060Z</time>
      </trkpt>
      <trkpt lat="48.62036" lon="-3.84109">
        <ele>65</ele>
        <time>2021-06-03T07:52:13.088Z</time>
      </trkpt>
      <trkpt lat="48.62035" lon="-3.841">
        <ele>65</ele>
        <time>2021-06-03T07:52:18.078Z</time>
      </trkpt>
      <trkpt lat="48.62034" lon="-3.84092">
        <ele>63</ele>
        <time>2021-06-03T07:52:23.082Z</time>
      </trkpt>
      <trkpt lat="48.62034" lon="-3.84084">
        <ele>63</ele>
        <time>2021-06-03T07:52:28.070Z</time>
      </trkpt>
      <trkpt lat="48.62032" lon="-3.84078">
        <ele>63</ele>
        <time>2021-06-03T07:52:32.085Z</time>
      </trkpt>
      <trkpt lat="48.62031" lon="-3.84068">
        <ele>62</ele>
        <time>2021-06-03T07:52:37.072Z</time>
      </trkpt>
      <trkpt lat="48.62029" lon="-3.8406">
        <ele>62</ele>
        <time>2021-06-03T07:52:42.070Z</time>
      </trkpt>
      <trkpt lat="48.62027" lon="-3.84053">
        <ele>62</ele>
        <time>2021-06-03T07:52:46.075Z</time>
      </trkpt>
      <trkpt lat="48.62025" lon="-3.84047">
        <ele>62</ele>
        <time>2021-06-03T07:52:51.075Z</time>
      </trkpt>
      <trkpt lat="48.62022" lon="-3.8404">
        <ele>60</ele>
        <time>2021-06-03T07:52:56.062Z</time>
      </trkpt>
      <trkpt lat="48.6202" lon="-3.84034">
        <ele>60</ele>
        <time>2021-06-03T07:53:00.076Z</time>
      </trkpt>
      <trkpt lat="48.62016" lon="-3.84027">
        <ele>60</ele>
        <time>2021-06-03T07:53:05.068Z</time>
      </trkpt>
      <trkpt lat="48.62016" lon="-3.84021">
        <ele>60</ele>
        <time>2021-06-03T07:53:09.080Z</time>
      </trkpt>
      <trkpt lat="48.62015" lon="-3.84015">
        <ele>60</ele>
        <time>2021-06-03T07:53:13.086Z</time>
      </trkpt>
      <trkpt lat="48.62015" lon="-3.84008">
        <ele>59</ele>
        <time>2021-06-03T07:53:18.089Z</time>
      </trkpt>
      <trkpt lat="48.62015" lon="-3.84">
        <ele>59</ele>
        <time>2021-06-03T07:53:23.073Z</time>
      </trkpt>
      <trkpt lat="48.62015" lon="-3.83991">
        <ele>59</ele>
        <time>2021-06-03T07:53:28.087Z</time>
      </trkpt>
      <trkpt lat="48.62015" lon="-3.83982">
        <ele>59</ele>
        <time>2021-06-03T07:53:33.090Z</time>
      </trkpt>
      <trkpt lat="48.62017" lon="-3.83973">
        <ele>59</ele>
        <time>2021-06-03T07:53:38.088Z</time>
      </trkpt>
      <trkpt lat="48.62022" lon="-3.83968">
        <ele>59</ele>
        <time>2021-06-03T07:53:43.071Z</time>
      </trkpt>
      <trkpt lat="48.62027" lon="-3.83965">
        <ele>59</ele>
        <time>2021-06-03T07:53:47.088Z</time>
      </trkpt>
      <trkpt lat="48.62033" lon="-3.83963">
        <ele>59</ele>
        <time>2021-06-03T07:53:52.078Z</time>
      </trkpt>
      <trkpt lat="48.62037" lon="-3.83964">
        <ele>59</ele>
        <time>2021-06-03T07:53:56.089Z</time>
      </trkpt>
      <trkpt lat="48.62043" lon="-3.83959">
        <ele>58</ele>
        <time>2021-06-03T07:54:01.080Z</time>
      </trkpt>
      <trkpt lat="48.62047" lon="-3.83958">
        <ele>56</ele>
        <time>2021-06-03T07:54:05.085Z</time>
      </trkpt>
      <trkpt lat="48.62051" lon="-3.83959">
        <ele>58</ele>
        <time>2021-06-03T07:54:10.081Z</time>
      </trkpt>
      <trkpt lat="48.62055" lon="-3.83958">
        <ele>56</ele>
        <time>2021-06-03T07:54:14.088Z</time>
      </trkpt>
      <trkpt lat="48.62059" lon="-3.83956">
        <ele>56</ele>
        <time>2021-06-03T07:54:19.074Z</time>
      </trkpt>
      <trkpt lat="48.62064" lon="-3.83954">
        <ele>56</ele>
        <time>2021-06-03T07:54:24.073Z</time>
      </trkpt>
      <trkpt lat="48.62068" lon="-3.83953">
        <ele>56</ele>
        <time>2021-06-03T07:54:28.077Z</time>
      </trkpt>
      <trkpt lat="48.62073" lon="-3.83951">
        <ele>54</ele>
        <time>2021-06-03T07:54:33.074Z</time>
      </trkpt>
      <trkpt lat="48.62078" lon="-3.83951">
        <ele>54</ele>
        <time>2021-06-03T07:54:37.075Z</time>
      </trkpt>
      <trkpt lat="48.62081" lon="-3.83951">
        <ele>54</ele>
        <time>2021-06-03T07:54:41.090Z</time>
      </trkpt>
      <trkpt lat="48.62084" lon="-3.83949">
        <ele>54</ele>
        <time>2021-06-03T07:54:46.070Z</time>
      </trkpt>
      <trkpt lat="48.62088" lon="-3.83947">
        <ele>54</ele>
        <time>2021-06-03T07:54:50.080Z</time>
      </trkpt>
      <trkpt lat="48.62092" lon="-3.83944">
        <ele>54</ele>
        <time>2021-06-03T07:54:55.077Z</time>
      </trkpt>
      <trkpt lat="48.62097" lon="-3.83944">
        <ele>54</ele>
        <time>2021-06-03T07:55:00.066Z</time>
      </trkpt>
      <trkpt lat="48.621" lon="-3.83947">
        <ele>52</ele>
        <time>2021-06-03T07:55:05.068Z</time>
      </trkpt>
      <trkpt lat="48.62107" lon="-3.83947">
        <ele>52</ele>
        <time>2021-06-03T07:55:10.069Z</time>
      </trkpt>
      <trkpt lat="48.62114" lon="-3.8395">
        <ele>52</ele>
        <time>2021-06-03T07:55:39.066Z</time>
      </trkpt>
      <trkpt lat="48.62114" lon="-3.83942">
        <ele>52</ele>
        <time>2021-06-03T07:55:44.069Z</time>
      </trkpt>
      <trkpt lat="48.62118" lon="-3.83939">
        <ele>52</ele>
        <time>2021-06-03T07:55:48.078Z</time>
      </trkpt>
      <trkpt lat="48.62121" lon="-3.83937">
        <ele>52</ele>
        <time>2021-06-03T07:55:53.076Z</time>
      </trkpt>
      <trkpt lat="48.62126" lon="-3.83933">
        <ele>49</ele>
        <time>2021-06-03T07:55:57.086Z</time>
      </trkpt>
      <trkpt lat="48.6213" lon="-3.83928">
        <ele>49</ele>
        <time>2021-06-03T07:56:02.068Z</time>
      </trkpt>
      <trkpt lat="48.62133" lon="-3.83922">
        <ele>49</ele>
        <time>2021-06-03T07:56:06.078Z</time>
      </trkpt>
      <trkpt lat="48.62139" lon="-3.83916">
        <ele>49</ele>
        <time>2021-06-03T07:56:11.076Z</time>
      </trkpt>
      <trkpt lat="48.62145" lon="-3.83908">
        <ele>49</ele>
        <time>2021-06-03T07:56:16.076Z</time>
      </trkpt>
      <trkpt lat="48.62147" lon="-3.83902">
        <ele>50</ele>
        <time>2021-06-03T07:56:20.078Z</time>
      </trkpt>
      <trkpt lat="48.6215" lon="-3.83897">
        <ele>50</ele>
        <time>2021-06-03T07:56:24.087Z</time>
      </trkpt>
      <trkpt lat="48.62153" lon="-3.8389">
        <ele>45</ele>
        <time>2021-06-03T07:56:29.075Z</time>
      </trkpt>
      <trkpt lat="48.62158" lon="-3.83882">
        <ele>45</ele>
        <time>2021-06-03T07:56:34.084Z</time>
      </trkpt>
      <trkpt lat="48.62161" lon="-3.83876">
        <ele>45</ele>
        <time>2021-06-03T07:56:38.090Z</time>
      </trkpt>
      <trkpt lat="48.62166" lon="-3.8387">
        <ele>44</ele>
        <time>2021-06-03T07:56:43.078Z</time>
      </trkpt>
      <trkpt lat="48.6217" lon="-3.83864">
        <ele>44</ele>
        <time>2021-06-03T07:56:48.075Z</time>
      </trkpt>
      <trkpt lat="48.62174" lon="-3.8386">
        <ele>44</ele>
        <time>2021-06-03T07:56:53.075Z</time>
      </trkpt>
      <trkpt lat="48.62177" lon="-3.83857">
        <ele>44</ele>
        <time>2021-06-03T07:56:57.075Z</time>
      </trkpt>
      <trkpt lat="48.62182" lon="-3.8385">
        <ele>37</ele>
        <time>2021-06-03T07:57:02.071Z</time>
      </trkpt>
      <trkpt lat="48.62187" lon="-3.83845">
        <ele>38</ele>
        <time>2021-06-03T07:57:07.061Z</time>
      </trkpt>
      <trkpt lat="48.6219" lon="-3.8384">
        <ele>38</ele>
        <time>2021-06-03T07:57:11.090Z</time>
      </trkpt>
      <trkpt lat="48.62194" lon="-3.83832">
        <ele>38</ele>
        <time>2021-06-03T07:57:16.087Z</time>
      </trkpt>
      <trkpt lat="48.62197" lon="-3.83824">
        <ele>38</ele>
        <time>2021-06-03T07:57:21.081Z</time>
      </trkpt>
      <trkpt lat="48.62202" lon="-3.83819">
        <ele>39</ele>
        <time>2021-06-03T07:57:26.090Z</time>
      </trkpt>
      <trkpt lat="48.62205" lon="-3.83816">
        <ele>39</ele>
        <time>2021-06-03T07:57:31.058Z</time>
      </trkpt>
      <trkpt lat="48.62209" lon="-3.83817">
        <ele>33</ele>
        <time>2021-06-03T07:57:35.076Z</time>
      </trkpt>
      <trkpt lat="48.62212" lon="-3.83808">
        <ele>33</ele>
        <time>2021-06-03T07:57:40.079Z</time>
      </trkpt>
      <trkpt lat="48.62216" lon="-3.83803">
        <ele>33</ele>
        <time>2021-06-03T07:57:44.082Z</time>
      </trkpt>
      <trkpt lat="48.6222" lon="-3.83796">
        <ele>33</ele>
        <time>2021-06-03T07:57:49.094Z</time>
      </trkpt>
      <trkpt lat="48.6222" lon="-3.83792">
        <ele>33</ele>
        <time>2021-06-03T07:57:53.076Z</time>
      </trkpt>
      <trkpt lat="48.62224" lon="-3.83786">
        <ele>34</ele>
        <time>2021-06-03T07:57:58.069Z</time>
      </trkpt>
      <trkpt lat="48.62227" lon="-3.83779">
        <ele>34</ele>
        <time>2021-06-03T07:58:03.077Z</time>
      </trkpt>
      <trkpt lat="48.62231" lon="-3.83775">
        <ele>34</ele>
        <time>2021-06-03T07:58:08.077Z</time>
      </trkpt>
      <trkpt lat="48.62234" lon="-3.8377">
        <ele>34</ele>
        <time>2021-06-03T07:58:13.078Z</time>
      </trkpt>
      <trkpt lat="48.62238" lon="-3.83764">
        <ele>28</ele>
        <time>2021-06-03T07:58:18.092Z</time>
      </trkpt>
      <trkpt lat="48.62242" lon="-3.83758">
        <ele>28</ele>
        <time>2021-06-03T07:58:23.096Z</time>
      </trkpt>
      <trkpt lat="48.62247" lon="-3.8375">
        <ele>28</ele>
        <time>2021-06-03T07:58:28.076Z</time>
      </trkpt>
      <trkpt lat="48.62251" lon="-3.83744">
        <ele>28</ele>
        <time>2021-06-03T07:58:33.076Z</time>
      </trkpt>
      <trkpt lat="48.62256" lon="-3.83737">
        <ele>28</ele>
        <time>2021-06-03T07:58:38.112Z</time>
      </trkpt>
      <trkpt lat="48.6226" lon="-3.83731">
        <ele>27</ele>
        <time>2021-06-03T07:58:43.089Z</time>
      </trkpt>
      <trkpt lat="48.62262" lon="-3.83725">
        <ele>27</ele>
        <time>2021-06-03T07:58:48.078Z</time>
      </trkpt>
      <trkpt lat="48.62269" lon="-3.83717">
        <ele>21</ele>
        <time>2021-06-03T07:59:11.084Z</time>
      </trkpt>
      <trkpt lat="48.62272" lon="-3.83718">
        <ele>21</ele>
        <time>2021-06-03T07:59:16.089Z</time>
      </trkpt>
      <trkpt lat="48.62274" lon="-3.83722">
        <ele>21</ele>
        <time>2021-06-03T07:59:21.082Z</time>
      </trkpt>
      <trkpt lat="48.62279" lon="-3.83724">
        <ele>21</ele>
        <time>2021-06-03T07:59:26.078Z</time>
      </trkpt>
      <trkpt lat="48.62283" lon="-3.83726">
        <ele>21</ele>
        <time>2021-06-03T07:59:31.079Z</time>
      </trkpt>
      <trkpt lat="48.62287" lon="-3.83728">
        <ele>21</ele>
        <time>2021-06-03T07:59:35.083Z</time>
      </trkpt>
      <trkpt lat="48.62292" lon="-3.83729">
        <ele>15</ele>
        <time>2021-06-03T07:59:40.091Z</time>
      </trkpt>
      <trkpt lat="48.62296" lon="-3.83732">
        <ele>15</ele>
        <time>2021-06-03T07:59:45.079Z</time>
      </trkpt>
      <trkpt lat="48.62301" lon="-3.83733">
        <ele>15</ele>
        <time>2021-06-03T07:59:50.082Z</time>
      </trkpt>
      <trkpt lat="48.62307" lon="-3.83736">
        <ele>17</ele>
        <time>2021-06-03T07:59:55.073Z</time>
      </trkpt>
      <trkpt lat="48.62314" lon="-3.83738">
        <ele>17</ele>
        <time>2021-06-03T07:59:59.089Z</time>
      </trkpt>
      <trkpt lat="48.62322" lon="-3.8374">
        <ele>15</ele>
        <time>2021-06-03T08:00:04.075Z</time>
      </trkpt>
      <trkpt lat="48.62326" lon="-3.83743">
        <ele>15</ele>
        <time>2021-06-03T08:00:08.087Z</time>
      </trkpt>
      <trkpt lat="48.62333" lon="-3.83745">
        <ele>15</ele>
        <time>2021-06-03T08:00:13.085Z</time>
      </trkpt>
      <trkpt lat="48.62339" lon="-3.83749">
        <ele>15</ele>
        <time>2021-06-03T08:00:18.085Z</time>
      </trkpt>
      <trkpt lat="48.62344" lon="-3.83754">
        <ele>15</ele>
        <time>2021-06-03T08:00:23.083Z</time>
      </trkpt>
      <trkpt lat="48.62347" lon="-3.83761">
        <ele>15</ele>
        <time>2021-06-03T08:00:28.084Z</time>
      </trkpt>
      <trkpt lat="48.62349" lon="-3.83766">
        <ele>18</ele>
        <time>2021-06-03T08:00:33.070Z</time>
      </trkpt>
      <trkpt lat="48.62354" lon="-3.83767">
        <ele>18</ele>
        <time>2021-06-03T08:00:37.089Z</time>
      </trkpt>
      <trkpt lat="48.62358" lon="-3.83769">
        <ele>18</ele>
        <time>2021-06-03T08:00:42.085Z</time>
      </trkpt>
      <trkpt lat="48.62362" lon="-3.83775">
        <ele>18</ele>
        <time>2021-06-03T08:00:47.083Z</time>
      </trkpt>
      <trkpt lat="48.62365" lon="-3.83779">
        <ele>18</ele>
        <time>2021-06-03T08:00:51.087Z</time>
      </trkpt>
      <trkpt lat="48.62369" lon="-3.83784">
        <ele>18</ele>
        <time>2021-06-03T08:00:56.086Z</time>
      </trkpt>
      <trkpt lat="48.62373" lon="-3.83789">
        <ele>18</ele>
        <time>2021-06-03T08:01:01.087Z</time>
      </trkpt>
      <trkpt lat="48.62377" lon="-3.83796">
        <ele>16</ele>
        <time>2021-06-03T08:01:06.083Z</time>
      </trkpt>
      <trkpt lat="48.6238" lon="-3.83804">
        <ele>16</ele>
        <time>2021-06-03T08:01:11.085Z</time>
      </trkpt>
      <trkpt lat="48.62383" lon="-3.8381">
        <ele>16</ele>
        <time>2021-06-03T08:01:15.092Z</time>
      </trkpt>
      <trkpt lat="48.62385" lon="-3.83819">
        <ele>16</ele>
        <time>2021-06-03T08:01:20.073Z</time>
      </trkpt>
      <trkpt lat="48.62389" lon="-3.83826">
        <ele>17</ele>
        <time>2021-06-03T08:01:25.062Z</time>
      </trkpt>
      <trkpt lat="48.62391" lon="-3.83831">
        <ele>17</ele>
        <time>2021-06-03T08:01:29.084Z</time>
      </trkpt>
      <trkpt lat="48.62393" lon="-3.83839">
        <ele>17</ele>
        <time>2021-06-03T08:01:34.086Z</time>
      </trkpt>
      <trkpt lat="48.62396" lon="-3.83849">
        <ele>20</ele>
        <time>2021-06-03T08:01:39.070Z</time>
      </trkpt>
      <trkpt lat="48.62399" lon="-3.83856">
        <ele>20</ele>
        <time>2021-06-03T08:01:43.079Z</time>
      </trkpt>
      <trkpt lat="48.62402" lon="-3.83865">
        <ele>20</ele>
        <time>2021-06-03T08:01:48.074Z</time>
      </trkpt>
      <trkpt lat="48.62405" lon="-3.83873">
        <ele>11</ele>
        <time>2021-06-03T08:01:53.072Z</time>
      </trkpt>
      <trkpt lat="48.62407" lon="-3.83879">
        <ele>13</ele>
        <time>2021-06-03T08:01:57.074Z</time>
      </trkpt>
      <trkpt lat="48.6241" lon="-3.83885">
        <ele>13</ele>
        <time>2021-06-03T08:02:01.075Z</time>
      </trkpt>
      <trkpt lat="48.62411" lon="-3.83895">
        <ele>13</ele>
        <time>2021-06-03T08:02:06.086Z</time>
      </trkpt>
      <trkpt lat="48.62413" lon="-3.83904">
        <ele>18</ele>
        <time>2021-06-03T08:02:11.075Z</time>
      </trkpt>
      <trkpt lat="48.62415" lon="-3.83913">
        <ele>18</ele>
        <time>2021-06-03T08:02:16.083Z</time>
      </trkpt>
      <trkpt lat="48.62418" lon="-3.83922">
        <ele>18</ele>
        <time>2021-06-03T08:02:21.067Z</time>
      </trkpt>
      <trkpt lat="48.62421" lon="-3.83928">
        <ele>18</ele>
        <time>2021-06-03T08:02:25.071Z</time>
      </trkpt>
      <trkpt lat="48.62425" lon="-3.83937">
        <ele>24</ele>
        <time>2021-06-03T08:02:30.080Z</time>
      </trkpt>
      <trkpt lat="48.62428" lon="-3.83946">
        <ele>24</ele>
        <time>2021-06-03T08:02:35.073Z</time>
      </trkpt>
      <trkpt lat="48.6243" lon="-3.83953">
        <ele>24</ele>
        <time>2021-06-03T08:02:39.074Z</time>
      </trkpt>
      <trkpt lat="48.62434" lon="-3.8396">
        <ele>17</ele>
        <time>2021-06-03T08:02:44.086Z</time>
      </trkpt>
      <trkpt lat="48.62437" lon="-3.83969">
        <ele>17</ele>
        <time>2021-06-03T08:02:49.078Z</time>
      </trkpt>
      <trkpt lat="48.62442" lon="-3.83974">
        <ele>17</ele>
        <time>2021-06-03T08:02:54.074Z</time>
      </trkpt>
      <trkpt lat="48.62447" lon="-3.8398">
        <ele>17</ele>
        <time>2021-06-03T08:02:59.077Z</time>
      </trkpt>
      <trkpt lat="48.62453" lon="-3.83984">
        <ele>17</ele>
        <time>2021-06-03T08:03:04.071Z</time>
      </trkpt>
      <trkpt lat="48.62459" lon="-3.83989">
        <ele>18</ele>
        <time>2021-06-03T08:03:09.069Z</time>
      </trkpt>
      <trkpt lat="48.62462" lon="-3.83994">
        <ele>18</ele>
        <time>2021-06-03T08:03:13.073Z</time>
      </trkpt>
      <trkpt lat="48.62468" lon="-3.84">
        <ele>18</ele>
        <time>2021-06-03T08:03:18.076Z</time>
      </trkpt>
      <trkpt lat="48.62474" lon="-3.84003">
        <ele>18</ele>
        <time>2021-06-03T08:03:23.076Z</time>
      </trkpt>
      <trkpt lat="48.6248" lon="-3.84007">
        <ele>18</ele>
        <time>2021-06-03T08:03:28.070Z</time>
      </trkpt>
      <trkpt lat="48.62485" lon="-3.84012">
        <ele>18</ele>
        <time>2021-06-03T08:03:33.071Z</time>
      </trkpt>
      <trkpt lat="48.62488" lon="-3.84016">
        <ele>18</ele>
        <time>2021-06-03T08:03:37.077Z</time>
      </trkpt>
      <trkpt lat="48.62491" lon="-3.84023">
        <ele>18</ele>
        <time>2021-06-03T08:03:42.067Z</time>
      </trkpt>
      <trkpt lat="48.62496" lon="-3.84029">
        <ele>18</ele>
        <time>2021-06-03T08:03:47.071Z</time>
      </trkpt>
      <trkpt lat="48.625" lon="-3.84036">
        <ele>18</ele>
        <time>2021-06-03T08:03:51.079Z</time>
      </trkpt>
      <trkpt lat="48.62504" lon="-3.84043">
        <ele>26</ele>
        <time>2021-06-03T08:03:56.081Z</time>
      </trkpt>
      <trkpt lat="48.62511" lon="-3.84047">
        <ele>26</ele>
        <time>2021-06-03T08:04:01.083Z</time>
      </trkpt>
      <trkpt lat="48.62517" lon="-3.84051">
        <ele>20</ele>
        <time>2021-06-03T08:04:06.075Z</time>
      </trkpt>
      <trkpt lat="48.62523" lon="-3.84055">
        <ele>20</ele>
        <time>2021-06-03T08:04:11.083Z</time>
      </trkpt>
      <trkpt lat="48.62528" lon="-3.8406">
        <ele>20</ele>
        <time>2021-06-03T08:04:16.075Z</time>
      </trkpt>
      <trkpt lat="48.62533" lon="-3.84066">
        <ele>20</ele>
        <time>2021-06-03T08:04:20.082Z</time>
      </trkpt>
      <trkpt lat="48.62541" lon="-3.8407">
        <ele>29</ele>
        <time>2021-06-03T08:04:25.072Z</time>
      </trkpt>
      <trkpt lat="48.62546" lon="-3.84075">
        <ele>22</ele>
        <time>2021-06-03T08:04:30.075Z</time>
      </trkpt>
      <trkpt lat="48.62552" lon="-3.8408">
        <ele>22</ele>
        <time>2021-06-03T08:04:34.084Z</time>
      </trkpt>
      <trkpt lat="48.62558" lon="-3.84086">
        <ele>22</ele>
        <time>2021-06-03T08:04:39.073Z</time>
      </trkpt>
      <trkpt lat="48.62563" lon="-3.8409">
        <ele>22</ele>
        <time>2021-06-03T08:04:43.079Z</time>
      </trkpt>
      <trkpt lat="48.6257" lon="-3.84095">
        <ele>14</ele>
        <time>2021-06-03T08:04:48.086Z</time>
      </trkpt>
      <trkpt lat="48.62577" lon="-3.84099">
        <ele>22</ele>
        <time>2021-06-03T08:04:53.072Z</time>
      </trkpt>
      <trkpt lat="48.62582" lon="-3.84105">
        <ele>22</ele>
        <time>2021-06-03T08:04:58.067Z</time>
      </trkpt>
      <trkpt lat="48.62586" lon="-3.84111">
        <ele>22</ele>
        <time>2021-06-03T08:05:02.083Z</time>
      </trkpt>
      <trkpt lat="48.62592" lon="-3.84116">
        <ele>22</ele>
        <time>2021-06-03T08:05:07.075Z</time>
      </trkpt>
      <trkpt lat="48.62599" lon="-3.84119">
        <ele>16</ele>
        <time>2021-06-03T08:05:12.075Z</time>
      </trkpt>
      <trkpt lat="48.62604" lon="-3.84122">
        <ele>16</ele>
        <time>2021-06-03T08:05:16.084Z</time>
      </trkpt>
      <trkpt lat="48.62611" lon="-3.84127">
        <ele>22</ele>
        <time>2021-06-03T08:05:21.081Z</time>
      </trkpt>
      <trkpt lat="48.62615" lon="-3.84132">
        <ele>22</ele>
        <time>2021-06-03T08:05:26.088Z</time>
      </trkpt>
      <trkpt lat="48.62621" lon="-3.84136">
        <ele>22</ele>
        <time>2021-06-03T08:05:31.073Z</time>
      </trkpt>
      <trkpt lat="48.62627" lon="-3.84139">
        <ele>17</ele>
        <time>2021-06-03T08:05:35.074Z</time>
      </trkpt>
      <trkpt lat="48.62633" lon="-3.84141">
        <ele>17</ele>
        <time>2021-06-03T08:05:40.065Z</time>
      </trkpt>
      <trkpt lat="48.6264" lon="-3.84143">
        <ele>17</ele>
        <time>2021-06-03T08:05:45.082Z</time>
      </trkpt>
      <trkpt lat="48.62646" lon="-3.84146">
        <ele>17</ele>
        <time>2021-06-03T08:05:50.080Z</time>
      </trkpt>
      <trkpt lat="48.62652" lon="-3.84153">
        <ele>22</ele>
        <time>2021-06-03T08:05:55.081Z</time>
      </trkpt>
      <trkpt lat="48.62658" lon="-3.84158">
        <ele>15</ele>
        <time>2021-06-03T08:06:00.077Z</time>
      </trkpt>
      <trkpt lat="48.62665" lon="-3.84161">
        <ele>15</ele>
        <time>2021-06-03T08:06:05.083Z</time>
      </trkpt>
      <trkpt lat="48.62671" lon="-3.84164">
        <ele>15</ele>
        <time>2021-06-03T08:06:10.084Z</time>
      </trkpt>
      <trkpt lat="48.62677" lon="-3.84167">
        <ele>15</ele>
        <time>2021-06-03T08:06:15.084Z</time>
      </trkpt>
      <trkpt lat="48.6268" lon="-3.84167">
        <ele>15</ele>
        <time>2021-06-03T08:06:19.100Z</time>
      </trkpt>
      <trkpt lat="48.62678" lon="-3.84173">
        <ele>15</ele>
        <time>2021-06-03T08:06:24.093Z</time>
      </trkpt>
      <trkpt lat="48.6267" lon="-3.84171">
        <ele>15</ele>
        <time>2021-06-03T08:06:29.090Z</time>
      </trkpt>
      <trkpt lat="48.62667" lon="-3.84169">
        <ele>15</ele>
        <time>2021-06-03T08:06:34.073Z</time>
      </trkpt>
      <trkpt lat="48.62667" lon="-3.84169">
        <ele>15</ele>
        <time>2021-06-03T08:07:34.098Z</time>
      </trkpt>
      <trkpt lat="48.62672" lon="-3.84172">
        <ele>15</ele>
        <time>2021-06-03T08:07:39.077Z</time>
      </trkpt>
      <trkpt lat="48.62675" lon="-3.84176">
        <ele>15</ele>
        <time>2021-06-03T08:07:43.080Z</time>
      </trkpt>
      <trkpt lat="48.62679" lon="-3.84183">
        <ele>19</ele>
        <time>2021-06-03T08:07:48.081Z</time>
      </trkpt>
      <trkpt lat="48.62681" lon="-3.84188">
        <ele>9</ele>
        <time>2021-06-03T08:07:52.082Z</time>
      </trkpt>
      <trkpt lat="48.62682" lon="-3.84196">
        <ele>9</ele>
        <time>2021-06-03T08:07:57.073Z</time>
      </trkpt>
      <trkpt lat="48.62682" lon="-3.84205">
        <ele>9</ele>
        <time>2021-06-03T08:08:02.078Z</time>
      </trkpt>
      <trkpt lat="48.62683" lon="-3.84214">
        <ele>13</ele>
        <time>2021-06-03T08:08:07.075Z</time>
      </trkpt>
      <trkpt lat="48.62683" lon="-3.84222">
        <ele>13</ele>
        <time>2021-06-03T08:08:12.078Z</time>
      </trkpt>
      <trkpt lat="48.62684" lon="-3.84231">
        <ele>13</ele>
        <time>2021-06-03T08:08:16.090Z</time>
      </trkpt>
      <trkpt lat="48.62683" lon="-3.84241">
        <ele>14</ele>
        <time>2021-06-03T08:08:21.087Z</time>
      </trkpt>
      <trkpt lat="48.62683" lon="-3.84251">
        <ele>14</ele>
        <time>2021-06-03T08:08:26.072Z</time>
      </trkpt>
      <trkpt lat="48.62682" lon="-3.84261">
        <ele>14</ele>
        <time>2021-06-03T08:08:31.080Z</time>
      </trkpt>
      <trkpt lat="48.6268" lon="-3.84268">
        <ele>27</ele>
        <time>2021-06-03T08:08:35.084Z</time>
      </trkpt>
      <trkpt lat="48.62677" lon="-3.84274">
        <ele>27</ele>
        <time>2021-06-03T08:08:39.086Z</time>
      </trkpt>
      <trkpt lat="48.62673" lon="-3.84282">
        <ele>27</ele>
        <time>2021-06-03T08:08:44.085Z</time>
      </trkpt>
      <trkpt lat="48.62671" lon="-3.84289">
        <ele>27</ele>
        <time>2021-06-03T08:08:48.087Z</time>
      </trkpt>
      <trkpt lat="48.6267" lon="-3.84301">
        <ele>27</ele>
        <time>2021-06-03T08:08:53.080Z</time>
      </trkpt>
      <trkpt lat="48.62669" lon="-3.84313">
        <ele>27</ele>
        <time>2021-06-03T08:08:58.076Z</time>
      </trkpt>
      <trkpt lat="48.62668" lon="-3.84325">
        <ele>28</ele>
        <time>2021-06-03T08:09:03.084Z</time>
      </trkpt>
      <trkpt lat="48.62669" lon="-3.84336">
        <ele>28</ele>
        <time>2021-06-03T08:09:08.083Z</time>
      </trkpt>
      <trkpt lat="48.62668" lon="-3.84347">
        <ele>28</ele>
        <time>2021-06-03T08:09:13.088Z</time>
      </trkpt>
      <trkpt lat="48.62669" lon="-3.84358">
        <ele>30</ele>
        <time>2021-06-03T08:09:18.091Z</time>
      </trkpt>
      <trkpt lat="48.6267" lon="-3.84369">
        <ele>30</ele>
        <time>2021-06-03T08:09:23.074Z</time>
      </trkpt>
      <trkpt lat="48.62671" lon="-3.84378">
        <ele>32</ele>
        <time>2021-06-03T08:09:27.084Z</time>
      </trkpt>
      <trkpt lat="48.62674" lon="-3.84388">
        <ele>32</ele>
        <time>2021-06-03T08:09:32.073Z</time>
      </trkpt>
      <trkpt lat="48.62677" lon="-3.84395">
        <ele>32</ele>
        <time>2021-06-03T08:09:36.081Z</time>
      </trkpt>
      <trkpt lat="48.62678" lon="-3.84405">
        <ele>32</ele>
        <time>2021-06-03T08:09:41.085Z</time>
      </trkpt>
      <trkpt lat="48.62682" lon="-3.84415">
        <ele>18</ele>
        <time>2021-06-03T08:09:46.094Z</time>
      </trkpt>
      <trkpt lat="48.62684" lon="-3.84426">
        <ele>18</ele>
        <time>2021-06-03T08:09:51.077Z</time>
      </trkpt>
      <trkpt lat="48.62686" lon="-3.84435">
        <ele>19</ele>
        <time>2021-06-03T08:09:55.082Z</time>
      </trkpt>
      <trkpt lat="48.62691" lon="-3.84446">
        <ele>19</ele>
        <time>2021-06-03T08:10:00.074Z</time>
      </trkpt>
      <trkpt lat="48.62695" lon="-3.84449">
        <ele>19</ele>
        <time>2021-06-03T08:10:05.081Z</time>
      </trkpt>
      <trkpt lat="48.62694" lon="-3.84451">
        <ele>19</ele>
        <time>2021-06-03T08:10:10.086Z</time>
      </trkpt>
      <trkpt lat="48.62698" lon="-3.84458">
        <ele>19</ele>
        <time>2021-06-03T08:10:15.067Z</time>
      </trkpt>
      <trkpt lat="48.627" lon="-3.84465">
        <ele>19</ele>
        <time>2021-06-03T08:10:19.083Z</time>
      </trkpt>
      <trkpt lat="48.62702" lon="-3.84474">
        <ele>19</ele>
        <time>2021-06-03T08:10:24.092Z</time>
      </trkpt>
      <trkpt lat="48.62703" lon="-3.84483">
        <ele>19</ele>
        <time>2021-06-03T08:10:29.070Z</time>
      </trkpt>
      <trkpt lat="48.62705" lon="-3.84492">
        <ele>18</ele>
        <time>2021-06-03T08:10:33.081Z</time>
      </trkpt>
      <trkpt lat="48.62708" lon="-3.84502">
        <ele>18</ele>
        <time>2021-06-03T08:10:38.084Z</time>
      </trkpt>
      <trkpt lat="48.62708" lon="-3.84512">
        <ele>7</ele>
        <time>2021-06-03T08:10:43.090Z</time>
      </trkpt>
      <trkpt lat="48.62712" lon="-3.84522">
        <ele>6</ele>
        <time>2021-06-03T08:10:48.080Z</time>
      </trkpt>
      <trkpt lat="48.62713" lon="-3.84529">
        <ele>6</ele>
        <time>2021-06-03T08:10:52.092Z</time>
      </trkpt>
      <trkpt lat="48.62715" lon="-3.84537">
        <ele>6</ele>
        <time>2021-06-03T08:10:57.093Z</time>
      </trkpt>
      <trkpt lat="48.62718" lon="-3.84543">
        <ele>4</ele>
        <time>2021-06-03T08:11:02.080Z</time>
      </trkpt>
      <trkpt lat="48.62721" lon="-3.84549">
        <ele>4</ele>
        <time>2021-06-03T08:11:07.082Z</time>
      </trkpt>
      <trkpt lat="48.62725" lon="-3.84551">
        <ele>4</ele>
        <time>2021-06-03T08:11:11.080Z</time>
      </trkpt>
      <trkpt lat="48.62727" lon="-3.84547">
        <ele>4</ele>
        <time>2021-06-03T08:11:16.082Z</time>
      </trkpt>
      <trkpt lat="48.6273" lon="-3.84545">
        <ele>4</ele>
        <time>2021-06-03T08:11:21.068Z</time>
      </trkpt>
      <trkpt lat="48.6273" lon="-3.84545">
        <ele>4</ele>
        <time>2021-06-03T08:11:26.073Z</time>
      </trkpt>
      <trkpt lat="48.62721" lon="-3.84549">
        <ele>4</ele>
        <time>2021-06-03T08:14:49.169Z</time>
      </trkpt>
      <trkpt lat="48.62721" lon="-3.84549">
        <ele>4</ele>
        <time>2021-06-03T08:14:54.092Z</time>
      </trkpt>
      <trkpt lat="48.62721" lon="-3.84549">
        <ele>4</ele>
        <time>2021-06-03T08:14:59.076Z</time>
      </trkpt>
      <trkpt lat="48.62721" lon="-3.84549">
        <ele>4</ele>
        <time>2021-06-03T08:15:04.074Z</time>
      </trkpt>
      <trkpt lat="48.62721" lon="-3.84549">
        <ele>4</ele>
        <time>2021-06-03T08:15:08.078Z</time>
      </trkpt>
      <trkpt lat="48.62721" lon="-3.84549">
        <ele>4</ele>
        <time>2021-06-03T08:20:35.077Z</time>
      </trkpt>
      <trkpt lat="48.62721" lon="-3.84548">
        <ele>4</ele>
        <time>2021-06-03T08:20:40.078Z</time>
      </trkpt>
      <trkpt lat="48.62725" lon="-3.84544">
        <ele>4</ele>
        <time>2021-06-03T08:20:45.081Z</time>
      </trkpt>
      <trkpt lat="48.62727" lon="-3.8454">
        <ele>6</ele>
        <time>2021-06-03T08:20:49.081Z</time>
      </trkpt>
      <trkpt lat="48.6273" lon="-3.84535">
        <ele>6</ele>
        <time>2021-06-03T08:20:53.088Z</time>
      </trkpt>
      <trkpt lat="48.62732" lon="-3.84536">
        <ele>6</ele>
        <time>2021-06-03T08:21:07.076Z</time>
      </trkpt>
      <trkpt lat="48.62733" lon="-3.84531">
        <ele>6</ele>
        <time>2021-06-03T08:21:11.087Z</time>
      </trkpt>
      <trkpt lat="48.62737" lon="-3.84523">
        <ele>3</ele>
        <time>2021-06-03T08:21:16.085Z</time>
      </trkpt>
      <trkpt lat="48.62739" lon="-3.8452">
        <ele>3</ele>
        <time>2021-06-03T08:21:21.076Z</time>
      </trkpt>
      <trkpt lat="48.62742" lon="-3.84517">
        <ele>3</ele>
        <time>2021-06-03T08:21:26.076Z</time>
      </trkpt>
      <trkpt lat="48.62745" lon="-3.84512">
        <ele>4</ele>
        <time>2021-06-03T08:21:30.075Z</time>
      </trkpt>
      <trkpt lat="48.62749" lon="-3.84505">
        <ele>4</ele>
        <time>2021-06-03T08:21:35.079Z</time>
      </trkpt>
      <trkpt lat="48.62752" lon="-3.84499">
        <ele>4</ele>
        <time>2021-06-03T08:21:39.077Z</time>
      </trkpt>
      <trkpt lat="48.62756" lon="-3.84494">
        <ele>4</ele>
        <time>2021-06-03T08:21:43.093Z</time>
      </trkpt>
      <trkpt lat="48.62759" lon="-3.84486">
        <ele>3</ele>
        <time>2021-06-03T08:21:48.073Z</time>
      </trkpt>
      <trkpt lat="48.62759" lon="-3.84476">
        <ele>2.3</ele>
        <time>2021-06-03T08:21:53.084Z</time>
      </trkpt>
      <trkpt lat="48.62764" lon="-3.84471">
        <ele>2</ele>
        <time>2021-06-03T08:21:58.078Z</time>
      </trkpt>
      <trkpt lat="48.62768" lon="-3.84464">
        <ele>2</ele>
        <time>2021-06-03T08:22:03.088Z</time>
      </trkpt>
      <trkpt lat="48.62773" lon="-3.84457">
        <ele>2</ele>
        <time>2021-06-03T08:22:08.079Z</time>
      </trkpt>
      <trkpt lat="48.62776" lon="-3.84452">
        <ele>2</ele>
        <time>2021-06-03T08:22:12.085Z</time>
      </trkpt>
      <trkpt lat="48.6278" lon="-3.84445">
        <ele>2</ele>
        <time>2021-06-03T08:22:17.092Z</time>
      </trkpt>
      <trkpt lat="48.62785" lon="-3.84437">
        <ele>1.7</ele>
        <time>2021-06-03T08:22:22.076Z</time>
      </trkpt>
      <trkpt lat="48.62789" lon="-3.84429">
        <ele>1.5</ele>
        <time>2021-06-03T08:22:27.077Z</time>
      </trkpt>
      <trkpt lat="48.62793" lon="-3.84421">
        <ele>1.2</ele>
        <time>2021-06-03T08:22:32.087Z</time>
      </trkpt>
      <trkpt lat="48.62796" lon="-3.84419">
        <ele>1.1</ele>
        <time>2021-06-03T08:22:36.089Z</time>
      </trkpt>
      <trkpt lat="48.62797" lon="-3.84417">
        <ele>1</ele>
        <time>2021-06-03T08:22:41.086Z</time>
      </trkpt>
      <trkpt lat="48.62801" lon="-3.84408">
        <ele>1</ele>
        <time>2021-06-03T08:22:46.092Z</time>
      </trkpt>
      <trkpt lat="48.62805" lon="-3.84402">
        <ele>1</ele>
        <time>2021-06-03T08:22:51.073Z</time>
      </trkpt>
      <trkpt lat="48.62807" lon="-3.84397">
        <time>2021-06-03T08:22:56.079Z</time>
      </trkpt>
      <trkpt lat="48.62812" lon="-3.84389">
        <time>2021-06-03T08:23:01.088Z</time>
      </trkpt>
      <trkpt lat="48.62817" lon="-3.84382">
        <ele>3</ele>
        <time>2021-06-03T08:23:06.100Z</time>
      </trkpt>
      <trkpt lat="48.62821" lon="-3.84376">
        <ele>2</ele>
        <time>2021-06-03T08:23:11.073Z</time>
      </trkpt>
      <trkpt lat="48.62824" lon="-3.8437">
        <ele>3</ele>
        <time>2021-06-03T08:23:15.080Z</time>
      </trkpt>
      <trkpt lat="48.62829" lon="-3.84363">
        <ele>3</ele>
        <time>2021-06-03T08:23:20.089Z</time>
      </trkpt>
      <trkpt lat="48.62833" lon="-3.84355">
        <ele>3</ele>
        <time>2021-06-03T08:23:25.087Z</time>
      </trkpt>
      <trkpt lat="48.62837" lon="-3.84347">
        <ele>4</ele>
        <time>2021-06-03T08:23:30.081Z</time>
      </trkpt>
      <trkpt lat="48.6284" lon="-3.84341">
        <ele>4</ele>
        <time>2021-06-03T08:23:34.086Z</time>
      </trkpt>
      <trkpt lat="48.62844" lon="-3.84334">
        <ele>4</ele>
        <time>2021-06-03T08:23:39.084Z</time>
      </trkpt>
      <trkpt lat="48.62849" lon="-3.84329">
        <ele>7</ele>
        <time>2021-06-03T08:23:44.075Z</time>
      </trkpt>
      <trkpt lat="48.62856" lon="-3.84329">
        <ele>7</ele>
        <time>2021-06-03T08:23:49.088Z</time>
      </trkpt>
      <trkpt lat="48.6286" lon="-3.84333">
        <ele>7</ele>
        <time>2021-06-03T08:23:53.090Z</time>
      </trkpt>
      <trkpt lat="48.62863" lon="-3.8434">
        <ele>7</ele>
        <time>2021-06-03T08:23:58.075Z</time>
      </trkpt>
      <trkpt lat="48.62864" lon="-3.84344">
        <ele>7</ele>
        <time>2021-06-03T08:24:03.078Z</time>
      </trkpt>
      <trkpt lat="48.62866" lon="-3.84353">
        <ele>6</ele>
        <time>2021-06-03T08:24:07.090Z</time>
      </trkpt>
      <trkpt lat="48.62868" lon="-3.84364">
        <ele>6</ele>
        <time>2021-06-03T08:24:12.071Z</time>
      </trkpt>
      <trkpt lat="48.6287" lon="-3.84371">
        <ele>6</ele>
        <time>2021-06-03T08:24:16.076Z</time>
      </trkpt>
      <trkpt lat="48.62874" lon="-3.8438">
        <ele>4</ele>
        <time>2021-06-03T08:24:21.083Z</time>
      </trkpt>
      <trkpt lat="48.62878" lon="-3.84387">
        <ele>9</ele>
        <time>2021-06-03T08:24:26.080Z</time>
      </trkpt>
      <trkpt lat="48.62882" lon="-3.84392">
        <ele>9</ele>
        <time>2021-06-03T08:24:30.083Z</time>
      </trkpt>
      <trkpt lat="48.62887" lon="-3.84396">
        <ele>9</ele>
        <time>2021-06-03T08:24:34.088Z</time>
      </trkpt>
      <trkpt lat="48.62893" lon="-3.84401">
        <ele>9</ele>
        <time>2021-06-03T08:24:39.089Z</time>
      </trkpt>
      <trkpt lat="48.62898" lon="-3.84407">
        <ele>7</ele>
        <time>2021-06-03T08:24:44.079Z</time>
      </trkpt>
      <trkpt lat="48.62903" lon="-3.84414">
        <ele>11</ele>
        <time>2021-06-03T08:24:49.175Z</time>
      </trkpt>
      <trkpt lat="48.62907" lon="-3.84421">
        <ele>11</ele>
        <time>2021-06-03T08:24:54.083Z</time>
      </trkpt>
      <trkpt lat="48.6291" lon="-3.84428">
        <ele>11</ele>
        <time>2021-06-03T08:24:59.081Z</time>
      </trkpt>
      <trkpt lat="48.62913" lon="-3.84437">
        <ele>9</ele>
        <time>2021-06-03T08:25:04.081Z</time>
      </trkpt>
      <trkpt lat="48.62916" lon="-3.84446">
        <ele>9</ele>
        <time>2021-06-03T08:25:09.082Z</time>
      </trkpt>
      <trkpt lat="48.62919" lon="-3.84453">
        <ele>9</ele>
        <time>2021-06-03T08:25:13.086Z</time>
      </trkpt>
      <trkpt lat="48.62921" lon="-3.84461">
        <ele>8</ele>
        <time>2021-06-03T08:25:18.084Z</time>
      </trkpt>
      <trkpt lat="48.62922" lon="-3.84471">
        <ele>8</ele>
        <time>2021-06-03T08:25:23.085Z</time>
      </trkpt>
      <trkpt lat="48.62923" lon="-3.84481">
        <ele>8</ele>
        <time>2021-06-03T08:25:28.076Z</time>
      </trkpt>
      <trkpt lat="48.62924" lon="-3.8449">
        <ele>6</ele>
        <time>2021-06-03T08:25:33.072Z</time>
      </trkpt>
      <trkpt lat="48.62927" lon="-3.84496">
        <ele>6</ele>
        <time>2021-06-03T08:25:37.111Z</time>
      </trkpt>
      <trkpt lat="48.62931" lon="-3.845">
        <ele>8</ele>
        <time>2021-06-03T08:25:42.080Z</time>
      </trkpt>
      <trkpt lat="48.62935" lon="-3.84505">
        <ele>8</ele>
        <time>2021-06-03T08:25:46.079Z</time>
      </trkpt>
      <trkpt lat="48.62938" lon="-3.8451">
        <ele>8</ele>
        <time>2021-06-03T08:25:51.089Z</time>
      </trkpt>
      <trkpt lat="48.62942" lon="-3.84512">
        <ele>8</ele>
        <time>2021-06-03T08:25:56.093Z</time>
      </trkpt>
      <trkpt lat="48.62946" lon="-3.84517">
        <ele>5</ele>
        <time>2021-06-03T08:26:01.086Z</time>
      </trkpt>
      <trkpt lat="48.6295" lon="-3.84522">
        <ele>5</ele>
        <time>2021-06-03T08:26:05.089Z</time>
      </trkpt>
      <trkpt lat="48.62955" lon="-3.84529">
        <ele>5</ele>
        <time>2021-06-03T08:26:10.081Z</time>
      </trkpt>
      <trkpt lat="48.6296" lon="-3.84534">
        <ele>8</ele>
        <time>2021-06-03T08:26:15.089Z</time>
      </trkpt>
      <trkpt lat="48.62965" lon="-3.84541">
        <ele>8</ele>
        <time>2021-06-03T08:26:20.084Z</time>
      </trkpt>
      <trkpt lat="48.6297" lon="-3.84546">
        <ele>5</ele>
        <time>2021-06-03T08:26:25.085Z</time>
      </trkpt>
      <trkpt lat="48.62975" lon="-3.84552">
        <ele>5</ele>
        <time>2021-06-03T08:26:30.084Z</time>
      </trkpt>
      <trkpt lat="48.62978" lon="-3.84558">
        <ele>5</ele>
        <time>2021-06-03T08:26:35.097Z</time>
      </trkpt>
      <trkpt lat="48.62983" lon="-3.84565">
        <ele>5</ele>
        <time>2021-06-03T08:26:40.082Z</time>
      </trkpt>
      <trkpt lat="48.62987" lon="-3.84571">
        <ele>8</ele>
        <time>2021-06-03T08:26:45.079Z</time>
      </trkpt>
      <trkpt lat="48.62991" lon="-3.84577">
        <ele>8</ele>
        <time>2021-06-03T08:26:49.089Z</time>
      </trkpt>
      <trkpt lat="48.62993" lon="-3.84583">
        <ele>8</ele>
        <time>2021-06-03T08:26:53.089Z</time>
      </trkpt>
      <trkpt lat="48.62997" lon="-3.84591">
        <ele>8</ele>
        <time>2021-06-03T08:26:58.083Z</time>
      </trkpt>
      <trkpt lat="48.63001" lon="-3.846">
        <ele>6</ele>
        <time>2021-06-03T08:27:03.083Z</time>
      </trkpt>
      <trkpt lat="48.63004" lon="-3.84606">
        <ele>6</ele>
        <time>2021-06-03T08:27:07.089Z</time>
      </trkpt>
      <trkpt lat="48.63007" lon="-3.84612">
        <ele>6</ele>
        <time>2021-06-03T08:27:11.086Z</time>
      </trkpt>
      <trkpt lat="48.63012" lon="-3.84618">
        <ele>6</ele>
        <time>2021-06-03T08:27:16.077Z</time>
      </trkpt>
      <trkpt lat="48.63016" lon="-3.84622">
        <ele>9</ele>
        <time>2021-06-03T08:27:20.099Z</time>
      </trkpt>
      <trkpt lat="48.63022" lon="-3.84628">
        <ele>7</ele>
        <time>2021-06-03T08:27:25.089Z</time>
      </trkpt>
      <trkpt lat="48.63027" lon="-3.84633">
        <ele>7</ele>
        <time>2021-06-03T08:27:30.077Z</time>
      </trkpt>
      <trkpt lat="48.63031" lon="-3.84637">
        <ele>7</ele>
        <time>2021-06-03T08:27:34.080Z</time>
      </trkpt>
      <trkpt lat="48.63035" lon="-3.84641">
        <ele>7</ele>
        <time>2021-06-03T08:27:38.098Z</time>
      </trkpt>
      <trkpt lat="48.63039" lon="-3.84646">
        <ele>7</ele>
        <time>2021-06-03T08:27:43.084Z</time>
      </trkpt>
      <trkpt lat="48.63044" lon="-3.84653">
        <ele>7</ele>
        <time>2021-06-03T08:27:48.091Z</time>
      </trkpt>
      <trkpt lat="48.63048" lon="-3.84661">
        <ele>7</ele>
        <time>2021-06-03T08:27:53.091Z</time>
      </trkpt>
      <trkpt lat="48.63052" lon="-3.84667">
        <ele>7</ele>
        <time>2021-06-03T08:27:58.082Z</time>
      </trkpt>
      <trkpt lat="48.63056" lon="-3.84673">
        <ele>7</ele>
        <time>2021-06-03T08:28:02.097Z</time>
      </trkpt>
      <trkpt lat="48.63061" lon="-3.84681">
        <ele>6</ele>
        <time>2021-06-03T08:28:07.088Z</time>
      </trkpt>
      <trkpt lat="48.63065" lon="-3.84687">
        <ele>6</ele>
        <time>2021-06-03T08:28:12.088Z</time>
      </trkpt>
      <trkpt lat="48.63069" lon="-3.84694">
        <ele>6</ele>
        <time>2021-06-03T08:28:17.094Z</time>
      </trkpt>
      <trkpt lat="48.63072" lon="-3.84701">
        <ele>8</ele>
        <time>2021-06-03T08:28:22.079Z</time>
      </trkpt>
      <trkpt lat="48.63076" lon="-3.84708">
        <ele>8</ele>
        <time>2021-06-03T08:28:27.083Z</time>
      </trkpt>
      <trkpt lat="48.6308" lon="-3.84713">
        <ele>7</ele>
        <time>2021-06-03T08:28:32.085Z</time>
      </trkpt>
      <trkpt lat="48.63086" lon="-3.84716">
        <ele>7</ele>
        <time>2021-06-03T08:28:37.087Z</time>
      </trkpt>
      <trkpt lat="48.6309" lon="-3.84721">
        <ele>7</ele>
        <time>2021-06-03T08:28:42.084Z</time>
      </trkpt>
      <trkpt lat="48.63094" lon="-3.84728">
        <ele>7</ele>
        <time>2021-06-03T08:28:47.085Z</time>
      </trkpt>
      <trkpt lat="48.63097" lon="-3.84736">
        <ele>7</ele>
        <time>2021-06-03T08:28:52.073Z</time>
      </trkpt>
      <trkpt lat="48.63098" lon="-3.84742">
        <ele>6</ele>
        <time>2021-06-03T08:28:57.084Z</time>
      </trkpt>
      <trkpt lat="48.63098" lon="-3.84746">
        <ele>6</ele>
        <time>2021-06-03T08:29:02.078Z</time>
      </trkpt>
      <trkpt lat="48.63102" lon="-3.84753">
        <ele>6</ele>
        <time>2021-06-03T08:29:06.078Z</time>
      </trkpt>
      <trkpt lat="48.63107" lon="-3.8476">
        <ele>6</ele>
        <time>2021-06-03T08:29:11.072Z</time>
      </trkpt>
      <trkpt lat="48.6311" lon="-3.84765">
        <ele>4</ele>
        <time>2021-06-03T08:29:15.081Z</time>
      </trkpt>
      <trkpt lat="48.63115" lon="-3.84767">
        <ele>4</ele>
        <time>2021-06-03T08:29:19.083Z</time>
      </trkpt>
      <trkpt lat="48.63121" lon="-3.84768">
        <ele>4</ele>
        <time>2021-06-03T08:29:24.082Z</time>
      </trkpt>
      <trkpt lat="48.63127" lon="-3.84767">
        <ele>6</ele>
        <time>2021-06-03T08:29:29.088Z</time>
      </trkpt>
      <trkpt lat="48.63133" lon="-3.84763">
        <ele>9</ele>
        <time>2021-06-03T08:29:34.078Z</time>
      </trkpt>
      <trkpt lat="48.63137" lon="-3.8476">
        <ele>9</ele>
        <time>2021-06-03T08:29:38.094Z</time>
      </trkpt>
      <trkpt lat="48.63145" lon="-3.8476">
        <ele>9</ele>
        <time>2021-06-03T08:29:43.073Z</time>
      </trkpt>
      <trkpt lat="48.63151" lon="-3.84758">
        <ele>9</ele>
        <time>2021-06-03T08:29:48.091Z</time>
      </trkpt>
      <trkpt lat="48.63157" lon="-3.84757">
        <ele>11</ele>
        <time>2021-06-03T08:29:52.093Z</time>
      </trkpt>
      <trkpt lat="48.63162" lon="-3.84756">
        <ele>11</ele>
        <time>2021-06-03T08:29:57.082Z</time>
      </trkpt>
      <trkpt lat="48.63168" lon="-3.84757">
        <ele>11</ele>
        <time>2021-06-03T08:30:01.089Z</time>
      </trkpt>
      <trkpt lat="48.63175" lon="-3.84757">
        <ele>11</ele>
        <time>2021-06-03T08:30:06.093Z</time>
      </trkpt>
      <trkpt lat="48.63181" lon="-3.8476">
        <ele>14</ele>
        <time>2021-06-03T08:30:11.087Z</time>
      </trkpt>
      <trkpt lat="48.63187" lon="-3.84761">
        <ele>14</ele>
        <time>2021-06-03T08:30:16.086Z</time>
      </trkpt>
      <trkpt lat="48.63193" lon="-3.84763">
        <ele>14</ele>
        <time>2021-06-03T08:30:21.077Z</time>
      </trkpt>
      <trkpt lat="48.63199" lon="-3.84765">
        <ele>9</ele>
        <time>2021-06-03T08:30:25.087Z</time>
      </trkpt>
      <trkpt lat="48.63203" lon="-3.84767">
        <ele>9</ele>
        <time>2021-06-03T08:30:29.082Z</time>
      </trkpt>
      <trkpt lat="48.6321" lon="-3.84768">
        <ele>8</ele>
        <time>2021-06-03T08:30:34.090Z</time>
      </trkpt>
      <trkpt lat="48.63217" lon="-3.8477">
        <ele>8</ele>
        <time>2021-06-03T08:30:39.089Z</time>
      </trkpt>
      <trkpt lat="48.63223" lon="-3.84772">
        <ele>8</ele>
        <time>2021-06-03T08:30:44.091Z</time>
      </trkpt>
      <trkpt lat="48.6323" lon="-3.84775">
        <ele>8</ele>
        <time>2021-06-03T08:30:49.078Z</time>
      </trkpt>
      <trkpt lat="48.63237" lon="-3.84777">
        <ele>11</ele>
        <time>2021-06-03T08:30:54.080Z</time>
      </trkpt>
      <trkpt lat="48.63243" lon="-3.84779">
        <ele>11</ele>
        <time>2021-06-03T08:30:59.086Z</time>
      </trkpt>
      <trkpt lat="48.63248" lon="-3.84781">
        <ele>11</ele>
        <time>2021-06-03T08:31:04.086Z</time>
      </trkpt>
      <trkpt lat="48.63255" lon="-3.84783">
        <ele>11</ele>
        <time>2021-06-03T08:31:09.080Z</time>
      </trkpt>
      <trkpt lat="48.63261" lon="-3.84785">
        <ele>11</ele>
        <time>2021-06-03T08:31:13.077Z</time>
      </trkpt>
      <trkpt lat="48.63267" lon="-3.84785">
        <ele>12</ele>
        <time>2021-06-03T08:31:18.088Z</time>
      </trkpt>
      <trkpt lat="48.63273" lon="-3.84787">
        <ele>12</ele>
        <time>2021-06-03T08:31:23.092Z</time>
      </trkpt>
      <trkpt lat="48.63279" lon="-3.84789">
        <ele>12</ele>
        <time>2021-06-03T08:31:28.082Z</time>
      </trkpt>
      <trkpt lat="48.63284" lon="-3.84789">
        <ele>12</ele>
        <time>2021-06-03T08:31:32.094Z</time>
      </trkpt>
      <trkpt lat="48.6329" lon="-3.84791">
        <ele>12</ele>
        <time>2021-06-03T08:31:37.076Z</time>
      </trkpt>
      <trkpt lat="48.63295" lon="-3.84793">
        <ele>8</ele>
        <time>2021-06-03T08:31:41.097Z</time>
      </trkpt>
      <trkpt lat="48.63302" lon="-3.84797">
        <ele>8</ele>
        <time>2021-06-03T08:31:46.091Z</time>
      </trkpt>
      <trkpt lat="48.63307" lon="-3.84799">
        <ele>8</ele>
        <time>2021-06-03T08:31:50.092Z</time>
      </trkpt>
      <trkpt lat="48.63313" lon="-3.84801">
        <ele>8</ele>
        <time>2021-06-03T08:31:55.090Z</time>
      </trkpt>
      <trkpt lat="48.6332" lon="-3.84804">
        <ele>10</ele>
        <time>2021-06-03T08:32:00.091Z</time>
      </trkpt>
      <trkpt lat="48.63325" lon="-3.84806">
        <ele>10</ele>
        <time>2021-06-03T08:32:05.079Z</time>
      </trkpt>
      <trkpt lat="48.63333" lon="-3.84808">
        <ele>10</ele>
        <time>2021-06-03T08:32:10.076Z</time>
      </trkpt>
      <trkpt lat="48.63339" lon="-3.8481">
        <ele>10</ele>
        <time>2021-06-03T08:32:15.072Z</time>
      </trkpt>
      <trkpt lat="48.63345" lon="-3.84812">
        <ele>10</ele>
        <time>2021-06-03T08:32:20.071Z</time>
      </trkpt>
      <trkpt lat="48.6335" lon="-3.84815">
        <ele>10</ele>
        <time>2021-06-03T08:32:24.087Z</time>
      </trkpt>
      <trkpt lat="48.63356" lon="-3.84817">
        <ele>10</ele>
        <time>2021-06-03T08:32:29.080Z</time>
      </trkpt>
      <trkpt lat="48.63363" lon="-3.84819">
        <ele>6</ele>
        <time>2021-06-03T08:32:34.078Z</time>
      </trkpt>
      <trkpt lat="48.63368" lon="-3.84822">
        <ele>6</ele>
        <time>2021-06-03T08:32:38.093Z</time>
      </trkpt>
      <trkpt lat="48.63374" lon="-3.84824">
        <ele>6</ele>
        <time>2021-06-03T08:32:43.089Z</time>
      </trkpt>
      <trkpt lat="48.6338" lon="-3.84827">
        <ele>8</ele>
        <time>2021-06-03T08:32:48.079Z</time>
      </trkpt>
      <trkpt lat="48.63386" lon="-3.8483">
        <ele>8</ele>
        <time>2021-06-03T08:32:52.091Z</time>
      </trkpt>
      <trkpt lat="48.63392" lon="-3.84832">
        <ele>8</ele>
        <time>2021-06-03T08:32:57.086Z</time>
      </trkpt>
      <trkpt lat="48.63399" lon="-3.84834">
        <ele>8</ele>
        <time>2021-06-03T08:33:02.080Z</time>
      </trkpt>
      <trkpt lat="48.63406" lon="-3.84838">
        <ele>11</ele>
        <time>2021-06-03T08:33:07.101Z</time>
      </trkpt>
      <trkpt lat="48.63413" lon="-3.84841">
        <ele>11</ele>
        <time>2021-06-03T08:33:12.072Z</time>
      </trkpt>
      <trkpt lat="48.63419" lon="-3.84844">
        <ele>11</ele>
        <time>2021-06-03T08:33:17.076Z</time>
      </trkpt>
      <trkpt lat="48.63426" lon="-3.84848">
        <ele>6</ele>
        <time>2021-06-03T08:33:22.089Z</time>
      </trkpt>
      <trkpt lat="48.63433" lon="-3.84851">
        <ele>7</ele>
        <time>2021-06-03T08:33:27.081Z</time>
      </trkpt>
      <trkpt lat="48.6344" lon="-3.84854">
        <ele>7</ele>
        <time>2021-06-03T08:33:32.089Z</time>
      </trkpt>
      <trkpt lat="48.63447" lon="-3.84858">
        <ele>7</ele>
        <time>2021-06-03T08:33:37.083Z</time>
      </trkpt>
      <trkpt lat="48.63453" lon="-3.84861">
        <ele>7</ele>
        <time>2021-06-03T08:33:42.078Z</time>
      </trkpt>
      <trkpt lat="48.63459" lon="-3.84864">
        <ele>5</ele>
        <time>2021-06-03T08:33:47.088Z</time>
      </trkpt>
      <trkpt lat="48.63466" lon="-3.84867">
        <ele>5</ele>
        <time>2021-06-03T08:33:52.082Z</time>
      </trkpt>
      <trkpt lat="48.6347" lon="-3.84871">
        <ele>5</ele>
        <time>2021-06-03T08:33:56.097Z</time>
      </trkpt>
      <trkpt lat="48.63476" lon="-3.84874">
        <ele>5</ele>
        <time>2021-06-03T08:34:01.092Z</time>
      </trkpt>
      <trkpt lat="48.63479" lon="-3.84875">
        <ele>2</ele>
        <time>2021-06-03T08:34:06.099Z</time>
      </trkpt>
      <trkpt lat="48.63479" lon="-3.84878">
        <ele>2</ele>
        <time>2021-06-03T08:34:11.076Z</time>
      </trkpt>
      <trkpt lat="48.6348" lon="-3.84882">
        <ele>2</ele>
        <time>2021-06-03T08:34:15.089Z</time>
      </trkpt>
      <trkpt lat="48.63482" lon="-3.84888">
        <ele>2</ele>
        <time>2021-06-03T08:34:19.100Z</time>
      </trkpt>
      <trkpt lat="48.63482" lon="-3.84896">
        <ele>2</ele>
        <time>2021-06-03T08:34:24.073Z</time>
      </trkpt>
      <trkpt lat="48.63484" lon="-3.84902">
        <ele>2</ele>
        <time>2021-06-03T08:34:28.086Z</time>
      </trkpt>
      <trkpt lat="48.63484" lon="-3.84909">
        <ele>1</ele>
        <time>2021-06-03T08:34:32.091Z</time>
      </trkpt>
      <trkpt lat="48.63487" lon="-3.84918">
        <ele>2</ele>
        <time>2021-06-03T08:34:37.079Z</time>
      </trkpt>
      <trkpt lat="48.63488" lon="-3.84925">
        <ele>2</ele>
        <time>2021-06-03T08:34:41.087Z</time>
      </trkpt>
      <trkpt lat="48.63489" lon="-3.84932">
        <ele>2</ele>
        <time>2021-06-03T08:34:45.090Z</time>
      </trkpt>
      <trkpt lat="48.63492" lon="-3.84939">
        <ele>2</ele>
        <time>2021-06-03T08:34:50.085Z</time>
      </trkpt>
      <trkpt lat="48.63496" lon="-3.84934">
        <ele>2</ele>
        <time>2021-06-03T08:34:55.093Z</time>
      </trkpt>
      <trkpt lat="48.63501" lon="-3.84929">
        <ele>2</ele>
        <time>2021-06-03T08:35:00.121Z</time>
      </trkpt>
      <trkpt lat="48.63506" lon="-3.84926">
        <ele>2</ele>
        <time>2021-06-03T08:35:05.082Z</time>
      </trkpt>
      <trkpt lat="48.63512" lon="-3.84925">
        <ele>2</ele>
        <time>2021-06-03T08:35:10.091Z</time>
      </trkpt>
      <trkpt lat="48.63517" lon="-3.84924">
        <ele>4</ele>
        <time>2021-06-03T08:35:15.088Z</time>
      </trkpt>
      <trkpt lat="48.63522" lon="-3.84923">
        <ele>4</ele>
        <time>2021-06-03T08:35:19.107Z</time>
      </trkpt>
      <trkpt lat="48.63529" lon="-3.8492">
        <ele>4</ele>
        <time>2021-06-03T08:35:24.095Z</time>
      </trkpt>
      <trkpt lat="48.63535" lon="-3.84918">
        <ele>4</ele>
        <time>2021-06-03T08:35:29.091Z</time>
      </trkpt>
      <trkpt lat="48.63542" lon="-3.84915">
        <ele>5</ele>
        <time>2021-06-03T08:35:34.084Z</time>
      </trkpt>
      <trkpt lat="48.63547" lon="-3.84911">
        <ele>5</ele>
        <time>2021-06-03T08:35:39.086Z</time>
      </trkpt>
      <trkpt lat="48.63552" lon="-3.84909">
        <ele>5</ele>
        <time>2021-06-03T08:35:43.092Z</time>
      </trkpt>
      <trkpt lat="48.63558" lon="-3.84906">
        <ele>5</ele>
        <time>2021-06-03T08:35:48.085Z</time>
      </trkpt>
      <trkpt lat="48.63563" lon="-3.84905">
        <ele>5</ele>
        <time>2021-06-03T08:35:52.089Z</time>
      </trkpt>
      <trkpt lat="48.63568" lon="-3.84902">
        <ele>6</ele>
        <time>2021-06-03T08:35:57.091Z</time>
      </trkpt>
      <trkpt lat="48.63573" lon="-3.84901">
        <ele>6</ele>
        <time>2021-06-03T08:36:01.087Z</time>
      </trkpt>
      <trkpt lat="48.63578" lon="-3.84895">
        <ele>6</ele>
        <time>2021-06-03T08:36:06.111Z</time>
      </trkpt>
      <trkpt lat="48.63582" lon="-3.84888">
        <ele>6</ele>
        <time>2021-06-03T08:36:11.087Z</time>
      </trkpt>
      <trkpt lat="48.63586" lon="-3.84884">
        <ele>6</ele>
        <time>2021-06-03T08:36:15.112Z</time>
      </trkpt>
      <trkpt lat="48.63592" lon="-3.84887">
        <ele>6</ele>
        <time>2021-06-03T08:36:20.076Z</time>
      </trkpt>
      <trkpt lat="48.63595" lon="-3.84886">
        <ele>6</ele>
        <time>2021-06-03T08:36:24.092Z</time>
      </trkpt>
      <trkpt lat="48.636" lon="-3.84884">
        <ele>6</ele>
        <time>2021-06-03T08:36:28.112Z</time>
      </trkpt>
      <trkpt lat="48.63606" lon="-3.84882">
        <ele>6</ele>
        <time>2021-06-03T08:36:33.083Z</time>
      </trkpt>
      <trkpt lat="48.63612" lon="-3.84879">
        <ele>6</ele>
        <time>2021-06-03T08:36:38.093Z</time>
      </trkpt>
      <trkpt lat="48.63619" lon="-3.84876">
        <ele>6</ele>
        <time>2021-06-03T08:36:43.086Z</time>
      </trkpt>
      <trkpt lat="48.63625" lon="-3.84874">
        <ele>10</ele>
        <time>2021-06-03T08:36:48.077Z</time>
      </trkpt>
      <trkpt lat="48.63631" lon="-3.84871">
        <ele>10</ele>
        <time>2021-06-03T08:36:53.083Z</time>
      </trkpt>
      <trkpt lat="48.63637" lon="-3.84876">
        <ele>7</ele>
        <time>2021-06-03T08:36:58.081Z</time>
      </trkpt>
      <trkpt lat="48.63642" lon="-3.84879">
        <ele>7</ele>
        <time>2021-06-03T08:37:02.092Z</time>
      </trkpt>
      <trkpt lat="48.63648" lon="-3.84882">
        <ele>7</ele>
        <time>2021-06-03T08:37:07.091Z</time>
      </trkpt>
      <trkpt lat="48.6365" lon="-3.84892">
        <ele>7</ele>
        <time>2021-06-03T08:37:12.084Z</time>
      </trkpt>
      <trkpt lat="48.63652" lon="-3.849">
        <ele>7</ele>
        <time>2021-06-03T08:37:17.091Z</time>
      </trkpt>
      <trkpt lat="48.63656" lon="-3.84901">
        <ele>7</ele>
        <time>2021-06-03T08:37:22.091Z</time>
      </trkpt>
      <trkpt lat="48.63661" lon="-3.84906">
        <ele>4</ele>
        <time>2021-06-03T08:37:27.085Z</time>
      </trkpt>
      <trkpt lat="48.63667" lon="-3.84907">
        <ele>4</ele>
        <time>2021-06-03T08:37:32.087Z</time>
      </trkpt>
      <trkpt lat="48.63673" lon="-3.84905">
        <ele>4</ele>
        <time>2021-06-03T08:37:37.081Z</time>
      </trkpt>
      <trkpt lat="48.63678" lon="-3.84902">
        <ele>7</ele>
        <time>2021-06-03T08:37:42.087Z</time>
      </trkpt>
      <trkpt lat="48.63684" lon="-3.84899">
        <ele>3</ele>
        <time>2021-06-03T08:37:47.093Z</time>
      </trkpt>
      <trkpt lat="48.63691" lon="-3.84896">
        <ele>3</ele>
        <time>2021-06-03T08:37:52.089Z</time>
      </trkpt>
      <trkpt lat="48.63696" lon="-3.84893">
        <ele>3</ele>
        <time>2021-06-03T08:37:57.083Z</time>
      </trkpt>
      <trkpt lat="48.63703" lon="-3.84891">
        <ele>3</ele>
        <time>2021-06-03T08:38:02.083Z</time>
      </trkpt>
      <trkpt lat="48.63708" lon="-3.84891">
        <ele>3</ele>
        <time>2021-06-03T08:38:06.105Z</time>
      </trkpt>
      <trkpt lat="48.63715" lon="-3.8489">
        <ele>1</ele>
        <time>2021-06-03T08:38:11.083Z</time>
      </trkpt>
      <trkpt lat="48.6372" lon="-3.84888">
        <ele>1</ele>
        <time>2021-06-03T08:38:16.089Z</time>
      </trkpt>
      <trkpt lat="48.63725" lon="-3.84888">
        <ele>1</ele>
        <time>2021-06-03T08:38:20.093Z</time>
      </trkpt>
      <trkpt lat="48.63732" lon="-3.84887">
        <ele>1</ele>
        <time>2021-06-03T08:38:25.082Z</time>
      </trkpt>
      <trkpt lat="48.63737" lon="-3.84887">
        <ele>1</ele>
        <time>2021-06-03T08:38:29.086Z</time>
      </trkpt>
      <trkpt lat="48.63744" lon="-3.84887">
        <ele>1</ele>
        <time>2021-06-03T08:38:34.085Z</time>
      </trkpt>
      <trkpt lat="48.6375" lon="-3.84886">
        <ele>1</ele>
        <time>2021-06-03T08:38:39.085Z</time>
      </trkpt>
      <trkpt lat="48.63755" lon="-3.84884">
        <ele>1</ele>
        <time>2021-06-03T08:38:44.085Z</time>
      </trkpt>
      <trkpt lat="48.6376" lon="-3.84883">
        <ele>1</ele>
        <time>2021-06-03T08:38:48.106Z</time>
      </trkpt>
      <trkpt lat="48.63765" lon="-3.8488">
        <ele>1</ele>
        <time>2021-06-03T08:38:53.089Z</time>
      </trkpt>
      <trkpt lat="48.63772" lon="-3.8488">
        <ele>1</ele>
        <time>2021-06-03T08:38:58.091Z</time>
      </trkpt>
      <trkpt lat="48.63778" lon="-3.84884">
        <ele>1</ele>
        <time>2021-06-03T08:39:03.091Z</time>
      </trkpt>
      <trkpt lat="48.63784" lon="-3.84885">
        <ele>1</ele>
        <time>2021-06-03T08:39:08.106Z</time>
      </trkpt>
      <trkpt lat="48.63791" lon="-3.84886">
        <ele>1</ele>
        <time>2021-06-03T08:39:13.087Z</time>
      </trkpt>
      <trkpt lat="48.63794" lon="-3.8489">
        <ele>5</ele>
        <time>2021-06-03T08:39:17.092Z</time>
      </trkpt>
      <trkpt lat="48.63799" lon="-3.84894">
        <ele>5</ele>
        <time>2021-06-03T08:39:22.091Z</time>
      </trkpt>
      <trkpt lat="48.63805" lon="-3.849">
        <ele>5</ele>
        <time>2021-06-03T08:39:27.074Z</time>
      </trkpt>
      <trkpt lat="48.63811" lon="-3.84904">
        <ele>3</ele>
        <time>2021-06-03T08:39:32.083Z</time>
      </trkpt>
      <trkpt lat="48.63816" lon="-3.84903">
        <ele>3</ele>
        <time>2021-06-03T08:39:37.076Z</time>
      </trkpt>
      <trkpt lat="48.6382" lon="-3.84902">
        <ele>6</ele>
        <time>2021-06-03T08:39:41.091Z</time>
      </trkpt>
      <trkpt lat="48.63826" lon="-3.84899">
        <ele>6</ele>
        <time>2021-06-03T08:39:46.082Z</time>
      </trkpt>
      <trkpt lat="48.63832" lon="-3.84899">
        <ele>6</ele>
        <time>2021-06-03T08:39:51.078Z</time>
      </trkpt>
      <trkpt lat="48.63836" lon="-3.84899">
        <ele>6</ele>
        <time>2021-06-03T08:39:55.085Z</time>
      </trkpt>
      <trkpt lat="48.63841" lon="-3.84902">
        <ele>6</ele>
        <time>2021-06-03T08:39:59.104Z</time>
      </trkpt>
      <trkpt lat="48.63843" lon="-3.84906">
        <ele>5</ele>
        <time>2021-06-03T08:40:04.086Z</time>
      </trkpt>
      <trkpt lat="48.63846" lon="-3.84911">
        <ele>5</ele>
        <time>2021-06-03T08:40:08.112Z</time>
      </trkpt>
      <trkpt lat="48.6385" lon="-3.84917">
        <ele>5</ele>
        <time>2021-06-03T08:40:13.082Z</time>
      </trkpt>
      <trkpt lat="48.63853" lon="-3.84924">
        <ele>5</ele>
        <time>2021-06-03T08:40:17.089Z</time>
      </trkpt>
      <trkpt lat="48.63856" lon="-3.84931">
        <ele>4</ele>
        <time>2021-06-03T08:40:22.094Z</time>
      </trkpt>
      <trkpt lat="48.63856" lon="-3.8494">
        <ele>4</ele>
        <time>2021-06-03T08:40:27.076Z</time>
      </trkpt>
      <trkpt lat="48.63855" lon="-3.84948">
        <ele>4</ele>
        <time>2021-06-03T08:40:32.086Z</time>
      </trkpt>
      <trkpt lat="48.63851" lon="-3.84954">
        <ele>4</ele>
        <time>2021-06-03T08:40:37.088Z</time>
      </trkpt>
      <trkpt lat="48.63851" lon="-3.84964">
        <ele>4</ele>
        <time>2021-06-03T08:40:42.078Z</time>
      </trkpt>
      <trkpt lat="48.63852" lon="-3.84972">
        <ele>4</ele>
        <time>2021-06-03T08:40:46.105Z</time>
      </trkpt>
      <trkpt lat="48.63854" lon="-3.84979">
        <ele>4</ele>
        <time>2021-06-03T08:40:51.073Z</time>
      </trkpt>
      <trkpt lat="48.63858" lon="-3.84988">
        <ele>5</ele>
        <time>2021-06-03T08:40:55.089Z</time>
      </trkpt>
      <trkpt lat="48.63861" lon="-3.84998">
        <ele>5</ele>
        <time>2021-06-03T08:41:00.086Z</time>
      </trkpt>
      <trkpt lat="48.63865" lon="-3.85016">
        <ele>4</ele>
        <time>2021-06-03T08:41:42.089Z</time>
      </trkpt>
      <trkpt lat="48.63866" lon="-3.85019">
        <ele>4</ele>
        <time>2021-06-03T08:41:47.095Z</time>
      </trkpt>
      <trkpt lat="48.63871" lon="-3.85026">
        <ele>4</ele>
        <time>2021-06-03T08:41:52.095Z</time>
      </trkpt>
      <trkpt lat="48.63876" lon="-3.85034">
        <ele>5</ele>
        <time>2021-06-03T08:41:57.073Z</time>
      </trkpt>
      <trkpt lat="48.6388" lon="-3.85039">
        <ele>5</ele>
        <time>2021-06-03T08:42:02.071Z</time>
      </trkpt>
      <trkpt lat="48.63882" lon="-3.8504">
        <ele>5</ele>
        <time>2021-06-03T08:42:07.071Z</time>
      </trkpt>
      <trkpt lat="48.63881" lon="-3.85041">
        <ele>5</ele>
        <time>2021-06-03T08:42:12.077Z</time>
      </trkpt>
      <trkpt lat="48.63883" lon="-3.85045">
        <ele>3</ele>
        <time>2021-06-03T08:42:17.083Z</time>
      </trkpt>
      <trkpt lat="48.63887" lon="-3.85048">
        <ele>3</ele>
        <time>2021-06-03T08:42:22.086Z</time>
      </trkpt>
      <trkpt lat="48.63891" lon="-3.85051">
        <ele>3</ele>
        <time>2021-06-03T08:42:27.075Z</time>
      </trkpt>
      <trkpt lat="48.63896" lon="-3.85054">
        <ele>3</ele>
        <time>2021-06-03T08:42:31.075Z</time>
      </trkpt>
      <trkpt lat="48.63901" lon="-3.85059">
        <ele>3</ele>
        <time>2021-06-03T08:42:36.095Z</time>
      </trkpt>
      <trkpt lat="48.63906" lon="-3.85061">
        <ele>2</ele>
        <time>2021-06-03T08:42:41.092Z</time>
      </trkpt>
      <trkpt lat="48.6391" lon="-3.85064">
        <ele>2</ele>
        <time>2021-06-03T08:42:46.083Z</time>
      </trkpt>
      <trkpt lat="48.6391" lon="-3.85064">
        <ele>2</ele>
        <time>2021-06-03T08:42:51.081Z</time>
      </trkpt>
      <trkpt lat="48.63911" lon="-3.85063">
        <ele>2</ele>
        <time>2021-06-03T08:42:56.088Z</time>
      </trkpt>
      <trkpt lat="48.63916" lon="-3.85066">
        <ele>2</ele>
        <time>2021-06-03T08:43:01.068Z</time>
      </trkpt>
      <trkpt lat="48.63921" lon="-3.85068">
        <ele>2</ele>
        <time>2021-06-03T08:43:05.083Z</time>
      </trkpt>
      <trkpt lat="48.63926" lon="-3.8507">
        <ele>1</ele>
        <time>2021-06-03T08:43:09.092Z</time>
      </trkpt>
      <trkpt lat="48.63932" lon="-3.85071">
        <ele>2</ele>
        <time>2021-06-03T08:43:14.075Z</time>
      </trkpt>
      <trkpt lat="48.63938" lon="-3.8507">
        <ele>2</ele>
        <time>2021-06-03T08:43:18.086Z</time>
      </trkpt>
      <trkpt lat="48.63944" lon="-3.85069">
        <ele>2</ele>
        <time>2021-06-03T08:43:23.086Z</time>
      </trkpt>
      <trkpt lat="48.63951" lon="-3.85068">
        <ele>4</ele>
        <time>2021-06-03T08:43:28.075Z</time>
      </trkpt>
      <trkpt lat="48.63957" lon="-3.85066">
        <ele>4</ele>
        <time>2021-06-03T08:43:32.084Z</time>
      </trkpt>
      <trkpt lat="48.63963" lon="-3.85064">
        <ele>4</ele>
        <time>2021-06-03T08:43:37.088Z</time>
      </trkpt>
      <trkpt lat="48.63969" lon="-3.85063">
        <ele>4</ele>
        <time>2021-06-03T08:43:42.095Z</time>
      </trkpt>
      <trkpt lat="48.6397" lon="-3.85062">
        <ele>4</ele>
        <time>2021-06-03T08:43:47.090Z</time>
      </trkpt>
      <trkpt lat="48.63971" lon="-3.85062">
        <ele>4</ele>
        <time>2021-06-03T08:43:51.100Z</time>
      </trkpt>
      <trkpt lat="48.63977" lon="-3.85061">
        <ele>4</ele>
        <time>2021-06-03T08:43:56.092Z</time>
      </trkpt>
      <trkpt lat="48.63983" lon="-3.85057">
        <ele>4</ele>
        <time>2021-06-03T08:44:01.085Z</time>
      </trkpt>
      <trkpt lat="48.63988" lon="-3.85054">
        <ele>4</ele>
        <time>2021-06-03T08:44:05.091Z</time>
      </trkpt>
      <trkpt lat="48.63994" lon="-3.85053">
        <ele>4</ele>
        <time>2021-06-03T08:44:10.086Z</time>
      </trkpt>
      <trkpt lat="48.63999" lon="-3.85054">
        <ele>4</ele>
        <time>2021-06-03T08:44:14.093Z</time>
      </trkpt>
      <trkpt lat="48.64005" lon="-3.85055">
        <ele>4</ele>
        <time>2021-06-03T08:44:19.091Z</time>
      </trkpt>
      <trkpt lat="48.64011" lon="-3.85056">
        <ele>4</ele>
        <time>2021-06-03T08:44:24.076Z</time>
      </trkpt>
      <trkpt lat="48.64016" lon="-3.85056">
        <ele>3</ele>
        <time>2021-06-03T08:44:28.090Z</time>
      </trkpt>
      <trkpt lat="48.64022" lon="-3.85056">
        <ele>3</ele>
        <time>2021-06-03T08:44:33.083Z</time>
      </trkpt>
      <trkpt lat="48.64029" lon="-3.8506">
        <ele>3</ele>
        <time>2021-06-03T08:44:38.080Z</time>
      </trkpt>
      <trkpt lat="48.64035" lon="-3.85064">
        <ele>3</ele>
        <time>2021-06-03T08:44:43.088Z</time>
      </trkpt>
      <trkpt lat="48.64041" lon="-3.85068">
        <ele>3</ele>
        <time>2021-06-03T08:44:48.084Z</time>
      </trkpt>
      <trkpt lat="48.64046" lon="-3.85071">
        <ele>1</ele>
        <time>2021-06-03T08:44:52.092Z</time>
      </trkpt>
      <trkpt lat="48.64051" lon="-3.85075">
        <ele>1</ele>
        <time>2021-06-03T08:44:56.093Z</time>
      </trkpt>
      <trkpt lat="48.64056" lon="-3.85079">
        <ele>1</ele>
        <time>2021-06-03T08:45:01.090Z</time>
      </trkpt>
      <trkpt lat="48.64062" lon="-3.85085">
        <ele>1</ele>
        <time>2021-06-03T08:45:06.075Z</time>
      </trkpt>
      <trkpt lat="48.64066" lon="-3.85088">
        <ele>1</ele>
        <time>2021-06-03T08:45:10.080Z</time>
      </trkpt>
      <trkpt lat="48.64072" lon="-3.85091">
        <ele>4</ele>
        <time>2021-06-03T08:45:15.082Z</time>
      </trkpt>
      <trkpt lat="48.64078" lon="-3.85095">
        <ele>4</ele>
        <time>2021-06-03T08:45:20.089Z</time>
      </trkpt>
      <trkpt lat="48.64084" lon="-3.85098">
        <ele>1</ele>
        <time>2021-06-03T08:45:25.092Z</time>
      </trkpt>
      <trkpt lat="48.64089" lon="-3.85101">
        <ele>1</ele>
        <time>2021-06-03T08:45:30.087Z</time>
      </trkpt>
      <trkpt lat="48.64095" lon="-3.85103">
        <ele>1</ele>
        <time>2021-06-03T08:45:35.085Z</time>
      </trkpt>
      <trkpt lat="48.641" lon="-3.85105">
        <ele>3</ele>
        <time>2021-06-03T08:45:39.083Z</time>
      </trkpt>
      <trkpt lat="48.64105" lon="-3.85106">
        <ele>3</ele>
        <time>2021-06-03T08:45:43.109Z</time>
      </trkpt>
      <trkpt lat="48.64111" lon="-3.85107">
        <ele>3</ele>
        <time>2021-06-03T08:45:48.095Z</time>
      </trkpt>
      <trkpt lat="48.64117" lon="-3.85109">
        <ele>3</ele>
        <time>2021-06-03T08:45:53.089Z</time>
      </trkpt>
      <trkpt lat="48.64122" lon="-3.8511">
        <ele>3</ele>
        <time>2021-06-03T08:45:57.094Z</time>
      </trkpt>
      <trkpt lat="48.64128" lon="-3.85112">
        <ele>8</ele>
        <time>2021-06-03T08:46:02.086Z</time>
      </trkpt>
      <trkpt lat="48.64134" lon="-3.85112">
        <ele>8</ele>
        <time>2021-06-03T08:46:07.089Z</time>
      </trkpt>
      <trkpt lat="48.64141" lon="-3.85113">
        <ele>8</ele>
        <time>2021-06-03T08:46:12.083Z</time>
      </trkpt>
      <trkpt lat="48.64147" lon="-3.85115">
        <ele>8</ele>
        <time>2021-06-03T08:46:17.089Z</time>
      </trkpt>
      <trkpt lat="48.64151" lon="-3.85114">
        <ele>8</ele>
        <time>2021-06-03T08:46:21.097Z</time>
      </trkpt>
      <trkpt lat="48.64157" lon="-3.85113">
        <ele>10</ele>
        <time>2021-06-03T08:46:26.080Z</time>
      </trkpt>
      <trkpt lat="48.64163" lon="-3.85113">
        <ele>10</ele>
        <time>2021-06-03T08:46:31.089Z</time>
      </trkpt>
      <trkpt lat="48.64167" lon="-3.85112">
        <ele>10</ele>
        <time>2021-06-03T08:46:35.086Z</time>
      </trkpt>
      <trkpt lat="48.64174" lon="-3.85111">
        <ele>10</ele>
        <time>2021-06-03T08:46:40.092Z</time>
      </trkpt>
      <trkpt lat="48.6418" lon="-3.85114">
        <ele>10</ele>
        <time>2021-06-03T08:46:45.080Z</time>
      </trkpt>
      <trkpt lat="48.64185" lon="-3.85115">
        <ele>16</ele>
        <time>2021-06-03T08:46:50.087Z</time>
      </trkpt>
      <trkpt lat="48.64191" lon="-3.85118">
        <ele>16</ele>
        <time>2021-06-03T08:46:55.083Z</time>
      </trkpt>
      <trkpt lat="48.64198" lon="-3.85121">
        <ele>16</ele>
        <time>2021-06-03T08:47:00.094Z</time>
      </trkpt>
      <trkpt lat="48.64205" lon="-3.85126">
        <ele>10</ele>
        <time>2021-06-03T08:47:05.070Z</time>
      </trkpt>
      <trkpt lat="48.64211" lon="-3.85129">
        <ele>15</ele>
        <time>2021-06-03T08:47:09.083Z</time>
      </trkpt>
      <trkpt lat="48.64217" lon="-3.85131">
        <ele>15</ele>
        <time>2021-06-03T08:47:14.090Z</time>
      </trkpt>
      <trkpt lat="48.64223" lon="-3.85133">
        <ele>15</ele>
        <time>2021-06-03T08:47:19.191Z</time>
      </trkpt>
      <trkpt lat="48.64228" lon="-3.85134">
        <ele>15</ele>
        <time>2021-06-03T08:47:24.081Z</time>
      </trkpt>
      <trkpt lat="48.64232" lon="-3.85136">
        <ele>15</ele>
        <time>2021-06-03T08:47:28.092Z</time>
      </trkpt>
      <trkpt lat="48.64237" lon="-3.85144">
        <ele>20</ele>
        <time>2021-06-03T08:47:33.086Z</time>
      </trkpt>
      <trkpt lat="48.64243" lon="-3.85147">
        <ele>20</ele>
        <time>2021-06-03T08:47:38.076Z</time>
      </trkpt>
      <trkpt lat="48.64247" lon="-3.85152">
        <ele>20</ele>
        <time>2021-06-03T08:47:42.089Z</time>
      </trkpt>
      <trkpt lat="48.64252" lon="-3.85157">
        <ele>12</ele>
        <time>2021-06-03T08:47:47.076Z</time>
      </trkpt>
      <trkpt lat="48.64257" lon="-3.85159">
        <ele>12</ele>
        <time>2021-06-03T08:47:51.086Z</time>
      </trkpt>
      <trkpt lat="48.64262" lon="-3.85163">
        <ele>12</ele>
        <time>2021-06-03T08:47:56.084Z</time>
      </trkpt>
      <trkpt lat="48.64267" lon="-3.85165">
        <ele>19</ele>
        <time>2021-06-03T08:48:00.089Z</time>
      </trkpt>
      <trkpt lat="48.64274" lon="-3.85166">
        <ele>19</ele>
        <time>2021-06-03T08:48:05.072Z</time>
      </trkpt>
      <trkpt lat="48.64279" lon="-3.85167">
        <ele>19</ele>
        <time>2021-06-03T08:48:09.085Z</time>
      </trkpt>
      <trkpt lat="48.64283" lon="-3.85171">
        <ele>19</ele>
        <time>2021-06-03T08:48:14.082Z</time>
      </trkpt>
      <trkpt lat="48.64286" lon="-3.85172">
        <ele>19</ele>
        <time>2021-06-03T08:48:18.092Z</time>
      </trkpt>
      <trkpt lat="48.64291" lon="-3.85175">
        <ele>19</ele>
        <time>2021-06-03T08:48:23.070Z</time>
      </trkpt>
      <trkpt lat="48.64295" lon="-3.85177">
        <ele>25</ele>
        <time>2021-06-03T08:48:27.072Z</time>
      </trkpt>
      <trkpt lat="48.64299" lon="-3.85179">
        <ele>25</ele>
        <time>2021-06-03T08:48:31.080Z</time>
      </trkpt>
      <trkpt lat="48.64304" lon="-3.85181">
        <ele>17</ele>
        <time>2021-06-03T08:48:36.079Z</time>
      </trkpt>
      <trkpt lat="48.6431" lon="-3.85182">
        <ele>17</ele>
        <time>2021-06-03T08:48:41.088Z</time>
      </trkpt>
      <trkpt lat="48.64314" lon="-3.85186">
        <ele>17</ele>
        <time>2021-06-03T08:48:45.105Z</time>
      </trkpt>
      <trkpt lat="48.64321" lon="-3.85188">
        <ele>15</ele>
        <time>2021-06-03T08:48:50.089Z</time>
      </trkpt>
      <trkpt lat="48.64326" lon="-3.85191">
        <ele>15</ele>
        <time>2021-06-03T08:48:55.086Z</time>
      </trkpt>
      <trkpt lat="48.64332" lon="-3.85195">
        <ele>15</ele>
        <time>2021-06-03T08:49:00.085Z</time>
      </trkpt>
      <trkpt lat="48.64337" lon="-3.85197">
        <ele>15</ele>
        <time>2021-06-03T08:49:04.101Z</time>
      </trkpt>
      <trkpt lat="48.64344" lon="-3.852">
        <ele>15</ele>
        <time>2021-06-03T08:49:09.090Z</time>
      </trkpt>
      <trkpt lat="48.6435" lon="-3.85202">
        <ele>13</ele>
        <time>2021-06-03T08:49:14.074Z</time>
      </trkpt>
      <trkpt lat="48.64354" lon="-3.85206">
        <ele>13</ele>
        <time>2021-06-03T08:49:18.089Z</time>
      </trkpt>
      <trkpt lat="48.64361" lon="-3.85209">
        <ele>7</ele>
        <time>2021-06-03T08:49:23.084Z</time>
      </trkpt>
      <trkpt lat="48.64368" lon="-3.8521">
        <ele>7</ele>
        <time>2021-06-03T08:49:28.083Z</time>
      </trkpt>
      <trkpt lat="48.64376" lon="-3.8521">
        <ele>8</ele>
        <time>2021-06-03T08:49:33.087Z</time>
      </trkpt>
      <trkpt lat="48.64383" lon="-3.85211">
        <ele>8</ele>
        <time>2021-06-03T08:49:38.092Z</time>
      </trkpt>
      <trkpt lat="48.6439" lon="-3.85211">
        <ele>8</ele>
        <time>2021-06-03T08:49:43.084Z</time>
      </trkpt>
      <trkpt lat="48.64397" lon="-3.85213">
        <ele>8</ele>
        <time>2021-06-03T08:49:48.080Z</time>
      </trkpt>
      <trkpt lat="48.64402" lon="-3.85215">
        <ele>8</ele>
        <time>2021-06-03T08:49:52.087Z</time>
      </trkpt>
      <trkpt lat="48.64408" lon="-3.85218">
        <ele>9</ele>
        <time>2021-06-03T08:49:57.088Z</time>
      </trkpt>
      <trkpt lat="48.64415" lon="-3.85221">
        <ele>9</ele>
        <time>2021-06-03T08:50:02.086Z</time>
      </trkpt>
      <trkpt lat="48.64421" lon="-3.85223">
        <ele>9</ele>
        <time>2021-06-03T08:50:07.084Z</time>
      </trkpt>
      <trkpt lat="48.64426" lon="-3.85225">
        <ele>9</ele>
        <time>2021-06-03T08:50:11.086Z</time>
      </trkpt>
      <trkpt lat="48.64432" lon="-3.85226">
        <ele>13</ele>
        <time>2021-06-03T08:50:16.085Z</time>
      </trkpt>
      <trkpt lat="48.64437" lon="-3.85227">
        <ele>13</ele>
        <time>2021-06-03T08:50:20.085Z</time>
      </trkpt>
      <trkpt lat="48.64444" lon="-3.85227">
        <ele>13</ele>
        <time>2021-06-03T08:50:25.081Z</time>
      </trkpt>
      <trkpt lat="48.64449" lon="-3.85227">
        <ele>13</ele>
        <time>2021-06-03T08:50:29.089Z</time>
      </trkpt>
      <trkpt lat="48.64455" lon="-3.85229">
        <ele>13</ele>
        <time>2021-06-03T08:50:34.076Z</time>
      </trkpt>
      <trkpt lat="48.6446" lon="-3.85231">
        <ele>16</ele>
        <time>2021-06-03T08:50:38.082Z</time>
      </trkpt>
      <trkpt lat="48.64464" lon="-3.85232">
        <ele>16</ele>
        <time>2021-06-03T08:50:42.085Z</time>
      </trkpt>
      <trkpt lat="48.64472" lon="-3.85235">
        <ele>16</ele>
        <time>2021-06-03T08:50:47.079Z</time>
      </trkpt>
      <trkpt lat="48.64478" lon="-3.85237">
        <ele>9</ele>
        <time>2021-06-03T08:50:52.086Z</time>
      </trkpt>
      <trkpt lat="48.64485" lon="-3.85239">
        <ele>9</ele>
        <time>2021-06-03T08:50:57.073Z</time>
      </trkpt>
      <trkpt lat="48.6449" lon="-3.8524">
        <ele>11</ele>
        <time>2021-06-03T08:51:02.076Z</time>
      </trkpt>
      <trkpt lat="48.64497" lon="-3.85242">
        <ele>11</ele>
        <time>2021-06-03T08:51:07.076Z</time>
      </trkpt>
      <trkpt lat="48.64502" lon="-3.85244">
        <ele>11</ele>
        <time>2021-06-03T08:51:12.075Z</time>
      </trkpt>
      <trkpt lat="48.64508" lon="-3.85246">
        <ele>11</ele>
        <time>2021-06-03T08:51:16.082Z</time>
      </trkpt>
      <trkpt lat="48.64514" lon="-3.85247">
        <ele>12</ele>
        <time>2021-06-03T08:51:21.080Z</time>
      </trkpt>
      <trkpt lat="48.64521" lon="-3.85249">
        <ele>12</ele>
        <time>2021-06-03T08:51:26.073Z</time>
      </trkpt>
      <trkpt lat="48.64525" lon="-3.8525">
        <ele>12</ele>
        <time>2021-06-03T08:51:30.107Z</time>
      </trkpt>
      <trkpt lat="48.64529" lon="-3.85248">
        <ele>12</ele>
        <time>2021-06-03T08:51:35.085Z</time>
      </trkpt>
      <trkpt lat="48.64535" lon="-3.85249">
        <ele>12</ele>
        <time>2021-06-03T08:51:40.086Z</time>
      </trkpt>
      <trkpt lat="48.64542" lon="-3.85255">
        <ele>14</ele>
        <time>2021-06-03T08:51:45.082Z</time>
      </trkpt>
      <trkpt lat="48.64548" lon="-3.85259">
        <ele>14</ele>
        <time>2021-06-03T08:51:50.086Z</time>
      </trkpt>
      <trkpt lat="48.64555" lon="-3.85264">
        <ele>8</ele>
        <time>2021-06-03T08:51:55.091Z</time>
      </trkpt>
      <trkpt lat="48.64561" lon="-3.85273">
        <ele>8</ele>
        <time>2021-06-03T08:52:00.101Z</time>
      </trkpt>
      <trkpt lat="48.64567" lon="-3.85281">
        <ele>8</ele>
        <time>2021-06-03T08:52:05.083Z</time>
      </trkpt>
      <trkpt lat="48.6457" lon="-3.85289">
        <ele>9</ele>
        <time>2021-06-03T08:52:10.088Z</time>
      </trkpt>
      <trkpt lat="48.64575" lon="-3.85295">
        <ele>6</ele>
        <time>2021-06-03T08:52:15.079Z</time>
      </trkpt>
      <trkpt lat="48.64578" lon="-3.85302">
        <ele>6</ele>
        <time>2021-06-03T08:52:20.082Z</time>
      </trkpt>
      <trkpt lat="48.64582" lon="-3.85307">
        <ele>6</ele>
        <time>2021-06-03T08:52:25.082Z</time>
      </trkpt>
      <trkpt lat="48.64588" lon="-3.85311">
        <ele>6</ele>
        <time>2021-06-03T08:52:30.079Z</time>
      </trkpt>
      <trkpt lat="48.64593" lon="-3.85317">
        <ele>6</ele>
        <time>2021-06-03T08:52:34.089Z</time>
      </trkpt>
      <trkpt lat="48.64597" lon="-3.85322">
        <ele>4</ele>
        <time>2021-06-03T08:52:39.083Z</time>
      </trkpt>
      <trkpt lat="48.64602" lon="-3.85326">
        <ele>5</ele>
        <time>2021-06-03T08:52:44.089Z</time>
      </trkpt>
      <trkpt lat="48.64605" lon="-3.85333">
        <ele>5</ele>
        <time>2021-06-03T08:52:49.084Z</time>
      </trkpt>
      <trkpt lat="48.64611" lon="-3.85339">
        <ele>5</ele>
        <time>2021-06-03T09:03:09.093Z</time>
      </trkpt>
      <trkpt lat="48.64612" lon="-3.85339">
        <ele>5</ele>
        <time>2021-06-03T09:03:14.085Z</time>
      </trkpt>
      <trkpt lat="48.64612" lon="-3.8534">
        <ele>5</ele>
        <time>2021-06-03T09:03:18.080Z</time>
      </trkpt>
      <trkpt lat="48.64616" lon="-3.8534">
        <ele>5</ele>
        <time>2021-06-03T09:03:23.083Z</time>
      </trkpt>
      <trkpt lat="48.6462" lon="-3.8534">
        <ele>5</ele>
        <time>2021-06-03T09:03:27.083Z</time>
      </trkpt>
      <trkpt lat="48.6462" lon="-3.85347">
        <ele>5</ele>
        <time>2021-06-03T09:03:32.091Z</time>
      </trkpt>
      <trkpt lat="48.64624" lon="-3.8535">
        <ele>2</ele>
        <time>2021-06-03T09:03:37.084Z</time>
      </trkpt>
      <trkpt lat="48.64631" lon="-3.85353">
        <ele>5</ele>
        <time>2021-06-03T09:03:42.097Z</time>
      </trkpt>
      <trkpt lat="48.64638" lon="-3.85357">
        <ele>5</ele>
        <time>2021-06-03T09:03:47.079Z</time>
      </trkpt>
      <trkpt lat="48.64642" lon="-3.85361">
        <ele>5</ele>
        <time>2021-06-03T09:03:51.087Z</time>
      </trkpt>
      <trkpt lat="48.64648" lon="-3.85366">
        <ele>5</ele>
        <time>2021-06-03T09:03:56.089Z</time>
      </trkpt>
      <trkpt lat="48.64649" lon="-3.8537">
        <ele>5</ele>
        <time>2021-06-03T09:04:00.086Z</time>
      </trkpt>
      <trkpt lat="48.64653" lon="-3.85372">
        <ele>8</ele>
        <time>2021-06-03T09:04:05.103Z</time>
      </trkpt>
      <trkpt lat="48.64659" lon="-3.85375">
        <ele>6</ele>
        <time>2021-06-03T09:04:10.083Z</time>
      </trkpt>
      <trkpt lat="48.64665" lon="-3.85378">
        <ele>6</ele>
        <time>2021-06-03T09:04:15.079Z</time>
      </trkpt>
      <trkpt lat="48.6467" lon="-3.85383">
        <ele>6</ele>
        <time>2021-06-03T09:04:20.087Z</time>
      </trkpt>
      <trkpt lat="48.64676" lon="-3.85387">
        <ele>6</ele>
        <time>2021-06-03T09:04:25.090Z</time>
      </trkpt>
      <trkpt lat="48.64682" lon="-3.85391">
        <ele>9</ele>
        <time>2021-06-03T09:04:30.078Z</time>
      </trkpt>
      <trkpt lat="48.64688" lon="-3.85395">
        <ele>9</ele>
        <time>2021-06-03T09:04:35.087Z</time>
      </trkpt>
      <trkpt lat="48.64694" lon="-3.85398">
        <ele>9</ele>
        <time>2021-06-03T09:04:40.090Z</time>
      </trkpt>
      <trkpt lat="48.647" lon="-3.85402">
        <ele>9</ele>
        <time>2021-06-03T09:04:45.089Z</time>
      </trkpt>
      <trkpt lat="48.64707" lon="-3.85405">
        <ele>6</ele>
        <time>2021-06-03T09:04:50.089Z</time>
      </trkpt>
      <trkpt lat="48.64711" lon="-3.85409">
        <ele>10</ele>
        <time>2021-06-03T09:04:54.126Z</time>
      </trkpt>
      <trkpt lat="48.64716" lon="-3.85413">
        <ele>10</ele>
        <time>2021-06-03T09:04:59.086Z</time>
      </trkpt>
      <trkpt lat="48.64721" lon="-3.85417">
        <ele>10</ele>
        <time>2021-06-03T09:05:04.087Z</time>
      </trkpt>
      <trkpt lat="48.64727" lon="-3.85421">
        <ele>10</ele>
        <time>2021-06-03T09:05:09.088Z</time>
      </trkpt>
      <trkpt lat="48.64731" lon="-3.85425">
        <ele>10</ele>
        <time>2021-06-03T09:05:14.085Z</time>
      </trkpt>
      <trkpt lat="48.64737" lon="-3.8543">
        <ele>13</ele>
        <time>2021-06-03T09:05:19.072Z</time>
      </trkpt>
      <trkpt lat="48.64737" lon="-3.8543">
        <ele>13</ele>
        <time>2021-06-03T09:05:23.076Z</time>
      </trkpt>
      <trkpt lat="48.64737" lon="-3.8543">
        <ele>13</ele>
        <time>2021-06-03T09:05:32.081Z</time>
      </trkpt>
      <trkpt lat="48.64737" lon="-3.8543">
        <ele>13</ele>
        <time>2021-06-03T09:05:36.087Z</time>
      </trkpt>
      <trkpt lat="48.64737" lon="-3.8543">
        <ele>13</ele>
        <time>2021-06-03T09:05:41.084Z</time>
      </trkpt>
      <trkpt lat="48.64741" lon="-3.85434">
        <ele>10</ele>
        <time>2021-06-03T09:05:46.085Z</time>
      </trkpt>
      <trkpt lat="48.64746" lon="-3.8544">
        <ele>10</ele>
        <time>2021-06-03T09:05:51.094Z</time>
      </trkpt>
      <trkpt lat="48.64751" lon="-3.85447">
        <ele>10</ele>
        <time>2021-06-03T09:05:56.093Z</time>
      </trkpt>
      <trkpt lat="48.64755" lon="-3.85452">
        <ele>10</ele>
        <time>2021-06-03T09:06:01.081Z</time>
      </trkpt>
      <trkpt lat="48.6476" lon="-3.85458">
        <ele>6</ele>
        <time>2021-06-03T09:06:06.089Z</time>
      </trkpt>
      <trkpt lat="48.64765" lon="-3.85465">
        <ele>8</ele>
        <time>2021-06-03T09:06:11.111Z</time>
      </trkpt>
      <trkpt lat="48.6477" lon="-3.85473">
        <ele>8</ele>
        <time>2021-06-03T09:06:16.085Z</time>
      </trkpt>
      <trkpt lat="48.64775" lon="-3.8548">
        <ele>8</ele>
        <time>2021-06-03T09:06:21.083Z</time>
      </trkpt>
      <trkpt lat="48.64779" lon="-3.85486">
        <ele>5</ele>
        <time>2021-06-03T09:06:26.084Z</time>
      </trkpt>
      <trkpt lat="48.64784" lon="-3.85494">
        <ele>5</ele>
        <time>2021-06-03T09:06:31.090Z</time>
      </trkpt>
      <trkpt lat="48.64789" lon="-3.85502">
        <ele>5</ele>
        <time>2021-06-03T09:06:36.086Z</time>
      </trkpt>
      <trkpt lat="48.64794" lon="-3.85506">
        <ele>5</ele>
        <time>2021-06-03T09:06:40.115Z</time>
      </trkpt>
      <trkpt lat="48.648" lon="-3.85511">
        <ele>5</ele>
        <time>2021-06-03T09:06:45.081Z</time>
      </trkpt>
      <trkpt lat="48.64805" lon="-3.85517">
        <ele>4</ele>
        <time>2021-06-03T09:06:50.093Z</time>
      </trkpt>
      <trkpt lat="48.64811" lon="-3.85524">
        <ele>4</ele>
        <time>2021-06-03T09:06:55.092Z</time>
      </trkpt>
      <trkpt lat="48.64816" lon="-3.8553">
        <ele>4</ele>
        <time>2021-06-03T09:07:00.085Z</time>
      </trkpt>
      <trkpt lat="48.64819" lon="-3.85538">
        <ele>4</ele>
        <time>2021-06-03T09:07:04.090Z</time>
      </trkpt>
      <trkpt lat="48.64823" lon="-3.85548">
        <ele>4</ele>
        <time>2021-06-03T09:07:09.087Z</time>
      </trkpt>
      <trkpt lat="48.64825" lon="-3.85556">
        <ele>4</ele>
        <time>2021-06-03T09:07:13.093Z</time>
      </trkpt>
      <trkpt lat="48.64827" lon="-3.85563">
        <ele>4</ele>
        <time>2021-06-03T09:07:17.090Z</time>
      </trkpt>
      <trkpt lat="48.64829" lon="-3.85572">
        <ele>4</ele>
        <time>2021-06-03T09:07:22.092Z</time>
      </trkpt>
      <trkpt lat="48.64831" lon="-3.85582">
        <ele>4</ele>
        <time>2021-06-03T09:07:27.083Z</time>
      </trkpt>
      <trkpt lat="48.64833" lon="-3.85589">
        <ele>4</ele>
        <time>2021-06-03T09:07:31.090Z</time>
      </trkpt>
      <trkpt lat="48.64834" lon="-3.85598">
        <ele>3</ele>
        <time>2021-06-03T09:07:36.087Z</time>
      </trkpt>
      <trkpt lat="48.64836" lon="-3.85606">
        <ele>3</ele>
        <time>2021-06-03T09:07:41.094Z</time>
      </trkpt>
      <trkpt lat="48.64838" lon="-3.85612">
        <ele>3</ele>
        <time>2021-06-03T09:07:45.092Z</time>
      </trkpt>
      <trkpt lat="48.64842" lon="-3.85621">
        <ele>3</ele>
        <time>2021-06-03T09:07:50.101Z</time>
      </trkpt>
      <trkpt lat="48.64847" lon="-3.85622">
        <ele>3</ele>
        <time>2021-06-03T09:07:54.103Z</time>
      </trkpt>
      <trkpt lat="48.64852" lon="-3.85631">
        <ele>3</ele>
        <time>2021-06-03T09:07:59.093Z</time>
      </trkpt>
      <trkpt lat="48.64857" lon="-3.85635">
        <ele>3</ele>
        <time>2021-06-03T09:08:04.092Z</time>
      </trkpt>
      <trkpt lat="48.64863" lon="-3.85636">
        <ele>3</ele>
        <time>2021-06-03T09:08:09.096Z</time>
      </trkpt>
      <trkpt lat="48.64868" lon="-3.85636">
        <ele>3</ele>
        <time>2021-06-03T09:08:14.094Z</time>
      </trkpt>
      <trkpt lat="48.64873" lon="-3.85634">
        <ele>3</ele>
        <time>2021-06-03T09:08:19.086Z</time>
      </trkpt>
      <trkpt lat="48.64878" lon="-3.85633">
        <ele>4</ele>
        <time>2021-06-03T09:08:24.089Z</time>
      </trkpt>
      <trkpt lat="48.64884" lon="-3.85629">
        <ele>4</ele>
        <time>2021-06-03T09:08:29.078Z</time>
      </trkpt>
      <trkpt lat="48.64889" lon="-3.85624">
        <ele>5</ele>
        <time>2021-06-03T09:08:34.077Z</time>
      </trkpt>
      <trkpt lat="48.64894" lon="-3.8562">
        <ele>5</ele>
        <time>2021-06-03T09:08:38.082Z</time>
      </trkpt>
      <trkpt lat="48.64899" lon="-3.85617">
        <ele>5</ele>
        <time>2021-06-03T09:08:43.085Z</time>
      </trkpt>
      <trkpt lat="48.64903" lon="-3.85615">
        <ele>4</ele>
        <time>2021-06-03T09:08:47.090Z</time>
      </trkpt>
      <trkpt lat="48.64903" lon="-3.85616">
        <ele>4</ele>
        <time>2021-06-03T09:08:52.087Z</time>
      </trkpt>
      <trkpt lat="48.64909" lon="-3.85611">
        <ele>4</ele>
        <time>2021-06-03T09:08:57.074Z</time>
      </trkpt>
      <trkpt lat="48.64914" lon="-3.85606">
        <ele>4</ele>
        <time>2021-06-03T09:09:01.085Z</time>
      </trkpt>
      <trkpt lat="48.6492" lon="-3.85604">
        <ele>4</ele>
        <time>2021-06-03T09:09:06.080Z</time>
      </trkpt>
      <trkpt lat="48.64924" lon="-3.85601">
        <ele>4</ele>
        <time>2021-06-03T09:09:11.092Z</time>
      </trkpt>
      <trkpt lat="48.64927" lon="-3.85598">
        <ele>4</ele>
        <time>2021-06-03T09:09:16.090Z</time>
      </trkpt>
      <trkpt lat="48.64931" lon="-3.85596">
        <ele>7</ele>
        <time>2021-06-03T09:09:20.103Z</time>
      </trkpt>
      <trkpt lat="48.64934" lon="-3.85591">
        <ele>7</ele>
        <time>2021-06-03T09:09:25.077Z</time>
      </trkpt>
      <trkpt lat="48.6494" lon="-3.85585">
        <ele>7</ele>
        <time>2021-06-03T09:09:30.081Z</time>
      </trkpt>
      <trkpt lat="48.64946" lon="-3.85584">
        <ele>7</ele>
        <time>2021-06-03T09:09:35.085Z</time>
      </trkpt>
      <trkpt lat="48.6495" lon="-3.8558">
        <ele>7</ele>
        <time>2021-06-03T09:09:39.085Z</time>
      </trkpt>
      <trkpt lat="48.64952" lon="-3.85582">
        <ele>7</ele>
        <time>2021-06-03T09:09:44.092Z</time>
      </trkpt>
      <trkpt lat="48.64955" lon="-3.8558">
        <ele>7</ele>
        <time>2021-06-03T09:09:49.085Z</time>
      </trkpt>
      <trkpt lat="48.64958" lon="-3.85576">
        <ele>7</ele>
        <time>2021-06-03T09:09:54.078Z</time>
      </trkpt>
      <trkpt lat="48.64962" lon="-3.85574">
        <ele>7</ele>
        <time>2021-06-03T09:09:58.095Z</time>
      </trkpt>
      <trkpt lat="48.64967" lon="-3.85572">
        <ele>7</ele>
        <time>2021-06-03T09:10:03.089Z</time>
      </trkpt>
      <trkpt lat="48.6497" lon="-3.8557">
        <ele>7</ele>
        <time>2021-06-03T09:10:08.079Z</time>
      </trkpt>
      <trkpt lat="48.64978" lon="-3.85569">
        <ele>11</ele>
        <time>2021-06-03T09:10:13.091Z</time>
      </trkpt>
      <trkpt lat="48.64984" lon="-3.85566">
        <ele>11</ele>
        <time>2021-06-03T09:10:18.089Z</time>
      </trkpt>
      <trkpt lat="48.64989" lon="-3.85564">
        <ele>13</ele>
        <time>2021-06-03T09:10:22.102Z</time>
      </trkpt>
      <trkpt lat="48.64994" lon="-3.85563">
        <ele>13</ele>
        <time>2021-06-03T09:10:27.079Z</time>
      </trkpt>
      <trkpt lat="48.64999" lon="-3.85563">
        <ele>13</ele>
        <time>2021-06-03T09:10:31.080Z</time>
      </trkpt>
      <trkpt lat="48.65003" lon="-3.85562">
        <ele>13</ele>
        <time>2021-06-03T09:10:36.087Z</time>
      </trkpt>
      <trkpt lat="48.65005" lon="-3.85561">
        <ele>13</ele>
        <time>2021-06-03T09:10:41.083Z</time>
      </trkpt>
      <trkpt lat="48.65008" lon="-3.85561">
        <ele>13</ele>
        <time>2021-06-03T09:10:46.085Z</time>
      </trkpt>
      <trkpt lat="48.65013" lon="-3.85559">
        <ele>13</ele>
        <time>2021-06-03T09:10:51.083Z</time>
      </trkpt>
      <trkpt lat="48.65019" lon="-3.85557">
        <ele>13</ele>
        <time>2021-06-03T09:10:56.089Z</time>
      </trkpt>
      <trkpt lat="48.65025" lon="-3.85555">
        <ele>13</ele>
        <time>2021-06-03T09:11:01.088Z</time>
      </trkpt>
      <trkpt lat="48.65031" lon="-3.85554">
        <ele>13</ele>
        <time>2021-06-03T09:11:05.090Z</time>
      </trkpt>
      <trkpt lat="48.65038" lon="-3.85555">
        <ele>13</ele>
        <time>2021-06-03T09:11:10.086Z</time>
      </trkpt>
      <trkpt lat="48.65043" lon="-3.85555">
        <ele>13</ele>
        <time>2021-06-03T09:11:14.096Z</time>
      </trkpt>
      <trkpt lat="48.65049" lon="-3.85555">
        <ele>13</ele>
        <time>2021-06-03T09:11:19.081Z</time>
      </trkpt>
      <trkpt lat="48.65053" lon="-3.85551">
        <ele>13</ele>
        <time>2021-06-03T09:11:24.093Z</time>
      </trkpt>
      <trkpt lat="48.65057" lon="-3.85549">
        <ele>13</ele>
        <time>2021-06-03T09:11:29.086Z</time>
      </trkpt>
      <trkpt lat="48.6506" lon="-3.85548">
        <ele>13</ele>
        <time>2021-06-03T09:11:33.099Z</time>
      </trkpt>
      <trkpt lat="48.65067" lon="-3.85548">
        <ele>13</ele>
        <time>2021-06-03T09:11:38.089Z</time>
      </trkpt>
      <trkpt lat="48.65072" lon="-3.85552">
        <ele>16</ele>
        <time>2021-06-03T09:11:43.089Z</time>
      </trkpt>
      <trkpt lat="48.65078" lon="-3.85556">
        <ele>16</ele>
        <time>2021-06-03T09:11:48.080Z</time>
      </trkpt>
      <trkpt lat="48.65083" lon="-3.85556">
        <ele>16</ele>
        <time>2021-06-03T09:11:52.091Z</time>
      </trkpt>
      <trkpt lat="48.65089" lon="-3.85557">
        <ele>16</ele>
        <time>2021-06-03T09:11:57.096Z</time>
      </trkpt>
      <trkpt lat="48.65096" lon="-3.8556">
        <ele>16</ele>
        <time>2021-06-03T09:12:02.093Z</time>
      </trkpt>
      <trkpt lat="48.65101" lon="-3.85561">
        <ele>20</ele>
        <time>2021-06-03T09:12:06.092Z</time>
      </trkpt>
      <trkpt lat="48.65107" lon="-3.85562">
        <ele>20</ele>
        <time>2021-06-03T09:12:11.097Z</time>
      </trkpt>
      <trkpt lat="48.65114" lon="-3.85564">
        <ele>20</ele>
        <time>2021-06-03T09:12:16.092Z</time>
      </trkpt>
      <trkpt lat="48.65121" lon="-3.85563">
        <ele>20</ele>
        <time>2021-06-03T09:12:21.075Z</time>
      </trkpt>
      <trkpt lat="48.65125" lon="-3.8556">
        <ele>20</ele>
        <time>2021-06-03T09:12:25.082Z</time>
      </trkpt>
      <trkpt lat="48.65129" lon="-3.85558">
        <ele>20</ele>
        <time>2021-06-03T09:12:29.096Z</time>
      </trkpt>
      <trkpt lat="48.65136" lon="-3.8556">
        <ele>20</ele>
        <time>2021-06-03T09:12:34.089Z</time>
      </trkpt>
      <trkpt lat="48.65142" lon="-3.85563">
        <ele>20</ele>
        <time>2021-06-03T09:12:39.090Z</time>
      </trkpt>
      <trkpt lat="48.65148" lon="-3.85567">
        <ele>20</ele>
        <time>2021-06-03T09:12:44.095Z</time>
      </trkpt>
      <trkpt lat="48.65153" lon="-3.85569">
        <ele>21</ele>
        <time>2021-06-03T09:12:48.105Z</time>
      </trkpt>
      <trkpt lat="48.65159" lon="-3.85571">
        <ele>16</ele>
        <time>2021-06-03T09:12:53.080Z</time>
      </trkpt>
      <trkpt lat="48.65163" lon="-3.85573">
        <ele>16</ele>
        <time>2021-06-03T09:12:57.087Z</time>
      </trkpt>
      <trkpt lat="48.65168" lon="-3.85575">
        <ele>16</ele>
        <time>2021-06-03T09:13:01.092Z</time>
      </trkpt>
      <trkpt lat="48.65173" lon="-3.85576">
        <ele>16</ele>
        <time>2021-06-03T09:13:06.084Z</time>
      </trkpt>
      <trkpt lat="48.65179" lon="-3.85576">
        <ele>16</ele>
        <time>2021-06-03T09:13:11.095Z</time>
      </trkpt>
      <trkpt lat="48.65184" lon="-3.85581">
        <ele>22</ele>
        <time>2021-06-03T09:13:16.079Z</time>
      </trkpt>
      <trkpt lat="48.65188" lon="-3.85586">
        <ele>22</ele>
        <time>2021-06-03T09:13:20.090Z</time>
      </trkpt>
      <trkpt lat="48.65192" lon="-3.85592">
        <ele>22</ele>
        <time>2021-06-03T09:13:25.086Z</time>
      </trkpt>
      <trkpt lat="48.65198" lon="-3.85597">
        <ele>18</ele>
        <time>2021-06-03T09:13:30.083Z</time>
      </trkpt>
      <trkpt lat="48.65203" lon="-3.856">
        <ele>18</ele>
        <time>2021-06-03T09:13:35.100Z</time>
      </trkpt>
      <trkpt lat="48.65209" lon="-3.85602">
        <ele>24</ele>
        <time>2021-06-03T09:13:40.092Z</time>
      </trkpt>
      <trkpt lat="48.65213" lon="-3.85607">
        <ele>24</ele>
        <time>2021-06-03T09:13:45.086Z</time>
      </trkpt>
      <trkpt lat="48.65215" lon="-3.85611">
        <ele>24</ele>
        <time>2021-06-03T09:13:49.091Z</time>
      </trkpt>
      <trkpt lat="48.65216" lon="-3.85619">
        <ele>24</ele>
        <time>2021-06-03T09:13:54.084Z</time>
      </trkpt>
      <trkpt lat="48.65219" lon="-3.85625">
        <ele>24</ele>
        <time>2021-06-03T09:13:59.088Z</time>
      </trkpt>
      <trkpt lat="48.6522" lon="-3.85626">
        <ele>18</ele>
        <time>2021-06-03T09:14:03.087Z</time>
      </trkpt>
      <trkpt lat="48.65219" lon="-3.85631">
        <ele>18</ele>
        <time>2021-06-03T09:14:08.079Z</time>
      </trkpt>
      <trkpt lat="48.65217" lon="-3.85634">
        <ele>18</ele>
        <time>2021-06-03T09:14:13.080Z</time>
      </trkpt>
      <trkpt lat="48.65216" lon="-3.85637">
        <ele>18</ele>
        <time>2021-06-03T09:14:17.090Z</time>
      </trkpt>
      <trkpt lat="48.65215" lon="-3.85643">
        <ele>18</ele>
        <time>2021-06-03T09:14:22.081Z</time>
      </trkpt>
      <trkpt lat="48.65217" lon="-3.85649">
        <ele>18</ele>
        <time>2021-06-03T09:14:27.087Z</time>
      </trkpt>
      <trkpt lat="48.65221" lon="-3.85655">
        <ele>11</ele>
        <time>2021-06-03T09:14:32.092Z</time>
      </trkpt>
      <trkpt lat="48.65226" lon="-3.8566">
        <ele>11</ele>
        <time>2021-06-03T09:14:37.091Z</time>
      </trkpt>
      <trkpt lat="48.65231" lon="-3.85667">
        <ele>11</ele>
        <time>2021-06-03T09:14:42.087Z</time>
      </trkpt>
      <trkpt lat="48.65239" lon="-3.85665">
        <ele>13</ele>
        <time>2021-06-03T09:14:47.078Z</time>
      </trkpt>
      <trkpt lat="48.65244" lon="-3.85669">
        <ele>13</ele>
        <time>2021-06-03T09:14:52.084Z</time>
      </trkpt>
      <trkpt lat="48.65249" lon="-3.85671">
        <ele>13</ele>
        <time>2021-06-03T09:14:56.090Z</time>
      </trkpt>
      <trkpt lat="48.65255" lon="-3.85676">
        <ele>13</ele>
        <time>2021-06-03T09:15:01.088Z</time>
      </trkpt>
      <trkpt lat="48.65261" lon="-3.85681">
        <ele>8</ele>
        <time>2021-06-03T09:15:06.092Z</time>
      </trkpt>
      <trkpt lat="48.65267" lon="-3.85686">
        <ele>9</ele>
        <time>2021-06-03T09:15:11.096Z</time>
      </trkpt>
      <trkpt lat="48.65272" lon="-3.85689">
        <ele>9</ele>
        <time>2021-06-03T09:15:15.098Z</time>
      </trkpt>
      <trkpt lat="48.65278" lon="-3.85691">
        <ele>9</ele>
        <time>2021-06-03T09:15:20.089Z</time>
      </trkpt>
      <trkpt lat="48.65283" lon="-3.85687">
        <ele>9</ele>
        <time>2021-06-03T09:15:25.093Z</time>
      </trkpt>
      <trkpt lat="48.6529" lon="-3.85687">
        <ele>9</ele>
        <time>2021-06-03T09:15:30.085Z</time>
      </trkpt>
      <trkpt lat="48.65295" lon="-3.85686">
        <ele>9</ele>
        <time>2021-06-03T09:15:35.079Z</time>
      </trkpt>
      <trkpt lat="48.65299" lon="-3.85685">
        <ele>9</ele>
        <time>2021-06-03T09:15:39.092Z</time>
      </trkpt>
      <trkpt lat="48.65305" lon="-3.85683">
        <ele>9</ele>
        <time>2021-06-03T09:15:44.084Z</time>
      </trkpt>
      <trkpt lat="48.65311" lon="-3.85685">
        <ele>9</ele>
        <time>2021-06-03T09:15:48.090Z</time>
      </trkpt>
      <trkpt lat="48.65317" lon="-3.85685">
        <ele>9</ele>
        <time>2021-06-03T09:15:53.086Z</time>
      </trkpt>
      <trkpt lat="48.65323" lon="-3.85684">
        <ele>9</ele>
        <time>2021-06-03T09:15:58.084Z</time>
      </trkpt>
      <trkpt lat="48.65329" lon="-3.85684">
        <ele>9</ele>
        <time>2021-06-03T09:16:03.087Z</time>
      </trkpt>
      <trkpt lat="48.65335" lon="-3.85683">
        <ele>9</ele>
        <time>2021-06-03T09:16:07.093Z</time>
      </trkpt>
      <trkpt lat="48.6534" lon="-3.8568">
        <ele>15</ele>
        <time>2021-06-03T09:16:11.094Z</time>
      </trkpt>
      <trkpt lat="48.65345" lon="-3.85678">
        <ele>15</ele>
        <time>2021-06-03T09:16:16.091Z</time>
      </trkpt>
      <trkpt lat="48.65351" lon="-3.8568">
        <ele>17</ele>
        <time>2021-06-03T09:16:21.084Z</time>
      </trkpt>
      <trkpt lat="48.65357" lon="-3.8568">
        <ele>17</ele>
        <time>2021-06-03T09:16:26.094Z</time>
      </trkpt>
      <trkpt lat="48.65362" lon="-3.85679">
        <ele>17</ele>
        <time>2021-06-03T09:16:31.083Z</time>
      </trkpt>
      <trkpt lat="48.65366" lon="-3.85679">
        <ele>17</ele>
        <time>2021-06-03T09:16:35.087Z</time>
      </trkpt>
      <trkpt lat="48.65371" lon="-3.85679">
        <ele>17</ele>
        <time>2021-06-03T09:16:40.078Z</time>
      </trkpt>
      <trkpt lat="48.65374" lon="-3.85681">
        <ele>11</ele>
        <time>2021-06-03T09:16:44.092Z</time>
      </trkpt>
      <trkpt lat="48.65379" lon="-3.85683">
        <ele>11</ele>
        <time>2021-06-03T09:16:49.093Z</time>
      </trkpt>
      <trkpt lat="48.65383" lon="-3.85686">
        <ele>11</ele>
        <time>2021-06-03T09:16:54.096Z</time>
      </trkpt>
      <trkpt lat="48.65387" lon="-3.85688">
        <ele>11</ele>
        <time>2021-06-03T09:16:58.089Z</time>
      </trkpt>
      <trkpt lat="48.65394" lon="-3.85689">
        <ele>11</ele>
        <time>2021-06-03T09:17:03.085Z</time>
      </trkpt>
      <trkpt lat="48.65399" lon="-3.85689">
        <ele>11</ele>
        <time>2021-06-03T09:17:07.090Z</time>
      </trkpt>
      <trkpt lat="48.65404" lon="-3.85686">
        <ele>13</ele>
        <time>2021-06-03T09:17:12.090Z</time>
      </trkpt>
      <trkpt lat="48.65409" lon="-3.85682">
        <ele>13</ele>
        <time>2021-06-03T09:17:17.108Z</time>
      </trkpt>
      <trkpt lat="48.65413" lon="-3.8568">
        <ele>18</ele>
        <time>2021-06-03T09:17:22.101Z</time>
      </trkpt>
      <trkpt lat="48.65419" lon="-3.8568">
        <ele>18</ele>
        <time>2021-06-03T09:17:27.079Z</time>
      </trkpt>
      <trkpt lat="48.65426" lon="-3.85677">
        <ele>18</ele>
        <time>2021-06-03T09:17:32.091Z</time>
      </trkpt>
      <trkpt lat="48.6543" lon="-3.85675">
        <ele>18</ele>
        <time>2021-06-03T09:17:36.094Z</time>
      </trkpt>
      <trkpt lat="48.65435" lon="-3.85673">
        <ele>19</ele>
        <time>2021-06-03T09:17:41.071Z</time>
      </trkpt>
      <trkpt lat="48.65439" lon="-3.85672">
        <ele>19</ele>
        <time>2021-06-03T09:17:45.092Z</time>
      </trkpt>
      <trkpt lat="48.65443" lon="-3.85675">
        <ele>19</ele>
        <time>2021-06-03T09:17:50.087Z</time>
      </trkpt>
      <trkpt lat="48.65448" lon="-3.85679">
        <ele>19</ele>
        <time>2021-06-03T09:17:55.082Z</time>
      </trkpt>
      <trkpt lat="48.65451" lon="-3.85683">
        <ele>12</ele>
        <time>2021-06-03T09:17:59.084Z</time>
      </trkpt>
      <trkpt lat="48.65456" lon="-3.85688">
        <ele>12</ele>
        <time>2021-06-03T09:18:04.106Z</time>
      </trkpt>
      <trkpt lat="48.65463" lon="-3.85691">
        <ele>12</ele>
        <time>2021-06-03T09:18:09.091Z</time>
      </trkpt>
      <trkpt lat="48.65469" lon="-3.85691">
        <ele>12</ele>
        <time>2021-06-03T09:18:14.092Z</time>
      </trkpt>
      <trkpt lat="48.65474" lon="-3.8569">
        <ele>12</ele>
        <time>2021-06-03T09:18:19.087Z</time>
      </trkpt>
      <trkpt lat="48.65477" lon="-3.8569">
        <ele>12</ele>
        <time>2021-06-03T09:18:23.093Z</time>
      </trkpt>
      <trkpt lat="48.6548" lon="-3.85694">
        <ele>12</ele>
        <time>2021-06-03T09:18:27.095Z</time>
      </trkpt>
      <trkpt lat="48.65487" lon="-3.85692">
        <ele>11</ele>
        <time>2021-06-03T09:18:32.084Z</time>
      </trkpt>
      <trkpt lat="48.65493" lon="-3.85692">
        <ele>11</ele>
        <time>2021-06-03T09:18:37.085Z</time>
      </trkpt>
      <trkpt lat="48.65499" lon="-3.85693">
        <ele>11</ele>
        <time>2021-06-03T09:18:42.097Z</time>
      </trkpt>
      <trkpt lat="48.65505" lon="-3.85694">
        <ele>11</ele>
        <time>2021-06-03T09:18:47.089Z</time>
      </trkpt>
      <trkpt lat="48.65511" lon="-3.85696">
        <ele>11</ele>
        <time>2021-06-03T09:18:52.092Z</time>
      </trkpt>
      <trkpt lat="48.65518" lon="-3.85697">
        <ele>11</ele>
        <time>2021-06-03T09:18:57.097Z</time>
      </trkpt>
      <trkpt lat="48.65524" lon="-3.857">
        <ele>11</ele>
        <time>2021-06-03T09:19:02.095Z</time>
      </trkpt>
      <trkpt lat="48.65528" lon="-3.85703">
        <ele>11</ele>
        <time>2021-06-03T09:19:06.096Z</time>
      </trkpt>
      <trkpt lat="48.65534" lon="-3.85707">
        <ele>11</ele>
        <time>2021-06-03T09:19:11.091Z</time>
      </trkpt>
      <trkpt lat="48.6554" lon="-3.85711">
        <ele>6</ele>
        <time>2021-06-03T09:19:16.089Z</time>
      </trkpt>
      <trkpt lat="48.65546" lon="-3.85713">
        <ele>8</ele>
        <time>2021-06-03T09:19:21.081Z</time>
      </trkpt>
      <trkpt lat="48.65552" lon="-3.85713">
        <ele>8</ele>
        <time>2021-06-03T09:19:26.084Z</time>
      </trkpt>
      <trkpt lat="48.65557" lon="-3.85711">
        <ele>8</ele>
        <time>2021-06-03T09:19:30.084Z</time>
      </trkpt>
      <trkpt lat="48.65563" lon="-3.85708">
        <ele>13</ele>
        <time>2021-06-03T09:19:35.085Z</time>
      </trkpt>
      <trkpt lat="48.65566" lon="-3.85704">
        <ele>13</ele>
        <time>2021-06-03T09:19:40.080Z</time>
      </trkpt>
      <trkpt lat="48.6557" lon="-3.857">
        <ele>14</ele>
        <time>2021-06-03T09:19:44.077Z</time>
      </trkpt>
      <trkpt lat="48.65576" lon="-3.857">
        <ele>14</ele>
        <time>2021-06-03T09:19:49.084Z</time>
      </trkpt>
      <trkpt lat="48.65581" lon="-3.85701">
        <ele>14</ele>
        <time>2021-06-03T09:19:53.093Z</time>
      </trkpt>
      <trkpt lat="48.65587" lon="-3.857">
        <ele>14</ele>
        <time>2021-06-03T09:19:58.083Z</time>
      </trkpt>
      <trkpt lat="48.65592" lon="-3.85701">
        <ele>14</ele>
        <time>2021-06-03T09:20:03.078Z</time>
      </trkpt>
      <trkpt lat="48.65597" lon="-3.85702">
        <ele>14</ele>
        <time>2021-06-03T09:20:07.085Z</time>
      </trkpt>
      <trkpt lat="48.65604" lon="-3.85704">
        <ele>13</ele>
        <time>2021-06-03T09:20:12.092Z</time>
      </trkpt>
      <trkpt lat="48.65609" lon="-3.857">
        <ele>13</ele>
        <time>2021-06-03T09:20:17.090Z</time>
      </trkpt>
      <trkpt lat="48.65612" lon="-3.85696">
        <ele>13</ele>
        <time>2021-06-03T09:20:21.092Z</time>
      </trkpt>
      <trkpt lat="48.65616" lon="-3.85694">
        <ele>13</ele>
        <time>2021-06-03T09:20:25.112Z</time>
      </trkpt>
      <trkpt lat="48.65623" lon="-3.85691">
        <ele>13</ele>
        <time>2021-06-03T09:20:30.092Z</time>
      </trkpt>
      <trkpt lat="48.65627" lon="-3.85691">
        <ele>13</ele>
        <time>2021-06-03T09:20:34.099Z</time>
      </trkpt>
      <trkpt lat="48.65634" lon="-3.85693">
        <ele>13</ele>
        <time>2021-06-03T09:20:39.090Z</time>
      </trkpt>
      <trkpt lat="48.65641" lon="-3.85695">
        <ele>13</ele>
        <time>2021-06-03T09:20:44.087Z</time>
      </trkpt>
      <trkpt lat="48.65647" lon="-3.85697">
        <ele>13</ele>
        <time>2021-06-03T09:20:49.086Z</time>
      </trkpt>
      <trkpt lat="48.65653" lon="-3.85699">
        <ele>13</ele>
        <time>2021-06-03T09:20:54.095Z</time>
      </trkpt>
      <trkpt lat="48.65659" lon="-3.85702">
        <ele>16</ele>
        <time>2021-06-03T09:20:59.099Z</time>
      </trkpt>
      <trkpt lat="48.65665" lon="-3.85704">
        <ele>16</ele>
        <time>2021-06-03T09:21:04.091Z</time>
      </trkpt>
      <trkpt lat="48.65669" lon="-3.85707">
        <ele>16</ele>
        <time>2021-06-03T09:21:09.086Z</time>
      </trkpt>
      <trkpt lat="48.65674" lon="-3.85711">
        <ele>10</ele>
        <time>2021-06-03T09:21:13.094Z</time>
      </trkpt>
      <trkpt lat="48.65678" lon="-3.85714">
        <ele>10</ele>
        <time>2021-06-03T09:21:17.106Z</time>
      </trkpt>
      <trkpt lat="48.65685" lon="-3.85718">
        <ele>14</ele>
        <time>2021-06-03T09:21:22.091Z</time>
      </trkpt>
      <trkpt lat="48.65692" lon="-3.85722">
        <ele>14</ele>
        <time>2021-06-03T09:21:27.086Z</time>
      </trkpt>
      <trkpt lat="48.65697" lon="-3.85726">
        <ele>14</ele>
        <time>2021-06-03T09:21:31.092Z</time>
      </trkpt>
      <trkpt lat="48.65704" lon="-3.85731">
        <ele>14</ele>
        <time>2021-06-03T09:21:36.088Z</time>
      </trkpt>
      <trkpt lat="48.6571" lon="-3.85736">
        <ele>14</ele>
        <time>2021-06-03T09:21:41.094Z</time>
      </trkpt>
      <trkpt lat="48.65713" lon="-3.85745">
        <ele>14</ele>
        <time>2021-06-03T09:21:45.090Z</time>
      </trkpt>
      <trkpt lat="48.65718" lon="-3.85755">
        <ele>14</ele>
        <time>2021-06-03T09:21:50.092Z</time>
      </trkpt>
      <trkpt lat="48.65721" lon="-3.85762">
        <ele>14</ele>
        <time>2021-06-03T09:21:55.097Z</time>
      </trkpt>
      <trkpt lat="48.65725" lon="-3.85768">
        <ele>9</ele>
        <time>2021-06-03T09:22:00.082Z</time>
      </trkpt>
      <trkpt lat="48.65727" lon="-3.85776">
        <ele>9</ele>
        <time>2021-06-03T09:22:04.085Z</time>
      </trkpt>
      <trkpt lat="48.65731" lon="-3.85784">
        <ele>9</ele>
        <time>2021-06-03T09:22:09.086Z</time>
      </trkpt>
      <trkpt lat="48.65737" lon="-3.85786">
        <ele>10</ele>
        <time>2021-06-03T09:22:14.086Z</time>
      </trkpt>
      <trkpt lat="48.65741" lon="-3.85786">
        <ele>10</ele>
        <time>2021-06-03T09:22:19.088Z</time>
      </trkpt>
      <trkpt lat="48.65745" lon="-3.85783">
        <ele>10</ele>
        <time>2021-06-03T09:22:24.090Z</time>
      </trkpt>
      <trkpt lat="48.65749" lon="-3.85783">
        <ele>10</ele>
        <time>2021-06-03T09:22:29.094Z</time>
      </trkpt>
      <trkpt lat="48.65754" lon="-3.85784">
        <ele>10</ele>
        <time>2021-06-03T09:22:34.074Z</time>
      </trkpt>
      <trkpt lat="48.65759" lon="-3.85788">
        <ele>10</ele>
        <time>2021-06-03T09:22:39.089Z</time>
      </trkpt>
      <trkpt lat="48.65765" lon="-3.85789">
        <ele>11</ele>
        <time>2021-06-03T09:22:44.074Z</time>
      </trkpt>
      <trkpt lat="48.65771" lon="-3.85787">
        <ele>11</ele>
        <time>2021-06-03T09:22:49.083Z</time>
      </trkpt>
      <trkpt lat="48.65776" lon="-3.85785">
        <ele>11</ele>
        <time>2021-06-03T09:22:54.080Z</time>
      </trkpt>
      <trkpt lat="48.65782" lon="-3.85784">
        <ele>11</ele>
        <time>2021-06-03T09:22:59.085Z</time>
      </trkpt>
      <trkpt lat="48.65789" lon="-3.85783">
        <ele>11</ele>
        <time>2021-06-03T09:23:04.075Z</time>
      </trkpt>
      <trkpt lat="48.65794" lon="-3.85782">
        <ele>13</ele>
        <time>2021-06-03T09:23:08.085Z</time>
      </trkpt>
      <trkpt lat="48.65799" lon="-3.8578">
        <ele>13</ele>
        <time>2021-06-03T09:23:13.103Z</time>
      </trkpt>
      <trkpt lat="48.65804" lon="-3.85778">
        <ele>13</ele>
        <time>2021-06-03T09:23:18.091Z</time>
      </trkpt>
      <trkpt lat="48.65808" lon="-3.85774">
        <ele>13</ele>
        <time>2021-06-03T09:23:22.092Z</time>
      </trkpt>
      <trkpt lat="48.65812" lon="-3.8577">
        <ele>13</ele>
        <time>2021-06-03T09:23:27.096Z</time>
      </trkpt>
      <trkpt lat="48.65815" lon="-3.85765">
        <ele>13</ele>
        <time>2021-06-03T09:23:32.106Z</time>
      </trkpt>
      <trkpt lat="48.65819" lon="-3.85759">
        <ele>20</ele>
        <time>2021-06-03T09:23:37.096Z</time>
      </trkpt>
      <trkpt lat="48.65823" lon="-3.85756">
        <ele>18</ele>
        <time>2021-06-03T09:23:42.091Z</time>
      </trkpt>
      <trkpt lat="48.65823" lon="-3.8575">
        <ele>18</ele>
        <time>2021-06-03T09:23:47.095Z</time>
      </trkpt>
      <trkpt lat="48.65824" lon="-3.85746">
        <ele>18</ele>
        <time>2021-06-03T09:23:52.097Z</time>
      </trkpt>
      <trkpt lat="48.65828" lon="-3.85738">
        <ele>18</ele>
        <time>2021-06-03T09:23:57.088Z</time>
      </trkpt>
      <trkpt lat="48.65834" lon="-3.8573">
        <ele>25</ele>
        <time>2021-06-03T09:24:02.092Z</time>
      </trkpt>
      <trkpt lat="48.65838" lon="-3.85729">
        <ele>25</ele>
        <time>2021-06-03T09:24:06.100Z</time>
      </trkpt>
      <trkpt lat="48.65841" lon="-3.85726">
        <ele>25</ele>
        <time>2021-06-03T09:24:11.092Z</time>
      </trkpt>
      <trkpt lat="48.65843" lon="-3.85723">
        <ele>25</ele>
        <time>2021-06-03T09:24:16.088Z</time>
      </trkpt>
      <trkpt lat="48.65843" lon="-3.85719">
        <ele>25</ele>
        <time>2021-06-03T09:24:21.090Z</time>
      </trkpt>
      <trkpt lat="48.65845" lon="-3.85715">
        <ele>25</ele>
        <time>2021-06-03T09:24:26.075Z</time>
      </trkpt>
      <trkpt lat="48.65847" lon="-3.85712">
        <ele>25</ele>
        <time>2021-06-03T09:24:30.080Z</time>
      </trkpt>
      <trkpt lat="48.6585" lon="-3.85709">
        <ele>20</ele>
        <time>2021-06-03T09:24:35.087Z</time>
      </trkpt>
      <trkpt lat="48.65854" lon="-3.85708">
        <ele>27</ele>
        <time>2021-06-03T09:24:40.086Z</time>
      </trkpt>
      <trkpt lat="48.65859" lon="-3.85706">
        <ele>27</ele>
        <time>2021-06-03T09:24:44.097Z</time>
      </trkpt>
      <trkpt lat="48.65863" lon="-3.85704">
        <ele>27</ele>
        <time>2021-06-03T09:24:49.088Z</time>
      </trkpt>
      <trkpt lat="48.65867" lon="-3.85704">
        <ele>27</ele>
        <time>2021-06-03T09:24:53.105Z</time>
      </trkpt>
      <trkpt lat="48.65871" lon="-3.85708">
        <ele>27</ele>
        <time>2021-06-03T09:24:58.088Z</time>
      </trkpt>
      <trkpt lat="48.65875" lon="-3.85713">
        <ele>20</ele>
        <time>2021-06-03T09:25:03.086Z</time>
      </trkpt>
      <trkpt lat="48.6588" lon="-3.85713">
        <ele>15</ele>
        <time>2021-06-03T09:25:08.083Z</time>
      </trkpt>
      <trkpt lat="48.65883" lon="-3.85713">
        <ele>15</ele>
        <time>2021-06-03T09:25:12.092Z</time>
      </trkpt>
      <trkpt lat="48.65888" lon="-3.85715">
        <ele>15</ele>
        <time>2021-06-03T09:25:17.115Z</time>
      </trkpt>
      <trkpt lat="48.65892" lon="-3.85717">
        <ele>15</ele>
        <time>2021-06-03T09:25:22.088Z</time>
      </trkpt>
      <trkpt lat="48.65899" lon="-3.85718">
        <ele>15</ele>
        <time>2021-06-03T09:25:27.087Z</time>
      </trkpt>
      <trkpt lat="48.65905" lon="-3.85716">
        <ele>11</ele>
        <time>2021-06-03T09:25:32.092Z</time>
      </trkpt>
      <trkpt lat="48.6591" lon="-3.85715">
        <ele>11</ele>
        <time>2021-06-03T09:25:37.088Z</time>
      </trkpt>
      <trkpt lat="48.65916" lon="-3.85714">
        <ele>11</ele>
        <time>2021-06-03T09:25:41.093Z</time>
      </trkpt>
      <trkpt lat="48.65921" lon="-3.85713">
        <ele>11</ele>
        <time>2021-06-03T09:25:46.096Z</time>
      </trkpt>
      <trkpt lat="48.65927" lon="-3.8571">
        <ele>11</ele>
        <time>2021-06-03T09:25:51.100Z</time>
      </trkpt>
      <trkpt lat="48.65933" lon="-3.85706">
        <ele>18</ele>
        <time>2021-06-03T09:25:56.089Z</time>
      </trkpt>
      <trkpt lat="48.65937" lon="-3.85703">
        <ele>18</ele>
        <time>2021-06-03T09:26:00.099Z</time>
      </trkpt>
      <trkpt lat="48.65942" lon="-3.85699">
        <ele>18</ele>
        <time>2021-06-03T09:26:05.087Z</time>
      </trkpt>
      <trkpt lat="48.65948" lon="-3.85697">
        <ele>18</ele>
        <time>2021-06-03T09:26:10.092Z</time>
      </trkpt>
      <trkpt lat="48.65952" lon="-3.85695">
        <ele>18</ele>
        <time>2021-06-03T09:26:14.096Z</time>
      </trkpt>
      <trkpt lat="48.65958" lon="-3.85694">
        <ele>18</ele>
        <time>2021-06-03T09:26:19.089Z</time>
      </trkpt>
      <trkpt lat="48.65963" lon="-3.85691">
        <ele>14</ele>
        <time>2021-06-03T09:26:24.095Z</time>
      </trkpt>
      <trkpt lat="48.65969" lon="-3.85689">
        <ele>14</ele>
        <time>2021-06-03T09:26:29.101Z</time>
      </trkpt>
      <trkpt lat="48.65974" lon="-3.85684">
        <ele>14</ele>
        <time>2021-06-03T09:26:34.076Z</time>
      </trkpt>
      <trkpt lat="48.65978" lon="-3.85681">
        <ele>14</ele>
        <time>2021-06-03T09:26:38.096Z</time>
      </trkpt>
      <trkpt lat="48.65984" lon="-3.85677">
        <ele>20</ele>
        <time>2021-06-03T09:26:43.088Z</time>
      </trkpt>
      <trkpt lat="48.65986" lon="-3.85671">
        <ele>16</ele>
        <time>2021-06-03T09:26:48.087Z</time>
      </trkpt>
      <trkpt lat="48.65991" lon="-3.85668">
        <ele>16</ele>
        <time>2021-06-03T09:26:53.094Z</time>
      </trkpt>
      <trkpt lat="48.65995" lon="-3.85665">
        <ele>16</ele>
        <time>2021-06-03T09:26:58.087Z</time>
      </trkpt>
      <trkpt lat="48.66" lon="-3.85664">
        <ele>16</ele>
        <time>2021-06-03T09:27:03.097Z</time>
      </trkpt>
      <trkpt lat="48.66004" lon="-3.8566">
        <ele>16</ele>
        <time>2021-06-03T09:27:07.101Z</time>
      </trkpt>
      <trkpt lat="48.66007" lon="-3.85657">
        <ele>16</ele>
        <time>2021-06-03T09:27:12.090Z</time>
      </trkpt>
      <trkpt lat="48.66011" lon="-3.85659">
        <ele>16</ele>
        <time>2021-06-03T09:27:17.081Z</time>
      </trkpt>
      <trkpt lat="48.66014" lon="-3.85662">
        <ele>11</ele>
        <time>2021-06-03T09:27:22.100Z</time>
      </trkpt>
      <trkpt lat="48.66017" lon="-3.85663">
        <ele>11</ele>
        <time>2021-06-03T09:27:27.091Z</time>
      </trkpt>
      <trkpt lat="48.66021" lon="-3.85663">
        <ele>11</ele>
        <time>2021-06-03T09:27:32.088Z</time>
      </trkpt>
      <trkpt lat="48.66026" lon="-3.85662">
        <ele>11</ele>
        <time>2021-06-03T09:27:37.091Z</time>
      </trkpt>
      <trkpt lat="48.66029" lon="-3.85661">
        <ele>11</ele>
        <time>2021-06-03T09:27:42.092Z</time>
      </trkpt>
      <trkpt lat="48.66032" lon="-3.8566">
        <ele>11</ele>
        <time>2021-06-03T09:27:46.096Z</time>
      </trkpt>
      <trkpt lat="48.66036" lon="-3.85662">
        <ele>11</ele>
        <time>2021-06-03T09:27:51.095Z</time>
      </trkpt>
      <trkpt lat="48.66041" lon="-3.85665">
        <ele>11</ele>
        <time>2021-06-03T09:27:56.092Z</time>
      </trkpt>
      <trkpt lat="48.66046" lon="-3.85662">
        <ele>10</ele>
        <time>2021-06-03T09:28:01.083Z</time>
      </trkpt>
      <trkpt lat="48.6605" lon="-3.85661">
        <ele>10</ele>
        <time>2021-06-03T09:28:05.089Z</time>
      </trkpt>
      <trkpt lat="48.66054" lon="-3.85657">
        <ele>10</ele>
        <time>2021-06-03T09:28:10.086Z</time>
      </trkpt>
      <trkpt lat="48.66056" lon="-3.85653">
        <ele>18</ele>
        <time>2021-06-03T09:28:15.090Z</time>
      </trkpt>
      <trkpt lat="48.66058" lon="-3.85648">
        <ele>18</ele>
        <time>2021-06-03T09:28:20.082Z</time>
      </trkpt>
      <trkpt lat="48.6606" lon="-3.85647">
        <ele>18</ele>
        <time>2021-06-03T09:28:24.084Z</time>
      </trkpt>
      <trkpt lat="48.66062" lon="-3.85644">
        <ele>18</ele>
        <time>2021-06-03T09:28:29.073Z</time>
      </trkpt>
      <trkpt lat="48.66065" lon="-3.85643">
        <ele>18</ele>
        <time>2021-06-03T09:28:33.091Z</time>
      </trkpt>
      <trkpt lat="48.6607" lon="-3.85639">
        <ele>13</ele>
        <time>2021-06-03T09:28:38.088Z</time>
      </trkpt>
      <trkpt lat="48.66076" lon="-3.85638">
        <ele>13</ele>
        <time>2021-06-03T09:28:42.103Z</time>
      </trkpt>
      <trkpt lat="48.66082" lon="-3.85637">
        <ele>13</ele>
        <time>2021-06-03T09:28:47.098Z</time>
      </trkpt>
      <trkpt lat="48.66088" lon="-3.85634">
        <ele>13</ele>
        <time>2021-06-03T09:28:52.085Z</time>
      </trkpt>
      <trkpt lat="48.66095" lon="-3.85632">
        <ele>13</ele>
        <time>2021-06-03T09:28:57.088Z</time>
      </trkpt>
      <trkpt lat="48.66101" lon="-3.8563">
        <ele>13</ele>
        <time>2021-06-03T09:29:02.090Z</time>
      </trkpt>
      <trkpt lat="48.66106" lon="-3.85629">
        <ele>13</ele>
        <time>2021-06-03T09:29:07.081Z</time>
      </trkpt>
      <trkpt lat="48.66111" lon="-3.85628">
        <ele>13</ele>
        <time>2021-06-03T09:29:11.092Z</time>
      </trkpt>
      <trkpt lat="48.66117" lon="-3.85627">
        <ele>13</ele>
        <time>2021-06-03T09:29:16.092Z</time>
      </trkpt>
      <trkpt lat="48.66122" lon="-3.85629">
        <ele>13</ele>
        <time>2021-06-03T09:29:21.088Z</time>
      </trkpt>
      <trkpt lat="48.66124" lon="-3.85633">
        <ele>13</ele>
        <time>2021-06-03T09:29:26.084Z</time>
      </trkpt>
      <trkpt lat="48.6613" lon="-3.85637">
        <ele>12</ele>
        <time>2021-06-03T09:29:31.086Z</time>
      </trkpt>
      <trkpt lat="48.66136" lon="-3.85639">
        <ele>12</ele>
        <time>2021-06-03T09:29:36.086Z</time>
      </trkpt>
      <trkpt lat="48.66142" lon="-3.85643">
        <ele>12</ele>
        <time>2021-06-03T09:29:41.093Z</time>
      </trkpt>
      <trkpt lat="48.66149" lon="-3.85647">
        <ele>12</ele>
        <time>2021-06-03T09:29:46.087Z</time>
      </trkpt>
      <trkpt lat="48.66154" lon="-3.85649">
        <ele>12</ele>
        <time>2021-06-03T09:29:50.085Z</time>
      </trkpt>
      <trkpt lat="48.6616" lon="-3.85653">
        <ele>7</ele>
        <time>2021-06-03T09:29:55.094Z</time>
      </trkpt>
      <trkpt lat="48.66165" lon="-3.85657">
        <ele>7</ele>
        <time>2021-06-03T09:30:00.081Z</time>
      </trkpt>
      <trkpt lat="48.66168" lon="-3.85659">
        <ele>7</ele>
        <time>2021-06-03T09:30:04.093Z</time>
      </trkpt>
      <trkpt lat="48.66174" lon="-3.85661">
        <ele>7</ele>
        <time>2021-06-03T09:30:08.101Z</time>
      </trkpt>
      <trkpt lat="48.66178" lon="-3.85662">
        <ele>7</ele>
        <time>2021-06-03T09:30:13.094Z</time>
      </trkpt>
      <trkpt lat="48.66182" lon="-3.85665">
        <ele>10</ele>
        <time>2021-06-03T09:30:18.095Z</time>
      </trkpt>
      <trkpt lat="48.66182" lon="-3.85665">
        <ele>10</ele>
        <time>2021-06-03T09:30:46.080Z</time>
      </trkpt>
      <trkpt lat="48.66182" lon="-3.85665">
        <ele>10</ele>
        <time>2021-06-03T09:30:51.085Z</time>
      </trkpt>
      <trkpt lat="48.66183" lon="-3.85663">
        <ele>10</ele>
        <time>2021-06-03T09:30:55.111Z</time>
      </trkpt>
      <trkpt lat="48.66186" lon="-3.85657">
        <ele>10</ele>
        <time>2021-06-03T09:31:00.084Z</time>
      </trkpt>
      <trkpt lat="48.66187" lon="-3.85651">
        <ele>13</ele>
        <time>2021-06-03T09:31:04.091Z</time>
      </trkpt>
      <trkpt lat="48.66188" lon="-3.85645">
        <ele>13</ele>
        <time>2021-06-03T09:31:09.096Z</time>
      </trkpt>
      <trkpt lat="48.66189" lon="-3.85638">
        <ele>13</ele>
        <time>2021-06-03T09:31:14.139Z</time>
      </trkpt>
      <trkpt lat="48.66191" lon="-3.8563">
        <ele>13</ele>
        <time>2021-06-03T09:31:19.089Z</time>
      </trkpt>
      <trkpt lat="48.66192" lon="-3.85624">
        <ele>15</ele>
        <time>2021-06-03T09:31:23.103Z</time>
      </trkpt>
      <trkpt lat="48.66195" lon="-3.8562">
        <ele>15</ele>
        <time>2021-06-03T09:31:28.076Z</time>
      </trkpt>
      <trkpt lat="48.662" lon="-3.85617">
        <ele>15</ele>
        <time>2021-06-03T09:31:33.093Z</time>
      </trkpt>
      <trkpt lat="48.66206" lon="-3.85615">
        <ele>15</ele>
        <time>2021-06-03T09:31:38.095Z</time>
      </trkpt>
      <trkpt lat="48.66213" lon="-3.85617">
        <ele>17</ele>
        <time>2021-06-03T09:31:43.084Z</time>
      </trkpt>
      <trkpt lat="48.66218" lon="-3.85619">
        <ele>17</ele>
        <time>2021-06-03T09:31:47.113Z</time>
      </trkpt>
      <trkpt lat="48.66224" lon="-3.85622">
        <ele>17</ele>
        <time>2021-06-03T09:31:52.085Z</time>
      </trkpt>
      <trkpt lat="48.66228" lon="-3.85626">
        <ele>16</ele>
        <time>2021-06-03T09:31:57.103Z</time>
      </trkpt>
      <trkpt lat="48.66234" lon="-3.85632">
        <ele>16</ele>
        <time>2021-06-03T09:32:02.112Z</time>
      </trkpt>
      <trkpt lat="48.6624" lon="-3.85635">
        <ele>19</ele>
        <time>2021-06-03T09:32:07.100Z</time>
      </trkpt>
      <trkpt lat="48.66244" lon="-3.85635">
        <ele>19</ele>
        <time>2021-06-03T09:32:11.109Z</time>
      </trkpt>
      <trkpt lat="48.66249" lon="-3.85632">
        <ele>19</ele>
        <time>2021-06-03T09:32:16.107Z</time>
      </trkpt>
      <trkpt lat="48.66253" lon="-3.85629">
        <ele>19</ele>
        <time>2021-06-03T09:32:20.113Z</time>
      </trkpt>
      <trkpt lat="48.66262" lon="-3.85621">
        <ele>19</ele>
        <time>2021-06-03T09:32:30.096Z</time>
      </trkpt>
      <trkpt lat="48.66264" lon="-3.8562">
        <ele>19</ele>
        <time>2021-06-03T09:32:35.088Z</time>
      </trkpt>
      <trkpt lat="48.66264" lon="-3.85621">
        <ele>19</ele>
        <time>2021-06-03T09:32:39.107Z</time>
      </trkpt>
      <trkpt lat="48.66266" lon="-3.85618">
        <ele>19</ele>
        <time>2021-06-03T09:32:44.112Z</time>
      </trkpt>
      <trkpt lat="48.66265" lon="-3.85611">
        <ele>19</ele>
        <time>2021-06-03T09:32:49.100Z</time>
      </trkpt>
      <trkpt lat="48.6626" lon="-3.85603">
        <ele>19</ele>
        <time>2021-06-03T09:33:12.101Z</time>
      </trkpt>
      <trkpt lat="48.6626" lon="-3.85602">
        <ele>19</ele>
        <time>2021-06-03T09:33:17.091Z</time>
      </trkpt>
      <trkpt lat="48.6626" lon="-3.85599">
        <ele>19</ele>
        <time>2021-06-03T09:33:22.094Z</time>
      </trkpt>
      <trkpt lat="48.6626" lon="-3.85597">
        <ele>17</ele>
        <time>2021-06-03T09:33:26.103Z</time>
      </trkpt>
      <trkpt lat="48.66259" lon="-3.85594">
        <ele>17</ele>
        <time>2021-06-03T09:33:31.104Z</time>
      </trkpt>
      <trkpt lat="48.66255" lon="-3.85597">
        <ele>19</ele>
        <time>2021-06-03T09:37:54.085Z</time>
      </trkpt>
      <trkpt lat="48.66258" lon="-3.85603">
        <ele>19</ele>
        <time>2021-06-03T09:37:58.084Z</time>
      </trkpt>
      <trkpt lat="48.66261" lon="-3.85607">
        <ele>19</ele>
        <time>2021-06-03T09:38:02.099Z</time>
      </trkpt>
      <trkpt lat="48.66264" lon="-3.85612">
        <ele>19</ele>
        <time>2021-06-03T09:38:07.081Z</time>
      </trkpt>
      <trkpt lat="48.66266" lon="-3.85616">
        <ele>19</ele>
        <time>2021-06-03T09:38:12.089Z</time>
      </trkpt>
      <trkpt lat="48.66267" lon="-3.85622">
        <ele>19</ele>
        <time>2021-06-03T09:39:25.087Z</time>
      </trkpt>
      <trkpt lat="48.66268" lon="-3.8562">
        <ele>19</ele>
        <time>2021-06-03T09:39:30.085Z</time>
      </trkpt>
      <trkpt lat="48.66271" lon="-3.85617">
        <ele>19</ele>
        <time>2021-06-03T09:39:35.080Z</time>
      </trkpt>
      <trkpt lat="48.66274" lon="-3.85614">
        <ele>19</ele>
        <time>2021-06-03T09:39:39.082Z</time>
      </trkpt>
      <trkpt lat="48.66277" lon="-3.85611">
        <ele>19</ele>
        <time>2021-06-03T09:39:44.078Z</time>
      </trkpt>
      <trkpt lat="48.66279" lon="-3.8561">
        <ele>19</ele>
        <time>2021-06-03T09:39:48.084Z</time>
      </trkpt>
      <trkpt lat="48.66282" lon="-3.8561">
        <ele>19</ele>
        <time>2021-06-03T09:39:52.103Z</time>
      </trkpt>
      <trkpt lat="48.66287" lon="-3.85607">
        <ele>19</ele>
        <time>2021-06-03T09:39:57.086Z</time>
      </trkpt>
      <trkpt lat="48.66289" lon="-3.85604">
        <ele>19</ele>
        <time>2021-06-03T09:40:02.081Z</time>
      </trkpt>
      <trkpt lat="48.66294" lon="-3.85604">
        <ele>20</ele>
        <time>2021-06-03T09:40:31.075Z</time>
      </trkpt>
      <trkpt lat="48.66296" lon="-3.85603">
        <ele>20</ele>
        <time>2021-06-03T09:40:36.086Z</time>
      </trkpt>
      <trkpt lat="48.663" lon="-3.856">
        <ele>20</ele>
        <time>2021-06-03T09:40:40.092Z</time>
      </trkpt>
      <trkpt lat="48.66306" lon="-3.85599">
        <ele>20</ele>
        <time>2021-06-03T09:40:44.093Z</time>
      </trkpt>
      <trkpt lat="48.66311" lon="-3.85597">
        <ele>17</ele>
        <time>2021-06-03T09:40:49.218Z</time>
      </trkpt>
      <trkpt lat="48.66314" lon="-3.85595">
        <ele>17</ele>
        <time>2021-06-03T09:40:54.075Z</time>
      </trkpt>
      <trkpt lat="48.66317" lon="-3.85593">
        <ele>17</ele>
        <time>2021-06-03T09:40:58.081Z</time>
      </trkpt>
      <trkpt lat="48.66321" lon="-3.85594">
        <ele>20</ele>
        <time>2021-06-03T09:41:03.082Z</time>
      </trkpt>
      <trkpt lat="48.66323" lon="-3.85592">
        <ele>20</ele>
        <time>2021-06-03T09:41:07.092Z</time>
      </trkpt>
      <trkpt lat="48.66327" lon="-3.8559">
        <ele>20</ele>
        <time>2021-06-03T09:41:12.079Z</time>
      </trkpt>
      <trkpt lat="48.66331" lon="-3.85592">
        <ele>20</ele>
        <time>2021-06-03T09:41:17.084Z</time>
      </trkpt>
      <trkpt lat="48.66335" lon="-3.85594">
        <ele>20</ele>
        <time>2021-06-03T09:41:21.084Z</time>
      </trkpt>
      <trkpt lat="48.66339" lon="-3.85595">
        <ele>20</ele>
        <time>2021-06-03T09:41:26.096Z</time>
      </trkpt>
      <trkpt lat="48.66344" lon="-3.85595">
        <ele>20</ele>
        <time>2021-06-03T09:41:31.090Z</time>
      </trkpt>
      <trkpt lat="48.66348" lon="-3.85595">
        <ele>22</ele>
        <time>2021-06-03T09:41:35.106Z</time>
      </trkpt>
      <trkpt lat="48.66354" lon="-3.85596">
        <ele>22</ele>
        <time>2021-06-03T09:41:40.103Z</time>
      </trkpt>
      <trkpt lat="48.66359" lon="-3.85595">
        <ele>22</ele>
        <time>2021-06-03T09:41:45.132Z</time>
      </trkpt>
      <trkpt lat="48.66363" lon="-3.85596">
        <ele>22</ele>
        <time>2021-06-03T09:41:50.091Z</time>
      </trkpt>
      <trkpt lat="48.66368" lon="-3.85598">
        <ele>25</ele>
        <time>2021-06-03T09:41:55.089Z</time>
      </trkpt>
      <trkpt lat="48.66373" lon="-3.85601">
        <ele>25</ele>
        <time>2021-06-03T09:42:00.091Z</time>
      </trkpt>
      <trkpt lat="48.66375" lon="-3.85603">
        <ele>25</ele>
        <time>2021-06-03T09:42:04.087Z</time>
      </trkpt>
      <trkpt lat="48.66377" lon="-3.85605">
        <ele>25</ele>
        <time>2021-06-03T09:42:27.085Z</time>
      </trkpt>
      <trkpt lat="48.66378" lon="-3.85607">
        <ele>25</ele>
        <time>2021-06-03T09:42:32.080Z</time>
      </trkpt>
      <trkpt lat="48.66382" lon="-3.85607">
        <ele>25</ele>
        <time>2021-06-03T09:42:36.092Z</time>
      </trkpt>
      <trkpt lat="48.66384" lon="-3.85612">
        <ele>25</ele>
        <time>2021-06-03T09:42:41.080Z</time>
      </trkpt>
      <trkpt lat="48.66386" lon="-3.8561">
        <ele>25</ele>
        <time>2021-06-03T09:42:45.094Z</time>
      </trkpt>
      <trkpt lat="48.66391" lon="-3.85607">
        <ele>25</ele>
        <time>2021-06-03T09:42:59.084Z</time>
      </trkpt>
      <trkpt lat="48.66394" lon="-3.85614">
        <ele>25</ele>
        <time>2021-06-03T09:43:04.077Z</time>
      </trkpt>
      <trkpt lat="48.66397" lon="-3.85619">
        <ele>25</ele>
        <time>2021-06-03T09:43:08.083Z</time>
      </trkpt>
      <trkpt lat="48.66401" lon="-3.85622">
        <ele>25</ele>
        <time>2021-06-03T09:43:12.077Z</time>
      </trkpt>
      <trkpt lat="48.66404" lon="-3.85627">
        <ele>26</ele>
        <time>2021-06-03T09:43:17.077Z</time>
      </trkpt>
      <trkpt lat="48.66409" lon="-3.85634">
        <ele>26</ele>
        <time>2021-06-03T09:43:41.074Z</time>
      </trkpt>
      <trkpt lat="48.6641" lon="-3.85632">
        <ele>26</ele>
        <time>2021-06-03T09:43:46.084Z</time>
      </trkpt>
      <trkpt lat="48.66405" lon="-3.85628">
        <ele>26</ele>
        <time>2021-06-03T09:43:51.079Z</time>
      </trkpt>
      <trkpt lat="48.66402" lon="-3.85624">
        <ele>25</ele>
        <time>2021-06-03T09:43:55.084Z</time>
      </trkpt>
      <trkpt lat="48.66397" lon="-3.85621">
        <ele>25</ele>
        <time>2021-06-03T09:44:00.081Z</time>
      </trkpt>
      <trkpt lat="48.66394" lon="-3.85617">
        <ele>25</ele>
        <time>2021-06-03T09:44:04.089Z</time>
      </trkpt>
      <trkpt lat="48.66392" lon="-3.85614">
        <ele>25</ele>
        <time>2021-06-03T09:44:09.073Z</time>
      </trkpt>
      <trkpt lat="48.66387" lon="-3.85611">
        <ele>25</ele>
        <time>2021-06-03T09:44:13.103Z</time>
      </trkpt>
      <trkpt lat="48.66382" lon="-3.85607">
        <ele>25</ele>
        <time>2021-06-03T09:44:18.080Z</time>
      </trkpt>
      <trkpt lat="48.66379" lon="-3.85605">
        <ele>25</ele>
        <time>2021-06-03T09:44:22.094Z</time>
      </trkpt>
      <trkpt lat="48.66374" lon="-3.85601">
        <ele>25</ele>
        <time>2021-06-03T09:44:27.080Z</time>
      </trkpt>
      <trkpt lat="48.66369" lon="-3.85599">
        <ele>25</ele>
        <time>2021-06-03T09:44:31.081Z</time>
      </trkpt>
      <trkpt lat="48.66365" lon="-3.85597">
        <ele>22</ele>
        <time>2021-06-03T09:44:35.087Z</time>
      </trkpt>
      <trkpt lat="48.66359" lon="-3.85596">
        <ele>22</ele>
        <time>2021-06-03T09:44:40.091Z</time>
      </trkpt>
      <trkpt lat="48.66354" lon="-3.85596">
        <ele>22</ele>
        <time>2021-06-03T09:44:45.088Z</time>
      </trkpt>
      <trkpt lat="48.66349" lon="-3.85596">
        <ele>22</ele>
        <time>2021-06-03T09:44:50.085Z</time>
      </trkpt>
      <trkpt lat="48.66343" lon="-3.85596">
        <ele>20</ele>
        <time>2021-06-03T09:44:55.092Z</time>
      </trkpt>
      <trkpt lat="48.66338" lon="-3.85597">
        <ele>20</ele>
        <time>2021-06-03T09:45:00.088Z</time>
      </trkpt>
      <trkpt lat="48.66332" lon="-3.85594">
        <ele>20</ele>
        <time>2021-06-03T09:45:05.085Z</time>
      </trkpt>
      <trkpt lat="48.66327" lon="-3.85591">
        <ele>20</ele>
        <time>2021-06-03T09:45:10.097Z</time>
      </trkpt>
      <trkpt lat="48.66322" lon="-3.85594">
        <ele>20</ele>
        <time>2021-06-03T09:45:15.081Z</time>
      </trkpt>
      <trkpt lat="48.66318" lon="-3.85595">
        <ele>17</ele>
        <time>2021-06-03T09:45:19.087Z</time>
      </trkpt>
      <trkpt lat="48.66314" lon="-3.85596">
        <ele>17</ele>
        <time>2021-06-03T09:45:23.092Z</time>
      </trkpt>
      <trkpt lat="48.66309" lon="-3.85599">
        <ele>20</ele>
        <time>2021-06-03T09:45:28.090Z</time>
      </trkpt>
      <trkpt lat="48.66304" lon="-3.85601">
        <ele>20</ele>
        <time>2021-06-03T09:45:33.093Z</time>
      </trkpt>
      <trkpt lat="48.66298" lon="-3.85603">
        <ele>20</ele>
        <time>2021-06-03T09:45:38.078Z</time>
      </trkpt>
      <trkpt lat="48.66293" lon="-3.85604">
        <ele>20</ele>
        <time>2021-06-03T09:45:42.090Z</time>
      </trkpt>
      <trkpt lat="48.66288" lon="-3.85606">
        <ele>19</ele>
        <time>2021-06-03T09:45:47.089Z</time>
      </trkpt>
      <trkpt lat="48.66282" lon="-3.85609">
        <ele>19</ele>
        <time>2021-06-03T09:45:52.092Z</time>
      </trkpt>
      <trkpt lat="48.66277" lon="-3.85613">
        <ele>19</ele>
        <time>2021-06-03T09:45:57.088Z</time>
      </trkpt>
      <trkpt lat="48.66272" lon="-3.85616">
        <ele>19</ele>
        <time>2021-06-03T09:46:02.081Z</time>
      </trkpt>
      <trkpt lat="48.66268" lon="-3.8562">
        <ele>19</ele>
        <time>2021-06-03T09:46:06.097Z</time>
      </trkpt>
      <trkpt lat="48.66263" lon="-3.85625">
        <ele>19</ele>
        <time>2021-06-03T09:46:11.086Z</time>
      </trkpt>
      <trkpt lat="48.66258" lon="-3.85629">
        <ele>19</ele>
        <time>2021-06-03T09:46:15.095Z</time>
      </trkpt>
      <trkpt lat="48.66252" lon="-3.85633">
        <ele>19</ele>
        <time>2021-06-03T09:46:20.091Z</time>
      </trkpt>
      <trkpt lat="48.66247" lon="-3.85635">
        <ele>19</ele>
        <time>2021-06-03T09:46:25.115Z</time>
      </trkpt>
      <trkpt lat="48.66241" lon="-3.85635">
        <ele>19</ele>
        <time>2021-06-03T09:46:30.089Z</time>
      </trkpt>
      <trkpt lat="48.66235" lon="-3.85632">
        <ele>16</ele>
        <time>2021-06-03T09:46:35.100Z</time>
      </trkpt>
      <trkpt lat="48.6623" lon="-3.85629">
        <ele>16</ele>
        <time>2021-06-03T09:46:40.099Z</time>
      </trkpt>
      <trkpt lat="48.66225" lon="-3.85623">
        <ele>17</ele>
        <time>2021-06-03T09:46:45.089Z</time>
      </trkpt>
      <trkpt lat="48.6622" lon="-3.85623">
        <ele>17</ele>
        <time>2021-06-03T09:46:49.097Z</time>
      </trkpt>
      <trkpt lat="48.66214" lon="-3.85621">
        <ele>17</ele>
        <time>2021-06-03T09:46:54.094Z</time>
      </trkpt>
      <trkpt lat="48.66208" lon="-3.8562">
        <ele>15</ele>
        <time>2021-06-03T09:46:59.090Z</time>
      </trkpt>
      <trkpt lat="48.66203" lon="-3.8562">
        <ele>15</ele>
        <time>2021-06-03T09:47:03.097Z</time>
      </trkpt>
      <trkpt lat="48.66198" lon="-3.85621">
        <ele>15</ele>
        <time>2021-06-03T09:47:08.091Z</time>
      </trkpt>
      <trkpt lat="48.66194" lon="-3.85623">
        <ele>15</ele>
        <time>2021-06-03T09:47:12.098Z</time>
      </trkpt>
      <trkpt lat="48.66192" lon="-3.85631">
        <ele>13</ele>
        <time>2021-06-03T09:47:17.089Z</time>
      </trkpt>
      <trkpt lat="48.66191" lon="-3.85639">
        <ele>13</ele>
        <time>2021-06-03T09:47:22.093Z</time>
      </trkpt>
      <trkpt lat="48.6619" lon="-3.85646">
        <ele>13</ele>
        <time>2021-06-03T09:47:27.080Z</time>
      </trkpt>
      <trkpt lat="48.66188" lon="-3.85651">
        <ele>13</ele>
        <time>2021-06-03T09:47:31.089Z</time>
      </trkpt>
      <trkpt lat="48.66186" lon="-3.85659">
        <ele>10</ele>
        <time>2021-06-03T09:47:36.077Z</time>
      </trkpt>
      <trkpt lat="48.66185" lon="-3.85666">
        <ele>10</ele>
        <time>2021-06-03T09:47:41.072Z</time>
      </trkpt>
      <trkpt lat="48.66184" lon="-3.8567">
        <ele>10</ele>
        <time>2021-06-03T09:47:46.086Z</time>
      </trkpt>
      <trkpt lat="48.66188" lon="-3.85674">
        <ele>10</ele>
        <time>2021-06-03T09:47:51.076Z</time>
      </trkpt>
      <trkpt lat="48.66189" lon="-3.85675">
        <ele>10</ele>
        <time>2021-06-03T09:47:55.077Z</time>
      </trkpt>
      <trkpt lat="48.66191" lon="-3.85678">
        <ele>10</ele>
        <time>2021-06-03T09:47:59.091Z</time>
      </trkpt>
      <trkpt lat="48.66196" lon="-3.85681">
        <ele>6</ele>
        <time>2021-06-03T09:48:04.094Z</time>
      </trkpt>
      <trkpt lat="48.66199" lon="-3.85687">
        <ele>6</ele>
        <time>2021-06-03T09:48:09.088Z</time>
      </trkpt>
      <trkpt lat="48.66204" lon="-3.85693">
        <ele>6</ele>
        <time>2021-06-03T09:48:14.090Z</time>
      </trkpt>
      <trkpt lat="48.66208" lon="-3.85699">
        <ele>6</ele>
        <time>2021-06-03T09:48:19.082Z</time>
      </trkpt>
      <trkpt lat="48.66211" lon="-3.85705">
        <ele>10</ele>
        <time>2021-06-03T09:48:23.081Z</time>
      </trkpt>
      <trkpt lat="48.66214" lon="-3.85713">
        <ele>8</ele>
        <time>2021-06-03T09:48:28.094Z</time>
      </trkpt>
      <trkpt lat="48.66218" lon="-3.85722">
        <ele>8</ele>
        <time>2021-06-03T09:48:33.096Z</time>
      </trkpt>
      <trkpt lat="48.66224" lon="-3.8573">
        <ele>8</ele>
        <time>2021-06-03T09:48:38.090Z</time>
      </trkpt>
      <trkpt lat="48.6623" lon="-3.85736">
        <ele>8</ele>
        <time>2021-06-03T09:48:43.104Z</time>
      </trkpt>
      <trkpt lat="48.66236" lon="-3.85741">
        <ele>6</ele>
        <time>2021-06-03T09:48:48.091Z</time>
      </trkpt>
      <trkpt lat="48.66241" lon="-3.85746">
        <ele>10</ele>
        <time>2021-06-03T09:48:53.092Z</time>
      </trkpt>
      <trkpt lat="48.66246" lon="-3.85751">
        <ele>10</ele>
        <time>2021-06-03T09:48:58.088Z</time>
      </trkpt>
      <trkpt lat="48.66251" lon="-3.85754">
        <ele>10</ele>
        <time>2021-06-03T09:49:02.094Z</time>
      </trkpt>
      <trkpt lat="48.66257" lon="-3.85759">
        <ele>10</ele>
        <time>2021-06-03T09:49:07.095Z</time>
      </trkpt>
      <trkpt lat="48.66262" lon="-3.85765">
        <ele>7</ele>
        <time>2021-06-03T09:49:12.086Z</time>
      </trkpt>
      <trkpt lat="48.66265" lon="-3.8577">
        <ele>11</ele>
        <time>2021-06-03T09:49:16.095Z</time>
      </trkpt>
      <trkpt lat="48.66268" lon="-3.85777">
        <ele>11</ele>
        <time>2021-06-03T09:49:20.097Z</time>
      </trkpt>
      <trkpt lat="48.66272" lon="-3.85785">
        <ele>11</ele>
        <time>2021-06-03T09:49:25.091Z</time>
      </trkpt>
      <trkpt lat="48.66276" lon="-3.85793">
        <ele>8</ele>
        <time>2021-06-03T09:49:30.095Z</time>
      </trkpt>
      <trkpt lat="48.6628" lon="-3.85801">
        <ele>8</ele>
        <time>2021-06-03T09:49:35.083Z</time>
      </trkpt>
      <trkpt lat="48.66284" lon="-3.85807">
        <ele>8</ele>
        <time>2021-06-03T09:49:39.093Z</time>
      </trkpt>
      <trkpt lat="48.66288" lon="-3.85815">
        <ele>8</ele>
        <time>2021-06-03T09:49:44.085Z</time>
      </trkpt>
      <trkpt lat="48.66292" lon="-3.85819">
        <ele>10</ele>
        <time>2021-06-03T09:49:48.100Z</time>
      </trkpt>
      <trkpt lat="48.66298" lon="-3.85821">
        <ele>7</ele>
        <time>2021-06-03T09:49:53.098Z</time>
      </trkpt>
      <trkpt lat="48.66304" lon="-3.85824">
        <ele>7</ele>
        <time>2021-06-03T09:49:58.084Z</time>
      </trkpt>
      <trkpt lat="48.6631" lon="-3.85827">
        <ele>7</ele>
        <time>2021-06-03T09:50:03.094Z</time>
      </trkpt>
      <trkpt lat="48.66316" lon="-3.85829">
        <ele>7</ele>
        <time>2021-06-03T09:50:08.096Z</time>
      </trkpt>
      <trkpt lat="48.66321" lon="-3.85827">
        <ele>7</ele>
        <time>2021-06-03T09:50:13.101Z</time>
      </trkpt>
      <trkpt lat="48.66326" lon="-3.85826">
        <ele>7</ele>
        <time>2021-06-03T09:50:18.091Z</time>
      </trkpt>
      <trkpt lat="48.66332" lon="-3.85827">
        <ele>7</ele>
        <time>2021-06-03T09:50:23.085Z</time>
      </trkpt>
      <trkpt lat="48.66337" lon="-3.8583">
        <ele>7</ele>
        <time>2021-06-03T09:50:28.087Z</time>
      </trkpt>
      <trkpt lat="48.66342" lon="-3.85831">
        <ele>7</ele>
        <time>2021-06-03T09:50:33.110Z</time>
      </trkpt>
      <trkpt lat="48.66346" lon="-3.85831">
        <ele>7</ele>
        <time>2021-06-03T09:50:38.093Z</time>
      </trkpt>
      <trkpt lat="48.66351" lon="-3.8583">
        <ele>9</ele>
        <time>2021-06-03T09:50:43.095Z</time>
      </trkpt>
      <trkpt lat="48.66356" lon="-3.85829">
        <ele>9</ele>
        <time>2021-06-03T09:50:48.102Z</time>
      </trkpt>
      <trkpt lat="48.66362" lon="-3.85828">
        <ele>9</ele>
        <time>2021-06-03T09:50:53.097Z</time>
      </trkpt>
      <trkpt lat="48.66368" lon="-3.85826">
        <ele>9</ele>
        <time>2021-06-03T09:50:58.099Z</time>
      </trkpt>
      <trkpt lat="48.66375" lon="-3.85828">
        <ele>9</ele>
        <time>2021-06-03T09:51:03.091Z</time>
      </trkpt>
      <trkpt lat="48.66382" lon="-3.85829">
        <ele>9</ele>
        <time>2021-06-03T09:51:08.093Z</time>
      </trkpt>
      <trkpt lat="48.66388" lon="-3.85831">
        <ele>9</ele>
        <time>2021-06-03T09:51:13.095Z</time>
      </trkpt>
      <trkpt lat="48.66395" lon="-3.85834">
        <ele>9</ele>
        <time>2021-06-03T09:51:18.099Z</time>
      </trkpt>
      <trkpt lat="48.664" lon="-3.85837">
        <ele>9</ele>
        <time>2021-06-03T09:51:23.079Z</time>
      </trkpt>
      <trkpt lat="48.66406" lon="-3.85838">
        <ele>11</ele>
        <time>2021-06-03T09:51:27.083Z</time>
      </trkpt>
      <trkpt lat="48.66413" lon="-3.85838">
        <ele>11</ele>
        <time>2021-06-03T09:51:32.092Z</time>
      </trkpt>
      <trkpt lat="48.66419" lon="-3.85839">
        <ele>11</ele>
        <time>2021-06-03T09:51:37.091Z</time>
      </trkpt>
      <trkpt lat="48.66425" lon="-3.8584">
        <ele>11</ele>
        <time>2021-06-03T09:51:42.090Z</time>
      </trkpt>
      <trkpt lat="48.6643" lon="-3.85841">
        <ele>11</ele>
        <time>2021-06-03T09:51:46.090Z</time>
      </trkpt>
      <trkpt lat="48.66437" lon="-3.8584">
        <ele>13</ele>
        <time>2021-06-03T09:51:51.096Z</time>
      </trkpt>
      <trkpt lat="48.66443" lon="-3.85841">
        <ele>13</ele>
        <time>2021-06-03T09:51:56.082Z</time>
      </trkpt>
      <trkpt lat="48.66448" lon="-3.85841">
        <ele>13</ele>
        <time>2021-06-03T09:52:00.093Z</time>
      </trkpt>
      <trkpt lat="48.66453" lon="-3.85841">
        <ele>13</ele>
        <time>2021-06-03T09:52:04.095Z</time>
      </trkpt>
      <trkpt lat="48.66459" lon="-3.85842">
        <ele>13</ele>
        <time>2021-06-03T09:52:09.081Z</time>
      </trkpt>
      <trkpt lat="48.66466" lon="-3.85842">
        <ele>13</ele>
        <time>2021-06-03T09:52:14.092Z</time>
      </trkpt>
      <trkpt lat="48.66473" lon="-3.85846">
        <ele>13</ele>
        <time>2021-06-03T09:52:19.095Z</time>
      </trkpt>
      <trkpt lat="48.66479" lon="-3.85847">
        <ele>13</ele>
        <time>2021-06-03T09:52:23.095Z</time>
      </trkpt>
      <trkpt lat="48.66484" lon="-3.8585">
        <ele>9</ele>
        <time>2021-06-03T09:52:28.094Z</time>
      </trkpt>
      <trkpt lat="48.6649" lon="-3.85856">
        <ele>10</ele>
        <time>2021-06-03T09:52:33.103Z</time>
      </trkpt>
      <trkpt lat="48.66496" lon="-3.85859">
        <ele>10</ele>
        <time>2021-06-03T09:52:38.084Z</time>
      </trkpt>
      <trkpt lat="48.665" lon="-3.85863">
        <ele>10</ele>
        <time>2021-06-03T09:52:42.093Z</time>
      </trkpt>
      <trkpt lat="48.66506" lon="-3.85865">
        <ele>10</ele>
        <time>2021-06-03T09:52:47.089Z</time>
      </trkpt>
      <trkpt lat="48.66512" lon="-3.85868">
        <ele>10</ele>
        <time>2021-06-03T09:52:52.086Z</time>
      </trkpt>
      <trkpt lat="48.66517" lon="-3.85872">
        <ele>12</ele>
        <time>2021-06-03T09:52:57.100Z</time>
      </trkpt>
      <trkpt lat="48.66522" lon="-3.85876">
        <ele>9</ele>
        <time>2021-06-03T09:53:02.087Z</time>
      </trkpt>
      <trkpt lat="48.66526" lon="-3.85881">
        <ele>9</ele>
        <time>2021-06-03T09:53:07.085Z</time>
      </trkpt>
      <trkpt lat="48.66527" lon="-3.85883">
        <ele>9</ele>
        <time>2021-06-03T09:53:12.082Z</time>
      </trkpt>
      <trkpt lat="48.66528" lon="-3.85885">
        <ele>9</ele>
        <time>2021-06-03T09:53:16.097Z</time>
      </trkpt>
      <trkpt lat="48.66529" lon="-3.8589">
        <ele>9</ele>
        <time>2021-06-03T09:53:21.093Z</time>
      </trkpt>
      <trkpt lat="48.66533" lon="-3.85894">
        <ele>9</ele>
        <time>2021-06-03T09:53:26.092Z</time>
      </trkpt>
      <trkpt lat="48.6654" lon="-3.85897">
        <ele>9</ele>
        <time>2021-06-03T09:53:31.086Z</time>
      </trkpt>
      <trkpt lat="48.66545" lon="-3.85898">
        <ele>11</ele>
        <time>2021-06-03T09:53:35.104Z</time>
      </trkpt>
      <trkpt lat="48.66551" lon="-3.859">
        <ele>11</ele>
        <time>2021-06-03T09:53:40.093Z</time>
      </trkpt>
      <trkpt lat="48.66555" lon="-3.85907">
        <ele>8</ele>
        <time>2021-06-03T09:53:45.091Z</time>
      </trkpt>
      <trkpt lat="48.66558" lon="-3.85914">
        <ele>8</ele>
        <time>2021-06-03T09:53:50.091Z</time>
      </trkpt>
      <trkpt lat="48.66563" lon="-3.85917">
        <ele>8</ele>
        <time>2021-06-03T09:53:55.094Z</time>
      </trkpt>
      <trkpt lat="48.66568" lon="-3.85919">
        <ele>8</ele>
        <time>2021-06-03T09:54:00.081Z</time>
      </trkpt>
      <trkpt lat="48.66572" lon="-3.85924">
        <ele>10</ele>
        <time>2021-06-03T09:54:04.093Z</time>
      </trkpt>
      <trkpt lat="48.66577" lon="-3.8593">
        <ele>10</ele>
        <time>2021-06-03T09:54:09.092Z</time>
      </trkpt>
      <trkpt lat="48.66582" lon="-3.85935">
        <ele>7</ele>
        <time>2021-06-03T09:54:14.091Z</time>
      </trkpt>
      <trkpt lat="48.66586" lon="-3.85935">
        <ele>7</ele>
        <time>2021-06-03T09:54:18.096Z</time>
      </trkpt>
      <trkpt lat="48.66591" lon="-3.85936">
        <ele>7</ele>
        <time>2021-06-03T09:54:23.085Z</time>
      </trkpt>
      <trkpt lat="48.66595" lon="-3.85942">
        <ele>7</ele>
        <time>2021-06-03T09:54:28.082Z</time>
      </trkpt>
      <trkpt lat="48.66596" lon="-3.85953">
        <ele>7</ele>
        <time>2021-06-03T09:54:33.091Z</time>
      </trkpt>
      <trkpt lat="48.66598" lon="-3.85961">
        <ele>9</ele>
        <time>2021-06-03T09:54:37.089Z</time>
      </trkpt>
      <trkpt lat="48.66603" lon="-3.85967">
        <ele>9</ele>
        <time>2021-06-03T09:54:42.083Z</time>
      </trkpt>
      <trkpt lat="48.66606" lon="-3.85971">
        <ele>9</ele>
        <time>2021-06-03T09:54:46.089Z</time>
      </trkpt>
      <trkpt lat="48.66605" lon="-3.85974">
        <ele>9</ele>
        <time>2021-06-03T09:55:51.094Z</time>
      </trkpt>
      <trkpt lat="48.66605" lon="-3.85974">
        <ele>9</ele>
        <time>2021-06-03T09:55:55.101Z</time>
      </trkpt>
      <trkpt lat="48.66608" lon="-3.85976">
        <ele>9</ele>
        <time>2021-06-03T09:56:00.092Z</time>
      </trkpt>
      <trkpt lat="48.66611" lon="-3.8598">
        <ele>9</ele>
        <time>2021-06-03T09:56:04.091Z</time>
      </trkpt>
      <trkpt lat="48.66612" lon="-3.85982">
        <ele>9</ele>
        <time>2021-06-03T09:56:09.090Z</time>
      </trkpt>
      <trkpt lat="48.66612" lon="-3.85982">
        <ele>9</ele>
        <time>2021-06-03T09:56:13.094Z</time>
      </trkpt>
      <trkpt lat="48.66614" lon="-3.85984">
        <ele>9</ele>
        <time>2021-06-03T09:56:18.094Z</time>
      </trkpt>
      <trkpt lat="48.66616" lon="-3.85991">
        <ele>6</ele>
        <time>2021-06-03T09:56:23.090Z</time>
      </trkpt>
      <trkpt lat="48.66619" lon="-3.85995">
        <ele>6</ele>
        <time>2021-06-03T09:56:27.091Z</time>
      </trkpt>
      <trkpt lat="48.66623" lon="-3.86001">
        <ele>6</ele>
        <time>2021-06-03T09:56:32.093Z</time>
      </trkpt>
      <trkpt lat="48.66626" lon="-3.86005">
        <ele>9</ele>
        <time>2021-06-03T09:56:36.096Z</time>
      </trkpt>
      <trkpt lat="48.6663" lon="-3.86012">
        <ele>9</ele>
        <time>2021-06-03T09:56:41.093Z</time>
      </trkpt>
      <trkpt lat="48.66632" lon="-3.86016">
        <ele>7</ele>
        <time>2021-06-03T09:56:45.107Z</time>
      </trkpt>
      <trkpt lat="48.66636" lon="-3.86022">
        <ele>7</ele>
        <time>2021-06-03T09:56:50.100Z</time>
      </trkpt>
      <trkpt lat="48.66641" lon="-3.86022">
        <ele>7</ele>
        <time>2021-06-03T09:56:55.100Z</time>
      </trkpt>
      <trkpt lat="48.66646" lon="-3.86025">
        <ele>7</ele>
        <time>2021-06-03T09:57:00.097Z</time>
      </trkpt>
      <trkpt lat="48.66651" lon="-3.86029">
        <ele>7</ele>
        <time>2021-06-03T09:57:05.085Z</time>
      </trkpt>
      <trkpt lat="48.66656" lon="-3.86035">
        <ele>11</ele>
        <time>2021-06-03T09:57:10.081Z</time>
      </trkpt>
      <trkpt lat="48.66658" lon="-3.86042">
        <ele>11</ele>
        <time>2021-06-03T09:57:14.089Z</time>
      </trkpt>
      <trkpt lat="48.6666" lon="-3.8605">
        <ele>9</ele>
        <time>2021-06-03T09:57:19.090Z</time>
      </trkpt>
      <trkpt lat="48.66661" lon="-3.86058">
        <ele>9</ele>
        <time>2021-06-03T09:57:23.101Z</time>
      </trkpt>
      <trkpt lat="48.66665" lon="-3.86063">
        <ele>9</ele>
        <time>2021-06-03T09:57:27.111Z</time>
      </trkpt>
      <trkpt lat="48.66669" lon="-3.86069">
        <ele>9</ele>
        <time>2021-06-03T09:57:32.106Z</time>
      </trkpt>
      <trkpt lat="48.66672" lon="-3.86076">
        <ele>8</ele>
        <time>2021-06-03T09:57:37.093Z</time>
      </trkpt>
      <trkpt lat="48.66676" lon="-3.86083">
        <ele>8</ele>
        <time>2021-06-03T09:57:42.074Z</time>
      </trkpt>
      <trkpt lat="48.66679" lon="-3.86088">
        <ele>8</ele>
        <time>2021-06-03T09:57:46.087Z</time>
      </trkpt>
      <trkpt lat="48.66683" lon="-3.86093">
        <ele>11</ele>
        <time>2021-06-03T09:57:51.096Z</time>
      </trkpt>
      <trkpt lat="48.66689" lon="-3.86096">
        <ele>11</ele>
        <time>2021-06-03T09:57:56.086Z</time>
      </trkpt>
      <trkpt lat="48.66693" lon="-3.86106">
        <ele>8</ele>
        <time>2021-06-03T09:58:01.086Z</time>
      </trkpt>
      <trkpt lat="48.66696" lon="-3.86113">
        <ele>8</ele>
        <time>2021-06-03T09:58:06.088Z</time>
      </trkpt>
      <trkpt lat="48.66699" lon="-3.86119">
        <ele>8</ele>
        <time>2021-06-03T09:58:11.097Z</time>
      </trkpt>
      <trkpt lat="48.66702" lon="-3.86124">
        <ele>8</ele>
        <time>2021-06-03T09:58:15.104Z</time>
      </trkpt>
      <trkpt lat="48.66707" lon="-3.86128">
        <ele>5</ele>
        <time>2021-06-03T09:58:20.099Z</time>
      </trkpt>
      <trkpt lat="48.66711" lon="-3.86134">
        <ele>9</ele>
        <time>2021-06-03T09:58:25.093Z</time>
      </trkpt>
      <trkpt lat="48.66715" lon="-3.86138">
        <ele>9</ele>
        <time>2021-06-03T09:58:29.103Z</time>
      </trkpt>
      <trkpt lat="48.6672" lon="-3.86144">
        <ele>9</ele>
        <time>2021-06-03T09:58:34.092Z</time>
      </trkpt>
      <trkpt lat="48.66725" lon="-3.86148">
        <ele>9</ele>
        <time>2021-06-03T09:58:38.103Z</time>
      </trkpt>
      <trkpt lat="48.6673" lon="-3.86154">
        <ele>5</ele>
        <time>2021-06-03T09:58:43.088Z</time>
      </trkpt>
      <trkpt lat="48.66735" lon="-3.86161">
        <ele>5</ele>
        <time>2021-06-03T09:58:48.088Z</time>
      </trkpt>
      <trkpt lat="48.6674" lon="-3.86166">
        <ele>12</ele>
        <time>2021-06-03T09:58:53.102Z</time>
      </trkpt>
      <trkpt lat="48.66746" lon="-3.86169">
        <ele>12</ele>
        <time>2021-06-03T09:58:58.100Z</time>
      </trkpt>
      <trkpt lat="48.6675" lon="-3.86168">
        <ele>12</ele>
        <time>2021-06-03T09:59:03.098Z</time>
      </trkpt>
      <trkpt lat="48.66755" lon="-3.86167">
        <ele>12</ele>
        <time>2021-06-03T09:59:08.095Z</time>
      </trkpt>
      <trkpt lat="48.66759" lon="-3.86174">
        <ele>12</ele>
        <time>2021-06-03T09:59:13.108Z</time>
      </trkpt>
      <trkpt lat="48.66764" lon="-3.8618">
        <ele>16</ele>
        <time>2021-06-03T09:59:18.109Z</time>
      </trkpt>
      <trkpt lat="48.66769" lon="-3.86182">
        <ele>11</ele>
        <time>2021-06-03T09:59:23.091Z</time>
      </trkpt>
      <trkpt lat="48.66772" lon="-3.86186">
        <ele>11</ele>
        <time>2021-06-03T09:59:27.095Z</time>
      </trkpt>
      <trkpt lat="48.66775" lon="-3.8619">
        <ele>11</ele>
        <time>2021-06-03T09:59:31.105Z</time>
      </trkpt>
      <trkpt lat="48.66781" lon="-3.86193">
        <ele>11</ele>
        <time>2021-06-03T09:59:36.078Z</time>
      </trkpt>
      <trkpt lat="48.66784" lon="-3.86197">
        <ele>11</ele>
        <time>2021-06-03T09:59:40.092Z</time>
      </trkpt>
      <trkpt lat="48.6679" lon="-3.86203">
        <ele>11</ele>
        <time>2021-06-03T09:59:45.090Z</time>
      </trkpt>
      <trkpt lat="48.66795" lon="-3.86205">
        <ele>15</ele>
        <time>2021-06-03T09:59:50.105Z</time>
      </trkpt>
      <trkpt lat="48.66802" lon="-3.86208">
        <ele>15</ele>
        <time>2021-06-03T09:59:55.097Z</time>
      </trkpt>
      <trkpt lat="48.66806" lon="-3.86211">
        <ele>10</ele>
        <time>2021-06-03T09:59:59.110Z</time>
      </trkpt>
      <trkpt lat="48.66811" lon="-3.86215">
        <ele>10</ele>
        <time>2021-06-03T10:00:04.110Z</time>
      </trkpt>
      <trkpt lat="48.66815" lon="-3.86223">
        <ele>10</ele>
        <time>2021-06-03T10:00:09.082Z</time>
      </trkpt>
      <trkpt lat="48.66819" lon="-3.86229">
        <ele>10</ele>
        <time>2021-06-03T10:00:13.087Z</time>
      </trkpt>
      <trkpt lat="48.66824" lon="-3.86232">
        <ele>16</ele>
        <time>2021-06-03T10:00:17.093Z</time>
      </trkpt>
      <trkpt lat="48.66829" lon="-3.86235">
        <ele>16</ele>
        <time>2021-06-03T10:00:22.090Z</time>
      </trkpt>
      <trkpt lat="48.66834" lon="-3.86238">
        <ele>10</ele>
        <time>2021-06-03T10:00:27.089Z</time>
      </trkpt>
      <trkpt lat="48.66839" lon="-3.86244">
        <ele>10</ele>
        <time>2021-06-03T10:00:32.086Z</time>
      </trkpt>
      <trkpt lat="48.66842" lon="-3.8625">
        <ele>10</ele>
        <time>2021-06-03T10:00:36.105Z</time>
      </trkpt>
      <trkpt lat="48.66847" lon="-3.86257">
        <ele>10</ele>
        <time>2021-06-03T10:00:41.096Z</time>
      </trkpt>
      <trkpt lat="48.6685" lon="-3.86264">
        <ele>14</ele>
        <time>2021-06-03T10:00:46.092Z</time>
      </trkpt>
      <trkpt lat="48.66855" lon="-3.86268">
        <ele>9</ele>
        <time>2021-06-03T10:00:51.087Z</time>
      </trkpt>
      <trkpt lat="48.66858" lon="-3.86266">
        <ele>9</ele>
        <time>2021-06-03T10:00:55.093Z</time>
      </trkpt>
      <trkpt lat="48.66861" lon="-3.86267">
        <ele>9</ele>
        <time>2021-06-03T10:01:00.106Z</time>
      </trkpt>
      <trkpt lat="48.66865" lon="-3.86273">
        <ele>9</ele>
        <time>2021-06-03T10:01:05.092Z</time>
      </trkpt>
      <trkpt lat="48.6687" lon="-3.86278">
        <ele>9</ele>
        <time>2021-06-03T10:01:10.093Z</time>
      </trkpt>
      <trkpt lat="48.66875" lon="-3.86282">
        <ele>14</ele>
        <time>2021-06-03T10:01:15.092Z</time>
      </trkpt>
      <trkpt lat="48.6688" lon="-3.86287">
        <ele>14</ele>
        <time>2021-06-03T10:01:20.101Z</time>
      </trkpt>
      <trkpt lat="48.66887" lon="-3.86289">
        <ele>14</ele>
        <time>2021-06-03T10:01:25.144Z</time>
      </trkpt>
      <trkpt lat="48.66893" lon="-3.86294">
        <ele>11</ele>
        <time>2021-06-03T10:01:30.110Z</time>
      </trkpt>
      <trkpt lat="48.66898" lon="-3.86302">
        <ele>11</ele>
        <time>2021-06-03T10:01:35.098Z</time>
      </trkpt>
      <trkpt lat="48.66903" lon="-3.86305">
        <ele>13</ele>
        <time>2021-06-03T10:01:40.104Z</time>
      </trkpt>
      <trkpt lat="48.66908" lon="-3.86308">
        <ele>13</ele>
        <time>2021-06-03T10:01:45.094Z</time>
      </trkpt>
      <trkpt lat="48.66912" lon="-3.86311">
        <ele>13</ele>
        <time>2021-06-03T10:01:49.220Z</time>
      </trkpt>
      <trkpt lat="48.66912" lon="-3.86312">
        <ele>13</ele>
        <time>2021-06-03T10:01:54.094Z</time>
      </trkpt>
      <trkpt lat="48.66912" lon="-3.86312">
        <ele>13</ele>
        <time>2021-06-03T10:01:59.081Z</time>
      </trkpt>
      <trkpt lat="48.66914" lon="-3.86312">
        <ele>13</ele>
        <time>2021-06-03T10:02:03.087Z</time>
      </trkpt>
      <trkpt lat="48.66919" lon="-3.86314">
        <ele>13</ele>
        <time>2021-06-03T10:02:08.074Z</time>
      </trkpt>
      <trkpt lat="48.66922" lon="-3.86318">
        <ele>13</ele>
        <time>2021-06-03T10:02:13.075Z</time>
      </trkpt>
      <trkpt lat="48.66922" lon="-3.8632">
        <ele>8</ele>
        <time>2021-06-03T10:02:36.087Z</time>
      </trkpt>
      <trkpt lat="48.66926" lon="-3.86322">
        <ele>8</ele>
        <time>2021-06-03T10:02:41.083Z</time>
      </trkpt>
      <trkpt lat="48.66927" lon="-3.86323">
        <ele>8</ele>
        <time>2021-06-03T10:02:45.099Z</time>
      </trkpt>
      <trkpt lat="48.66929" lon="-3.86324">
        <ele>8</ele>
        <time>2021-06-03T10:02:50.095Z</time>
      </trkpt>
      <trkpt lat="48.66932" lon="-3.86325">
        <ele>8</ele>
        <time>2021-06-03T10:02:55.093Z</time>
      </trkpt>
      <trkpt lat="48.66934" lon="-3.86327">
        <ele>8</ele>
        <time>2021-06-03T10:02:59.101Z</time>
      </trkpt>
      <trkpt lat="48.66938" lon="-3.86331">
        <ele>8</ele>
        <time>2021-06-03T10:03:04.092Z</time>
      </trkpt>
      <trkpt lat="48.66941" lon="-3.86334">
        <ele>8</ele>
        <time>2021-06-03T10:03:08.095Z</time>
      </trkpt>
      <trkpt lat="48.66943" lon="-3.86339">
        <ele>8</ele>
        <time>2021-06-03T10:03:13.095Z</time>
      </trkpt>
      <trkpt lat="48.66944" lon="-3.86346">
        <ele>8</ele>
        <time>2021-06-03T10:03:41.081Z</time>
      </trkpt>
      <trkpt lat="48.66944" lon="-3.86346">
        <ele>8</ele>
        <time>2021-06-03T10:03:45.088Z</time>
      </trkpt>
      <trkpt lat="48.66944" lon="-3.86346">
        <ele>8</ele>
        <time>2021-06-03T10:03:49.197Z</time>
      </trkpt>
      <trkpt lat="48.66948" lon="-3.86347">
        <ele>8</ele>
        <time>2021-06-03T10:03:54.076Z</time>
      </trkpt>
      <trkpt lat="48.66952" lon="-3.86347">
        <ele>8</ele>
        <time>2021-06-03T10:03:58.082Z</time>
      </trkpt>
      <trkpt lat="48.66956" lon="-3.86347">
        <ele>8</ele>
        <time>2021-06-03T10:04:02.080Z</time>
      </trkpt>
      <trkpt lat="48.6696" lon="-3.86351">
        <ele>7</ele>
        <time>2021-06-03T10:04:07.087Z</time>
      </trkpt>
      <trkpt lat="48.66963" lon="-3.86356">
        <ele>7</ele>
        <time>2021-06-03T10:04:11.093Z</time>
      </trkpt>
      <trkpt lat="48.66968" lon="-3.86353">
        <ele>7</ele>
        <time>2021-06-03T10:04:16.091Z</time>
      </trkpt>
      <trkpt lat="48.66972" lon="-3.86356">
        <ele>7</ele>
        <time>2021-06-03T10:04:20.119Z</time>
      </trkpt>
      <trkpt lat="48.66977" lon="-3.86361">
        <ele>7</ele>
        <time>2021-06-03T10:04:25.102Z</time>
      </trkpt>
      <trkpt lat="48.66983" lon="-3.86367">
        <ele>7</ele>
        <time>2021-06-03T10:04:30.087Z</time>
      </trkpt>
      <trkpt lat="48.66987" lon="-3.86372">
        <ele>14</ele>
        <time>2021-06-03T10:04:34.089Z</time>
      </trkpt>
      <trkpt lat="48.66991" lon="-3.86377">
        <ele>9</ele>
        <time>2021-06-03T10:04:38.093Z</time>
      </trkpt>
      <trkpt lat="48.66997" lon="-3.86381">
        <ele>9</ele>
        <time>2021-06-03T10:04:43.090Z</time>
      </trkpt>
      <trkpt lat="48.67002" lon="-3.86384">
        <ele>9</ele>
        <time>2021-06-03T10:04:47.101Z</time>
      </trkpt>
      <trkpt lat="48.67006" lon="-3.86383">
        <ele>9</ele>
        <time>2021-06-03T10:04:51.106Z</time>
      </trkpt>
      <trkpt lat="48.67016" lon="-3.86398">
        <ele>13</ele>
        <time>2021-06-03T10:05:15.072Z</time>
      </trkpt>
      <trkpt lat="48.67017" lon="-3.86399">
        <ele>13</ele>
        <time>2021-06-03T10:05:20.080Z</time>
      </trkpt>
      <trkpt lat="48.67021" lon="-3.86403">
        <ele>9</ele>
        <time>2021-06-03T10:05:25.082Z</time>
      </trkpt>
      <trkpt lat="48.67024" lon="-3.86408">
        <ele>9</ele>
        <time>2021-06-03T10:05:29.091Z</time>
      </trkpt>
      <trkpt lat="48.67031" lon="-3.86409">
        <ele>9</ele>
        <time>2021-06-03T10:05:34.075Z</time>
      </trkpt>
      <trkpt lat="48.67036" lon="-3.86412">
        <ele>9</ele>
        <time>2021-06-03T10:05:39.079Z</time>
      </trkpt>
      <trkpt lat="48.67039" lon="-3.86417">
        <ele>9</ele>
        <time>2021-06-03T10:05:43.087Z</time>
      </trkpt>
      <trkpt lat="48.67044" lon="-3.86423">
        <ele>14</ele>
        <time>2021-06-03T10:05:48.077Z</time>
      </trkpt>
      <trkpt lat="48.67048" lon="-3.86427">
        <ele>14</ele>
        <time>2021-06-03T10:05:52.108Z</time>
      </trkpt>
      <trkpt lat="48.67052" lon="-3.86432">
        <ele>9</ele>
        <time>2021-06-03T10:05:57.080Z</time>
      </trkpt>
      <trkpt lat="48.67056" lon="-3.86438">
        <ele>9</ele>
        <time>2021-06-03T10:06:01.093Z</time>
      </trkpt>
      <trkpt lat="48.67061" lon="-3.8644">
        <ele>9</ele>
        <time>2021-06-03T10:06:06.097Z</time>
      </trkpt>
      <trkpt lat="48.67067" lon="-3.86439">
        <ele>9</ele>
        <time>2021-06-03T10:06:11.090Z</time>
      </trkpt>
      <trkpt lat="48.67071" lon="-3.8644">
        <ele>10</ele>
        <time>2021-06-03T10:06:16.093Z</time>
      </trkpt>
      <trkpt lat="48.67074" lon="-3.86442">
        <ele>10</ele>
        <time>2021-06-03T10:06:21.082Z</time>
      </trkpt>
      <trkpt lat="48.67078" lon="-3.86445">
        <ele>10</ele>
        <time>2021-06-03T10:06:25.092Z</time>
      </trkpt>
      <trkpt lat="48.67083" lon="-3.86447">
        <ele>10</ele>
        <time>2021-06-03T10:06:29.087Z</time>
      </trkpt>
      <trkpt lat="48.67098" lon="-3.8645">
        <ele>10</ele>
        <time>2021-06-03T10:07:12.090Z</time>
      </trkpt>
      <trkpt lat="48.67098" lon="-3.8645">
        <ele>10</ele>
        <time>2021-06-03T10:07:17.085Z</time>
      </trkpt>
      <trkpt lat="48.67099" lon="-3.86449">
        <ele>10</ele>
        <time>2021-06-03T10:07:21.091Z</time>
      </trkpt>
      <trkpt lat="48.67102" lon="-3.86449">
        <ele>10</ele>
        <time>2021-06-03T10:07:26.079Z</time>
      </trkpt>
      <trkpt lat="48.67108" lon="-3.86447">
        <ele>10</ele>
        <time>2021-06-03T10:07:31.084Z</time>
      </trkpt>
      <trkpt lat="48.67113" lon="-3.86446">
        <ele>10</ele>
        <time>2021-06-03T10:07:36.080Z</time>
      </trkpt>
      <trkpt lat="48.67118" lon="-3.86446">
        <ele>10</ele>
        <time>2021-06-03T10:07:40.092Z</time>
      </trkpt>
      <trkpt lat="48.67121" lon="-3.86446">
        <ele>10</ele>
        <time>2021-06-03T10:07:45.081Z</time>
      </trkpt>
      <trkpt lat="48.67125" lon="-3.86445">
        <ele>8</ele>
        <time>2021-06-03T10:07:49.102Z</time>
      </trkpt>
      <trkpt lat="48.67129" lon="-3.8644">
        <ele>8</ele>
        <time>2021-06-03T10:07:54.086Z</time>
      </trkpt>
      <trkpt lat="48.67132" lon="-3.86432">
        <ele>8</ele>
        <time>2021-06-03T10:07:58.089Z</time>
      </trkpt>
      <trkpt lat="48.67134" lon="-3.86424">
        <ele>11</ele>
        <time>2021-06-03T10:08:03.088Z</time>
      </trkpt>
      <trkpt lat="48.67137" lon="-3.86416">
        <ele>11</ele>
        <time>2021-06-03T10:08:08.083Z</time>
      </trkpt>
      <trkpt lat="48.67143" lon="-3.86403">
        <ele>14</ele>
        <time>2021-06-03T10:08:31.089Z</time>
      </trkpt>
      <trkpt lat="48.67147" lon="-3.86398">
        <ele>14</ele>
        <time>2021-06-03T10:08:36.083Z</time>
      </trkpt>
      <trkpt lat="48.6715" lon="-3.8639">
        <ele>14</ele>
        <time>2021-06-03T10:08:41.089Z</time>
      </trkpt>
      <trkpt lat="48.67151" lon="-3.86384">
        <ele>14</ele>
        <time>2021-06-03T10:08:45.093Z</time>
      </trkpt>
      <trkpt lat="48.67154" lon="-3.86381">
        <ele>9</ele>
        <time>2021-06-03T10:08:49.105Z</time>
      </trkpt>
      <trkpt lat="48.6716" lon="-3.8638">
        <ele>9</ele>
        <time>2021-06-03T10:08:54.094Z</time>
      </trkpt>
      <trkpt lat="48.67164" lon="-3.86373">
        <ele>12</ele>
        <time>2021-06-03T10:08:59.177Z</time>
      </trkpt>
      <trkpt lat="48.67168" lon="-3.86366">
        <ele>12</ele>
        <time>2021-06-03T10:09:04.081Z</time>
      </trkpt>
      <trkpt lat="48.67171" lon="-3.8636">
        <ele>12</ele>
        <time>2021-06-03T10:09:08.094Z</time>
      </trkpt>
      <trkpt lat="48.67175" lon="-3.86347">
        <ele>14</ele>
        <time>2021-06-03T10:15:52.089Z</time>
      </trkpt>
      <trkpt lat="48.67176" lon="-3.86346">
        <ele>14</ele>
        <time>2021-06-03T10:15:56.094Z</time>
      </trkpt>
      <trkpt lat="48.67179" lon="-3.86344">
        <ele>14</ele>
        <time>2021-06-03T10:16:01.086Z</time>
      </trkpt>
      <trkpt lat="48.67182" lon="-3.86341">
        <ele>9</ele>
        <time>2021-06-03T10:16:05.091Z</time>
      </trkpt>
      <trkpt lat="48.67184" lon="-3.86337">
        <ele>9</ele>
        <time>2021-06-03T10:16:09.102Z</time>
      </trkpt>
      <trkpt lat="48.67188" lon="-3.86332">
        <ele>9</ele>
        <time>2021-06-03T10:16:14.088Z</time>
      </trkpt>
      <trkpt lat="48.67191" lon="-3.86326">
        <ele>9</ele>
        <time>2021-06-03T10:16:19.260Z</time>
      </trkpt>
      <trkpt lat="48.67194" lon="-3.86321">
        <ele>9</ele>
        <time>2021-06-03T10:16:24.086Z</time>
      </trkpt>
      <trkpt lat="48.67197" lon="-3.86315">
        <ele>10</ele>
        <time>2021-06-03T10:16:29.090Z</time>
      </trkpt>
      <trkpt lat="48.672" lon="-3.86309">
        <ele>10</ele>
        <time>2021-06-03T10:16:34.097Z</time>
      </trkpt>
      <trkpt lat="48.67204" lon="-3.86303">
        <ele>10</ele>
        <time>2021-06-03T10:16:39.090Z</time>
      </trkpt>
      <trkpt lat="48.67207" lon="-3.86298">
        <ele>10</ele>
        <time>2021-06-03T10:16:44.099Z</time>
      </trkpt>
      <trkpt lat="48.67211" lon="-3.86294">
        <ele>5</ele>
        <time>2021-06-03T10:16:49.089Z</time>
      </trkpt>
      <trkpt lat="48.67215" lon="-3.8629">
        <ele>8</ele>
        <time>2021-06-03T10:16:54.097Z</time>
      </trkpt>
      <trkpt lat="48.67219" lon="-3.86287">
        <ele>8</ele>
        <time>2021-06-03T10:16:59.092Z</time>
      </trkpt>
      <trkpt lat="48.67223" lon="-3.86282">
        <ele>8</ele>
        <time>2021-06-03T10:17:04.103Z</time>
      </trkpt>
      <trkpt lat="48.67226" lon="-3.86278">
        <ele>8</ele>
        <time>2021-06-03T10:17:08.107Z</time>
      </trkpt>
      <trkpt lat="48.67228" lon="-3.86272">
        <ele>8</ele>
        <time>2021-06-03T10:17:13.098Z</time>
      </trkpt>
      <trkpt lat="48.67231" lon="-3.86269">
        <ele>8</ele>
        <time>2021-06-03T10:17:18.092Z</time>
      </trkpt>
      <trkpt lat="48.67235" lon="-3.86263">
        <ele>14</ele>
        <time>2021-06-03T10:17:23.103Z</time>
      </trkpt>
      <trkpt lat="48.67239" lon="-3.86257">
        <ele>9</ele>
        <time>2021-06-03T10:17:28.079Z</time>
      </trkpt>
      <trkpt lat="48.67242" lon="-3.86254">
        <ele>9</ele>
        <time>2021-06-03T10:17:32.110Z</time>
      </trkpt>
      <trkpt lat="48.67245" lon="-3.86249">
        <ele>9</ele>
        <time>2021-06-03T10:17:37.094Z</time>
      </trkpt>
      <trkpt lat="48.67249" lon="-3.86242">
        <ele>9</ele>
        <time>2021-06-03T10:17:42.106Z</time>
      </trkpt>
      <trkpt lat="48.67252" lon="-3.86238">
        <ele>9</ele>
        <time>2021-06-03T10:17:47.113Z</time>
      </trkpt>
      <trkpt lat="48.67256" lon="-3.86233">
        <ele>13</ele>
        <time>2021-06-03T10:17:52.094Z</time>
      </trkpt>
      <trkpt lat="48.67259" lon="-3.86228">
        <ele>13</ele>
        <time>2021-06-03T10:17:57.100Z</time>
      </trkpt>
      <trkpt lat="48.67263" lon="-3.86223">
        <ele>13</ele>
        <time>2021-06-03T10:18:02.086Z</time>
      </trkpt>
      <trkpt lat="48.67266" lon="-3.86218">
        <ele>8</ele>
        <time>2021-06-03T10:18:06.098Z</time>
      </trkpt>
      <trkpt lat="48.67269" lon="-3.86213">
        <ele>8</ele>
        <time>2021-06-03T10:18:11.089Z</time>
      </trkpt>
      <trkpt lat="48.67271" lon="-3.86209">
        <ele>8</ele>
        <time>2021-06-03T10:18:15.100Z</time>
      </trkpt>
      <trkpt lat="48.67274" lon="-3.86205">
        <ele>12</ele>
        <time>2021-06-03T10:18:20.109Z</time>
      </trkpt>
      <trkpt lat="48.67278" lon="-3.86199">
        <ele>12</ele>
        <time>2021-06-03T10:18:25.098Z</time>
      </trkpt>
      <trkpt lat="48.67281" lon="-3.86196">
        <ele>12</ele>
        <time>2021-06-03T10:18:30.112Z</time>
      </trkpt>
      <trkpt lat="48.67284" lon="-3.86191">
        <ele>12</ele>
        <time>2021-06-03T10:18:35.092Z</time>
      </trkpt>
      <trkpt lat="48.67288" lon="-3.86185">
        <ele>12</ele>
        <time>2021-06-03T10:18:40.101Z</time>
      </trkpt>
      <trkpt lat="48.6729" lon="-3.86178">
        <ele>16</ele>
        <time>2021-06-03T10:18:45.099Z</time>
      </trkpt>
      <trkpt lat="48.67289" lon="-3.86172">
        <ele>16</ele>
        <time>2021-06-03T10:18:50.094Z</time>
      </trkpt>
      <trkpt lat="48.67288" lon="-3.86165">
        <ele>16</ele>
        <time>2021-06-03T10:18:55.098Z</time>
      </trkpt>
      <trkpt lat="48.67288" lon="-3.86158">
        <ele>16</ele>
        <time>2021-06-03T10:19:00.093Z</time>
      </trkpt>
      <trkpt lat="48.67286" lon="-3.8615">
        <ele>19</ele>
        <time>2021-06-03T10:19:05.094Z</time>
      </trkpt>
      <trkpt lat="48.67284" lon="-3.86143">
        <ele>19</ele>
        <time>2021-06-03T10:19:10.093Z</time>
      </trkpt>
      <trkpt lat="48.6728" lon="-3.86137">
        <ele>19</ele>
        <time>2021-06-03T10:19:15.088Z</time>
      </trkpt>
      <trkpt lat="48.67276" lon="-3.86135">
        <ele>19</ele>
        <time>2021-06-03T10:19:20.112Z</time>
      </trkpt>
      <trkpt lat="48.67272" lon="-3.86132">
        <ele>19</ele>
        <time>2021-06-03T10:19:25.104Z</time>
      </trkpt>
      <trkpt lat="48.67268" lon="-3.86128">
        <ele>19</ele>
        <time>2021-06-03T10:19:30.079Z</time>
      </trkpt>
      <trkpt lat="48.67264" lon="-3.86125">
        <ele>19</ele>
        <time>2021-06-03T10:19:35.087Z</time>
      </trkpt>
      <trkpt lat="48.6726" lon="-3.86127">
        <ele>27</ele>
        <time>2021-06-03T10:19:40.089Z</time>
      </trkpt>
      <trkpt lat="48.67255" lon="-3.86132">
        <ele>27</ele>
        <time>2021-06-03T10:19:45.097Z</time>
      </trkpt>
      <trkpt lat="48.67252" lon="-3.86135">
        <ele>27</ele>
        <time>2021-06-03T10:19:49.184Z</time>
      </trkpt>
      <trkpt lat="48.67247" lon="-3.86136">
        <ele>27</ele>
        <time>2021-06-03T10:19:54.091Z</time>
      </trkpt>
      <trkpt lat="48.67243" lon="-3.86135">
        <ele>27</ele>
        <time>2021-06-03T10:19:59.078Z</time>
      </trkpt>
      <trkpt lat="48.67239" lon="-3.86135">
        <ele>27</ele>
        <time>2021-06-03T10:20:03.094Z</time>
      </trkpt>
      <trkpt lat="48.67234" lon="-3.86135">
        <ele>31</ele>
        <time>2021-06-03T10:20:08.088Z</time>
      </trkpt>
      <trkpt lat="48.67229" lon="-3.86136">
        <ele>31</ele>
        <time>2021-06-03T10:20:13.092Z</time>
      </trkpt>
      <trkpt lat="48.67226" lon="-3.86137">
        <ele>31</ele>
        <time>2021-06-03T10:20:17.098Z</time>
      </trkpt>
      <trkpt lat="48.67221" lon="-3.86138">
        <ele>31</ele>
        <time>2021-06-03T10:20:22.093Z</time>
      </trkpt>
      <trkpt lat="48.67218" lon="-3.86134">
        <ele>31</ele>
        <time>2021-06-03T10:20:27.113Z</time>
      </trkpt>
      <trkpt lat="48.67215" lon="-3.86128">
        <ele>31</ele>
        <time>2021-06-03T10:20:32.097Z</time>
      </trkpt>
      <trkpt lat="48.67214" lon="-3.86122">
        <ele>32</ele>
        <time>2021-06-03T10:20:37.107Z</time>
      </trkpt>
      <trkpt lat="48.67214" lon="-3.86116">
        <ele>32</ele>
        <time>2021-06-03T10:20:42.090Z</time>
      </trkpt>
      <trkpt lat="48.67212" lon="-3.86111">
        <ele>32</ele>
        <time>2021-06-03T10:20:46.084Z</time>
      </trkpt>
      <trkpt lat="48.67213" lon="-3.86103">
        <ele>32</ele>
        <time>2021-06-03T10:20:51.091Z</time>
      </trkpt>
      <trkpt lat="48.67213" lon="-3.86096">
        <ele>32</ele>
        <time>2021-06-03T10:20:55.104Z</time>
      </trkpt>
      <trkpt lat="48.67213" lon="-3.86086">
        <ele>32</ele>
        <time>2021-06-03T10:21:00.082Z</time>
      </trkpt>
      <trkpt lat="48.67213" lon="-3.86079">
        <ele>32</ele>
        <time>2021-06-03T10:21:04.096Z</time>
      </trkpt>
      <trkpt lat="48.67213" lon="-3.86069">
        <ele>33</ele>
        <time>2021-06-03T10:21:09.086Z</time>
      </trkpt>
      <trkpt lat="48.67212" lon="-3.86062">
        <ele>33</ele>
        <time>2021-06-03T10:21:13.099Z</time>
      </trkpt>
      <trkpt lat="48.67212" lon="-3.86054">
        <ele>33</ele>
        <time>2021-06-03T10:21:18.094Z</time>
      </trkpt>
      <trkpt lat="48.67212" lon="-3.86048">
        <ele>33</ele>
        <time>2021-06-03T10:21:23.109Z</time>
      </trkpt>
      <trkpt lat="48.67212" lon="-3.86041">
        <ele>33</ele>
        <time>2021-06-03T10:21:28.097Z</time>
      </trkpt>
      <trkpt lat="48.67212" lon="-3.86034">
        <ele>33</ele>
        <time>2021-06-03T10:21:33.100Z</time>
      </trkpt>
      <trkpt lat="48.67212" lon="-3.86025">
        <ele>33</ele>
        <time>2021-06-03T10:21:38.098Z</time>
      </trkpt>
      <trkpt lat="48.6721" lon="-3.86018">
        <ele>33</ele>
        <time>2021-06-03T10:21:43.095Z</time>
      </trkpt>
      <trkpt lat="48.67209" lon="-3.86011">
        <ele>33</ele>
        <time>2021-06-03T10:21:47.103Z</time>
      </trkpt>
      <trkpt lat="48.67209" lon="-3.86003">
        <ele>33</ele>
        <time>2021-06-03T10:21:52.099Z</time>
      </trkpt>
      <trkpt lat="48.67208" lon="-3.85994">
        <ele>37</ele>
        <time>2021-06-03T10:21:57.089Z</time>
      </trkpt>
      <trkpt lat="48.67207" lon="-3.85988">
        <ele>37</ele>
        <time>2021-06-03T10:22:01.099Z</time>
      </trkpt>
      <trkpt lat="48.67207" lon="-3.85979">
        <ele>37</ele>
        <time>2021-06-03T10:22:06.102Z</time>
      </trkpt>
      <trkpt lat="48.67207" lon="-3.85971">
        <ele>37</ele>
        <time>2021-06-03T10:22:11.111Z</time>
      </trkpt>
      <trkpt lat="48.67207" lon="-3.85963">
        <ele>37</ele>
        <time>2021-06-03T10:22:16.091Z</time>
      </trkpt>
      <trkpt lat="48.67207" lon="-3.85957">
        <ele>35</ele>
        <time>2021-06-03T10:22:20.103Z</time>
      </trkpt>
      <trkpt lat="48.67206" lon="-3.85951">
        <ele>35</ele>
        <time>2021-06-03T10:22:24.090Z</time>
      </trkpt>
      <trkpt lat="48.67206" lon="-3.85943">
        <ele>35</ele>
        <time>2021-06-03T10:22:29.094Z</time>
      </trkpt>
      <trkpt lat="48.67206" lon="-3.85936">
        <ele>35</ele>
        <time>2021-06-03T10:22:34.111Z</time>
      </trkpt>
      <trkpt lat="48.67201" lon="-3.85928">
        <ele>33</ele>
        <time>2021-06-03T10:24:23.085Z</time>
      </trkpt>
      <trkpt lat="48.672" lon="-3.85923">
        <ele>33</ele>
        <time>2021-06-03T10:24:27.088Z</time>
      </trkpt>
      <trkpt lat="48.67199" lon="-3.85917">
        <ele>33</ele>
        <time>2021-06-03T10:24:31.084Z</time>
      </trkpt>
      <trkpt lat="48.672" lon="-3.8591">
        <ele>33</ele>
        <time>2021-06-03T10:24:35.093Z</time>
      </trkpt>
      <trkpt lat="48.672" lon="-3.85901">
        <ele>31</ele>
        <time>2021-06-03T10:24:40.092Z</time>
      </trkpt>
      <trkpt lat="48.672" lon="-3.8589">
        <ele>31</ele>
        <time>2021-06-03T10:24:45.104Z</time>
      </trkpt>
      <trkpt lat="48.672" lon="-3.85881">
        <ele>31</ele>
        <time>2021-06-03T10:24:50.092Z</time>
      </trkpt>
      <trkpt lat="48.672" lon="-3.85874">
        <ele>30</ele>
        <time>2021-06-03T10:24:54.110Z</time>
      </trkpt>
      <trkpt lat="48.672" lon="-3.85864">
        <ele>30</ele>
        <time>2021-06-03T10:24:59.102Z</time>
      </trkpt>
      <trkpt lat="48.672" lon="-3.85855">
        <ele>30</ele>
        <time>2021-06-03T10:25:04.097Z</time>
      </trkpt>
      <trkpt lat="48.67199" lon="-3.85845">
        <ele>30</ele>
        <time>2021-06-03T10:25:09.089Z</time>
      </trkpt>
      <trkpt lat="48.67198" lon="-3.85838">
        <ele>30</ele>
        <time>2021-06-03T10:25:13.101Z</time>
      </trkpt>
      <trkpt lat="48.67198" lon="-3.8583">
        <ele>30</ele>
        <time>2021-06-03T10:25:18.098Z</time>
      </trkpt>
      <trkpt lat="48.67194" lon="-3.85823">
        <ele>30</ele>
        <time>2021-06-03T10:25:23.104Z</time>
      </trkpt>
      <trkpt lat="48.67194" lon="-3.85817">
        <ele>28</ele>
        <time>2021-06-03T10:25:28.095Z</time>
      </trkpt>
      <trkpt lat="48.67194" lon="-3.85807">
        <ele>28</ele>
        <time>2021-06-03T10:25:33.105Z</time>
      </trkpt>
      <trkpt lat="48.67194" lon="-3.85796">
        <ele>28</ele>
        <time>2021-06-03T10:25:38.097Z</time>
      </trkpt>
      <trkpt lat="48.67193" lon="-3.85789">
        <ele>25</ele>
        <time>2021-06-03T10:25:43.107Z</time>
      </trkpt>
      <trkpt lat="48.67189" lon="-3.85787">
        <ele>25</ele>
        <time>2021-06-03T10:25:48.100Z</time>
      </trkpt>
      <trkpt lat="48.67187" lon="-3.85789">
        <ele>25</ele>
        <time>2021-06-03T10:25:52.110Z</time>
      </trkpt>
      <trkpt lat="48.67188" lon="-3.85796">
        <ele>28</ele>
        <time>2021-06-03T10:25:57.090Z</time>
      </trkpt>
      <trkpt lat="48.67187" lon="-3.85803">
        <ele>28</ele>
        <time>2021-06-03T10:26:02.087Z</time>
      </trkpt>
      <trkpt lat="48.67187" lon="-3.85809">
        <ele>28</ele>
        <time>2021-06-03T10:26:06.104Z</time>
      </trkpt>
      <trkpt lat="48.67187" lon="-3.85816">
        <ele>28</ele>
        <time>2021-06-03T10:26:11.092Z</time>
      </trkpt>
      <trkpt lat="48.67186" lon="-3.85822">
        <ele>30</ele>
        <time>2021-06-03T10:26:15.220Z</time>
      </trkpt>
      <trkpt lat="48.67184" lon="-3.8583">
        <ele>30</ele>
        <time>2021-06-03T10:26:20.097Z</time>
      </trkpt>
      <trkpt lat="48.67183" lon="-3.85836">
        <ele>30</ele>
        <time>2021-06-03T10:26:24.106Z</time>
      </trkpt>
      <trkpt lat="48.6718" lon="-3.85842">
        <ele>33</ele>
        <time>2021-06-03T10:26:29.102Z</time>
      </trkpt>
      <trkpt lat="48.67178" lon="-3.85849">
        <ele>34</ele>
        <time>2021-06-03T10:26:34.099Z</time>
      </trkpt>
      <trkpt lat="48.67175" lon="-3.85853">
        <ele>34</ele>
        <time>2021-06-03T10:26:38.107Z</time>
      </trkpt>
      <trkpt lat="48.67172" lon="-3.85858">
        <ele>34</ele>
        <time>2021-06-03T10:26:43.096Z</time>
      </trkpt>
      <trkpt lat="48.67168" lon="-3.85862">
        <ele>34</ele>
        <time>2021-06-03T10:26:47.113Z</time>
      </trkpt>
      <trkpt lat="48.67163" lon="-3.85866">
        <ele>34</ele>
        <time>2021-06-03T10:26:52.100Z</time>
      </trkpt>
      <trkpt lat="48.67158" lon="-3.85868">
        <ele>34</ele>
        <time>2021-06-03T10:26:56.103Z</time>
      </trkpt>
      <trkpt lat="48.67151" lon="-3.85873">
        <ele>38</ele>
        <time>2021-06-03T10:27:01.109Z</time>
      </trkpt>
      <trkpt lat="48.67145" lon="-3.85876">
        <ele>39</ele>
        <time>2021-06-03T10:27:06.086Z</time>
      </trkpt>
      <trkpt lat="48.67138" lon="-3.85878">
        <ele>39</ele>
        <time>2021-06-03T10:27:11.096Z</time>
      </trkpt>
      <trkpt lat="48.67132" lon="-3.85882">
        <ele>39</ele>
        <time>2021-06-03T10:27:16.079Z</time>
      </trkpt>
      <trkpt lat="48.67127" lon="-3.85883">
        <ele>39</ele>
        <time>2021-06-03T10:27:20.085Z</time>
      </trkpt>
      <trkpt lat="48.67123" lon="-3.85885">
        <ele>42</ele>
        <time>2021-06-03T10:27:24.096Z</time>
      </trkpt>
      <trkpt lat="48.67117" lon="-3.85887">
        <ele>42</ele>
        <time>2021-06-03T10:27:29.091Z</time>
      </trkpt>
      <trkpt lat="48.6711" lon="-3.85889">
        <ele>42</ele>
        <time>2021-06-03T10:27:34.085Z</time>
      </trkpt>
      <trkpt lat="48.67106" lon="-3.85891">
        <ele>42</ele>
        <time>2021-06-03T10:27:38.093Z</time>
      </trkpt>
      <trkpt lat="48.67101" lon="-3.85893">
        <ele>42</ele>
        <time>2021-06-03T10:27:42.095Z</time>
      </trkpt>
      <trkpt lat="48.67095" lon="-3.85895">
        <ele>44</ele>
        <time>2021-06-03T10:27:47.083Z</time>
      </trkpt>
      <trkpt lat="48.67089" lon="-3.85899">
        <ele>44</ele>
        <time>2021-06-03T10:27:52.088Z</time>
      </trkpt>
      <trkpt lat="48.67084" lon="-3.85902">
        <ele>44</ele>
        <time>2021-06-03T10:27:56.090Z</time>
      </trkpt>
      <trkpt lat="48.67079" lon="-3.85907">
        <ele>44</ele>
        <time>2021-06-03T10:28:01.086Z</time>
      </trkpt>
      <trkpt lat="48.67076" lon="-3.85913">
        <ele>44</ele>
        <time>2021-06-03T10:28:05.095Z</time>
      </trkpt>
      <trkpt lat="48.67072" lon="-3.8592">
        <ele>44</ele>
        <time>2021-06-03T10:28:10.091Z</time>
      </trkpt>
      <trkpt lat="48.67069" lon="-3.85925">
        <ele>46</ele>
        <time>2021-06-03T10:28:14.097Z</time>
      </trkpt>
      <trkpt lat="48.67065" lon="-3.85931">
        <ele>47</ele>
        <time>2021-06-03T10:28:19.093Z</time>
      </trkpt>
      <trkpt lat="48.6706" lon="-3.85936">
        <ele>47</ele>
        <time>2021-06-03T10:28:24.094Z</time>
      </trkpt>
      <trkpt lat="48.67054" lon="-3.85937">
        <ele>47</ele>
        <time>2021-06-03T10:28:29.092Z</time>
      </trkpt>
      <trkpt lat="48.67049" lon="-3.85936">
        <ele>47</ele>
        <time>2021-06-03T10:28:34.095Z</time>
      </trkpt>
      <trkpt lat="48.67043" lon="-3.85935">
        <ele>47</ele>
        <time>2021-06-03T10:28:39.092Z</time>
      </trkpt>
      <trkpt lat="48.67038" lon="-3.85935">
        <ele>46</ele>
        <time>2021-06-03T10:28:43.088Z</time>
      </trkpt>
      <trkpt lat="48.67033" lon="-3.85933">
        <ele>46</ele>
        <time>2021-06-03T10:28:48.105Z</time>
      </trkpt>
      <trkpt lat="48.67026" lon="-3.8593">
        <ele>45</ele>
        <time>2021-06-03T10:28:53.096Z</time>
      </trkpt>
      <trkpt lat="48.67021" lon="-3.8593">
        <ele>45</ele>
        <time>2021-06-03T10:28:58.092Z</time>
      </trkpt>
      <trkpt lat="48.67016" lon="-3.85927">
        <ele>45</ele>
        <time>2021-06-03T10:29:02.099Z</time>
      </trkpt>
      <trkpt lat="48.6701" lon="-3.85923">
        <ele>46</ele>
        <time>2021-06-03T10:29:07.121Z</time>
      </trkpt>
      <trkpt lat="48.67006" lon="-3.85917">
        <ele>46</ele>
        <time>2021-06-03T10:29:12.090Z</time>
      </trkpt>
      <trkpt lat="48.67003" lon="-3.85911">
        <ele>46</ele>
        <time>2021-06-03T10:29:16.109Z</time>
      </trkpt>
      <trkpt lat="48.66998" lon="-3.85904">
        <ele>46</ele>
        <time>2021-06-03T10:29:21.090Z</time>
      </trkpt>
      <trkpt lat="48.66995" lon="-3.85898">
        <ele>45</ele>
        <time>2021-06-03T10:29:25.111Z</time>
      </trkpt>
      <trkpt lat="48.66991" lon="-3.85893">
        <ele>45</ele>
        <time>2021-06-03T10:29:30.096Z</time>
      </trkpt>
      <trkpt lat="48.66986" lon="-3.85887">
        <ele>45</ele>
        <time>2021-06-03T10:29:35.110Z</time>
      </trkpt>
      <trkpt lat="48.66981" lon="-3.85879">
        <ele>46</ele>
        <time>2021-06-03T10:29:40.105Z</time>
      </trkpt>
      <trkpt lat="48.66976" lon="-3.85874">
        <ele>44</ele>
        <time>2021-06-03T10:29:45.117Z</time>
      </trkpt>
      <trkpt lat="48.66971" lon="-3.85868">
        <ele>44</ele>
        <time>2021-06-03T10:30:04.097Z</time>
      </trkpt>
      <trkpt lat="48.66971" lon="-3.85866">
        <ele>44</ele>
        <time>2021-06-03T10:30:08.143Z</time>
      </trkpt>
      <trkpt lat="48.6697" lon="-3.85867">
        <ele>44</ele>
        <time>2021-06-03T10:30:13.083Z</time>
      </trkpt>
      <trkpt lat="48.66968" lon="-3.8586">
        <ele>44</ele>
        <time>2021-06-03T10:30:18.085Z</time>
      </trkpt>
      <trkpt lat="48.66966" lon="-3.85854">
        <ele>44</ele>
        <time>2021-06-03T10:30:22.087Z</time>
      </trkpt>
      <trkpt lat="48.66963" lon="-3.85849">
        <ele>44</ele>
        <time>2021-06-03T10:30:27.099Z</time>
      </trkpt>
      <trkpt lat="48.66958" lon="-3.85842">
        <ele>44</ele>
        <time>2021-06-03T10:30:32.107Z</time>
      </trkpt>
      <trkpt lat="48.66954" lon="-3.85837">
        <ele>44</ele>
        <time>2021-06-03T10:30:37.089Z</time>
      </trkpt>
      <trkpt lat="48.6695" lon="-3.8583">
        <ele>44</ele>
        <time>2021-06-03T10:30:42.094Z</time>
      </trkpt>
      <trkpt lat="48.66946" lon="-3.85824">
        <ele>44</ele>
        <time>2021-06-03T10:30:47.089Z</time>
      </trkpt>
      <trkpt lat="48.66942" lon="-3.85818">
        <ele>44</ele>
        <time>2021-06-03T10:30:52.082Z</time>
      </trkpt>
      <trkpt lat="48.66937" lon="-3.85812">
        <ele>44</ele>
        <time>2021-06-03T10:30:57.087Z</time>
      </trkpt>
      <trkpt lat="48.66933" lon="-3.85807">
        <ele>44</ele>
        <time>2021-06-03T10:31:01.104Z</time>
      </trkpt>
      <trkpt lat="48.66929" lon="-3.85801">
        <ele>45</ele>
        <time>2021-06-03T10:31:05.111Z</time>
      </trkpt>
      <trkpt lat="48.66925" lon="-3.85796">
        <ele>45</ele>
        <time>2021-06-03T10:31:10.104Z</time>
      </trkpt>
      <trkpt lat="48.66921" lon="-3.85788">
        <ele>44</ele>
        <time>2021-06-03T10:31:15.095Z</time>
      </trkpt>
      <trkpt lat="48.66916" lon="-3.85781">
        <ele>44</ele>
        <time>2021-06-03T10:31:20.083Z</time>
      </trkpt>
      <trkpt lat="48.66911" lon="-3.85774">
        <ele>44</ele>
        <time>2021-06-03T10:31:25.090Z</time>
      </trkpt>
      <trkpt lat="48.66906" lon="-3.85768">
        <ele>44</ele>
        <time>2021-06-03T10:31:30.115Z</time>
      </trkpt>
      <trkpt lat="48.66901" lon="-3.85762">
        <ele>42</ele>
        <time>2021-06-03T10:31:35.098Z</time>
      </trkpt>
      <trkpt lat="48.66897" lon="-3.85757">
        <ele>42</ele>
        <time>2021-06-03T10:31:39.108Z</time>
      </trkpt>
      <trkpt lat="48.66891" lon="-3.85751">
        <ele>42</ele>
        <time>2021-06-03T10:31:44.101Z</time>
      </trkpt>
      <trkpt lat="48.66886" lon="-3.85745">
        <ele>42</ele>
        <time>2021-06-03T10:31:49.091Z</time>
      </trkpt>
      <trkpt lat="48.66882" lon="-3.85742">
        <ele>42</ele>
        <time>2021-06-03T10:31:53.097Z</time>
      </trkpt>
      <trkpt lat="48.66876" lon="-3.85735">
        <ele>41</ele>
        <time>2021-06-03T10:31:58.098Z</time>
      </trkpt>
      <trkpt lat="48.66872" lon="-3.85729">
        <ele>39</ele>
        <time>2021-06-03T10:32:02.109Z</time>
      </trkpt>
      <trkpt lat="48.66867" lon="-3.85724">
        <ele>39</ele>
        <time>2021-06-03T10:32:07.095Z</time>
      </trkpt>
      <trkpt lat="48.66861" lon="-3.85718">
        <ele>39</ele>
        <time>2021-06-03T10:32:12.104Z</time>
      </trkpt>
      <trkpt lat="48.66855" lon="-3.85712">
        <ele>39</ele>
        <time>2021-06-03T10:32:17.100Z</time>
      </trkpt>
      <trkpt lat="48.66849" lon="-3.85706">
        <ele>37</ele>
        <time>2021-06-03T10:32:22.104Z</time>
      </trkpt>
      <trkpt lat="48.66843" lon="-3.85702">
        <ele>37</ele>
        <time>2021-06-03T10:32:27.084Z</time>
      </trkpt>
      <trkpt lat="48.66836" lon="-3.85697">
        <ele>37</ele>
        <time>2021-06-03T10:32:32.095Z</time>
      </trkpt>
      <trkpt lat="48.6683" lon="-3.85693">
        <ele>37</ele>
        <time>2021-06-03T10:32:37.104Z</time>
      </trkpt>
      <trkpt lat="48.66824" lon="-3.85691">
        <ele>37</ele>
        <time>2021-06-03T10:32:42.095Z</time>
      </trkpt>
      <trkpt lat="48.66817" lon="-3.85689">
        <ele>37</ele>
        <time>2021-06-03T10:32:47.092Z</time>
      </trkpt>
      <trkpt lat="48.6681" lon="-3.85687">
        <ele>37</ele>
        <time>2021-06-03T10:32:52.101Z</time>
      </trkpt>
      <trkpt lat="48.66803" lon="-3.85687">
        <ele>37</ele>
        <time>2021-06-03T10:32:57.092Z</time>
      </trkpt>
      <trkpt lat="48.66798" lon="-3.85686">
        <ele>37</ele>
        <time>2021-06-03T10:33:01.099Z</time>
      </trkpt>
      <trkpt lat="48.6679" lon="-3.85685">
        <ele>36</ele>
        <time>2021-06-03T10:33:06.100Z</time>
      </trkpt>
      <trkpt lat="48.66783" lon="-3.85684">
        <ele>36</ele>
        <time>2021-06-03T10:33:11.094Z</time>
      </trkpt>
      <trkpt lat="48.66776" lon="-3.85683">
        <ele>36</ele>
        <time>2021-06-03T10:33:16.081Z</time>
      </trkpt>
      <trkpt lat="48.66771" lon="-3.85683">
        <ele>36</ele>
        <time>2021-06-03T10:33:20.092Z</time>
      </trkpt>
      <trkpt lat="48.66765" lon="-3.85683">
        <ele>36</ele>
        <time>2021-06-03T10:33:25.099Z</time>
      </trkpt>
      <trkpt lat="48.66762" lon="-3.8569">
        <ele>33</ele>
        <time>2021-06-03T10:33:29.072Z</time>
      </trkpt>
      <trkpt lat="48.66763" lon="-3.85693">
        <ele>33</ele>
        <time>2021-06-03T10:33:34.082Z</time>
      </trkpt>
      <trkpt lat="48.66757" lon="-3.85692">
        <ele>33</ele>
        <time>2021-06-03T10:35:24.084Z</time>
      </trkpt>
      <trkpt lat="48.66757" lon="-3.8569">
        <ele>33</ele>
        <time>2021-06-03T10:35:28.101Z</time>
      </trkpt>
      <trkpt lat="48.66757" lon="-3.85685">
        <ele>33</ele>
        <time>2021-06-03T10:35:32.102Z</time>
      </trkpt>
      <trkpt lat="48.66756" lon="-3.8568">
        <ele>30</ele>
        <time>2021-06-03T10:35:37.097Z</time>
      </trkpt>
      <trkpt lat="48.66756" lon="-3.85676">
        <ele>30</ele>
        <time>2021-06-03T10:35:42.093Z</time>
      </trkpt>
      <trkpt lat="48.66753" lon="-3.85677">
        <ele>30</ele>
        <time>2021-06-03T10:35:47.089Z</time>
      </trkpt>
      <trkpt lat="48.66751" lon="-3.85677">
        <ele>30</ele>
        <time>2021-06-03T10:35:52.094Z</time>
      </trkpt>
      <trkpt lat="48.66748" lon="-3.85675">
        <ele>30</ele>
        <time>2021-06-03T10:35:57.094Z</time>
      </trkpt>
      <trkpt lat="48.66743" lon="-3.85674">
        <ele>30</ele>
        <time>2021-06-03T10:36:02.100Z</time>
      </trkpt>
      <trkpt lat="48.66739" lon="-3.85673">
        <ele>30</ele>
        <time>2021-06-03T10:36:07.095Z</time>
      </trkpt>
      <trkpt lat="48.66734" lon="-3.85674">
        <ele>28</ele>
        <time>2021-06-03T10:36:11.106Z</time>
      </trkpt>
      <trkpt lat="48.66728" lon="-3.85674">
        <ele>28</ele>
        <time>2021-06-03T10:36:16.086Z</time>
      </trkpt>
      <trkpt lat="48.66724" lon="-3.85674">
        <ele>28</ele>
        <time>2021-06-03T10:36:20.094Z</time>
      </trkpt>
      <trkpt lat="48.66718" lon="-3.85674">
        <ele>28</ele>
        <time>2021-06-03T10:36:25.098Z</time>
      </trkpt>
      <trkpt lat="48.66713" lon="-3.85674">
        <ele>28</ele>
        <time>2021-06-03T10:36:30.094Z</time>
      </trkpt>
      <trkpt lat="48.66709" lon="-3.85671">
        <ele>28</ele>
        <time>2021-06-03T10:36:34.095Z</time>
      </trkpt>
      <trkpt lat="48.66705" lon="-3.8567">
        <ele>24</ele>
        <time>2021-06-03T10:36:38.107Z</time>
      </trkpt>
      <trkpt lat="48.667" lon="-3.8567">
        <ele>24</ele>
        <time>2021-06-03T10:36:43.101Z</time>
      </trkpt>
      <trkpt lat="48.66697" lon="-3.85671">
        <ele>24</ele>
        <time>2021-06-03T10:36:47.110Z</time>
      </trkpt>
      <trkpt lat="48.66692" lon="-3.85673">
        <ele>24</ele>
        <time>2021-06-03T10:36:52.085Z</time>
      </trkpt>
      <trkpt lat="48.66687" lon="-3.85673">
        <ele>24</ele>
        <time>2021-06-03T10:36:56.112Z</time>
      </trkpt>
      <trkpt lat="48.66683" lon="-3.85669">
        <ele>24</ele>
        <time>2021-06-03T10:37:01.113Z</time>
      </trkpt>
      <trkpt lat="48.6668" lon="-3.85663">
        <ele>20</ele>
        <time>2021-06-03T10:37:06.088Z</time>
      </trkpt>
      <trkpt lat="48.66676" lon="-3.85658">
        <ele>20</ele>
        <time>2021-06-03T10:37:11.091Z</time>
      </trkpt>
      <trkpt lat="48.66672" lon="-3.85655">
        <ele>20</ele>
        <time>2021-06-03T10:37:16.215Z</time>
      </trkpt>
      <trkpt lat="48.66668" lon="-3.8565">
        <ele>18</ele>
        <time>2021-06-03T10:37:21.099Z</time>
      </trkpt>
      <trkpt lat="48.66663" lon="-3.85645">
        <ele>18</ele>
        <time>2021-06-03T10:37:26.093Z</time>
      </trkpt>
      <trkpt lat="48.66658" lon="-3.85639">
        <ele>18</ele>
        <time>2021-06-03T10:37:31.097Z</time>
      </trkpt>
      <trkpt lat="48.66654" lon="-3.85633">
        <ele>18</ele>
        <time>2021-06-03T10:37:36.096Z</time>
      </trkpt>
      <trkpt lat="48.6665" lon="-3.85627">
        <ele>17</ele>
        <time>2021-06-03T10:37:41.096Z</time>
      </trkpt>
      <trkpt lat="48.66646" lon="-3.85622">
        <ele>16</ele>
        <time>2021-06-03T10:37:46.090Z</time>
      </trkpt>
      <trkpt lat="48.66642" lon="-3.85615">
        <ele>16</ele>
        <time>2021-06-03T10:37:51.082Z</time>
      </trkpt>
      <trkpt lat="48.66639" lon="-3.8561">
        <ele>16</ele>
        <time>2021-06-03T10:37:55.094Z</time>
      </trkpt>
      <trkpt lat="48.66635" lon="-3.85604">
        <ele>16</ele>
        <time>2021-06-03T10:38:00.087Z</time>
      </trkpt>
      <trkpt lat="48.66633" lon="-3.85601">
        <ele>16</ele>
        <time>2021-06-03T10:38:04.100Z</time>
      </trkpt>
      <trkpt lat="48.6663" lon="-3.85595">
        <ele>13</ele>
        <time>2021-06-03T10:38:09.091Z</time>
      </trkpt>
      <trkpt lat="48.66625" lon="-3.85589">
        <ele>11</ele>
        <time>2021-06-03T10:38:14.091Z</time>
      </trkpt>
      <trkpt lat="48.66622" lon="-3.85584">
        <ele>11</ele>
        <time>2021-06-03T10:38:18.091Z</time>
      </trkpt>
      <trkpt lat="48.66616" lon="-3.85578">
        <ele>11</ele>
        <time>2021-06-03T10:38:23.083Z</time>
      </trkpt>
      <trkpt lat="48.66613" lon="-3.85573">
        <ele>11</ele>
        <time>2021-06-03T10:38:27.099Z</time>
      </trkpt>
      <trkpt lat="48.66608" lon="-3.85566">
        <ele>8</ele>
        <time>2021-06-03T10:38:32.086Z</time>
      </trkpt>
      <trkpt lat="48.66604" lon="-3.85561">
        <ele>8</ele>
        <time>2021-06-03T10:38:36.087Z</time>
      </trkpt>
      <trkpt lat="48.666" lon="-3.85557">
        <ele>8</ele>
        <time>2021-06-03T10:38:40.104Z</time>
      </trkpt>
      <trkpt lat="48.66595" lon="-3.8555">
        <ele>8</ele>
        <time>2021-06-03T10:38:45.092Z</time>
      </trkpt>
      <trkpt lat="48.6659" lon="-3.85543">
        <ele>8</ele>
        <time>2021-06-03T10:38:50.088Z</time>
      </trkpt>
      <trkpt lat="48.66586" lon="-3.85538">
        <ele>7</ele>
        <time>2021-06-03T10:38:55.091Z</time>
      </trkpt>
      <trkpt lat="48.66581" lon="-3.85533">
        <ele>7</ele>
        <time>2021-06-03T10:39:00.087Z</time>
      </trkpt>
      <trkpt lat="48.66577" lon="-3.85525">
        <ele>7</ele>
        <time>2021-06-03T10:39:05.090Z</time>
      </trkpt>
      <trkpt lat="48.66574" lon="-3.85519">
        <ele>7</ele>
        <time>2021-06-03T10:39:09.104Z</time>
      </trkpt>
      <trkpt lat="48.6657" lon="-3.85513">
        <ele>5</ele>
        <time>2021-06-03T10:39:14.095Z</time>
      </trkpt>
      <trkpt lat="48.66564" lon="-3.85505">
        <ele>6</ele>
        <time>2021-06-03T10:39:19.098Z</time>
      </trkpt>
      <trkpt lat="48.6656" lon="-3.85501">
        <ele>6</ele>
        <time>2021-06-03T10:39:23.107Z</time>
      </trkpt>
      <trkpt lat="48.66555" lon="-3.85495">
        <ele>6</ele>
        <time>2021-06-03T10:39:28.108Z</time>
      </trkpt>
      <trkpt lat="48.6655" lon="-3.8549">
        <ele>6</ele>
        <time>2021-06-03T10:39:33.105Z</time>
      </trkpt>
      <trkpt lat="48.66545" lon="-3.85485">
        <ele>4</ele>
        <time>2021-06-03T10:39:38.094Z</time>
      </trkpt>
      <trkpt lat="48.6654" lon="-3.85482">
        <ele>7</ele>
        <time>2021-06-03T10:39:43.092Z</time>
      </trkpt>
      <trkpt lat="48.66534" lon="-3.8548">
        <ele>7</ele>
        <time>2021-06-03T10:39:48.099Z</time>
      </trkpt>
      <trkpt lat="48.66528" lon="-3.85477">
        <ele>7</ele>
        <time>2021-06-03T10:39:53.087Z</time>
      </trkpt>
      <trkpt lat="48.66523" lon="-3.85475">
        <ele>7</ele>
        <time>2021-06-03T10:39:58.082Z</time>
      </trkpt>
      <trkpt lat="48.66519" lon="-3.85473">
        <ele>7</ele>
        <time>2021-06-03T10:40:02.096Z</time>
      </trkpt>
      <trkpt lat="48.66513" lon="-3.85468">
        <ele>8</ele>
        <time>2021-06-03T10:40:07.102Z</time>
      </trkpt>
      <trkpt lat="48.66508" lon="-3.85464">
        <ele>8</ele>
        <time>2021-06-03T10:40:12.107Z</time>
      </trkpt>
      <trkpt lat="48.66501" lon="-3.85461">
        <ele>8</ele>
        <time>2021-06-03T10:40:17.092Z</time>
      </trkpt>
      <trkpt lat="48.66496" lon="-3.85459">
        <ele>8</ele>
        <time>2021-06-03T10:40:21.094Z</time>
      </trkpt>
      <trkpt lat="48.66491" lon="-3.85456">
        <ele>7</ele>
        <time>2021-06-03T10:40:26.093Z</time>
      </trkpt>
      <trkpt lat="48.66486" lon="-3.85454">
        <ele>7</ele>
        <time>2021-06-03T10:40:31.101Z</time>
      </trkpt>
      <trkpt lat="48.6648" lon="-3.85455">
        <ele>7</ele>
        <time>2021-06-03T10:40:36.088Z</time>
      </trkpt>
      <trkpt lat="48.66475" lon="-3.85456">
        <ele>7</ele>
        <time>2021-06-03T10:40:41.097Z</time>
      </trkpt>
      <trkpt lat="48.66472" lon="-3.85459">
        <ele>10</ele>
        <time>2021-06-03T10:40:45.098Z</time>
      </trkpt>
      <trkpt lat="48.66466" lon="-3.8546">
        <ele>10</ele>
        <time>2021-06-03T10:40:50.082Z</time>
      </trkpt>
      <trkpt lat="48.66461" lon="-3.85461">
        <ele>10</ele>
        <time>2021-06-03T10:40:54.093Z</time>
      </trkpt>
      <trkpt lat="48.66457" lon="-3.85461">
        <ele>12</ele>
        <time>2021-06-03T10:40:58.096Z</time>
      </trkpt>
      <trkpt lat="48.66451" lon="-3.85462">
        <ele>12</ele>
        <time>2021-06-03T10:41:03.089Z</time>
      </trkpt>
      <trkpt lat="48.66445" lon="-3.85463">
        <ele>12</ele>
        <time>2021-06-03T10:41:08.086Z</time>
      </trkpt>
      <trkpt lat="48.6644" lon="-3.8546">
        <ele>12</ele>
        <time>2021-06-03T10:41:12.094Z</time>
      </trkpt>
      <trkpt lat="48.66434" lon="-3.85462">
        <ele>12</ele>
        <time>2021-06-03T10:41:17.083Z</time>
      </trkpt>
      <trkpt lat="48.66429" lon="-3.85463">
        <ele>13</ele>
        <time>2021-06-03T10:41:21.090Z</time>
      </trkpt>
      <trkpt lat="48.66424" lon="-3.85462">
        <ele>13</ele>
        <time>2021-06-03T10:41:26.081Z</time>
      </trkpt>
      <trkpt lat="48.66421" lon="-3.85458">
        <ele>13</ele>
        <time>2021-06-03T10:41:30.077Z</time>
      </trkpt>
      <trkpt lat="48.66416" lon="-3.85456">
        <ele>10</ele>
        <time>2021-06-03T10:41:35.112Z</time>
      </trkpt>
      <trkpt lat="48.66412" lon="-3.85458">
        <ele>10</ele>
        <time>2021-06-03T10:41:40.100Z</time>
      </trkpt>
      <trkpt lat="48.6641" lon="-3.85452">
        <ele>10</ele>
        <time>2021-06-03T10:43:31.108Z</time>
      </trkpt>
      <trkpt lat="48.66406" lon="-3.85448">
        <ele>10</ele>
        <time>2021-06-03T10:43:36.090Z</time>
      </trkpt>
      <trkpt lat="48.66404" lon="-3.85444">
        <ele>10</ele>
        <time>2021-06-03T10:43:40.093Z</time>
      </trkpt>
      <trkpt lat="48.66399" lon="-3.85439">
        <ele>9</ele>
        <time>2021-06-03T10:43:44.106Z</time>
      </trkpt>
      <trkpt lat="48.66393" lon="-3.85437">
        <ele>9</ele>
        <time>2021-06-03T10:43:49.093Z</time>
      </trkpt>
      <trkpt lat="48.66388" lon="-3.85435">
        <ele>9</ele>
        <time>2021-06-03T10:43:53.111Z</time>
      </trkpt>
      <trkpt lat="48.66382" lon="-3.85432">
        <ele>9</ele>
        <time>2021-06-03T10:43:58.099Z</time>
      </trkpt>
      <trkpt lat="48.66376" lon="-3.85429">
        <ele>5</ele>
        <time>2021-06-03T10:44:03.111Z</time>
      </trkpt>
      <trkpt lat="48.66372" lon="-3.85427">
        <ele>4</ele>
        <time>2021-06-03T10:44:07.112Z</time>
      </trkpt>
      <trkpt lat="48.66366" lon="-3.85424">
        <ele>4</ele>
        <time>2021-06-03T10:44:12.084Z</time>
      </trkpt>
      <trkpt lat="48.66361" lon="-3.85424">
        <ele>4</ele>
        <time>2021-06-03T10:44:16.088Z</time>
      </trkpt>
      <trkpt lat="48.66355" lon="-3.8542">
        <ele>4</ele>
        <time>2021-06-03T10:44:21.095Z</time>
      </trkpt>
      <trkpt lat="48.66351" lon="-3.85418">
        <ele>4</ele>
        <time>2021-06-03T10:44:26.098Z</time>
      </trkpt>
      <trkpt lat="48.66345" lon="-3.85418">
        <ele>4</ele>
        <time>2021-06-03T10:44:31.090Z</time>
      </trkpt>
      <trkpt lat="48.66343" lon="-3.85416">
        <ele>4</ele>
        <time>2021-06-03T10:44:35.093Z</time>
      </trkpt>
      <trkpt lat="48.66337" lon="-3.85418">
        <ele>4</ele>
        <time>2021-06-03T10:44:40.087Z</time>
      </trkpt>
      <trkpt lat="48.66332" lon="-3.85419">
        <ele>4</ele>
        <time>2021-06-03T10:44:44.095Z</time>
      </trkpt>
      <trkpt lat="48.66327" lon="-3.85419">
        <ele>4</ele>
        <time>2021-06-03T10:44:48.088Z</time>
      </trkpt>
      <trkpt lat="48.66323" lon="-3.8542">
        <ele>4</ele>
        <time>2021-06-03T10:44:53.088Z</time>
      </trkpt>
      <trkpt lat="48.66317" lon="-3.85423">
        <ele>4</ele>
        <time>2021-06-03T10:44:58.084Z</time>
      </trkpt>
      <trkpt lat="48.6631" lon="-3.85425">
        <ele>4</ele>
        <time>2021-06-03T10:45:03.090Z</time>
      </trkpt>
      <trkpt lat="48.66306" lon="-3.85427">
        <ele>4</ele>
        <time>2021-06-03T10:45:07.081Z</time>
      </trkpt>
      <trkpt lat="48.663" lon="-3.85428">
        <ele>4</ele>
        <time>2021-06-03T10:45:12.079Z</time>
      </trkpt>
      <trkpt lat="48.66294" lon="-3.85431">
        <ele>6</ele>
        <time>2021-06-03T10:45:17.083Z</time>
      </trkpt>
      <trkpt lat="48.66289" lon="-3.85431">
        <ele>5</ele>
        <time>2021-06-03T10:45:21.084Z</time>
      </trkpt>
      <trkpt lat="48.66284" lon="-3.85429">
        <ele>3</ele>
        <time>2021-06-03T10:45:26.085Z</time>
      </trkpt>
      <trkpt lat="48.66279" lon="-3.85427">
        <ele>3</ele>
        <time>2021-06-03T10:45:30.095Z</time>
      </trkpt>
      <trkpt lat="48.66274" lon="-3.85424">
        <ele>3</ele>
        <time>2021-06-03T10:45:35.092Z</time>
      </trkpt>
      <trkpt lat="48.66267" lon="-3.85422">
        <ele>3</ele>
        <time>2021-06-03T10:45:40.086Z</time>
      </trkpt>
      <trkpt lat="48.66263" lon="-3.8542">
        <ele>3</ele>
        <time>2021-06-03T10:45:44.097Z</time>
      </trkpt>
      <trkpt lat="48.66256" lon="-3.85419">
        <ele>3</ele>
        <time>2021-06-03T10:45:49.097Z</time>
      </trkpt>
      <trkpt lat="48.6625" lon="-3.85418">
        <ele>3</ele>
        <time>2021-06-03T10:45:54.111Z</time>
      </trkpt>
      <trkpt lat="48.66244" lon="-3.85416">
        <ele>3</ele>
        <time>2021-06-03T10:45:59.095Z</time>
      </trkpt>
      <trkpt lat="48.66235" lon="-3.85417">
        <ele>4</ele>
        <time>2021-06-03T10:46:36.083Z</time>
      </trkpt>
      <trkpt lat="48.66235" lon="-3.85416">
        <ele>4</ele>
        <time>2021-06-03T10:46:40.104Z</time>
      </trkpt>
      <trkpt lat="48.66232" lon="-3.85412">
        <ele>4</ele>
        <time>2021-06-03T10:46:45.085Z</time>
      </trkpt>
      <trkpt lat="48.66227" lon="-3.8541">
        <ele>4</ele>
        <time>2021-06-03T10:46:49.093Z</time>
      </trkpt>
      <trkpt lat="48.66221" lon="-3.85407">
        <ele>4</ele>
        <time>2021-06-03T10:46:54.083Z</time>
      </trkpt>
      <trkpt lat="48.66213" lon="-3.85394">
        <ele>3</ele>
        <time>2021-06-03T10:47:22.100Z</time>
      </trkpt>
      <trkpt lat="48.66213" lon="-3.85394">
        <ele>3</ele>
        <time>2021-06-03T10:47:27.094Z</time>
      </trkpt>
      <trkpt lat="48.66211" lon="-3.85392">
        <ele>3</ele>
        <time>2021-06-03T10:47:32.090Z</time>
      </trkpt>
      <trkpt lat="48.66207" lon="-3.8539">
        <ele>4</ele>
        <time>2021-06-03T10:47:36.096Z</time>
      </trkpt>
      <trkpt lat="48.66203" lon="-3.85387">
        <ele>4</ele>
        <time>2021-06-03T10:47:41.115Z</time>
      </trkpt>
      <trkpt lat="48.66199" lon="-3.85382">
        <ele>4</ele>
        <time>2021-06-03T10:47:46.095Z</time>
      </trkpt>
      <trkpt lat="48.66194" lon="-3.85377">
        <ele>4</ele>
        <time>2021-06-03T10:47:51.107Z</time>
      </trkpt>
      <trkpt lat="48.6619" lon="-3.8537">
        <ele>3</ele>
        <time>2021-06-03T10:47:56.096Z</time>
      </trkpt>
      <trkpt lat="48.66187" lon="-3.85362">
        <ele>3</ele>
        <time>2021-06-03T10:48:01.096Z</time>
      </trkpt>
      <trkpt lat="48.66184" lon="-3.85355">
        <ele>3</ele>
        <time>2021-06-03T10:48:06.098Z</time>
      </trkpt>
      <trkpt lat="48.66181" lon="-3.85347">
        <ele>3</ele>
        <time>2021-06-03T10:48:11.093Z</time>
      </trkpt>
      <trkpt lat="48.66178" lon="-3.85338">
        <ele>4</ele>
        <time>2021-06-03T10:48:16.100Z</time>
      </trkpt>
      <trkpt lat="48.66176" lon="-3.8533">
        <ele>4</ele>
        <time>2021-06-03T10:48:21.103Z</time>
      </trkpt>
      <trkpt lat="48.66174" lon="-3.85323">
        <ele>4</ele>
        <time>2021-06-03T10:48:25.114Z</time>
      </trkpt>
      <trkpt lat="48.66174" lon="-3.85314">
        <ele>4</ele>
        <time>2021-06-03T10:48:30.098Z</time>
      </trkpt>
      <trkpt lat="48.66175" lon="-3.85304">
        <ele>4</ele>
        <time>2021-06-03T10:48:35.105Z</time>
      </trkpt>
      <trkpt lat="48.66175" lon="-3.85296">
        <ele>4</ele>
        <time>2021-06-03T10:48:40.107Z</time>
      </trkpt>
      <trkpt lat="48.66174" lon="-3.85287">
        <ele>4</ele>
        <time>2021-06-03T10:48:45.096Z</time>
      </trkpt>
      <trkpt lat="48.66173" lon="-3.85278">
        <ele>4</ele>
        <time>2021-06-03T10:48:49.108Z</time>
      </trkpt>
      <trkpt lat="48.66173" lon="-3.85269">
        <ele>4</ele>
        <time>2021-06-03T10:48:54.096Z</time>
      </trkpt>
      <trkpt lat="48.66172" lon="-3.85262">
        <ele>4</ele>
        <time>2021-06-03T10:48:58.100Z</time>
      </trkpt>
      <trkpt lat="48.66172" lon="-3.85252">
        <ele>4</ele>
        <time>2021-06-03T10:49:03.106Z</time>
      </trkpt>
      <trkpt lat="48.66172" lon="-3.85245">
        <ele>4</ele>
        <time>2021-06-03T10:49:08.088Z</time>
      </trkpt>
      <trkpt lat="48.66173" lon="-3.85244">
        <ele>4</ele>
        <time>2021-06-03T10:49:13.086Z</time>
      </trkpt>
      <trkpt lat="48.66171" lon="-3.85238">
        <ele>4</ele>
        <time>2021-06-03T10:49:17.090Z</time>
      </trkpt>
      <trkpt lat="48.66168" lon="-3.85228">
        <ele>4</ele>
        <time>2021-06-03T10:49:22.079Z</time>
      </trkpt>
      <trkpt lat="48.66167" lon="-3.85221">
        <ele>4</ele>
        <time>2021-06-03T10:49:26.091Z</time>
      </trkpt>
      <trkpt lat="48.66166" lon="-3.85213">
        <ele>4</ele>
        <time>2021-06-03T10:49:30.109Z</time>
      </trkpt>
      <trkpt lat="48.66164" lon="-3.85202">
        <ele>4</ele>
        <time>2021-06-03T10:49:35.086Z</time>
      </trkpt>
      <trkpt lat="48.66163" lon="-3.85193">
        <ele>4</ele>
        <time>2021-06-03T10:49:39.105Z</time>
      </trkpt>
      <trkpt lat="48.66163" lon="-3.85183">
        <ele>4</ele>
        <time>2021-06-03T10:49:44.084Z</time>
      </trkpt>
      <trkpt lat="48.6616" lon="-3.85177">
        <ele>3</ele>
        <time>2021-06-03T10:49:49.089Z</time>
      </trkpt>
      <trkpt lat="48.66159" lon="-3.85173">
        <ele>3</ele>
        <time>2021-06-03T10:49:54.083Z</time>
      </trkpt>
      <trkpt lat="48.66159" lon="-3.85166">
        <ele>3</ele>
        <time>2021-06-03T10:49:59.084Z</time>
      </trkpt>
      <trkpt lat="48.66158" lon="-3.8516">
        <ele>3</ele>
        <time>2021-06-03T10:50:03.102Z</time>
      </trkpt>
      <trkpt lat="48.66153" lon="-3.85156">
        <ele>3</ele>
        <time>2021-06-03T10:50:08.088Z</time>
      </trkpt>
      <trkpt lat="48.66153" lon="-3.85151">
        <ele>2</ele>
        <time>2021-06-03T10:50:13.087Z</time>
      </trkpt>
      <trkpt lat="48.66153" lon="-3.85152">
        <ele>4</ele>
        <time>2021-06-03T10:50:18.101Z</time>
      </trkpt>
      <trkpt lat="48.66152" lon="-3.85149">
        <ele>4</ele>
        <time>2021-06-03T10:50:23.096Z</time>
      </trkpt>
      <trkpt lat="48.66151" lon="-3.85142">
        <ele>4</ele>
        <time>2021-06-03T10:50:28.091Z</time>
      </trkpt>
      <trkpt lat="48.6615" lon="-3.85137">
        <ele>4</ele>
        <time>2021-06-03T10:50:33.097Z</time>
      </trkpt>
      <trkpt lat="48.66148" lon="-3.85133">
        <ele>4</ele>
        <time>2021-06-03T10:50:43.089Z</time>
      </trkpt>
      <trkpt lat="48.66149" lon="-3.85137">
        <ele>4</ele>
        <time>2021-06-03T10:50:47.091Z</time>
      </trkpt>
      <trkpt lat="48.66151" lon="-3.85139">
        <ele>4</ele>
        <time>2021-06-03T10:50:51.095Z</time>
      </trkpt>
      <trkpt lat="48.66156" lon="-3.8514">
        <ele>2</ele>
        <time>2021-06-03T10:50:56.095Z</time>
      </trkpt>
      <trkpt lat="48.66154" lon="-3.85143">
        <ele>2</ele>
        <time>2021-06-03T10:51:01.091Z</time>
      </trkpt>
      <trkpt lat="48.66154" lon="-3.85153">
        <ele>3</ele>
        <time>2021-06-03T11:06:21.101Z</time>
      </trkpt>
      <trkpt lat="48.66154" lon="-3.85153">
        <ele>3</ele>
        <time>2021-06-03T11:06:25.095Z</time>
      </trkpt>
      <trkpt lat="48.66154" lon="-3.85155">
        <ele>3</ele>
        <time>2021-06-03T11:06:30.094Z</time>
      </trkpt>
      <trkpt lat="48.66154" lon="-3.85159">
        <ele>3</ele>
        <time>2021-06-03T11:06:34.107Z</time>
      </trkpt>
      <trkpt lat="48.66156" lon="-3.8516">
        <ele>3</ele>
        <time>2021-06-03T11:06:39.091Z</time>
      </trkpt>
      <trkpt lat="48.66152" lon="-3.85154">
        <ele>4</ele>
        <time>2021-06-03T11:15:10.112Z</time>
      </trkpt>
      <trkpt lat="48.66153" lon="-3.85151">
        <ele>4</ele>
        <time>2021-06-03T11:15:14.108Z</time>
      </trkpt>
      <trkpt lat="48.6615" lon="-3.85144">
        <ele>4</ele>
        <time>2021-06-03T11:15:19.100Z</time>
      </trkpt>
      <trkpt lat="48.66149" lon="-3.85137">
        <ele>4</ele>
        <time>2021-06-03T11:15:24.091Z</time>
      </trkpt>
      <trkpt lat="48.66146" lon="-3.85133">
        <ele>4</ele>
        <time>2021-06-03T11:15:28.087Z</time>
      </trkpt>
      <trkpt lat="48.6615" lon="-3.85151">
        <ele>4</ele>
        <time>2021-06-03T11:17:19.107Z</time>
      </trkpt>
      <trkpt lat="48.66151" lon="-3.85151">
        <ele>4</ele>
        <time>2021-06-03T11:17:23.110Z</time>
      </trkpt>
      <trkpt lat="48.66151" lon="-3.85151">
        <ele>4</ele>
        <time>2021-06-03T11:17:28.090Z</time>
      </trkpt>
      <trkpt lat="48.66151" lon="-3.85152">
        <ele>4</ele>
        <time>2021-06-03T11:17:32.111Z</time>
      </trkpt>
      <trkpt lat="48.66151" lon="-3.85152">
        <ele>4</ele>
        <time>2021-06-03T11:17:37.112Z</time>
      </trkpt>
      <trkpt lat="48.66154" lon="-3.85159">
        <ele>3</ele>
        <time>2021-06-03T11:23:49.104Z</time>
      </trkpt>
      <trkpt lat="48.66154" lon="-3.85159">
        <ele>3</ele>
        <time>2021-06-03T11:23:53.103Z</time>
      </trkpt>
      <trkpt lat="48.66155" lon="-3.85159">
        <ele>3</ele>
        <time>2021-06-03T11:23:58.103Z</time>
      </trkpt>
      <trkpt lat="48.66155" lon="-3.8516">
        <ele>3</ele>
        <time>2021-06-03T11:24:03.111Z</time>
      </trkpt>
      <trkpt lat="48.66152" lon="-3.85168">
        <ele>4</ele>
        <time>2021-06-03T11:24:08.095Z</time>
      </trkpt>
      <trkpt lat="48.66151" lon="-3.85169">
        <ele>4</ele>
        <time>2021-06-03T11:24:12.096Z</time>
      </trkpt>
      <trkpt lat="48.66152" lon="-3.85174">
        <ele>4</ele>
        <time>2021-06-03T11:24:17.118Z</time>
      </trkpt>
      <trkpt lat="48.66146" lon="-3.85174">
        <ele>4</ele>
        <time>2021-06-03T11:24:22.107Z</time>
      </trkpt>
      <trkpt lat="48.66146" lon="-3.85179">
        <ele>4</ele>
        <time>2021-06-03T11:24:26.121Z</time>
      </trkpt>
      <trkpt lat="48.66148" lon="-3.85186">
        <ele>4</ele>
        <time>2021-06-03T11:24:31.102Z</time>
      </trkpt>
      <trkpt lat="48.6615" lon="-3.85194">
        <ele>4</ele>
        <time>2021-06-03T11:24:36.103Z</time>
      </trkpt>
      <trkpt lat="48.66151" lon="-3.852">
        <ele>4</ele>
        <time>2021-06-03T11:24:41.111Z</time>
      </trkpt>
      <trkpt lat="48.66153" lon="-3.85206">
        <ele>4</ele>
        <time>2021-06-03T11:24:46.095Z</time>
      </trkpt>
      <trkpt lat="48.66155" lon="-3.85212">
        <ele>4</ele>
        <time>2021-06-03T11:24:51.094Z</time>
      </trkpt>
      <trkpt lat="48.66158" lon="-3.85218">
        <ele>4</ele>
        <time>2021-06-03T11:24:55.103Z</time>
      </trkpt>
      <trkpt lat="48.6616" lon="-3.85226">
        <ele>4</ele>
        <time>2021-06-03T11:25:00.090Z</time>
      </trkpt>
      <trkpt lat="48.66161" lon="-3.85232">
        <ele>4</ele>
        <time>2021-06-03T11:25:04.104Z</time>
      </trkpt>
      <trkpt lat="48.66164" lon="-3.85241">
        <ele>4</ele>
        <time>2021-06-03T11:25:09.101Z</time>
      </trkpt>
      <trkpt lat="48.66167" lon="-3.8525">
        <ele>4</ele>
        <time>2021-06-03T11:25:14.110Z</time>
      </trkpt>
      <trkpt lat="48.66169" lon="-3.85259">
        <ele>4</ele>
        <time>2021-06-03T11:25:19.094Z</time>
      </trkpt>
      <trkpt lat="48.6617" lon="-3.85266">
        <ele>4</ele>
        <time>2021-06-03T11:25:23.109Z</time>
      </trkpt>
      <trkpt lat="48.66171" lon="-3.85275">
        <ele>4</ele>
        <time>2021-06-03T11:25:28.106Z</time>
      </trkpt>
      <trkpt lat="48.66172" lon="-3.85283">
        <ele>4</ele>
        <time>2021-06-03T11:25:33.099Z</time>
      </trkpt>
      <trkpt lat="48.66172" lon="-3.8529">
        <ele>4</ele>
        <time>2021-06-03T11:25:38.099Z</time>
      </trkpt>
      <trkpt lat="48.66172" lon="-3.85296">
        <ele>4</ele>
        <time>2021-06-03T11:25:42.103Z</time>
      </trkpt>
      <trkpt lat="48.66173" lon="-3.85304">
        <ele>4</ele>
        <time>2021-06-03T11:25:47.100Z</time>
      </trkpt>
      <trkpt lat="48.66174" lon="-3.85317">
        <ele>4</ele>
        <time>2021-06-03T11:26:24.100Z</time>
      </trkpt>
      <trkpt lat="48.6617" lon="-3.85307">
        <ele>4</ele>
        <time>2021-06-03T11:26:29.105Z</time>
      </trkpt>
      <trkpt lat="48.66163" lon="-3.85309">
        <ele>4</ele>
        <time>2021-06-03T11:26:34.111Z</time>
      </trkpt>
      <trkpt lat="48.66158" lon="-3.85313">
        <ele>4</ele>
        <time>2021-06-03T11:26:38.099Z</time>
      </trkpt>
      <trkpt lat="48.66151" lon="-3.85318">
        <ele>5</ele>
        <time>2021-06-03T11:26:43.111Z</time>
      </trkpt>
      <trkpt lat="48.66146" lon="-3.85322">
        <ele>6</ele>
        <time>2021-06-03T11:26:48.102Z</time>
      </trkpt>
      <trkpt lat="48.66141" lon="-3.85327">
        <ele>6</ele>
        <time>2021-06-03T11:26:53.099Z</time>
      </trkpt>
      <trkpt lat="48.66136" lon="-3.85331">
        <ele>6</ele>
        <time>2021-06-03T11:26:58.096Z</time>
      </trkpt>
      <trkpt lat="48.66132" lon="-3.85334">
        <ele>6</ele>
        <time>2021-06-03T11:27:02.106Z</time>
      </trkpt>
      <trkpt lat="48.66129" lon="-3.85336">
        <ele>6</ele>
        <time>2021-06-03T11:27:07.101Z</time>
      </trkpt>
      <trkpt lat="48.66124" lon="-3.85341">
        <ele>8</ele>
        <time>2021-06-03T11:27:12.098Z</time>
      </trkpt>
      <trkpt lat="48.66118" lon="-3.85344">
        <ele>8</ele>
        <time>2021-06-03T11:27:17.094Z</time>
      </trkpt>
      <trkpt lat="48.66113" lon="-3.85346">
        <ele>8</ele>
        <time>2021-06-03T11:27:21.099Z</time>
      </trkpt>
      <trkpt lat="48.66109" lon="-3.85347">
        <ele>8</ele>
        <time>2021-06-03T11:27:26.097Z</time>
      </trkpt>
      <trkpt lat="48.66106" lon="-3.85345">
        <ele>8</ele>
        <time>2021-06-03T11:27:30.103Z</time>
      </trkpt>
      <trkpt lat="48.66102" lon="-3.85344">
        <ele>8</ele>
        <time>2021-06-03T11:27:35.103Z</time>
      </trkpt>
      <trkpt lat="48.66096" lon="-3.85339">
        <ele>11</ele>
        <time>2021-06-03T11:27:40.100Z</time>
      </trkpt>
      <trkpt lat="48.66092" lon="-3.85334">
        <ele>11</ele>
        <time>2021-06-03T11:27:44.111Z</time>
      </trkpt>
      <trkpt lat="48.66087" lon="-3.85327">
        <ele>11</ele>
        <time>2021-06-03T11:27:49.113Z</time>
      </trkpt>
      <trkpt lat="48.66083" lon="-3.85321">
        <ele>11</ele>
        <time>2021-06-03T11:27:54.093Z</time>
      </trkpt>
      <trkpt lat="48.66079" lon="-3.85315">
        <ele>10</ele>
        <time>2021-06-03T11:27:59.099Z</time>
      </trkpt>
      <trkpt lat="48.66075" lon="-3.85309">
        <ele>10</ele>
        <time>2021-06-03T11:28:04.104Z</time>
      </trkpt>
      <trkpt lat="48.66071" lon="-3.85304">
        <ele>10</ele>
        <time>2021-06-03T11:28:09.109Z</time>
      </trkpt>
      <trkpt lat="48.66066" lon="-3.85301">
        <ele>12</ele>
        <time>2021-06-03T11:28:14.101Z</time>
      </trkpt>
      <trkpt lat="48.66063" lon="-3.85297">
        <ele>12</ele>
        <time>2021-06-03T11:28:18.109Z</time>
      </trkpt>
      <trkpt lat="48.66058" lon="-3.85293">
        <ele>12</ele>
        <time>2021-06-03T11:28:23.089Z</time>
      </trkpt>
      <trkpt lat="48.66052" lon="-3.85288">
        <ele>11</ele>
        <time>2021-06-03T11:28:28.103Z</time>
      </trkpt>
      <trkpt lat="48.66047" lon="-3.85285">
        <ele>11</ele>
        <time>2021-06-03T11:28:33.090Z</time>
      </trkpt>
      <trkpt lat="48.66041" lon="-3.85285">
        <ele>14</ele>
        <time>2021-06-03T11:28:38.093Z</time>
      </trkpt>
      <trkpt lat="48.66032" lon="-3.85281">
        <ele>14</ele>
        <time>2021-06-03T11:28:43.102Z</time>
      </trkpt>
      <trkpt lat="48.66028" lon="-3.85275">
        <ele>14</ele>
        <time>2021-06-03T11:28:48.099Z</time>
      </trkpt>
      <trkpt lat="48.66024" lon="-3.85272">
        <ele>14</ele>
        <time>2021-06-03T11:28:53.104Z</time>
      </trkpt>
      <trkpt lat="48.6602" lon="-3.85268">
        <ele>14</ele>
        <time>2021-06-03T11:28:58.107Z</time>
      </trkpt>
      <trkpt lat="48.66016" lon="-3.85265">
        <ele>14</ele>
        <time>2021-06-03T11:29:03.108Z</time>
      </trkpt>
      <trkpt lat="48.66011" lon="-3.8526">
        <ele>15</ele>
        <time>2021-06-03T11:29:08.109Z</time>
      </trkpt>
      <trkpt lat="48.66006" lon="-3.85257">
        <ele>15</ele>
        <time>2021-06-03T11:29:13.102Z</time>
      </trkpt>
      <trkpt lat="48.66001" lon="-3.85254">
        <ele>15</ele>
        <time>2021-06-03T11:29:18.097Z</time>
      </trkpt>
      <trkpt lat="48.65997" lon="-3.85252">
        <ele>15</ele>
        <time>2021-06-03T11:29:22.105Z</time>
      </trkpt>
      <trkpt lat="48.65992" lon="-3.85249">
        <ele>15</ele>
        <time>2021-06-03T11:29:27.113Z</time>
      </trkpt>
      <trkpt lat="48.65986" lon="-3.85247">
        <ele>18</ele>
        <time>2021-06-03T11:29:32.107Z</time>
      </trkpt>
      <trkpt lat="48.6598" lon="-3.85245">
        <ele>18</ele>
        <time>2021-06-03T11:29:37.102Z</time>
      </trkpt>
      <trkpt lat="48.65975" lon="-3.85242">
        <ele>18</ele>
        <time>2021-06-03T11:29:42.115Z</time>
      </trkpt>
      <trkpt lat="48.6597" lon="-3.8524">
        <ele>18</ele>
        <time>2021-06-03T11:29:47.113Z</time>
      </trkpt>
      <trkpt lat="48.65965" lon="-3.85238">
        <ele>18</ele>
        <time>2021-06-03T11:29:52.094Z</time>
      </trkpt>
      <trkpt lat="48.65961" lon="-3.85236">
        <ele>18</ele>
        <time>2021-06-03T11:29:56.111Z</time>
      </trkpt>
      <trkpt lat="48.65955" lon="-3.85235">
        <ele>17</ele>
        <time>2021-06-03T11:30:01.103Z</time>
      </trkpt>
      <trkpt lat="48.65949" lon="-3.85233">
        <ele>17</ele>
        <time>2021-06-03T11:30:06.105Z</time>
      </trkpt>
      <trkpt lat="48.65944" lon="-3.85231">
        <ele>17</ele>
        <time>2021-06-03T11:30:11.103Z</time>
      </trkpt>
      <trkpt lat="48.65939" lon="-3.85229">
        <ele>17</ele>
        <time>2021-06-03T11:30:16.100Z</time>
      </trkpt>
      <trkpt lat="48.65933" lon="-3.85227">
        <ele>17</ele>
        <time>2021-06-03T11:30:21.100Z</time>
      </trkpt>
      <trkpt lat="48.65927" lon="-3.85224">
        <ele>19</ele>
        <time>2021-06-03T11:30:26.103Z</time>
      </trkpt>
      <trkpt lat="48.65921" lon="-3.85221">
        <ele>19</ele>
        <time>2021-06-03T11:30:31.100Z</time>
      </trkpt>
      <trkpt lat="48.65916" lon="-3.85219">
        <ele>19</ele>
        <time>2021-06-03T11:30:36.143Z</time>
      </trkpt>
      <trkpt lat="48.65911" lon="-3.85217">
        <ele>19</ele>
        <time>2021-06-03T11:30:41.095Z</time>
      </trkpt>
      <trkpt lat="48.65906" lon="-3.85214">
        <ele>19</ele>
        <time>2021-06-03T11:30:46.099Z</time>
      </trkpt>
      <trkpt lat="48.659" lon="-3.85212">
        <ele>20</ele>
        <time>2021-06-03T11:30:51.103Z</time>
      </trkpt>
      <trkpt lat="48.65894" lon="-3.85206">
        <ele>18</ele>
        <time>2021-06-03T11:30:56.098Z</time>
      </trkpt>
      <trkpt lat="48.6589" lon="-3.85202">
        <ele>18</ele>
        <time>2021-06-03T11:31:01.098Z</time>
      </trkpt>
      <trkpt lat="48.6589" lon="-3.852">
        <ele>18</ele>
        <time>2021-06-03T11:31:05.098Z</time>
      </trkpt>
      <trkpt lat="48.65889" lon="-3.85196">
        <ele>18</ele>
        <time>2021-06-03T11:31:10.106Z</time>
      </trkpt>
      <trkpt lat="48.65889" lon="-3.85188">
        <ele>18</ele>
        <time>2021-06-03T11:31:15.092Z</time>
      </trkpt>
      <trkpt lat="48.6589" lon="-3.85184">
        <ele>18</ele>
        <time>2021-06-03T11:31:19.106Z</time>
      </trkpt>
      <trkpt lat="48.65891" lon="-3.85179">
        <ele>16</ele>
        <time>2021-06-03T11:31:24.083Z</time>
      </trkpt>
      <trkpt lat="48.65893" lon="-3.85176">
        <ele>16</ele>
        <time>2021-06-03T11:31:28.103Z</time>
      </trkpt>
      <trkpt lat="48.65895" lon="-3.8517">
        <ele>16</ele>
        <time>2021-06-03T11:31:33.094Z</time>
      </trkpt>
      <trkpt lat="48.65898" lon="-3.85164">
        <ele>16</ele>
        <time>2021-06-03T11:31:38.088Z</time>
      </trkpt>
      <trkpt lat="48.65901" lon="-3.8516">
        <ele>16</ele>
        <time>2021-06-03T11:31:42.104Z</time>
      </trkpt>
      <trkpt lat="48.65904" lon="-3.85153">
        <ele>14</ele>
        <time>2021-06-03T11:31:47.103Z</time>
      </trkpt>
      <trkpt lat="48.65907" lon="-3.85146">
        <ele>13</ele>
        <time>2021-06-03T11:31:52.094Z</time>
      </trkpt>
      <trkpt lat="48.65909" lon="-3.85141">
        <ele>13</ele>
        <time>2021-06-03T11:31:56.111Z</time>
      </trkpt>
      <trkpt lat="48.65912" lon="-3.85135">
        <ele>13</ele>
        <time>2021-06-03T11:32:01.099Z</time>
      </trkpt>
      <trkpt lat="48.65915" lon="-3.85131">
        <ele>13</ele>
        <time>2021-06-03T11:32:05.107Z</time>
      </trkpt>
      <trkpt lat="48.65918" lon="-3.85125">
        <ele>13</ele>
        <time>2021-06-03T11:32:10.104Z</time>
      </trkpt>
      <trkpt lat="48.65923" lon="-3.8512">
        <ele>13</ele>
        <time>2021-06-03T11:32:15.094Z</time>
      </trkpt>
      <trkpt lat="48.65926" lon="-3.85117">
        <ele>13</ele>
        <time>2021-06-03T11:32:19.104Z</time>
      </trkpt>
      <trkpt lat="48.6593" lon="-3.85113">
        <ele>13</ele>
        <time>2021-06-03T11:32:24.086Z</time>
      </trkpt>
      <trkpt lat="48.65932" lon="-3.85108">
        <ele>11</ele>
        <time>2021-06-03T11:32:28.111Z</time>
      </trkpt>
      <trkpt lat="48.65935" lon="-3.851">
        <ele>11</ele>
        <time>2021-06-03T11:32:33.086Z</time>
      </trkpt>
      <trkpt lat="48.65937" lon="-3.85094">
        <ele>10</ele>
        <time>2021-06-03T11:32:37.110Z</time>
      </trkpt>
      <trkpt lat="48.6594" lon="-3.8509">
        <ele>10</ele>
        <time>2021-06-03T11:32:41.109Z</time>
      </trkpt>
      <trkpt lat="48.65938" lon="-3.85082">
        <ele>10</ele>
        <time>2021-06-03T11:32:46.102Z</time>
      </trkpt>
      <trkpt lat="48.65933" lon="-3.85076">
        <ele>10</ele>
        <time>2021-06-03T11:32:51.246Z</time>
      </trkpt>
      <trkpt lat="48.65932" lon="-3.85069">
        <ele>10</ele>
        <time>2021-06-03T11:32:56.106Z</time>
      </trkpt>
      <trkpt lat="48.65935" lon="-3.85064">
        <ele>10</ele>
        <time>2021-06-03T11:33:01.102Z</time>
      </trkpt>
      <trkpt lat="48.65938" lon="-3.85056">
        <ele>10</ele>
        <time>2021-06-03T11:33:06.090Z</time>
      </trkpt>
      <trkpt lat="48.65941" lon="-3.8505">
        <ele>10</ele>
        <time>2021-06-03T11:33:11.092Z</time>
      </trkpt>
      <trkpt lat="48.65944" lon="-3.85043">
        <ele>10</ele>
        <time>2021-06-03T11:33:15.101Z</time>
      </trkpt>
      <trkpt lat="48.6595" lon="-3.85033">
        <ele>10</ele>
        <time>2021-06-03T11:33:20.095Z</time>
      </trkpt>
      <trkpt lat="48.65952" lon="-3.85028">
        <ele>10</ele>
        <time>2021-06-03T11:33:24.103Z</time>
      </trkpt>
      <trkpt lat="48.65951" lon="-3.8502">
        <ele>10</ele>
        <time>2021-06-03T11:33:29.109Z</time>
      </trkpt>
      <trkpt lat="48.65953" lon="-3.85013">
        <ele>10</ele>
        <time>2021-06-03T11:33:34.112Z</time>
      </trkpt>
      <trkpt lat="48.65957" lon="-3.85005">
        <ele>10</ele>
        <time>2021-06-03T11:33:39.116Z</time>
      </trkpt>
      <trkpt lat="48.65961" lon="-3.84996">
        <ele>9</ele>
        <time>2021-06-03T11:33:44.097Z</time>
      </trkpt>
      <trkpt lat="48.65963" lon="-3.84991">
        <ele>9</ele>
        <time>2021-06-03T11:33:48.098Z</time>
      </trkpt>
      <trkpt lat="48.65964" lon="-3.84986">
        <ele>9</ele>
        <time>2021-06-03T11:33:52.103Z</time>
      </trkpt>
      <trkpt lat="48.65965" lon="-3.8498">
        <ele>9</ele>
        <time>2021-06-03T11:33:57.111Z</time>
      </trkpt>
      <trkpt lat="48.65965" lon="-3.84974">
        <ele>9</ele>
        <time>2021-06-03T11:34:02.103Z</time>
      </trkpt>
      <trkpt lat="48.65966" lon="-3.84971">
        <ele>9</ele>
        <time>2021-06-03T11:34:07.108Z</time>
      </trkpt>
      <trkpt lat="48.65967" lon="-3.84962">
        <ele>9</ele>
        <time>2021-06-03T11:34:12.109Z</time>
      </trkpt>
      <trkpt lat="48.65966" lon="-3.84957">
        <ele>8</ele>
        <time>2021-06-03T11:34:17.109Z</time>
      </trkpt>
      <trkpt lat="48.65968" lon="-3.84949">
        <ele>8</ele>
        <time>2021-06-03T11:34:22.094Z</time>
      </trkpt>
      <trkpt lat="48.65968" lon="-3.84943">
        <ele>8</ele>
        <time>2021-06-03T11:34:26.113Z</time>
      </trkpt>
      <trkpt lat="48.65968" lon="-3.84934">
        <ele>8</ele>
        <time>2021-06-03T11:34:31.107Z</time>
      </trkpt>
      <trkpt lat="48.65969" lon="-3.84927">
        <ele>8</ele>
        <time>2021-06-03T11:34:36.108Z</time>
      </trkpt>
      <trkpt lat="48.65971" lon="-3.8492">
        <ele>8</ele>
        <time>2021-06-03T11:34:40.110Z</time>
      </trkpt>
      <trkpt lat="48.65972" lon="-3.84911">
        <ele>8</ele>
        <time>2021-06-03T11:34:45.106Z</time>
      </trkpt>
      <trkpt lat="48.65974" lon="-3.84905">
        <ele>8</ele>
        <time>2021-06-03T11:34:49.113Z</time>
      </trkpt>
      <trkpt lat="48.65976" lon="-3.84895">
        <ele>8</ele>
        <time>2021-06-03T11:34:54.107Z</time>
      </trkpt>
      <trkpt lat="48.65979" lon="-3.84888">
        <ele>8</ele>
        <time>2021-06-03T11:34:59.109Z</time>
      </trkpt>
      <trkpt lat="48.65981" lon="-3.8488">
        <ele>8</ele>
        <time>2021-06-03T11:35:04.104Z</time>
      </trkpt>
      <trkpt lat="48.65982" lon="-3.8487">
        <ele>7</ele>
        <time>2021-06-03T11:35:09.103Z</time>
      </trkpt>
      <trkpt lat="48.65982" lon="-3.84862">
        <ele>7</ele>
        <time>2021-06-03T11:35:14.117Z</time>
      </trkpt>
      <trkpt lat="48.65982" lon="-3.84855">
        <ele>7</ele>
        <time>2021-06-03T11:35:19.109Z</time>
      </trkpt>
      <trkpt lat="48.65985" lon="-3.84847">
        <ele>7</ele>
        <time>2021-06-03T11:35:24.105Z</time>
      </trkpt>
      <trkpt lat="48.65986" lon="-3.84841">
        <ele>7</ele>
        <time>2021-06-03T11:35:28.104Z</time>
      </trkpt>
      <trkpt lat="48.65986" lon="-3.84835">
        <ele>7</ele>
        <time>2021-06-03T11:35:32.112Z</time>
      </trkpt>
      <trkpt lat="48.65986" lon="-3.84825">
        <ele>7</ele>
        <time>2021-06-03T11:35:37.108Z</time>
      </trkpt>
      <trkpt lat="48.65986" lon="-3.84816">
        <ele>6</ele>
        <time>2021-06-03T11:35:42.106Z</time>
      </trkpt>
      <trkpt lat="48.65986" lon="-3.84808">
        <ele>6</ele>
        <time>2021-06-03T11:35:47.109Z</time>
      </trkpt>
      <trkpt lat="48.65987" lon="-3.84798">
        <ele>6</ele>
        <time>2021-06-03T11:35:52.088Z</time>
      </trkpt>
      <trkpt lat="48.65987" lon="-3.84791">
        <ele>6</ele>
        <time>2021-06-03T11:35:56.113Z</time>
      </trkpt>
      <trkpt lat="48.65988" lon="-3.84784">
        <ele>6</ele>
        <time>2021-06-03T11:36:00.109Z</time>
      </trkpt>
      <trkpt lat="48.65989" lon="-3.84775">
        <ele>6</ele>
        <time>2021-06-03T11:36:05.105Z</time>
      </trkpt>
      <trkpt lat="48.6599" lon="-3.84766">
        <ele>6</ele>
        <time>2021-06-03T11:36:10.101Z</time>
      </trkpt>
      <trkpt lat="48.65992" lon="-3.84755">
        <ele>6</ele>
        <time>2021-06-03T11:36:15.112Z</time>
      </trkpt>
      <trkpt lat="48.65992" lon="-3.84746">
        <ele>6</ele>
        <time>2021-06-03T11:36:20.097Z</time>
      </trkpt>
      <trkpt lat="48.6599" lon="-3.84735">
        <ele>7</ele>
        <time>2021-06-03T11:36:25.104Z</time>
      </trkpt>
      <trkpt lat="48.6599" lon="-3.84728">
        <ele>7</ele>
        <time>2021-06-03T11:36:30.103Z</time>
      </trkpt>
      <trkpt lat="48.65992" lon="-3.84721">
        <ele>7</ele>
        <time>2021-06-03T11:36:34.113Z</time>
      </trkpt>
      <trkpt lat="48.65993" lon="-3.84713">
        <ele>7</ele>
        <time>2021-06-03T11:36:39.100Z</time>
      </trkpt>
      <trkpt lat="48.65994" lon="-3.84708">
        <ele>7</ele>
        <time>2021-06-03T11:36:43.102Z</time>
      </trkpt>
      <trkpt lat="48.65994" lon="-3.847">
        <ele>7</ele>
        <time>2021-06-03T11:36:48.084Z</time>
      </trkpt>
      <trkpt lat="48.65996" lon="-3.84693">
        <ele>7</ele>
        <time>2021-06-03T11:36:52.092Z</time>
      </trkpt>
      <trkpt lat="48.65996" lon="-3.84686">
        <ele>7</ele>
        <time>2021-06-03T11:36:56.102Z</time>
      </trkpt>
      <trkpt lat="48.65998" lon="-3.84679">
        <ele>7</ele>
        <time>2021-06-03T11:37:01.100Z</time>
      </trkpt>
      <trkpt lat="48.65998" lon="-3.84674">
        <ele>7</ele>
        <time>2021-06-03T11:37:05.101Z</time>
      </trkpt>
      <trkpt lat="48.65998" lon="-3.84669">
        <ele>7</ele>
        <time>2021-06-03T11:37:09.099Z</time>
      </trkpt>
      <trkpt lat="48.66002" lon="-3.84658">
        <ele>7</ele>
        <time>2021-06-03T11:37:14.102Z</time>
      </trkpt>
      <trkpt lat="48.66008" lon="-3.8465">
        <ele>7</ele>
        <time>2021-06-03T11:37:19.101Z</time>
      </trkpt>
      <trkpt lat="48.6601" lon="-3.84642">
        <ele>7</ele>
        <time>2021-06-03T11:37:24.106Z</time>
      </trkpt>
      <trkpt lat="48.66012" lon="-3.84634">
        <ele>7</ele>
        <time>2021-06-03T11:37:29.113Z</time>
      </trkpt>
      <trkpt lat="48.66017" lon="-3.84628">
        <ele>6</ele>
        <time>2021-06-03T11:37:34.103Z</time>
      </trkpt>
      <trkpt lat="48.66021" lon="-3.84621">
        <ele>6</ele>
        <time>2021-06-03T11:37:39.101Z</time>
      </trkpt>
      <trkpt lat="48.66025" lon="-3.84617">
        <ele>6</ele>
        <time>2021-06-03T11:37:44.101Z</time>
      </trkpt>
      <trkpt lat="48.66028" lon="-3.84615">
        <ele>6</ele>
        <time>2021-06-03T11:37:48.101Z</time>
      </trkpt>
      <trkpt lat="48.66031" lon="-3.84611">
        <ele>6</ele>
        <time>2021-06-03T11:37:52.104Z</time>
      </trkpt>
      <trkpt lat="48.66028" lon="-3.84603">
        <ele>6</ele>
        <time>2021-06-03T11:37:57.104Z</time>
      </trkpt>
      <trkpt lat="48.66025" lon="-3.84598">
        <ele>6</ele>
        <time>2021-06-03T11:38:02.104Z</time>
      </trkpt>
      <trkpt lat="48.66027" lon="-3.84593">
        <ele>7</ele>
        <time>2021-06-03T11:38:07.098Z</time>
      </trkpt>
      <trkpt lat="48.6603" lon="-3.84588">
        <ele>7</ele>
        <time>2021-06-03T11:38:12.102Z</time>
      </trkpt>
      <trkpt lat="48.66034" lon="-3.84585">
        <ele>7</ele>
        <time>2021-06-03T11:38:17.094Z</time>
      </trkpt>
      <trkpt lat="48.66038" lon="-3.84589">
        <ele>7</ele>
        <time>2021-06-03T11:38:21.096Z</time>
      </trkpt>
      <trkpt lat="48.66044" lon="-3.84599">
        <ele>7</ele>
        <time>2021-06-03T11:38:29.091Z</time>
      </trkpt>
      <trkpt lat="48.66047" lon="-3.84601">
        <ele>7</ele>
        <time>2021-06-03T11:38:33.096Z</time>
      </trkpt>
      <trkpt lat="48.66052" lon="-3.84604">
        <ele>7</ele>
        <time>2021-06-03T11:38:38.093Z</time>
      </trkpt>
      <trkpt lat="48.66056" lon="-3.84607">
        <ele>7</ele>
        <time>2021-06-03T11:38:43.092Z</time>
      </trkpt>
      <trkpt lat="48.6606" lon="-3.84611">
        <ele>7</ele>
        <time>2021-06-03T11:38:48.089Z</time>
      </trkpt>
      <trkpt lat="48.66064" lon="-3.84611">
        <ele>7</ele>
        <time>2021-06-03T11:38:53.092Z</time>
      </trkpt>
      <trkpt lat="48.66068" lon="-3.84609">
        <ele>7</ele>
        <time>2021-06-03T11:38:57.106Z</time>
      </trkpt>
      <trkpt lat="48.66073" lon="-3.84609">
        <ele>6</ele>
        <time>2021-06-03T11:39:02.095Z</time>
      </trkpt>
      <trkpt lat="48.66077" lon="-3.84609">
        <ele>6</ele>
        <time>2021-06-03T11:39:06.105Z</time>
      </trkpt>
      <trkpt lat="48.66082" lon="-3.84606">
        <ele>6</ele>
        <time>2021-06-03T11:39:11.108Z</time>
      </trkpt>
      <trkpt lat="48.66087" lon="-3.84602">
        <ele>6</ele>
        <time>2021-06-03T11:39:16.098Z</time>
      </trkpt>
      <trkpt lat="48.66091" lon="-3.84597">
        <ele>6</ele>
        <time>2021-06-03T11:39:20.115Z</time>
      </trkpt>
      <trkpt lat="48.66096" lon="-3.84592">
        <ele>6</ele>
        <time>2021-06-03T11:39:25.108Z</time>
      </trkpt>
      <trkpt lat="48.66101" lon="-3.8459">
        <ele>4</ele>
        <time>2021-06-03T11:39:30.096Z</time>
      </trkpt>
      <trkpt lat="48.66106" lon="-3.84588">
        <ele>4</ele>
        <time>2021-06-03T11:39:35.105Z</time>
      </trkpt>
      <trkpt lat="48.6611" lon="-3.84586">
        <ele>4</ele>
        <time>2021-06-03T11:39:40.109Z</time>
      </trkpt>
      <trkpt lat="48.66115" lon="-3.84583">
        <ele>4</ele>
        <time>2021-06-03T11:39:45.098Z</time>
      </trkpt>
      <trkpt lat="48.66121" lon="-3.8458">
        <ele>4</ele>
        <time>2021-06-03T11:39:50.095Z</time>
      </trkpt>
      <trkpt lat="48.66126" lon="-3.84579">
        <ele>3</ele>
        <time>2021-06-03T11:39:54.098Z</time>
      </trkpt>
      <trkpt lat="48.66131" lon="-3.84578">
        <ele>3</ele>
        <time>2021-06-03T11:39:59.096Z</time>
      </trkpt>
      <trkpt lat="48.66137" lon="-3.84577">
        <ele>3</ele>
        <time>2021-06-03T11:40:04.103Z</time>
      </trkpt>
      <trkpt lat="48.66142" lon="-3.84577">
        <ele>3</ele>
        <time>2021-06-03T11:40:08.105Z</time>
      </trkpt>
      <trkpt lat="48.66148" lon="-3.84576">
        <ele>3</ele>
        <time>2021-06-03T11:40:13.101Z</time>
      </trkpt>
      <trkpt lat="48.66153" lon="-3.84577">
        <ele>4</ele>
        <time>2021-06-03T11:40:18.107Z</time>
      </trkpt>
      <trkpt lat="48.66159" lon="-3.84577">
        <ele>4</ele>
        <time>2021-06-03T11:40:23.096Z</time>
      </trkpt>
      <trkpt lat="48.66164" lon="-3.84577">
        <ele>4</ele>
        <time>2021-06-03T11:40:27.112Z</time>
      </trkpt>
      <trkpt lat="48.66169" lon="-3.84578">
        <ele>4</ele>
        <time>2021-06-03T11:40:32.104Z</time>
      </trkpt>
      <trkpt lat="48.66174" lon="-3.84579">
        <ele>4</ele>
        <time>2021-06-03T11:40:37.101Z</time>
      </trkpt>
      <trkpt lat="48.6618" lon="-3.84583">
        <ele>4</ele>
        <time>2021-06-03T11:40:42.105Z</time>
      </trkpt>
      <trkpt lat="48.66186" lon="-3.84584">
        <ele>5</ele>
        <time>2021-06-03T11:40:47.097Z</time>
      </trkpt>
      <trkpt lat="48.66193" lon="-3.84585">
        <ele>5</ele>
        <time>2021-06-03T11:40:52.087Z</time>
      </trkpt>
      <trkpt lat="48.66197" lon="-3.84589">
        <ele>5</ele>
        <time>2021-06-03T11:40:56.091Z</time>
      </trkpt>
      <trkpt lat="48.662" lon="-3.84596">
        <ele>5</ele>
        <time>2021-06-03T11:41:01.092Z</time>
      </trkpt>
      <trkpt lat="48.66201" lon="-3.84598">
        <ele>3</ele>
        <time>2021-06-03T11:41:24.087Z</time>
      </trkpt>
      <trkpt lat="48.66201" lon="-3.84598">
        <ele>3</ele>
        <time>2021-06-03T11:41:28.084Z</time>
      </trkpt>
      <trkpt lat="48.66202" lon="-3.84598">
        <ele>3</ele>
        <time>2021-06-03T11:41:33.090Z</time>
      </trkpt>
      <trkpt lat="48.66207" lon="-3.846">
        <ele>3</ele>
        <time>2021-06-03T11:41:38.086Z</time>
      </trkpt>
      <trkpt lat="48.66213" lon="-3.84606">
        <ele>3</ele>
        <time>2021-06-03T11:41:43.082Z</time>
      </trkpt>
      <trkpt lat="48.66218" lon="-3.84608">
        <ele>3</ele>
        <time>2021-06-03T11:41:47.086Z</time>
      </trkpt>
      <trkpt lat="48.66225" lon="-3.84611">
        <ele>3</ele>
        <time>2021-06-03T11:41:52.087Z</time>
      </trkpt>
      <trkpt lat="48.66231" lon="-3.84613">
        <ele>3</ele>
        <time>2021-06-03T11:41:57.089Z</time>
      </trkpt>
      <trkpt lat="48.66236" lon="-3.84611">
        <ele>3</ele>
        <time>2021-06-03T11:42:01.088Z</time>
      </trkpt>
      <trkpt lat="48.66241" lon="-3.84611">
        <ele>5</ele>
        <time>2021-06-03T11:42:05.091Z</time>
      </trkpt>
      <trkpt lat="48.66247" lon="-3.84616">
        <ele>5</ele>
        <time>2021-06-03T11:42:10.093Z</time>
      </trkpt>
      <trkpt lat="48.66253" lon="-3.84619">
        <ele>5</ele>
        <time>2021-06-03T11:42:15.086Z</time>
      </trkpt>
      <trkpt lat="48.66256" lon="-3.84622">
        <ele>5</ele>
        <time>2021-06-03T11:42:19.088Z</time>
      </trkpt>
      <trkpt lat="48.6626" lon="-3.84627">
        <ele>3</ele>
        <time>2021-06-03T11:42:23.092Z</time>
      </trkpt>
      <trkpt lat="48.66266" lon="-3.84632">
        <ele>3</ele>
        <time>2021-06-03T11:42:28.091Z</time>
      </trkpt>
      <trkpt lat="48.66273" lon="-3.84635">
        <ele>3</ele>
        <time>2021-06-03T11:42:33.094Z</time>
      </trkpt>
      <trkpt lat="48.6628" lon="-3.84637">
        <ele>3</ele>
        <time>2021-06-03T11:42:38.089Z</time>
      </trkpt>
      <trkpt lat="48.66286" lon="-3.8464">
        <ele>3</ele>
        <time>2021-06-03T11:42:43.102Z</time>
      </trkpt>
      <trkpt lat="48.66291" lon="-3.84641">
        <ele>3</ele>
        <time>2021-06-03T11:42:47.164Z</time>
      </trkpt>
      <trkpt lat="48.66298" lon="-3.84646">
        <ele>3</ele>
        <time>2021-06-03T11:42:52.093Z</time>
      </trkpt>
      <trkpt lat="48.66303" lon="-3.84648">
        <ele>3</ele>
        <time>2021-06-03T11:42:56.103Z</time>
      </trkpt>
      <trkpt lat="48.66309" lon="-3.8465">
        <ele>3</ele>
        <time>2021-06-03T11:43:01.101Z</time>
      </trkpt>
      <trkpt lat="48.66315" lon="-3.84652">
        <ele>3</ele>
        <time>2021-06-03T11:43:06.099Z</time>
      </trkpt>
      <trkpt lat="48.66321" lon="-3.84655">
        <ele>5</ele>
        <time>2021-06-03T11:43:11.093Z</time>
      </trkpt>
      <trkpt lat="48.66326" lon="-3.84656">
        <ele>5</ele>
        <time>2021-06-03T11:43:15.105Z</time>
      </trkpt>
      <trkpt lat="48.66333" lon="-3.84658">
        <ele>5</ele>
        <time>2021-06-03T11:43:20.103Z</time>
      </trkpt>
      <trkpt lat="48.66339" lon="-3.8466">
        <ele>5</ele>
        <time>2021-06-03T11:43:25.100Z</time>
      </trkpt>
      <trkpt lat="48.66346" lon="-3.84661">
        <ele>5</ele>
        <time>2021-06-03T11:43:30.096Z</time>
      </trkpt>
      <trkpt lat="48.66352" lon="-3.84664">
        <ele>6</ele>
        <time>2021-06-03T11:43:35.097Z</time>
      </trkpt>
      <trkpt lat="48.66358" lon="-3.84665">
        <ele>6</ele>
        <time>2021-06-03T11:43:39.113Z</time>
      </trkpt>
      <trkpt lat="48.66364" lon="-3.84666">
        <ele>6</ele>
        <time>2021-06-03T11:43:44.102Z</time>
      </trkpt>
      <trkpt lat="48.66369" lon="-3.84667">
        <ele>6</ele>
        <time>2021-06-03T11:43:49.114Z</time>
      </trkpt>
      <trkpt lat="48.66376" lon="-3.84669">
        <ele>6</ele>
        <time>2021-06-03T11:43:54.087Z</time>
      </trkpt>
      <trkpt lat="48.6638" lon="-3.84671">
        <ele>6</ele>
        <time>2021-06-03T11:43:58.108Z</time>
      </trkpt>
      <trkpt lat="48.66386" lon="-3.84673">
        <ele>6</ele>
        <time>2021-06-03T11:44:03.112Z</time>
      </trkpt>
      <trkpt lat="48.66392" lon="-3.84672">
        <ele>6</ele>
        <time>2021-06-03T11:44:08.108Z</time>
      </trkpt>
      <trkpt lat="48.66397" lon="-3.84673">
        <ele>6</ele>
        <time>2021-06-03T11:44:13.117Z</time>
      </trkpt>
      <trkpt lat="48.66401" lon="-3.84673">
        <ele>6</ele>
        <time>2021-06-03T11:44:17.095Z</time>
      </trkpt>
      <trkpt lat="48.66407" lon="-3.84674">
        <ele>5</ele>
        <time>2021-06-03T11:44:22.106Z</time>
      </trkpt>
      <trkpt lat="48.66412" lon="-3.84669">
        <ele>5</ele>
        <time>2021-06-03T11:44:27.099Z</time>
      </trkpt>
      <trkpt lat="48.66418" lon="-3.84668">
        <ele>5</ele>
        <time>2021-06-03T11:44:32.100Z</time>
      </trkpt>
      <trkpt lat="48.66423" lon="-3.84669">
        <ele>5</ele>
        <time>2021-06-03T11:44:36.108Z</time>
      </trkpt>
      <trkpt lat="48.66428" lon="-3.84672">
        <ele>5</ele>
        <time>2021-06-03T11:44:41.103Z</time>
      </trkpt>
      <trkpt lat="48.66432" lon="-3.84674">
        <ele>5</ele>
        <time>2021-06-03T11:44:45.107Z</time>
      </trkpt>
      <trkpt lat="48.66436" lon="-3.84678">
        <ele>5</ele>
        <time>2021-06-03T11:44:50.104Z</time>
      </trkpt>
      <trkpt lat="48.66442" lon="-3.84682">
        <ele>3</ele>
        <time>2021-06-03T11:44:55.104Z</time>
      </trkpt>
      <trkpt lat="48.66447" lon="-3.84686">
        <ele>3</ele>
        <time>2021-06-03T11:45:00.102Z</time>
      </trkpt>
      <trkpt lat="48.66452" lon="-3.8469">
        <ele>3</ele>
        <time>2021-06-03T11:45:04.112Z</time>
      </trkpt>
      <trkpt lat="48.66457" lon="-3.84694">
        <ele>3</ele>
        <time>2021-06-03T11:45:09.102Z</time>
      </trkpt>
      <trkpt lat="48.66463" lon="-3.84696">
        <ele>3</ele>
        <time>2021-06-03T11:45:13.113Z</time>
      </trkpt>
      <trkpt lat="48.66469" lon="-3.847">
        <ele>3</ele>
        <time>2021-06-03T11:45:18.106Z</time>
      </trkpt>
      <trkpt lat="48.66474" lon="-3.84701">
        <ele>3</ele>
        <time>2021-06-03T11:45:22.112Z</time>
      </trkpt>
      <trkpt lat="48.66481" lon="-3.84701">
        <ele>3</ele>
        <time>2021-06-03T11:45:27.103Z</time>
      </trkpt>
      <trkpt lat="48.66486" lon="-3.84704">
        <ele>4</ele>
        <time>2021-06-03T11:45:32.107Z</time>
      </trkpt>
      <trkpt lat="48.66492" lon="-3.84705">
        <ele>4</ele>
        <time>2021-06-03T11:45:37.101Z</time>
      </trkpt>
      <trkpt lat="48.66498" lon="-3.84705">
        <ele>4</ele>
        <time>2021-06-03T11:45:42.090Z</time>
      </trkpt>
      <trkpt lat="48.66503" lon="-3.84706">
        <ele>4</ele>
        <time>2021-06-03T11:45:46.107Z</time>
      </trkpt>
      <trkpt lat="48.66509" lon="-3.8471">
        <ele>3</ele>
        <time>2021-06-03T11:45:51.099Z</time>
      </trkpt>
      <trkpt lat="48.66514" lon="-3.84711">
        <ele>3</ele>
        <time>2021-06-03T11:45:55.108Z</time>
      </trkpt>
      <trkpt lat="48.6652" lon="-3.84715">
        <ele>4</ele>
        <time>2021-06-03T11:46:00.097Z</time>
      </trkpt>
      <trkpt lat="48.66526" lon="-3.84717">
        <ele>4</ele>
        <time>2021-06-03T11:46:05.090Z</time>
      </trkpt>
      <trkpt lat="48.66531" lon="-3.84716">
        <ele>4</ele>
        <time>2021-06-03T11:46:09.112Z</time>
      </trkpt>
      <trkpt lat="48.66537" lon="-3.84718">
        <ele>4</ele>
        <time>2021-06-03T11:46:14.108Z</time>
      </trkpt>
      <trkpt lat="48.66542" lon="-3.84721">
        <ele>6</ele>
        <time>2021-06-03T11:46:19.096Z</time>
      </trkpt>
      <trkpt lat="48.66548" lon="-3.84721">
        <ele>6</ele>
        <time>2021-06-03T11:46:24.109Z</time>
      </trkpt>
      <trkpt lat="48.66553" lon="-3.84718">
        <ele>6</ele>
        <time>2021-06-03T11:46:29.103Z</time>
      </trkpt>
      <trkpt lat="48.66554" lon="-3.84709">
        <ele>6</ele>
        <time>2021-06-03T11:46:34.108Z</time>
      </trkpt>
      <trkpt lat="48.66556" lon="-3.84701">
        <ele>8</ele>
        <time>2021-06-03T11:46:39.103Z</time>
      </trkpt>
      <trkpt lat="48.66559" lon="-3.84697">
        <ele>8</ele>
        <time>2021-06-03T11:46:43.114Z</time>
      </trkpt>
      <trkpt lat="48.66562" lon="-3.84691">
        <ele>8</ele>
        <time>2021-06-03T11:46:48.100Z</time>
      </trkpt>
      <trkpt lat="48.66561" lon="-3.84683">
        <ele>8</ele>
        <time>2021-06-03T11:46:53.094Z</time>
      </trkpt>
      <trkpt lat="48.66561" lon="-3.84677">
        <ele>10</ele>
        <time>2021-06-03T11:46:57.086Z</time>
      </trkpt>
      <trkpt lat="48.66561" lon="-3.84672">
        <ele>10</ele>
        <time>2021-06-03T11:47:01.099Z</time>
      </trkpt>
      <trkpt lat="48.66558" lon="-3.84666">
        <ele>10</ele>
        <time>2021-06-03T11:47:06.096Z</time>
      </trkpt>
      <trkpt lat="48.66555" lon="-3.84662">
        <ele>10</ele>
        <time>2021-06-03T11:47:10.108Z</time>
      </trkpt>
      <trkpt lat="48.66554" lon="-3.84655">
        <ele>10</ele>
        <time>2021-06-03T11:47:15.102Z</time>
      </trkpt>
      <trkpt lat="48.66555" lon="-3.84647">
        <ele>13</ele>
        <time>2021-06-03T11:47:20.109Z</time>
      </trkpt>
      <trkpt lat="48.66555" lon="-3.84641">
        <ele>13</ele>
        <time>2021-06-03T11:47:25.113Z</time>
      </trkpt>
      <trkpt lat="48.66555" lon="-3.84635">
        <ele>13</ele>
        <time>2021-06-03T11:47:30.111Z</time>
      </trkpt>
      <trkpt lat="48.66554" lon="-3.84628">
        <ele>13</ele>
        <time>2021-06-03T11:47:35.096Z</time>
      </trkpt>
      <trkpt lat="48.66556" lon="-3.84623">
        <ele>16</ele>
        <time>2021-06-03T11:47:39.111Z</time>
      </trkpt>
      <trkpt lat="48.66561" lon="-3.84622">
        <ele>16</ele>
        <time>2021-06-03T11:47:44.104Z</time>
      </trkpt>
      <trkpt lat="48.66566" lon="-3.84623">
        <ele>16</ele>
        <time>2021-06-03T11:47:49.093Z</time>
      </trkpt>
      <trkpt lat="48.66572" lon="-3.84625">
        <ele>18</ele>
        <time>2021-06-03T11:47:54.101Z</time>
      </trkpt>
      <trkpt lat="48.66578" lon="-3.84626">
        <ele>15</ele>
        <time>2021-06-03T11:47:59.095Z</time>
      </trkpt>
      <trkpt lat="48.66584" lon="-3.84628">
        <ele>15</ele>
        <time>2021-06-03T11:48:04.099Z</time>
      </trkpt>
      <trkpt lat="48.66589" lon="-3.84629">
        <ele>15</ele>
        <time>2021-06-03T11:48:09.093Z</time>
      </trkpt>
      <trkpt lat="48.66594" lon="-3.84629">
        <ele>15</ele>
        <time>2021-06-03T11:48:13.115Z</time>
      </trkpt>
      <trkpt lat="48.66601" lon="-3.84631">
        <ele>16</ele>
        <time>2021-06-03T11:48:18.090Z</time>
      </trkpt>
      <trkpt lat="48.66607" lon="-3.84632">
        <ele>16</ele>
        <time>2021-06-03T11:48:23.096Z</time>
      </trkpt>
      <trkpt lat="48.66613" lon="-3.84633">
        <ele>16</ele>
        <time>2021-06-03T11:48:28.103Z</time>
      </trkpt>
      <trkpt lat="48.66619" lon="-3.84634">
        <ele>16</ele>
        <time>2021-06-03T11:48:33.096Z</time>
      </trkpt>
      <trkpt lat="48.66625" lon="-3.84636">
        <ele>16</ele>
        <time>2021-06-03T11:48:38.084Z</time>
      </trkpt>
      <trkpt lat="48.6663" lon="-3.84635">
        <ele>16</ele>
        <time>2021-06-03T11:48:42.111Z</time>
      </trkpt>
      <trkpt lat="48.66636" lon="-3.84635">
        <ele>16</ele>
        <time>2021-06-03T11:48:47.105Z</time>
      </trkpt>
      <trkpt lat="48.6664" lon="-3.84639">
        <ele>16</ele>
        <time>2021-06-03T11:48:52.106Z</time>
      </trkpt>
      <trkpt lat="48.66643" lon="-3.84638">
        <ele>16</ele>
        <time>2021-06-03T11:48:57.115Z</time>
      </trkpt>
      <trkpt lat="48.66642" lon="-3.84638">
        <ele>16</ele>
        <time>2021-06-03T11:49:59.095Z</time>
      </trkpt>
      <trkpt lat="48.66643" lon="-3.84643">
        <ele>16</ele>
        <time>2021-06-03T11:50:03.098Z</time>
      </trkpt>
      <trkpt lat="48.66647" lon="-3.84646">
        <ele>16</ele>
        <time>2021-06-03T11:50:07.092Z</time>
      </trkpt>
      <trkpt lat="48.66649" lon="-3.84647">
        <ele>16</ele>
        <time>2021-06-03T11:50:11.092Z</time>
      </trkpt>
      <trkpt lat="48.66651" lon="-3.84652">
        <ele>16</ele>
        <time>2021-06-03T11:50:15.097Z</time>
      </trkpt>
      <trkpt lat="48.66651" lon="-3.84655">
        <ele>10</ele>
        <time>2021-06-03T11:50:19.093Z</time>
      </trkpt>
      <trkpt lat="48.66652" lon="-3.84654">
        <ele>10</ele>
        <time>2021-06-03T11:50:24.083Z</time>
      </trkpt>
      <trkpt lat="48.66654" lon="-3.84655">
        <ele>10</ele>
        <time>2021-06-03T11:50:29.092Z</time>
      </trkpt>
      <trkpt lat="48.66659" lon="-3.84657">
        <ele>10</ele>
        <time>2021-06-03T11:50:33.095Z</time>
      </trkpt>
      <trkpt lat="48.66661" lon="-3.8466">
        <ele>10</ele>
        <time>2021-06-03T11:50:38.084Z</time>
      </trkpt>
      <trkpt lat="48.66666" lon="-3.84662">
        <ele>10</ele>
        <time>2021-06-03T11:50:42.091Z</time>
      </trkpt>
      <trkpt lat="48.66672" lon="-3.84665">
        <ele>10</ele>
        <time>2021-06-03T11:50:47.093Z</time>
      </trkpt>
      <trkpt lat="48.66679" lon="-3.84669">
        <ele>10</ele>
        <time>2021-06-03T11:50:52.090Z</time>
      </trkpt>
      <trkpt lat="48.66688" lon="-3.84671">
        <ele>12</ele>
        <time>2021-06-03T11:50:57.088Z</time>
      </trkpt>
      <trkpt lat="48.66693" lon="-3.84672">
        <ele>12</ele>
        <time>2021-06-03T11:51:01.089Z</time>
      </trkpt>
      <trkpt lat="48.66698" lon="-3.84671">
        <ele>12</ele>
        <time>2021-06-03T11:51:06.089Z</time>
      </trkpt>
      <trkpt lat="48.66703" lon="-3.8467">
        <ele>12</ele>
        <time>2021-06-03T11:51:10.106Z</time>
      </trkpt>
      <trkpt lat="48.66708" lon="-3.84666">
        <ele>15</ele>
        <time>2021-06-03T11:51:15.088Z</time>
      </trkpt>
      <trkpt lat="48.66715" lon="-3.84668">
        <ele>15</ele>
        <time>2021-06-03T11:51:20.090Z</time>
      </trkpt>
      <trkpt lat="48.66721" lon="-3.84671">
        <ele>15</ele>
        <time>2021-06-03T11:51:25.094Z</time>
      </trkpt>
      <trkpt lat="48.66727" lon="-3.84676">
        <ele>15</ele>
        <time>2021-06-03T11:51:30.093Z</time>
      </trkpt>
      <trkpt lat="48.66732" lon="-3.84678">
        <ele>15</ele>
        <time>2021-06-03T11:51:34.097Z</time>
      </trkpt>
      <trkpt lat="48.66738" lon="-3.84681">
        <ele>12</ele>
        <time>2021-06-03T11:51:38.094Z</time>
      </trkpt>
      <trkpt lat="48.66743" lon="-3.84683">
        <ele>12</ele>
        <time>2021-06-03T11:51:42.103Z</time>
      </trkpt>
      <trkpt lat="48.66749" lon="-3.84688">
        <ele>12</ele>
        <time>2021-06-03T11:51:47.103Z</time>
      </trkpt>
      <trkpt lat="48.66755" lon="-3.84691">
        <ele>12</ele>
        <time>2021-06-03T11:51:52.105Z</time>
      </trkpt>
      <trkpt lat="48.66758" lon="-3.84696">
        <ele>12</ele>
        <time>2021-06-03T11:51:57.088Z</time>
      </trkpt>
      <trkpt lat="48.66765" lon="-3.84698">
        <ele>14</ele>
        <time>2021-06-03T11:52:02.092Z</time>
      </trkpt>
      <trkpt lat="48.66771" lon="-3.84701">
        <ele>14</ele>
        <time>2021-06-03T11:52:07.087Z</time>
      </trkpt>
      <trkpt lat="48.66776" lon="-3.84703">
        <ele>14</ele>
        <time>2021-06-03T11:52:11.091Z</time>
      </trkpt>
      <trkpt lat="48.66781" lon="-3.84708">
        <ele>14</ele>
        <time>2021-06-03T11:52:16.098Z</time>
      </trkpt>
      <trkpt lat="48.66785" lon="-3.8471">
        <ele>8</ele>
        <time>2021-06-03T11:52:20.106Z</time>
      </trkpt>
      <trkpt lat="48.66789" lon="-3.84714">
        <ele>8</ele>
        <time>2021-06-03T11:52:24.111Z</time>
      </trkpt>
      <trkpt lat="48.66795" lon="-3.84718">
        <ele>11</ele>
        <time>2021-06-03T11:52:29.094Z</time>
      </trkpt>
      <trkpt lat="48.66801" lon="-3.84721">
        <ele>11</ele>
        <time>2021-06-03T11:52:33.098Z</time>
      </trkpt>
      <trkpt lat="48.66807" lon="-3.84725">
        <ele>11</ele>
        <time>2021-06-03T11:52:38.085Z</time>
      </trkpt>
      <trkpt lat="48.66813" lon="-3.84729">
        <ele>11</ele>
        <time>2021-06-03T11:52:43.106Z</time>
      </trkpt>
      <trkpt lat="48.6682" lon="-3.84734">
        <ele>13</ele>
        <time>2021-06-03T11:52:48.093Z</time>
      </trkpt>
      <trkpt lat="48.66826" lon="-3.84736">
        <ele>9</ele>
        <time>2021-06-03T11:52:52.097Z</time>
      </trkpt>
      <trkpt lat="48.66832" lon="-3.8474">
        <ele>9</ele>
        <time>2021-06-03T11:52:56.098Z</time>
      </trkpt>
      <trkpt lat="48.66838" lon="-3.84744">
        <ele>9</ele>
        <time>2021-06-03T11:53:01.088Z</time>
      </trkpt>
      <trkpt lat="48.66843" lon="-3.84746">
        <ele>9</ele>
        <time>2021-06-03T11:53:05.086Z</time>
      </trkpt>
      <trkpt lat="48.66849" lon="-3.84752">
        <ele>10</ele>
        <time>2021-06-03T11:53:10.092Z</time>
      </trkpt>
      <trkpt lat="48.66854" lon="-3.84757">
        <ele>10</ele>
        <time>2021-06-03T11:53:14.096Z</time>
      </trkpt>
      <trkpt lat="48.66861" lon="-3.84758">
        <ele>10</ele>
        <time>2021-06-03T11:53:19.093Z</time>
      </trkpt>
      <trkpt lat="48.66866" lon="-3.84758">
        <ele>10</ele>
        <time>2021-06-03T11:53:23.098Z</time>
      </trkpt>
      <trkpt lat="48.66872" lon="-3.8476">
        <ele>10</ele>
        <time>2021-06-03T11:53:28.094Z</time>
      </trkpt>
      <trkpt lat="48.66879" lon="-3.84761">
        <ele>12</ele>
        <time>2021-06-03T11:53:33.096Z</time>
      </trkpt>
      <trkpt lat="48.66889" lon="-3.84765">
        <ele>9</ele>
        <time>2021-06-03T11:53:38.102Z</time>
      </trkpt>
      <trkpt lat="48.66897" lon="-3.84768">
        <ele>9</ele>
        <time>2021-06-03T11:53:43.112Z</time>
      </trkpt>
      <trkpt lat="48.66905" lon="-3.84772">
        <ele>10</ele>
        <time>2021-06-03T11:53:48.107Z</time>
      </trkpt>
      <trkpt lat="48.66912" lon="-3.84775">
        <ele>10</ele>
        <time>2021-06-03T11:53:53.103Z</time>
      </trkpt>
      <trkpt lat="48.66921" lon="-3.84776">
        <ele>10</ele>
        <time>2021-06-03T11:53:58.094Z</time>
      </trkpt>
      <trkpt lat="48.66926" lon="-3.84772">
        <ele>10</ele>
        <time>2021-06-03T11:54:02.101Z</time>
      </trkpt>
      <trkpt lat="48.66934" lon="-3.84769">
        <ele>10</ele>
        <time>2021-06-03T11:54:07.096Z</time>
      </trkpt>
      <trkpt lat="48.66942" lon="-3.84771">
        <ele>10</ele>
        <time>2021-06-03T11:54:12.098Z</time>
      </trkpt>
      <trkpt lat="48.66948" lon="-3.84773">
        <ele>10</ele>
        <time>2021-06-03T11:54:16.090Z</time>
      </trkpt>
      <trkpt lat="48.66953" lon="-3.84775">
        <ele>10</ele>
        <time>2021-06-03T11:54:20.108Z</time>
      </trkpt>
      <trkpt lat="48.66959" lon="-3.84774">
        <ele>7</ele>
        <time>2021-06-03T11:54:24.115Z</time>
      </trkpt>
      <trkpt lat="48.66966" lon="-3.84774">
        <ele>7</ele>
        <time>2021-06-03T11:54:29.107Z</time>
      </trkpt>
      <trkpt lat="48.66974" lon="-3.84773">
        <ele>7</ele>
        <time>2021-06-03T11:54:34.107Z</time>
      </trkpt>
      <trkpt lat="48.66979" lon="-3.84766">
        <ele>7</ele>
        <time>2021-06-03T11:54:39.104Z</time>
      </trkpt>
      <trkpt lat="48.66982" lon="-3.8476">
        <ele>12</ele>
        <time>2021-06-03T11:54:43.106Z</time>
      </trkpt>
      <trkpt lat="48.66988" lon="-3.84753">
        <ele>8</ele>
        <time>2021-06-03T11:54:48.106Z</time>
      </trkpt>
      <trkpt lat="48.66994" lon="-3.84746">
        <ele>8</ele>
        <time>2021-06-03T11:54:53.101Z</time>
      </trkpt>
      <trkpt lat="48.66989" lon="-3.84738">
        <ele>8</ele>
        <time>2021-06-03T11:54:57.114Z</time>
      </trkpt>
      <trkpt lat="48.66991" lon="-3.84727">
        <ele>11</ele>
        <time>2021-06-03T11:55:02.109Z</time>
      </trkpt>
      <trkpt lat="48.66996" lon="-3.84724">
        <ele>11</ele>
        <time>2021-06-03T11:55:06.108Z</time>
      </trkpt>
      <trkpt lat="48.67002" lon="-3.84719">
        <ele>11</ele>
        <time>2021-06-03T11:55:11.112Z</time>
      </trkpt>
      <trkpt lat="48.67006" lon="-3.84713">
        <ele>11</ele>
        <time>2021-06-03T11:55:16.102Z</time>
      </trkpt>
      <trkpt lat="48.67012" lon="-3.8471">
        <ele>11</ele>
        <time>2021-06-03T11:56:45.104Z</time>
      </trkpt>
      <trkpt lat="48.67015" lon="-3.84704">
        <ele>10</ele>
        <time>2021-06-03T11:56:50.096Z</time>
      </trkpt>
      <trkpt lat="48.67017" lon="-3.84698">
        <ele>10</ele>
        <time>2021-06-03T11:56:55.105Z</time>
      </trkpt>
      <trkpt lat="48.67022" lon="-3.8469">
        <ele>10</ele>
        <time>2021-06-03T11:57:00.093Z</time>
      </trkpt>
      <trkpt lat="48.67024" lon="-3.84686">
        <ele>10</ele>
        <time>2021-06-03T11:57:04.104Z</time>
      </trkpt>
      <trkpt lat="48.67026" lon="-3.8468">
        <ele>11</ele>
        <time>2021-06-03T11:57:08.103Z</time>
      </trkpt>
      <trkpt lat="48.67029" lon="-3.84673">
        <ele>11</ele>
        <time>2021-06-03T11:57:13.096Z</time>
      </trkpt>
      <trkpt lat="48.67033" lon="-3.84667">
        <ele>11</ele>
        <time>2021-06-03T11:57:17.114Z</time>
      </trkpt>
      <trkpt lat="48.67036" lon="-3.84662">
        <ele>11</ele>
        <time>2021-06-03T11:57:22.118Z</time>
      </trkpt>
      <trkpt lat="48.6704" lon="-3.84657">
        <ele>11</ele>
        <time>2021-06-03T11:57:27.108Z</time>
      </trkpt>
      <trkpt lat="48.67044" lon="-3.84651">
        <ele>9</ele>
        <time>2021-06-03T11:57:32.102Z</time>
      </trkpt>
      <trkpt lat="48.67048" lon="-3.84647">
        <ele>9</ele>
        <time>2021-06-03T11:57:36.103Z</time>
      </trkpt>
      <trkpt lat="48.67051" lon="-3.84642">
        <ele>9</ele>
        <time>2021-06-03T11:57:40.116Z</time>
      </trkpt>
      <trkpt lat="48.67056" lon="-3.84636">
        <ele>9</ele>
        <time>2021-06-03T11:57:45.097Z</time>
      </trkpt>
      <trkpt lat="48.67059" lon="-3.84631">
        <ele>9</ele>
        <time>2021-06-03T11:57:49.096Z</time>
      </trkpt>
      <trkpt lat="48.67064" lon="-3.84624">
        <ele>10</ele>
        <time>2021-06-03T11:57:54.114Z</time>
      </trkpt>
      <trkpt lat="48.67068" lon="-3.84619">
        <ele>10</ele>
        <time>2021-06-03T11:57:59.101Z</time>
      </trkpt>
      <trkpt lat="48.67072" lon="-3.84614">
        <ele>10</ele>
        <time>2021-06-03T11:58:04.090Z</time>
      </trkpt>
      <trkpt lat="48.67077" lon="-3.84611">
        <ele>10</ele>
        <time>2021-06-03T11:58:08.102Z</time>
      </trkpt>
      <trkpt lat="48.67082" lon="-3.84605">
        <ele>10</ele>
        <time>2021-06-03T11:58:12.105Z</time>
      </trkpt>
      <trkpt lat="48.67086" lon="-3.84598">
        <ele>10</ele>
        <time>2021-06-03T11:58:17.097Z</time>
      </trkpt>
      <trkpt lat="48.67089" lon="-3.84591">
        <ele>12</ele>
        <time>2021-06-03T11:58:21.102Z</time>
      </trkpt>
      <trkpt lat="48.67091" lon="-3.84585">
        <ele>12</ele>
        <time>2021-06-03T11:58:25.105Z</time>
      </trkpt>
      <trkpt lat="48.67095" lon="-3.84579">
        <ele>12</ele>
        <time>2021-06-03T11:58:30.110Z</time>
      </trkpt>
      <trkpt lat="48.67102" lon="-3.84576">
        <ele>11</ele>
        <time>2021-06-03T11:58:35.098Z</time>
      </trkpt>
      <trkpt lat="48.67105" lon="-3.84569">
        <ele>13</ele>
        <time>2021-06-03T11:58:40.101Z</time>
      </trkpt>
      <trkpt lat="48.67104" lon="-3.84562">
        <ele>13</ele>
        <time>2021-06-03T11:58:45.101Z</time>
      </trkpt>
      <trkpt lat="48.67103" lon="-3.84556">
        <ele>13</ele>
        <time>2021-06-03T11:58:50.108Z</time>
      </trkpt>
      <trkpt lat="48.67104" lon="-3.84555">
        <ele>13</ele>
        <time>2021-06-03T11:58:55.108Z</time>
      </trkpt>
      <trkpt lat="48.67111" lon="-3.84549">
        <ele>13</ele>
        <time>2021-06-03T11:59:13.113Z</time>
      </trkpt>
      <trkpt lat="48.67112" lon="-3.84548">
        <ele>13</ele>
        <time>2021-06-03T11:59:18.104Z</time>
      </trkpt>
      <trkpt lat="48.67117" lon="-3.84545">
        <ele>13</ele>
        <time>2021-06-03T11:59:23.101Z</time>
      </trkpt>
      <trkpt lat="48.67123" lon="-3.84544">
        <ele>13</ele>
        <time>2021-06-03T11:59:28.101Z</time>
      </trkpt>
      <trkpt lat="48.67128" lon="-3.84542">
        <ele>12</ele>
        <time>2021-06-03T11:59:32.104Z</time>
      </trkpt>
      <trkpt lat="48.67134" lon="-3.8454">
        <ele>17</ele>
        <time>2021-06-03T11:59:36.102Z</time>
      </trkpt>
      <trkpt lat="48.67139" lon="-3.8454">
        <ele>17</ele>
        <time>2021-06-03T11:59:41.106Z</time>
      </trkpt>
      <trkpt lat="48.67143" lon="-3.84538">
        <ele>17</ele>
        <time>2021-06-03T11:59:45.114Z</time>
      </trkpt>
      <trkpt lat="48.67149" lon="-3.84535">
        <ele>17</ele>
        <time>2021-06-03T11:59:50.115Z</time>
      </trkpt>
      <trkpt lat="48.67154" lon="-3.84534">
        <ele>18</ele>
        <time>2021-06-03T11:59:55.115Z</time>
      </trkpt>
      <trkpt lat="48.67159" lon="-3.84534">
        <ele>18</ele>
        <time>2021-06-03T12:00:00.108Z</time>
      </trkpt>
      <trkpt lat="48.67164" lon="-3.84533">
        <ele>18</ele>
        <time>2021-06-03T12:00:05.096Z</time>
      </trkpt>
      <trkpt lat="48.67169" lon="-3.84534">
        <ele>18</ele>
        <time>2021-06-03T12:00:10.082Z</time>
      </trkpt>
      <trkpt lat="48.67174" lon="-3.84535">
        <ele>18</ele>
        <time>2021-06-03T12:00:14.088Z</time>
      </trkpt>
      <trkpt lat="48.6718" lon="-3.84535">
        <ele>18</ele>
        <time>2021-06-03T12:00:19.102Z</time>
      </trkpt>
      <trkpt lat="48.67185" lon="-3.84535">
        <ele>20</ele>
        <time>2021-06-03T12:00:24.102Z</time>
      </trkpt>
      <trkpt lat="48.67191" lon="-3.84537">
        <ele>20</ele>
        <time>2021-06-03T12:00:29.099Z</time>
      </trkpt>
      <trkpt lat="48.67196" lon="-3.84538">
        <ele>20</ele>
        <time>2021-06-03T12:00:34.101Z</time>
      </trkpt>
      <trkpt lat="48.67203" lon="-3.84539">
        <ele>20</ele>
        <time>2021-06-03T12:00:39.101Z</time>
      </trkpt>
      <trkpt lat="48.67208" lon="-3.84542">
        <ele>15</ele>
        <time>2021-06-03T12:00:44.107Z</time>
      </trkpt>
      <trkpt lat="48.67214" lon="-3.84546">
        <ele>18</ele>
        <time>2021-06-03T12:00:49.106Z</time>
      </trkpt>
      <trkpt lat="48.6722" lon="-3.84548">
        <ele>18</ele>
        <time>2021-06-03T12:00:54.101Z</time>
      </trkpt>
      <trkpt lat="48.67226" lon="-3.8455">
        <ele>18</ele>
        <time>2021-06-03T12:00:59.098Z</time>
      </trkpt>
      <trkpt lat="48.67232" lon="-3.84553">
        <ele>18</ele>
        <time>2021-06-03T12:01:04.114Z</time>
      </trkpt>
      <trkpt lat="48.67237" lon="-3.84555">
        <ele>20</ele>
        <time>2021-06-03T12:01:09.100Z</time>
      </trkpt>
      <trkpt lat="48.67243" lon="-3.84558">
        <ele>20</ele>
        <time>2021-06-03T12:01:14.099Z</time>
      </trkpt>
      <trkpt lat="48.67249" lon="-3.8456">
        <ele>20</ele>
        <time>2021-06-03T12:01:19.095Z</time>
      </trkpt>
      <trkpt lat="48.67255" lon="-3.84563">
        <ele>20</ele>
        <time>2021-06-03T12:01:24.106Z</time>
      </trkpt>
      <trkpt lat="48.67261" lon="-3.84566">
        <ele>20</ele>
        <time>2021-06-03T12:01:29.099Z</time>
      </trkpt>
      <trkpt lat="48.67267" lon="-3.84567">
        <ele>22</ele>
        <time>2021-06-03T12:01:34.098Z</time>
      </trkpt>
      <trkpt lat="48.67271" lon="-3.84568">
        <ele>22</ele>
        <time>2021-06-03T12:01:38.099Z</time>
      </trkpt>
      <trkpt lat="48.67277" lon="-3.8457">
        <ele>15</ele>
        <time>2021-06-03T12:01:43.109Z</time>
      </trkpt>
      <trkpt lat="48.67282" lon="-3.84574">
        <ele>15</ele>
        <time>2021-06-03T12:01:48.085Z</time>
      </trkpt>
      <trkpt lat="48.67286" lon="-3.84576">
        <ele>15</ele>
        <time>2021-06-03T12:01:52.102Z</time>
      </trkpt>
      <trkpt lat="48.67292" lon="-3.84578">
        <ele>17</ele>
        <time>2021-06-03T12:01:57.086Z</time>
      </trkpt>
      <trkpt lat="48.67296" lon="-3.8458">
        <ele>17</ele>
        <time>2021-06-03T12:02:01.089Z</time>
      </trkpt>
      <trkpt lat="48.67301" lon="-3.84582">
        <ele>17</ele>
        <time>2021-06-03T12:02:05.094Z</time>
      </trkpt>
      <trkpt lat="48.67305" lon="-3.84583">
        <ele>17</ele>
        <time>2021-06-03T12:02:09.098Z</time>
      </trkpt>
      <trkpt lat="48.67311" lon="-3.84585">
        <ele>17</ele>
        <time>2021-06-03T12:02:14.097Z</time>
      </trkpt>
      <trkpt lat="48.67315" lon="-3.84587">
        <ele>17</ele>
        <time>2021-06-03T12:02:18.103Z</time>
      </trkpt>
      <trkpt lat="48.67321" lon="-3.84588">
        <ele>19</ele>
        <time>2021-06-03T12:02:23.096Z</time>
      </trkpt>
      <trkpt lat="48.67326" lon="-3.8459">
        <ele>19</ele>
        <time>2021-06-03T12:02:27.107Z</time>
      </trkpt>
      <trkpt lat="48.67331" lon="-3.84592">
        <ele>19</ele>
        <time>2021-06-03T12:02:31.106Z</time>
      </trkpt>
      <trkpt lat="48.67337" lon="-3.84593">
        <ele>19</ele>
        <time>2021-06-03T12:02:36.097Z</time>
      </trkpt>
      <trkpt lat="48.67343" lon="-3.84595">
        <ele>19</ele>
        <time>2021-06-03T12:02:41.113Z</time>
      </trkpt>
      <trkpt lat="48.67348" lon="-3.84598">
        <ele>17</ele>
        <time>2021-06-03T12:02:46.111Z</time>
      </trkpt>
      <trkpt lat="48.67355" lon="-3.846">
        <ele>17</ele>
        <time>2021-06-03T12:02:51.100Z</time>
      </trkpt>
      <trkpt lat="48.67361" lon="-3.84602">
        <ele>17</ele>
        <time>2021-06-03T12:02:56.109Z</time>
      </trkpt>
      <trkpt lat="48.67367" lon="-3.84604">
        <ele>17</ele>
        <time>2021-06-03T12:03:01.110Z</time>
      </trkpt>
      <trkpt lat="48.67374" lon="-3.84605">
        <ele>17</ele>
        <time>2021-06-03T12:03:06.104Z</time>
      </trkpt>
      <trkpt lat="48.67379" lon="-3.84607">
        <ele>22</ele>
        <time>2021-06-03T12:03:11.096Z</time>
      </trkpt>
      <trkpt lat="48.67386" lon="-3.84609">
        <ele>22</ele>
        <time>2021-06-03T12:03:16.106Z</time>
      </trkpt>
      <trkpt lat="48.6739" lon="-3.8461">
        <ele>22</ele>
        <time>2021-06-03T12:03:20.108Z</time>
      </trkpt>
      <trkpt lat="48.67396" lon="-3.84612">
        <ele>22</ele>
        <time>2021-06-03T12:03:25.099Z</time>
      </trkpt>
      <trkpt lat="48.67402" lon="-3.84614">
        <ele>22</ele>
        <time>2021-06-03T12:03:30.102Z</time>
      </trkpt>
      <trkpt lat="48.67408" lon="-3.84615">
        <ele>25</ele>
        <time>2021-06-03T12:03:35.099Z</time>
      </trkpt>
      <trkpt lat="48.67413" lon="-3.84616">
        <ele>25</ele>
        <time>2021-06-03T12:03:39.107Z</time>
      </trkpt>
      <trkpt lat="48.67417" lon="-3.84617">
        <ele>25</ele>
        <time>2021-06-03T12:03:43.110Z</time>
      </trkpt>
      <trkpt lat="48.67423" lon="-3.8462">
        <ele>25</ele>
        <time>2021-06-03T12:03:48.103Z</time>
      </trkpt>
      <trkpt lat="48.67429" lon="-3.84621">
        <ele>25</ele>
        <time>2021-06-03T12:03:53.105Z</time>
      </trkpt>
      <trkpt lat="48.67435" lon="-3.84623">
        <ele>26</ele>
        <time>2021-06-03T12:03:58.096Z</time>
      </trkpt>
      <trkpt lat="48.6744" lon="-3.84624">
        <ele>26</ele>
        <time>2021-06-03T12:04:02.098Z</time>
      </trkpt>
      <trkpt lat="48.67446" lon="-3.84626">
        <ele>19</ele>
        <time>2021-06-03T12:04:07.109Z</time>
      </trkpt>
      <trkpt lat="48.67452" lon="-3.84628">
        <ele>19</ele>
        <time>2021-06-03T12:04:12.099Z</time>
      </trkpt>
      <trkpt lat="48.67458" lon="-3.84631">
        <ele>19</ele>
        <time>2021-06-03T12:04:17.151Z</time>
      </trkpt>
      <trkpt lat="48.67463" lon="-3.84633">
        <ele>21</ele>
        <time>2021-06-03T12:04:22.111Z</time>
      </trkpt>
      <trkpt lat="48.67469" lon="-3.84635">
        <ele>21</ele>
        <time>2021-06-03T12:04:27.101Z</time>
      </trkpt>
      <trkpt lat="48.67475" lon="-3.84637">
        <ele>21</ele>
        <time>2021-06-03T12:04:32.108Z</time>
      </trkpt>
      <trkpt lat="48.67481" lon="-3.84638">
        <ele>21</ele>
        <time>2021-06-03T12:04:37.109Z</time>
      </trkpt>
      <trkpt lat="48.67486" lon="-3.84638">
        <ele>21</ele>
        <time>2021-06-03T12:04:41.124Z</time>
      </trkpt>
      <trkpt lat="48.67491" lon="-3.84639">
        <ele>24</ele>
        <time>2021-06-03T12:04:46.097Z</time>
      </trkpt>
      <trkpt lat="48.67496" lon="-3.84641">
        <ele>24</ele>
        <time>2021-06-03T12:04:50.116Z</time>
      </trkpt>
      <trkpt lat="48.67502" lon="-3.84642">
        <ele>24</ele>
        <time>2021-06-03T12:04:55.102Z</time>
      </trkpt>
      <trkpt lat="48.67507" lon="-3.84644">
        <ele>24</ele>
        <time>2021-06-03T12:04:59.101Z</time>
      </trkpt>
      <trkpt lat="48.67512" lon="-3.84646">
        <ele>24</ele>
        <time>2021-06-03T12:05:04.105Z</time>
      </trkpt>
      <trkpt lat="48.67518" lon="-3.84647">
        <ele>27</ele>
        <time>2021-06-03T12:05:09.105Z</time>
      </trkpt>
      <trkpt lat="48.67523" lon="-3.84649">
        <ele>27</ele>
        <time>2021-06-03T12:05:14.107Z</time>
      </trkpt>
      <trkpt lat="48.6753" lon="-3.84654">
        <ele>21</ele>
        <time>2021-06-03T12:05:24.112Z</time>
      </trkpt>
      <trkpt lat="48.6753" lon="-3.84654">
        <ele>21</ele>
        <time>2021-06-03T12:05:28.105Z</time>
      </trkpt>
      <trkpt lat="48.67531" lon="-3.84655">
        <ele>21</ele>
        <time>2021-06-03T12:05:33.101Z</time>
      </trkpt>
      <trkpt lat="48.67535" lon="-3.84659">
        <ele>21</ele>
        <time>2021-06-03T12:05:38.105Z</time>
      </trkpt>
      <trkpt lat="48.67538" lon="-3.84661">
        <ele>21</ele>
        <time>2021-06-03T12:05:42.111Z</time>
      </trkpt>
      <trkpt lat="48.67543" lon="-3.84665">
        <ele>22</ele>
        <time>2021-06-03T12:08:10.104Z</time>
      </trkpt>
      <trkpt lat="48.67545" lon="-3.84667">
        <ele>22</ele>
        <time>2021-06-03T12:08:14.113Z</time>
      </trkpt>
      <trkpt lat="48.67546" lon="-3.84672">
        <ele>22</ele>
        <time>2021-06-03T12:08:18.109Z</time>
      </trkpt>
      <trkpt lat="48.67547" lon="-3.84674">
        <ele>22</ele>
        <time>2021-06-03T12:08:23.108Z</time>
      </trkpt>
      <trkpt lat="48.67547" lon="-3.84678">
        <ele>22</ele>
        <time>2021-06-03T12:08:27.112Z</time>
      </trkpt>
      <trkpt lat="48.67548" lon="-3.84682">
        <ele>16</ele>
        <time>2021-06-03T12:08:31.111Z</time>
      </trkpt>
      <trkpt lat="48.6755" lon="-3.84685">
        <ele>16</ele>
        <time>2021-06-03T12:08:36.113Z</time>
      </trkpt>
      <trkpt lat="48.67553" lon="-3.84689">
        <ele>16</ele>
        <time>2021-06-03T12:08:41.111Z</time>
      </trkpt>
      <trkpt lat="48.67551" lon="-3.84694">
        <ele>16</ele>
        <time>2021-06-03T12:08:46.102Z</time>
      </trkpt>
      <trkpt lat="48.67549" lon="-3.84696">
        <ele>16</ele>
        <time>2021-06-03T12:08:50.105Z</time>
      </trkpt>
      <trkpt lat="48.67547" lon="-3.84703">
        <ele>16</ele>
        <time>2021-06-03T12:09:00.097Z</time>
      </trkpt>
      <trkpt lat="48.67547" lon="-3.84706">
        <ele>16</ele>
        <time>2021-06-03T12:09:05.106Z</time>
      </trkpt>
      <trkpt lat="48.67547" lon="-3.84711">
        <ele>11</ele>
        <time>2021-06-03T12:09:10.104Z</time>
      </trkpt>
      <trkpt lat="48.67546" lon="-3.84714">
        <ele>11</ele>
        <time>2021-06-03T12:09:15.078Z</time>
      </trkpt>
      <trkpt lat="48.67545" lon="-3.84718">
        <ele>11</ele>
        <time>2021-06-03T12:09:19.204Z</time>
      </trkpt>
      <trkpt lat="48.67547" lon="-3.84721">
        <ele>11</ele>
        <time>2021-06-03T12:09:24.104Z</time>
      </trkpt>
      <trkpt lat="48.67549" lon="-3.84719">
        <ele>11</ele>
        <time>2021-06-03T12:09:29.109Z</time>
      </trkpt>
      <trkpt lat="48.67551" lon="-3.84717">
        <ele>11</ele>
        <time>2021-06-03T12:09:34.109Z</time>
      </trkpt>
      <trkpt lat="48.67556" lon="-3.84716">
        <ele>11</ele>
        <time>2021-06-03T12:09:39.112Z</time>
      </trkpt>
      <trkpt lat="48.67562" lon="-3.8472">
        <ele>11</ele>
        <time>2021-06-03T12:09:44.104Z</time>
      </trkpt>
      <trkpt lat="48.67566" lon="-3.84724">
        <ele>11</ele>
        <time>2021-06-03T12:09:49.107Z</time>
      </trkpt>
      <trkpt lat="48.67568" lon="-3.84727">
        <ele>11</ele>
        <time>2021-06-03T12:09:54.101Z</time>
      </trkpt>
      <trkpt lat="48.6757" lon="-3.84728">
        <ele>12</ele>
        <time>2021-06-03T12:09:59.106Z</time>
      </trkpt>
      <trkpt lat="48.67572" lon="-3.8473">
        <ele>12</ele>
        <time>2021-06-03T12:10:04.098Z</time>
      </trkpt>
      <trkpt lat="48.67573" lon="-3.84733">
        <ele>12</ele>
        <time>2021-06-03T12:10:09.104Z</time>
      </trkpt>
      <trkpt lat="48.67574" lon="-3.84735">
        <ele>12</ele>
        <time>2021-06-03T12:10:13.101Z</time>
      </trkpt>
      <trkpt lat="48.67577" lon="-3.84736">
        <ele>8</ele>
        <time>2021-06-03T12:10:17.103Z</time>
      </trkpt>
      <trkpt lat="48.67581" lon="-3.84738">
        <ele>8</ele>
        <time>2021-06-03T12:10:22.113Z</time>
      </trkpt>
      <trkpt lat="48.67582" lon="-3.84744">
        <ele>8</ele>
        <time>2021-06-03T12:10:27.107Z</time>
      </trkpt>
      <trkpt lat="48.67586" lon="-3.84745">
        <ele>8</ele>
        <time>2021-06-03T12:10:32.090Z</time>
      </trkpt>
      <trkpt lat="48.67588" lon="-3.84746">
        <ele>8</ele>
        <time>2021-06-03T12:10:36.098Z</time>
      </trkpt>
      <trkpt lat="48.67592" lon="-3.84748">
        <ele>8</ele>
        <time>2021-06-03T12:10:40.111Z</time>
      </trkpt>
      <trkpt lat="48.67603" lon="-3.84752">
        <ele>12</ele>
        <time>2021-06-03T12:11:03.107Z</time>
      </trkpt>
      <trkpt lat="48.67604" lon="-3.84751">
        <ele>12</ele>
        <time>2021-06-03T12:11:08.095Z</time>
      </trkpt>
      <trkpt lat="48.67606" lon="-3.8475">
        <ele>12</ele>
        <time>2021-06-03T12:11:13.092Z</time>
      </trkpt>
      <trkpt lat="48.67608" lon="-3.84751">
        <ele>12</ele>
        <time>2021-06-03T12:11:17.096Z</time>
      </trkpt>
      <trkpt lat="48.67613" lon="-3.84751">
        <ele>12</ele>
        <time>2021-06-03T12:11:22.101Z</time>
      </trkpt>
      <trkpt lat="48.67616" lon="-3.84757">
        <ele>12</ele>
        <time>2021-06-03T12:11:27.099Z</time>
      </trkpt>
      <trkpt lat="48.6762" lon="-3.84763">
        <ele>12</ele>
        <time>2021-06-03T12:11:32.109Z</time>
      </trkpt>
      <trkpt lat="48.67624" lon="-3.8477">
        <ele>8</ele>
        <time>2021-06-03T12:11:37.104Z</time>
      </trkpt>
      <trkpt lat="48.67627" lon="-3.84776">
        <ele>11</ele>
        <time>2021-06-03T12:11:42.098Z</time>
      </trkpt>
      <trkpt lat="48.67627" lon="-3.84775">
        <ele>11</ele>
        <time>2021-06-03T12:11:47.087Z</time>
      </trkpt>
      <trkpt lat="48.67627" lon="-3.84776">
        <ele>11</ele>
        <time>2021-06-03T12:11:52.124Z</time>
      </trkpt>
      <trkpt lat="48.67627" lon="-3.84782">
        <ele>11</ele>
        <time>2021-06-03T12:11:57.087Z</time>
      </trkpt>
      <trkpt lat="48.67631" lon="-3.84788">
        <ele>11</ele>
        <time>2021-06-03T12:12:01.084Z</time>
      </trkpt>
      <trkpt lat="48.67634" lon="-3.84794">
        <ele>8</ele>
        <time>2021-06-03T12:12:05.092Z</time>
      </trkpt>
      <trkpt lat="48.67637" lon="-3.848">
        <ele>8</ele>
        <time>2021-06-03T12:12:09.096Z</time>
      </trkpt>
      <trkpt lat="48.67642" lon="-3.84808">
        <ele>8</ele>
        <time>2021-06-03T12:12:14.097Z</time>
      </trkpt>
      <trkpt lat="48.67644" lon="-3.84815">
        <ele>8</ele>
        <time>2021-06-03T12:12:18.117Z</time>
      </trkpt>
      <trkpt lat="48.67648" lon="-3.84823">
        <ele>6</ele>
        <time>2021-06-03T12:12:23.088Z</time>
      </trkpt>
      <trkpt lat="48.6765" lon="-3.8483">
        <ele>6</ele>
        <time>2021-06-03T12:12:27.095Z</time>
      </trkpt>
      <trkpt lat="48.67652" lon="-3.84838">
        <ele>6</ele>
        <time>2021-06-03T12:12:32.092Z</time>
      </trkpt>
      <trkpt lat="48.67655" lon="-3.84844">
        <ele>8</ele>
        <time>2021-06-03T12:12:36.109Z</time>
      </trkpt>
      <trkpt lat="48.67658" lon="-3.84852">
        <ele>6</ele>
        <time>2021-06-03T12:12:41.111Z</time>
      </trkpt>
      <trkpt lat="48.6766" lon="-3.84861">
        <ele>6</ele>
        <time>2021-06-03T12:12:46.104Z</time>
      </trkpt>
      <trkpt lat="48.67662" lon="-3.8487">
        <ele>6</ele>
        <time>2021-06-03T12:12:51.088Z</time>
      </trkpt>
      <trkpt lat="48.67662" lon="-3.84877">
        <ele>5</ele>
        <time>2021-06-03T12:12:55.089Z</time>
      </trkpt>
      <trkpt lat="48.67661" lon="-3.84886">
        <ele>5</ele>
        <time>2021-06-03T12:13:00.084Z</time>
      </trkpt>
      <trkpt lat="48.6766" lon="-3.84894">
        <ele>5</ele>
        <time>2021-06-03T12:13:04.098Z</time>
      </trkpt>
      <trkpt lat="48.67659" lon="-3.84902">
        <ele>5</ele>
        <time>2021-06-03T12:13:08.115Z</time>
      </trkpt>
      <trkpt lat="48.67657" lon="-3.8491">
        <ele>5</ele>
        <time>2021-06-03T12:13:13.104Z</time>
      </trkpt>
      <trkpt lat="48.67658" lon="-3.84922">
        <ele>5</ele>
        <time>2021-06-03T12:13:18.098Z</time>
      </trkpt>
      <trkpt lat="48.6766" lon="-3.84929">
        <ele>5</ele>
        <time>2021-06-03T12:13:22.104Z</time>
      </trkpt>
      <trkpt lat="48.67664" lon="-3.84932">
        <ele>4</ele>
        <time>2021-06-03T12:13:27.106Z</time>
      </trkpt>
      <trkpt lat="48.67667" lon="-3.8494">
        <ele>4</ele>
        <time>2021-06-03T12:13:32.114Z</time>
      </trkpt>
      <trkpt lat="48.6767" lon="-3.84947">
        <ele>4</ele>
        <time>2021-06-03T12:13:37.103Z</time>
      </trkpt>
      <trkpt lat="48.6767" lon="-3.84953">
        <ele>4</ele>
        <time>2021-06-03T12:13:41.107Z</time>
      </trkpt>
      <trkpt lat="48.67671" lon="-3.84961">
        <ele>4</ele>
        <time>2021-06-03T12:13:46.116Z</time>
      </trkpt>
      <trkpt lat="48.67673" lon="-3.84969">
        <ele>4</ele>
        <time>2021-06-03T12:13:51.096Z</time>
      </trkpt>
      <trkpt lat="48.67675" lon="-3.84975">
        <ele>4</ele>
        <time>2021-06-03T12:13:55.116Z</time>
      </trkpt>
      <trkpt lat="48.67678" lon="-3.84981">
        <ele>4</ele>
        <time>2021-06-03T12:14:00.104Z</time>
      </trkpt>
      <trkpt lat="48.67679" lon="-3.84988">
        <ele>4</ele>
        <time>2021-06-03T12:14:04.121Z</time>
      </trkpt>
      <trkpt lat="48.67682" lon="-3.84996">
        <ele>5</ele>
        <time>2021-06-03T12:14:09.120Z</time>
      </trkpt>
      <trkpt lat="48.67685" lon="-3.85004">
        <ele>5</ele>
        <time>2021-06-03T12:14:14.113Z</time>
      </trkpt>
      <trkpt lat="48.67687" lon="-3.85013">
        <ele>5</ele>
        <time>2021-06-03T12:14:19.118Z</time>
      </trkpt>
      <trkpt lat="48.6769" lon="-3.85019">
        <ele>4</ele>
        <time>2021-06-03T12:14:24.109Z</time>
      </trkpt>
      <trkpt lat="48.67693" lon="-3.85022">
        <ele>4</ele>
        <time>2021-06-03T12:14:28.108Z</time>
      </trkpt>
      <trkpt lat="48.67693" lon="-3.85031">
        <ele>4</ele>
        <time>2021-06-03T12:14:46.103Z</time>
      </trkpt>
      <trkpt lat="48.67692" lon="-3.85036">
        <ele>4</ele>
        <time>2021-06-03T12:14:50.124Z</time>
      </trkpt>
      <trkpt lat="48.67692" lon="-3.85044">
        <ele>4</ele>
        <time>2021-06-03T12:14:55.113Z</time>
      </trkpt>
      <trkpt lat="48.67692" lon="-3.85053">
        <ele>4</ele>
        <time>2021-06-03T12:15:00.101Z</time>
      </trkpt>
      <trkpt lat="48.67692" lon="-3.8506">
        <ele>4</ele>
        <time>2021-06-03T12:15:05.131Z</time>
      </trkpt>
      <trkpt lat="48.67691" lon="-3.85068">
        <ele>4</ele>
        <time>2021-06-03T12:15:10.118Z</time>
      </trkpt>
      <trkpt lat="48.67691" lon="-3.85076">
        <ele>4</ele>
        <time>2021-06-03T12:15:15.110Z</time>
      </trkpt>
      <trkpt lat="48.67689" lon="-3.85083">
        <ele>4</ele>
        <time>2021-06-03T12:15:20.101Z</time>
      </trkpt>
      <trkpt lat="48.67689" lon="-3.85089">
        <ele>4</ele>
        <time>2021-06-03T12:15:24.114Z</time>
      </trkpt>
      <trkpt lat="48.67688" lon="-3.85096">
        <ele>4</ele>
        <time>2021-06-03T12:15:29.113Z</time>
      </trkpt>
      <trkpt lat="48.67687" lon="-3.85102">
        <ele>4</ele>
        <time>2021-06-03T12:15:34.105Z</time>
      </trkpt>
      <trkpt lat="48.67685" lon="-3.85109">
        <ele>4</ele>
        <time>2021-06-03T12:15:39.113Z</time>
      </trkpt>
      <trkpt lat="48.67684" lon="-3.85116">
        <ele>4</ele>
        <time>2021-06-03T12:15:44.097Z</time>
      </trkpt>
      <trkpt lat="48.67682" lon="-3.85122">
        <ele>4</ele>
        <time>2021-06-03T12:15:48.114Z</time>
      </trkpt>
      <trkpt lat="48.67681" lon="-3.85128">
        <ele>4</ele>
        <time>2021-06-03T12:15:53.106Z</time>
      </trkpt>
      <trkpt lat="48.67681" lon="-3.85133">
        <ele>4</ele>
        <time>2021-06-03T12:15:57.112Z</time>
      </trkpt>
      <trkpt lat="48.6768" lon="-3.85138">
        <ele>4</ele>
        <time>2021-06-03T12:16:02.110Z</time>
      </trkpt>
      <trkpt lat="48.67678" lon="-3.85144">
        <ele>4</ele>
        <time>2021-06-03T12:16:07.108Z</time>
      </trkpt>
      <trkpt lat="48.67675" lon="-3.8515">
        <ele>4</ele>
        <time>2021-06-03T12:16:12.110Z</time>
      </trkpt>
      <trkpt lat="48.67671" lon="-3.85155">
        <ele>4</ele>
        <time>2021-06-03T12:16:17.109Z</time>
      </trkpt>
      <trkpt lat="48.67669" lon="-3.85157">
        <ele>4</ele>
        <time>2021-06-03T12:16:22.110Z</time>
      </trkpt>
      <trkpt lat="48.67673" lon="-3.85171">
        <ele>4</ele>
        <time>2021-06-03T12:18:58.096Z</time>
      </trkpt>
      <trkpt lat="48.67671" lon="-3.85177">
        <ele>4</ele>
        <time>2021-06-03T12:19:02.110Z</time>
      </trkpt>
      <trkpt lat="48.67679" lon="-3.85166">
        <ele>4</ele>
        <time>2021-06-03T12:19:06.112Z</time>
      </trkpt>
      <trkpt lat="48.67677" lon="-3.8518">
        <ele>4</ele>
        <time>2021-06-03T12:19:10.109Z</time>
      </trkpt>
      <trkpt lat="48.67676" lon="-3.85182">
        <ele>4</ele>
        <time>2021-06-03T12:19:15.102Z</time>
      </trkpt>
      <trkpt lat="48.67681" lon="-3.85171">
        <ele>4</ele>
        <time>2021-06-03T12:49:43.091Z</time>
      </trkpt>
      <trkpt lat="48.67681" lon="-3.85171">
        <ele>4</ele>
        <time>2021-06-03T12:49:48.095Z</time>
      </trkpt>
      <trkpt lat="48.67681" lon="-3.85171">
        <ele>4</ele>
        <time>2021-06-03T12:49:53.091Z</time>
      </trkpt>
      <trkpt lat="48.67681" lon="-3.85171">
        <ele>4</ele>
        <time>2021-06-03T12:49:57.087Z</time>
      </trkpt>
      <trkpt lat="48.67681" lon="-3.85171">
        <ele>4</ele>
        <time>2021-06-03T12:50:02.088Z</time>
      </trkpt>
      <trkpt lat="48.67673" lon="-3.85176">
        <ele>4</ele>
        <time>2021-06-03T13:02:08.101Z</time>
      </trkpt>
      <trkpt lat="48.67673" lon="-3.85183">
        <ele>4</ele>
        <time>2021-06-03T13:02:12.108Z</time>
      </trkpt>
      <trkpt lat="48.67674" lon="-3.85186">
        <ele>4</ele>
        <time>2021-06-03T13:02:17.093Z</time>
      </trkpt>
      <trkpt lat="48.67674" lon="-3.85188">
        <ele>4</ele>
        <time>2021-06-03T13:02:22.085Z</time>
      </trkpt>
      <trkpt lat="48.67672" lon="-3.85186">
        <ele>4</ele>
        <time>2021-06-03T13:02:26.092Z</time>
      </trkpt>
      <trkpt lat="48.67674" lon="-3.85182">
        <ele>4</ele>
        <time>2021-06-03T13:07:55.106Z</time>
      </trkpt>
      <trkpt lat="48.67673" lon="-3.85175">
        <ele>4</ele>
        <time>2021-06-03T13:08:00.091Z</time>
      </trkpt>
      <trkpt lat="48.67676" lon="-3.85175">
        <ele>4</ele>
        <time>2021-06-03T13:08:04.100Z</time>
      </trkpt>
      <trkpt lat="48.6768" lon="-3.85176">
        <ele>4</ele>
        <time>2021-06-03T13:08:09.103Z</time>
      </trkpt>
      <trkpt lat="48.67681" lon="-3.85173">
        <ele>4</ele>
        <time>2021-06-03T13:08:14.106Z</time>
      </trkpt>
      <trkpt lat="48.67676" lon="-3.85171">
        <ele>4</ele>
        <time>2021-06-03T13:09:21.112Z</time>
      </trkpt>
      <trkpt lat="48.67673" lon="-3.8517">
        <ele>4</ele>
        <time>2021-06-03T13:09:26.092Z</time>
      </trkpt>
      <trkpt lat="48.67672" lon="-3.85171">
        <ele>4</ele>
        <time>2021-06-03T13:09:30.090Z</time>
      </trkpt>
      <trkpt lat="48.67673" lon="-3.85167">
        <ele>4</ele>
        <time>2021-06-03T13:09:35.097Z</time>
      </trkpt>
      <trkpt lat="48.67673" lon="-3.85162">
        <ele>4</ele>
        <time>2021-06-03T13:09:39.097Z</time>
      </trkpt>
      <trkpt lat="48.67674" lon="-3.85156">
        <ele>4</ele>
        <time>2021-06-03T13:09:44.097Z</time>
      </trkpt>
      <trkpt lat="48.67676" lon="-3.85149">
        <ele>4</ele>
        <time>2021-06-03T13:09:49.116Z</time>
      </trkpt>
      <trkpt lat="48.67678" lon="-3.85144">
        <ele>4</ele>
        <time>2021-06-03T13:09:54.102Z</time>
      </trkpt>
      <trkpt lat="48.6768" lon="-3.85141">
        <ele>4</ele>
        <time>2021-06-03T13:09:58.111Z</time>
      </trkpt>
      <trkpt lat="48.67683" lon="-3.85138">
        <ele>4</ele>
        <time>2021-06-03T13:10:03.100Z</time>
      </trkpt>
      <trkpt lat="48.67686" lon="-3.85134">
        <ele>4</ele>
        <time>2021-06-03T13:10:08.090Z</time>
      </trkpt>
      <trkpt lat="48.67688" lon="-3.85128">
        <ele>4</ele>
        <time>2021-06-03T13:10:12.105Z</time>
      </trkpt>
      <trkpt lat="48.67691" lon="-3.8512">
        <ele>4</ele>
        <time>2021-06-03T13:10:17.112Z</time>
      </trkpt>
      <trkpt lat="48.67693" lon="-3.85113">
        <ele>4</ele>
        <time>2021-06-03T13:10:21.111Z</time>
      </trkpt>
      <trkpt lat="48.67695" lon="-3.85105">
        <ele>4</ele>
        <time>2021-06-03T13:10:26.108Z</time>
      </trkpt>
      <trkpt lat="48.67698" lon="-3.85097">
        <ele>4</ele>
        <time>2021-06-03T13:10:31.099Z</time>
      </trkpt>
      <trkpt lat="48.67702" lon="-3.85092">
        <ele>4</ele>
        <time>2021-06-03T13:10:36.106Z</time>
      </trkpt>
      <trkpt lat="48.67705" lon="-3.85084">
        <ele>4</ele>
        <time>2021-06-03T13:10:41.118Z</time>
      </trkpt>
      <trkpt lat="48.67708" lon="-3.85076">
        <ele>4</ele>
        <time>2021-06-03T13:10:46.112Z</time>
      </trkpt>
      <trkpt lat="48.67711" lon="-3.85067">
        <ele>3</ele>
        <time>2021-06-03T13:10:51.094Z</time>
      </trkpt>
      <trkpt lat="48.67714" lon="-3.85061">
        <ele>3</ele>
        <time>2021-06-03T13:10:55.132Z</time>
      </trkpt>
      <trkpt lat="48.67717" lon="-3.85054">
        <ele>3</ele>
        <time>2021-06-03T13:11:00.108Z</time>
      </trkpt>
      <trkpt lat="48.67721" lon="-3.85047">
        <ele>3</ele>
        <time>2021-06-03T13:11:05.112Z</time>
      </trkpt>
      <trkpt lat="48.67724" lon="-3.85038">
        <ele>4</ele>
        <time>2021-06-03T13:11:10.110Z</time>
      </trkpt>
      <trkpt lat="48.67728" lon="-3.85032">
        <ele>4</ele>
        <time>2021-06-03T13:11:15.101Z</time>
      </trkpt>
      <trkpt lat="48.67732" lon="-3.85028">
        <ele>4</ele>
        <time>2021-06-03T13:11:19.214Z</time>
      </trkpt>
      <trkpt lat="48.67736" lon="-3.85022">
        <ele>3</ele>
        <time>2021-06-03T13:11:24.111Z</time>
      </trkpt>
      <trkpt lat="48.6774" lon="-3.85014">
        <ele>3</ele>
        <time>2021-06-03T13:11:29.108Z</time>
      </trkpt>
      <trkpt lat="48.67745" lon="-3.85009">
        <ele>4</ele>
        <time>2021-06-03T13:11:34.102Z</time>
      </trkpt>
      <trkpt lat="48.67748" lon="-3.85004">
        <ele>4</ele>
        <time>2021-06-03T13:11:38.104Z</time>
      </trkpt>
      <trkpt lat="48.67752" lon="-3.84998">
        <ele>4</ele>
        <time>2021-06-03T13:11:43.107Z</time>
      </trkpt>
      <trkpt lat="48.67756" lon="-3.84992">
        <ele>4</ele>
        <time>2021-06-03T13:11:48.109Z</time>
      </trkpt>
      <trkpt lat="48.67756" lon="-3.84984">
        <ele>6</ele>
        <time>2021-06-03T13:11:53.107Z</time>
      </trkpt>
      <trkpt lat="48.67757" lon="-3.84983">
        <ele>6</ele>
        <time>2021-06-03T13:12:41.109Z</time>
      </trkpt>
      <trkpt lat="48.67757" lon="-3.84983">
        <ele>6</ele>
        <time>2021-06-03T13:12:46.103Z</time>
      </trkpt>
      <trkpt lat="48.67759" lon="-3.84984">
        <ele>6</ele>
        <time>2021-06-03T13:12:50.106Z</time>
      </trkpt>
      <trkpt lat="48.67763" lon="-3.84981">
        <ele>6</ele>
        <time>2021-06-03T13:12:54.092Z</time>
      </trkpt>
      <trkpt lat="48.67768" lon="-3.84979">
        <ele>5</ele>
        <time>2021-06-03T13:12:59.103Z</time>
      </trkpt>
      <trkpt lat="48.67772" lon="-3.84978">
        <ele>5</ele>
        <time>2021-06-03T13:13:03.105Z</time>
      </trkpt>
      <trkpt lat="48.67778" lon="-3.84975">
        <ele>5</ele>
        <time>2021-06-03T13:13:08.100Z</time>
      </trkpt>
      <trkpt lat="48.67782" lon="-3.84973">
        <ele>5</ele>
        <time>2021-06-03T13:13:12.107Z</time>
      </trkpt>
      <trkpt lat="48.67788" lon="-3.84969">
        <ele>5</ele>
        <time>2021-06-03T13:13:17.083Z</time>
      </trkpt>
      <trkpt lat="48.67793" lon="-3.84965">
        <ele>4</ele>
        <time>2021-06-03T13:13:22.088Z</time>
      </trkpt>
      <trkpt lat="48.67797" lon="-3.84961">
        <ele>4</ele>
        <time>2021-06-03T13:13:26.112Z</time>
      </trkpt>
      <trkpt lat="48.67802" lon="-3.84956">
        <ele>5</ele>
        <time>2021-06-03T13:13:31.107Z</time>
      </trkpt>
      <trkpt lat="48.67806" lon="-3.84951">
        <ele>5</ele>
        <time>2021-06-03T13:13:36.114Z</time>
      </trkpt>
      <trkpt lat="48.67812" lon="-3.84947">
        <ele>5</ele>
        <time>2021-06-03T13:13:41.114Z</time>
      </trkpt>
      <trkpt lat="48.67817" lon="-3.84944">
        <ele>5</ele>
        <time>2021-06-03T13:13:46.099Z</time>
      </trkpt>
      <trkpt lat="48.67821" lon="-3.84942">
        <ele>4</ele>
        <time>2021-06-03T13:13:50.110Z</time>
      </trkpt>
      <trkpt lat="48.67826" lon="-3.84938">
        <ele>4</ele>
        <time>2021-06-03T13:13:55.095Z</time>
      </trkpt>
      <trkpt lat="48.67832" lon="-3.84935">
        <ele>4</ele>
        <time>2021-06-03T13:14:00.092Z</time>
      </trkpt>
      <trkpt lat="48.67836" lon="-3.84932">
        <ele>4</ele>
        <time>2021-06-03T13:14:04.100Z</time>
      </trkpt>
      <trkpt lat="48.67842" lon="-3.84928">
        <ele>6</ele>
        <time>2021-06-03T13:14:09.093Z</time>
      </trkpt>
      <trkpt lat="48.67847" lon="-3.84923">
        <ele>6</ele>
        <time>2021-06-03T13:14:14.085Z</time>
      </trkpt>
      <trkpt lat="48.67853" lon="-3.84917">
        <ele>4</ele>
        <time>2021-06-03T13:14:19.088Z</time>
      </trkpt>
      <trkpt lat="48.67859" lon="-3.84913">
        <ele>4</ele>
        <time>2021-06-03T13:14:24.088Z</time>
      </trkpt>
      <trkpt lat="48.67864" lon="-3.8491">
        <ele>4</ele>
        <time>2021-06-03T13:14:28.088Z</time>
      </trkpt>
      <trkpt lat="48.6787" lon="-3.84906">
        <ele>4</ele>
        <time>2021-06-03T13:14:33.088Z</time>
      </trkpt>
      <trkpt lat="48.67874" lon="-3.84902">
        <ele>7</ele>
        <time>2021-06-03T13:14:37.111Z</time>
      </trkpt>
      <trkpt lat="48.6788" lon="-3.84898">
        <ele>5</ele>
        <time>2021-06-03T13:14:42.111Z</time>
      </trkpt>
      <trkpt lat="48.67884" lon="-3.84896">
        <ele>5</ele>
        <time>2021-06-03T13:14:46.112Z</time>
      </trkpt>
      <trkpt lat="48.67889" lon="-3.84893">
        <ele>5</ele>
        <time>2021-06-03T13:14:51.103Z</time>
      </trkpt>
      <trkpt lat="48.67896" lon="-3.8489">
        <ele>5</ele>
        <time>2021-06-03T13:14:56.095Z</time>
      </trkpt>
      <trkpt lat="48.67901" lon="-3.84888">
        <ele>5</ele>
        <time>2021-06-03T13:15:01.103Z</time>
      </trkpt>
      <trkpt lat="48.67906" lon="-3.84886">
        <ele>4</ele>
        <time>2021-06-03T13:15:05.104Z</time>
      </trkpt>
      <trkpt lat="48.67911" lon="-3.84884">
        <ele>4</ele>
        <time>2021-06-03T13:15:10.107Z</time>
      </trkpt>
      <trkpt lat="48.67917" lon="-3.8488">
        <ele>4</ele>
        <time>2021-06-03T13:15:15.106Z</time>
      </trkpt>
      <trkpt lat="48.67922" lon="-3.84878">
        <ele>4</ele>
        <time>2021-06-03T13:15:20.111Z</time>
      </trkpt>
      <trkpt lat="48.67928" lon="-3.84876">
        <ele>4</ele>
        <time>2021-06-03T13:15:25.107Z</time>
      </trkpt>
      <trkpt lat="48.67934" lon="-3.84872">
        <ele>7</ele>
        <time>2021-06-03T13:15:30.099Z</time>
      </trkpt>
      <trkpt lat="48.67939" lon="-3.8487">
        <ele>7</ele>
        <time>2021-06-03T13:15:35.103Z</time>
      </trkpt>
      <trkpt lat="48.67945" lon="-3.84867">
        <ele>7</ele>
        <time>2021-06-03T13:15:40.096Z</time>
      </trkpt>
      <trkpt lat="48.67952" lon="-3.84865">
        <ele>7</ele>
        <time>2021-06-03T13:15:45.104Z</time>
      </trkpt>
      <trkpt lat="48.67958" lon="-3.84862">
        <ele>7</ele>
        <time>2021-06-03T13:15:50.111Z</time>
      </trkpt>
      <trkpt lat="48.67963" lon="-3.8486">
        <ele>6</ele>
        <time>2021-06-03T13:15:55.111Z</time>
      </trkpt>
      <trkpt lat="48.67969" lon="-3.84859">
        <ele>6</ele>
        <time>2021-06-03T13:16:00.109Z</time>
      </trkpt>
      <trkpt lat="48.67976" lon="-3.84858">
        <ele>6</ele>
        <time>2021-06-03T13:16:05.097Z</time>
      </trkpt>
      <trkpt lat="48.6798" lon="-3.84858">
        <ele>6</ele>
        <time>2021-06-03T13:16:09.101Z</time>
      </trkpt>
      <trkpt lat="48.67986" lon="-3.84859">
        <ele>6</ele>
        <time>2021-06-03T13:16:14.104Z</time>
      </trkpt>
      <trkpt lat="48.67992" lon="-3.84862">
        <ele>6</ele>
        <time>2021-06-03T13:16:19.101Z</time>
      </trkpt>
      <trkpt lat="48.67998" lon="-3.84864">
        <ele>6</ele>
        <time>2021-06-03T13:16:24.100Z</time>
      </trkpt>
      <trkpt lat="48.68003" lon="-3.84866">
        <ele>6</ele>
        <time>2021-06-03T13:16:29.089Z</time>
      </trkpt>
      <trkpt lat="48.68007" lon="-3.84868">
        <ele>6</ele>
        <time>2021-06-03T13:16:33.105Z</time>
      </trkpt>
      <trkpt lat="48.68012" lon="-3.84873">
        <ele>6</ele>
        <time>2021-06-03T13:16:38.107Z</time>
      </trkpt>
      <trkpt lat="48.68016" lon="-3.84879">
        <ele>6</ele>
        <time>2021-06-03T13:16:43.103Z</time>
      </trkpt>
      <trkpt lat="48.68023" lon="-3.84889">
        <ele>6</ele>
        <time>2021-06-03T13:16:48.105Z</time>
      </trkpt>
      <trkpt lat="48.68027" lon="-3.84896">
        <ele>6</ele>
        <time>2021-06-03T13:16:53.090Z</time>
      </trkpt>
      <trkpt lat="48.68031" lon="-3.84899">
        <ele>6</ele>
        <time>2021-06-03T13:16:57.099Z</time>
      </trkpt>
      <trkpt lat="48.68037" lon="-3.84901">
        <ele>6</ele>
        <time>2021-06-03T13:17:02.099Z</time>
      </trkpt>
      <trkpt lat="48.68043" lon="-3.84901">
        <ele>10</ele>
        <time>2021-06-03T13:17:06.108Z</time>
      </trkpt>
      <trkpt lat="48.68048" lon="-3.84905">
        <ele>6</ele>
        <time>2021-06-03T13:17:11.105Z</time>
      </trkpt>
      <trkpt lat="48.68052" lon="-3.84908">
        <ele>6</ele>
        <time>2021-06-03T13:17:15.103Z</time>
      </trkpt>
      <trkpt lat="48.68056" lon="-3.84913">
        <ele>6</ele>
        <time>2021-06-03T13:17:20.102Z</time>
      </trkpt>
      <trkpt lat="48.68063" lon="-3.84916">
        <ele>6</ele>
        <time>2021-06-03T13:17:25.111Z</time>
      </trkpt>
      <trkpt lat="48.68068" lon="-3.84919">
        <ele>6</ele>
        <time>2021-06-03T13:17:30.113Z</time>
      </trkpt>
      <trkpt lat="48.68073" lon="-3.84924">
        <ele>8</ele>
        <time>2021-06-03T13:17:35.108Z</time>
      </trkpt>
      <trkpt lat="48.68078" lon="-3.84928">
        <ele>8</ele>
        <time>2021-06-03T13:17:40.099Z</time>
      </trkpt>
      <trkpt lat="48.68083" lon="-3.84932">
        <ele>4</ele>
        <time>2021-06-03T13:17:45.109Z</time>
      </trkpt>
      <trkpt lat="48.68087" lon="-3.84935">
        <ele>4</ele>
        <time>2021-06-03T13:17:49.109Z</time>
      </trkpt>
      <trkpt lat="48.68093" lon="-3.84937">
        <ele>4</ele>
        <time>2021-06-03T13:17:54.102Z</time>
      </trkpt>
      <trkpt lat="48.68098" lon="-3.84936">
        <ele>5</ele>
        <time>2021-06-03T13:17:58.108Z</time>
      </trkpt>
      <trkpt lat="48.68104" lon="-3.84935">
        <ele>5</ele>
        <time>2021-06-03T13:18:03.108Z</time>
      </trkpt>
      <trkpt lat="48.68108" lon="-3.8493">
        <ele>8</ele>
        <time>2021-06-03T13:18:07.113Z</time>
      </trkpt>
      <trkpt lat="48.68113" lon="-3.84927">
        <ele>8</ele>
        <time>2021-06-03T13:18:12.105Z</time>
      </trkpt>
      <trkpt lat="48.68118" lon="-3.84923">
        <ele>8</ele>
        <time>2021-06-03T13:18:17.114Z</time>
      </trkpt>
      <trkpt lat="48.68126" lon="-3.84921">
        <ele>7</ele>
        <time>2021-06-03T13:18:22.088Z</time>
      </trkpt>
      <trkpt lat="48.6813" lon="-3.84919">
        <ele>7</ele>
        <time>2021-06-03T13:18:26.096Z</time>
      </trkpt>
      <trkpt lat="48.68136" lon="-3.84916">
        <ele>7</ele>
        <time>2021-06-03T13:18:31.115Z</time>
      </trkpt>
      <trkpt lat="48.68142" lon="-3.84914">
        <ele>7</ele>
        <time>2021-06-03T13:18:36.113Z</time>
      </trkpt>
      <trkpt lat="48.68149" lon="-3.84913">
        <ele>7</ele>
        <time>2021-06-03T13:18:41.109Z</time>
      </trkpt>
      <trkpt lat="48.68154" lon="-3.84912">
        <ele>7</ele>
        <time>2021-06-03T13:18:45.113Z</time>
      </trkpt>
      <trkpt lat="48.68159" lon="-3.84912">
        <ele>7</ele>
        <time>2021-06-03T13:18:49.112Z</time>
      </trkpt>
      <trkpt lat="48.68165" lon="-3.84912">
        <ele>7</ele>
        <time>2021-06-03T13:18:54.107Z</time>
      </trkpt>
      <trkpt lat="48.68171" lon="-3.84912">
        <ele>7</ele>
        <time>2021-06-03T13:18:59.109Z</time>
      </trkpt>
      <trkpt lat="48.68178" lon="-3.84912">
        <ele>7</ele>
        <time>2021-06-03T13:19:04.101Z</time>
      </trkpt>
      <trkpt lat="48.68184" lon="-3.84915">
        <ele>7</ele>
        <time>2021-06-03T13:19:09.110Z</time>
      </trkpt>
      <trkpt lat="48.6819" lon="-3.84917">
        <ele>7</ele>
        <time>2021-06-03T13:19:14.114Z</time>
      </trkpt>
      <trkpt lat="48.68197" lon="-3.84915">
        <ele>7</ele>
        <time>2021-06-03T13:19:19.102Z</time>
      </trkpt>
      <trkpt lat="48.68202" lon="-3.84915">
        <ele>7</ele>
        <time>2021-06-03T13:19:24.112Z</time>
      </trkpt>
      <trkpt lat="48.68209" lon="-3.84915">
        <ele>6</ele>
        <time>2021-06-03T13:19:29.107Z</time>
      </trkpt>
      <trkpt lat="48.68214" lon="-3.84914">
        <ele>6</ele>
        <time>2021-06-03T13:19:34.118Z</time>
      </trkpt>
      <trkpt lat="48.68221" lon="-3.84914">
        <ele>6</ele>
        <time>2021-06-03T13:19:39.112Z</time>
      </trkpt>
      <trkpt lat="48.68227" lon="-3.84915">
        <ele>6</ele>
        <time>2021-06-03T13:19:44.108Z</time>
      </trkpt>
      <trkpt lat="48.68233" lon="-3.84916">
        <ele>6</ele>
        <time>2021-06-03T13:19:48.102Z</time>
      </trkpt>
      <trkpt lat="48.68239" lon="-3.84917">
        <ele>6</ele>
        <time>2021-06-03T13:19:53.104Z</time>
      </trkpt>
      <trkpt lat="48.68245" lon="-3.8492">
        <ele>6</ele>
        <time>2021-06-03T13:19:58.107Z</time>
      </trkpt>
      <trkpt lat="48.68251" lon="-3.84923">
        <ele>6</ele>
        <time>2021-06-03T13:20:03.111Z</time>
      </trkpt>
      <trkpt lat="48.68256" lon="-3.84924">
        <ele>6</ele>
        <time>2021-06-03T13:20:07.112Z</time>
      </trkpt>
      <trkpt lat="48.68264" lon="-3.84926">
        <ele>6</ele>
        <time>2021-06-03T13:20:12.096Z</time>
      </trkpt>
      <trkpt lat="48.68269" lon="-3.84927">
        <ele>7</ele>
        <time>2021-06-03T13:20:16.111Z</time>
      </trkpt>
      <trkpt lat="48.68274" lon="-3.84929">
        <ele>7</ele>
        <time>2021-06-03T13:20:20.117Z</time>
      </trkpt>
      <trkpt lat="48.68282" lon="-3.84931">
        <ele>4</ele>
        <time>2021-06-03T13:20:25.114Z</time>
      </trkpt>
      <trkpt lat="48.68288" lon="-3.84933">
        <ele>4</ele>
        <time>2021-06-03T13:20:30.118Z</time>
      </trkpt>
      <trkpt lat="48.68295" lon="-3.84935">
        <ele>7</ele>
        <time>2021-06-03T13:20:35.111Z</time>
      </trkpt>
      <trkpt lat="48.68303" lon="-3.84937">
        <ele>7</ele>
        <time>2021-06-03T13:20:40.121Z</time>
      </trkpt>
      <trkpt lat="48.6831" lon="-3.84939">
        <ele>7</ele>
        <time>2021-06-03T13:20:45.109Z</time>
      </trkpt>
      <trkpt lat="48.68315" lon="-3.84938">
        <ele>7</ele>
        <time>2021-06-03T13:20:49.117Z</time>
      </trkpt>
      <trkpt lat="48.68322" lon="-3.8494">
        <ele>8</ele>
        <time>2021-06-03T13:20:54.106Z</time>
      </trkpt>
      <trkpt lat="48.68327" lon="-3.84943">
        <ele>8</ele>
        <time>2021-06-03T13:20:58.121Z</time>
      </trkpt>
      <trkpt lat="48.68333" lon="-3.84947">
        <ele>8</ele>
        <time>2021-06-03T13:21:03.111Z</time>
      </trkpt>
      <trkpt lat="48.6834" lon="-3.8495">
        <ele>8</ele>
        <time>2021-06-03T13:21:07.115Z</time>
      </trkpt>
      <trkpt lat="48.68345" lon="-3.84953">
        <ele>8</ele>
        <time>2021-06-03T13:21:12.108Z</time>
      </trkpt>
      <trkpt lat="48.6835" lon="-3.84956">
        <ele>9</ele>
        <time>2021-06-03T13:21:16.114Z</time>
      </trkpt>
      <trkpt lat="48.68354" lon="-3.84961">
        <ele>8</ele>
        <time>2021-06-03T13:21:21.123Z</time>
      </trkpt>
      <trkpt lat="48.68359" lon="-3.84967">
        <ele>8</ele>
        <time>2021-06-03T13:21:26.108Z</time>
      </trkpt>
      <trkpt lat="48.68363" lon="-3.84972">
        <ele>8</ele>
        <time>2021-06-03T13:21:30.109Z</time>
      </trkpt>
      <trkpt lat="48.68366" lon="-3.8498">
        <ele>8</ele>
        <time>2021-06-03T13:21:35.113Z</time>
      </trkpt>
      <trkpt lat="48.68368" lon="-3.84989">
        <ele>6</ele>
        <time>2021-06-03T13:21:40.117Z</time>
      </trkpt>
      <trkpt lat="48.68372" lon="-3.84998">
        <ele>6</ele>
        <time>2021-06-03T13:21:45.102Z</time>
      </trkpt>
      <trkpt lat="48.68375" lon="-3.85004">
        <ele>6</ele>
        <time>2021-06-03T13:21:49.105Z</time>
      </trkpt>
      <trkpt lat="48.6838" lon="-3.85011">
        <ele>9</ele>
        <time>2021-06-03T13:21:54.100Z</time>
      </trkpt>
      <trkpt lat="48.68385" lon="-3.85015">
        <ele>7</ele>
        <time>2021-06-03T13:21:59.096Z</time>
      </trkpt>
      <trkpt lat="48.68389" lon="-3.85021">
        <ele>7</ele>
        <time>2021-06-03T13:22:03.104Z</time>
      </trkpt>
      <trkpt lat="48.68389" lon="-3.85027">
        <ele>7</ele>
        <time>2021-06-03T13:22:07.109Z</time>
      </trkpt>
      <trkpt lat="48.68384" lon="-3.85034">
        <ele>7</ele>
        <time>2021-06-03T13:22:12.107Z</time>
      </trkpt>
      <trkpt lat="48.6838" lon="-3.85041">
        <ele>7</ele>
        <time>2021-06-03T13:22:17.091Z</time>
      </trkpt>
      <trkpt lat="48.68379" lon="-3.85047">
        <ele>6</ele>
        <time>2021-06-03T13:22:21.108Z</time>
      </trkpt>
      <trkpt lat="48.68374" lon="-3.85053">
        <ele>4</ele>
        <time>2021-06-03T13:22:26.105Z</time>
      </trkpt>
      <trkpt lat="48.68369" lon="-3.85058">
        <ele>4</ele>
        <time>2021-06-03T13:22:31.099Z</time>
      </trkpt>
      <trkpt lat="48.68365" lon="-3.85066">
        <ele>4</ele>
        <time>2021-06-03T13:22:36.104Z</time>
      </trkpt>
      <trkpt lat="48.68363" lon="-3.85074">
        <ele>2</ele>
        <time>2021-06-03T13:22:41.106Z</time>
      </trkpt>
      <trkpt lat="48.68361" lon="-3.85082">
        <ele>2</ele>
        <time>2021-06-03T13:22:46.112Z</time>
      </trkpt>
      <trkpt lat="48.68364" lon="-3.85089">
        <ele>2</ele>
        <time>2021-06-03T13:22:51.113Z</time>
      </trkpt>
      <trkpt lat="48.68368" lon="-3.85097">
        <ele>2</ele>
        <time>2021-06-03T13:22:56.110Z</time>
      </trkpt>
      <trkpt lat="48.68372" lon="-3.85103">
        <ele>5.9</ele>
        <time>2021-06-03T13:23:01.119Z</time>
      </trkpt>
      <trkpt lat="48.68377" lon="-3.85106">
        <ele>2</ele>
        <time>2021-06-03T13:23:06.112Z</time>
      </trkpt>
      <trkpt lat="48.68391" lon="-3.85118">
        <ele>2</ele>
        <time>2021-06-03T13:23:25.100Z</time>
      </trkpt>
      <trkpt lat="48.68394" lon="-3.8512">
        <ele>2</ele>
        <time>2021-06-03T13:23:29.104Z</time>
      </trkpt>
      <trkpt lat="48.68398" lon="-3.85125">
        <ele>2</ele>
        <time>2021-06-03T13:23:34.111Z</time>
      </trkpt>
      <trkpt lat="48.68402" lon="-3.85129">
        <ele>6.6</ele>
        <time>2021-06-03T13:23:39.109Z</time>
      </trkpt>
      <trkpt lat="48.68407" lon="-3.85135">
        <ele>4</ele>
        <time>2021-06-03T13:23:44.095Z</time>
      </trkpt>
      <trkpt lat="48.68409" lon="-3.85141">
        <ele>4</ele>
        <time>2021-06-03T13:23:48.113Z</time>
      </trkpt>
      <trkpt lat="48.68413" lon="-3.85147">
        <ele>4</ele>
        <time>2021-06-03T13:23:53.101Z</time>
      </trkpt>
      <trkpt lat="48.68416" lon="-3.85152">
        <ele>4</ele>
        <time>2021-06-03T13:23:57.110Z</time>
      </trkpt>
      <trkpt lat="48.68419" lon="-3.85159">
        <ele>3</ele>
        <time>2021-06-03T13:24:02.110Z</time>
      </trkpt>
      <trkpt lat="48.68422" lon="-3.85166">
        <ele>3</ele>
        <time>2021-06-03T13:24:07.106Z</time>
      </trkpt>
      <trkpt lat="48.68426" lon="-3.85173">
        <ele>3</ele>
        <time>2021-06-03T13:24:12.111Z</time>
      </trkpt>
      <trkpt lat="48.6843" lon="-3.8518">
        <ele>3</ele>
        <time>2021-06-03T13:24:17.117Z</time>
      </trkpt>
      <trkpt lat="48.68434" lon="-3.85187">
        <ele>5</ele>
        <time>2021-06-03T13:24:22.112Z</time>
      </trkpt>
      <trkpt lat="48.68437" lon="-3.85194">
        <ele>5</ele>
        <time>2021-06-03T13:24:27.104Z</time>
      </trkpt>
      <trkpt lat="48.6844" lon="-3.85202">
        <ele>5</ele>
        <time>2021-06-03T13:24:32.114Z</time>
      </trkpt>
      <trkpt lat="48.68443" lon="-3.8521">
        <ele>4</ele>
        <time>2021-06-03T13:24:37.102Z</time>
      </trkpt>
      <trkpt lat="48.68447" lon="-3.85218">
        <ele>4</ele>
        <time>2021-06-03T13:24:42.100Z</time>
      </trkpt>
      <trkpt lat="48.68449" lon="-3.85227">
        <ele>4</ele>
        <time>2021-06-03T13:24:47.104Z</time>
      </trkpt>
      <trkpt lat="48.68452" lon="-3.85235">
        <ele>4</ele>
        <time>2021-06-03T13:24:52.088Z</time>
      </trkpt>
      <trkpt lat="48.68456" lon="-3.85238">
        <ele>4</ele>
        <time>2021-06-03T13:24:56.095Z</time>
      </trkpt>
      <trkpt lat="48.6846" lon="-3.85244">
        <ele>5</ele>
        <time>2021-06-03T13:25:01.100Z</time>
      </trkpt>
      <trkpt lat="48.6846" lon="-3.85247">
        <ele>5</ele>
        <time>2021-06-03T13:25:06.112Z</time>
      </trkpt>
      <trkpt lat="48.68461" lon="-3.85252">
        <ele>5</ele>
        <time>2021-06-03T13:25:10.116Z</time>
      </trkpt>
      <trkpt lat="48.68464" lon="-3.8526">
        <ele>5</ele>
        <time>2021-06-03T13:25:15.092Z</time>
      </trkpt>
      <trkpt lat="48.68466" lon="-3.85268">
        <ele>4</ele>
        <time>2021-06-03T13:25:20.091Z</time>
      </trkpt>
      <trkpt lat="48.68468" lon="-3.85275">
        <ele>4</ele>
        <time>2021-06-03T13:25:24.101Z</time>
      </trkpt>
      <trkpt lat="48.68469" lon="-3.85284">
        <ele>4</ele>
        <time>2021-06-03T13:25:29.095Z</time>
      </trkpt>
      <trkpt lat="48.68468" lon="-3.85294">
        <ele>3</ele>
        <time>2021-06-03T13:25:34.092Z</time>
      </trkpt>
      <trkpt lat="48.68467" lon="-3.85303">
        <ele>3</ele>
        <time>2021-06-03T13:25:39.102Z</time>
      </trkpt>
      <trkpt lat="48.68467" lon="-3.85313">
        <ele>3</ele>
        <time>2021-06-03T13:25:44.095Z</time>
      </trkpt>
      <trkpt lat="48.68467" lon="-3.85321">
        <ele>2</ele>
        <time>2021-06-03T13:25:48.107Z</time>
      </trkpt>
      <trkpt lat="48.68466" lon="-3.8533">
        <ele>2</ele>
        <time>2021-06-03T13:25:53.095Z</time>
      </trkpt>
      <trkpt lat="48.68466" lon="-3.85338">
        <ele>2</ele>
        <time>2021-06-03T13:25:57.104Z</time>
      </trkpt>
      <trkpt lat="48.68465" lon="-3.85347">
        <ele>2</ele>
        <time>2021-06-03T13:26:02.105Z</time>
      </trkpt>
      <trkpt lat="48.68464" lon="-3.85355">
        <ele>2</ele>
        <time>2021-06-03T13:26:06.113Z</time>
      </trkpt>
      <trkpt lat="48.68463" lon="-3.85364">
        <ele>2</ele>
        <time>2021-06-03T13:26:11.100Z</time>
      </trkpt>
      <trkpt lat="48.68461" lon="-3.85371">
        <ele>2</ele>
        <time>2021-06-03T13:26:15.112Z</time>
      </trkpt>
      <trkpt lat="48.68459" lon="-3.85379">
        <ele>4</ele>
        <time>2021-06-03T13:26:20.094Z</time>
      </trkpt>
      <trkpt lat="48.68456" lon="-3.85387">
        <ele>3</ele>
        <time>2021-06-03T13:26:25.096Z</time>
      </trkpt>
      <trkpt lat="48.68452" lon="-3.85394">
        <ele>3</ele>
        <time>2021-06-03T13:26:30.092Z</time>
      </trkpt>
      <trkpt lat="48.68447" lon="-3.85399">
        <ele>3</ele>
        <time>2021-06-03T13:26:35.089Z</time>
      </trkpt>
      <trkpt lat="48.68443" lon="-3.85402">
        <ele>3</ele>
        <time>2021-06-03T13:26:39.110Z</time>
      </trkpt>
      <trkpt lat="48.68437" lon="-3.85404">
        <ele>5</ele>
        <time>2021-06-03T13:26:44.094Z</time>
      </trkpt>
      <trkpt lat="48.68433" lon="-3.85403">
        <ele>5</ele>
        <time>2021-06-03T13:26:48.107Z</time>
      </trkpt>
      <trkpt lat="48.68428" lon="-3.85407">
        <ele>3</ele>
        <time>2021-06-03T13:26:53.094Z</time>
      </trkpt>
      <trkpt lat="48.68423" lon="-3.85411">
        <ele>3</ele>
        <time>2021-06-03T13:26:57.103Z</time>
      </trkpt>
      <trkpt lat="48.68417" lon="-3.85414">
        <ele>3</ele>
        <time>2021-06-03T13:27:02.096Z</time>
      </trkpt>
      <trkpt lat="48.68411" lon="-3.85415">
        <ele>3</ele>
        <time>2021-06-03T13:27:07.111Z</time>
      </trkpt>
      <trkpt lat="48.68406" lon="-3.85417">
        <ele>3</ele>
        <time>2021-06-03T13:27:12.089Z</time>
      </trkpt>
      <trkpt lat="48.68401" lon="-3.85419">
        <ele>2</ele>
        <time>2021-06-03T13:27:16.112Z</time>
      </trkpt>
      <trkpt lat="48.68396" lon="-3.85422">
        <ele>2</ele>
        <time>2021-06-03T13:27:21.092Z</time>
      </trkpt>
      <trkpt lat="48.68391" lon="-3.85423">
        <ele>2</ele>
        <time>2021-06-03T13:27:25.199Z</time>
      </trkpt>
      <trkpt lat="48.68386" lon="-3.85426">
        <ele>2</ele>
        <time>2021-06-03T13:27:30.121Z</time>
      </trkpt>
      <trkpt lat="48.68383" lon="-3.85431">
        <ele>3</ele>
        <time>2021-06-03T13:27:35.100Z</time>
      </trkpt>
      <trkpt lat="48.68379" lon="-3.85436">
        <ele>3</ele>
        <time>2021-06-03T13:27:40.097Z</time>
      </trkpt>
      <trkpt lat="48.68375" lon="-3.8544">
        <ele>2</ele>
        <time>2021-06-03T13:27:45.099Z</time>
      </trkpt>
      <trkpt lat="48.68371" lon="-3.85444">
        <ele>2</ele>
        <time>2021-06-03T13:27:50.113Z</time>
      </trkpt>
      <trkpt lat="48.6837" lon="-3.85452">
        <ele>2</ele>
        <time>2021-06-03T13:27:55.094Z</time>
      </trkpt>
      <trkpt lat="48.68371" lon="-3.8546">
        <ele>2</ele>
        <time>2021-06-03T13:27:59.109Z</time>
      </trkpt>
      <trkpt lat="48.68372" lon="-3.85464">
        <ele>2</ele>
        <time>2021-06-03T13:28:04.090Z</time>
      </trkpt>
      <trkpt lat="48.68374" lon="-3.85465">
        <ele>2</ele>
        <time>2021-06-03T13:28:09.102Z</time>
      </trkpt>
      <trkpt lat="48.68375" lon="-3.85466">
        <ele>2</ele>
        <time>2021-06-03T13:28:14.086Z</time>
      </trkpt>
      <trkpt lat="48.68379" lon="-3.8547">
        <ele>3</ele>
        <time>2021-06-03T13:28:19.089Z</time>
      </trkpt>
      <trkpt lat="48.68383" lon="-3.85472">
        <ele>3</ele>
        <time>2021-06-03T13:28:23.102Z</time>
      </trkpt>
      <trkpt lat="48.68389" lon="-3.85476">
        <ele>3</ele>
        <time>2021-06-03T13:28:28.109Z</time>
      </trkpt>
      <trkpt lat="48.68392" lon="-3.85482">
        <ele>3</ele>
        <time>2021-06-03T13:28:33.090Z</time>
      </trkpt>
      <trkpt lat="48.68392" lon="-3.8548">
        <ele>3</ele>
        <time>2021-06-03T13:28:38.093Z</time>
      </trkpt>
      <trkpt lat="48.68394" lon="-3.85479">
        <ele>3</ele>
        <time>2021-06-03T13:28:42.099Z</time>
      </trkpt>
      <trkpt lat="48.68398" lon="-3.8548">
        <ele>3</ele>
        <time>2021-06-03T13:28:47.093Z</time>
      </trkpt>
      <trkpt lat="48.68401" lon="-3.85481">
        <ele>3</ele>
        <time>2021-06-03T13:28:52.108Z</time>
      </trkpt>
      <trkpt lat="48.68406" lon="-3.85482">
        <ele>4</ele>
        <time>2021-06-03T13:28:57.100Z</time>
      </trkpt>
      <trkpt lat="48.68411" lon="-3.85485">
        <ele>4</ele>
        <time>2021-06-03T13:29:02.096Z</time>
      </trkpt>
      <trkpt lat="48.68416" lon="-3.85486">
        <ele>4</ele>
        <time>2021-06-03T13:29:06.112Z</time>
      </trkpt>
      <trkpt lat="48.68422" lon="-3.85486">
        <ele>4</ele>
        <time>2021-06-03T13:29:11.109Z</time>
      </trkpt>
      <trkpt lat="48.68425" lon="-3.85484">
        <ele>4</ele>
        <time>2021-06-03T13:29:16.105Z</time>
      </trkpt>
      <trkpt lat="48.68429" lon="-3.85485">
        <ele>4</ele>
        <time>2021-06-03T13:29:21.098Z</time>
      </trkpt>
      <trkpt lat="48.68434" lon="-3.8549">
        <ele>6</ele>
        <time>2021-06-03T13:29:26.101Z</time>
      </trkpt>
      <trkpt lat="48.68437" lon="-3.85494">
        <ele>6</ele>
        <time>2021-06-03T13:29:30.093Z</time>
      </trkpt>
      <trkpt lat="48.68437" lon="-3.85496">
        <ele>6</ele>
        <time>2021-06-03T13:29:35.086Z</time>
      </trkpt>
      <trkpt lat="48.68439" lon="-3.85498">
        <ele>6</ele>
        <time>2021-06-03T13:29:40.097Z</time>
      </trkpt>
      <trkpt lat="48.68443" lon="-3.85501">
        <ele>6</ele>
        <time>2021-06-03T13:29:44.101Z</time>
      </trkpt>
      <trkpt lat="48.68448" lon="-3.85505">
        <ele>6</ele>
        <time>2021-06-03T13:29:49.088Z</time>
      </trkpt>
      <trkpt lat="48.68452" lon="-3.85507">
        <ele>6</ele>
        <time>2021-06-03T13:29:54.089Z</time>
      </trkpt>
      <trkpt lat="48.68454" lon="-3.85511">
        <ele>6</ele>
        <time>2021-06-03T13:29:58.089Z</time>
      </trkpt>
      <trkpt lat="48.68455" lon="-3.85516">
        <ele>5</ele>
        <time>2021-06-03T13:30:03.093Z</time>
      </trkpt>
      <trkpt lat="48.68459" lon="-3.8552">
        <ele>8</ele>
        <time>2021-06-03T13:30:08.092Z</time>
      </trkpt>
      <trkpt lat="48.68461" lon="-3.85523">
        <ele>8</ele>
        <time>2021-06-03T13:30:12.094Z</time>
      </trkpt>
      <trkpt lat="48.68463" lon="-3.85522">
        <ele>8</ele>
        <time>2021-06-03T13:30:17.098Z</time>
      </trkpt>
      <trkpt lat="48.68466" lon="-3.85526">
        <ele>8</ele>
        <time>2021-06-03T13:30:22.098Z</time>
      </trkpt>
      <trkpt lat="48.68469" lon="-3.85532">
        <ele>8</ele>
        <time>2021-06-03T13:30:27.096Z</time>
      </trkpt>
      <trkpt lat="48.68471" lon="-3.85535">
        <ele>8</ele>
        <time>2021-06-03T13:30:31.101Z</time>
      </trkpt>
      <trkpt lat="48.68475" lon="-3.85536">
        <ele>8</ele>
        <time>2021-06-03T13:30:36.098Z</time>
      </trkpt>
      <trkpt lat="48.68478" lon="-3.85538">
        <ele>8</ele>
        <time>2021-06-03T13:30:40.104Z</time>
      </trkpt>
      <trkpt lat="48.68482" lon="-3.8554">
        <ele>8</ele>
        <time>2021-06-03T13:30:45.121Z</time>
      </trkpt>
      <trkpt lat="48.68486" lon="-3.85543">
        <ele>6</ele>
        <time>2021-06-03T13:30:50.100Z</time>
      </trkpt>
      <trkpt lat="48.68489" lon="-3.85546">
        <ele>6</ele>
        <time>2021-06-03T13:30:55.102Z</time>
      </trkpt>
      <trkpt lat="48.68494" lon="-3.85547">
        <ele>6</ele>
        <time>2021-06-03T13:31:00.101Z</time>
      </trkpt>
      <trkpt lat="48.68499" lon="-3.85546">
        <ele>6</ele>
        <time>2021-06-03T13:31:05.105Z</time>
      </trkpt>
      <trkpt lat="48.68503" lon="-3.85545">
        <ele>6</ele>
        <time>2021-06-03T13:31:10.102Z</time>
      </trkpt>
      <trkpt lat="48.68507" lon="-3.85546">
        <ele>6</ele>
        <time>2021-06-03T13:31:15.102Z</time>
      </trkpt>
      <trkpt lat="48.68509" lon="-3.8555">
        <ele>6</ele>
        <time>2021-06-03T13:31:20.112Z</time>
      </trkpt>
      <trkpt lat="48.68511" lon="-3.85555">
        <ele>6</ele>
        <time>2021-06-03T13:31:25.103Z</time>
      </trkpt>
      <trkpt lat="48.68515" lon="-3.85558">
        <ele>4</ele>
        <time>2021-06-03T13:31:30.095Z</time>
      </trkpt>
      <trkpt lat="48.6852" lon="-3.85561">
        <ele>4</ele>
        <time>2021-06-03T13:31:35.094Z</time>
      </trkpt>
      <trkpt lat="48.68524" lon="-3.85559">
        <ele>4</ele>
        <time>2021-06-03T13:31:40.093Z</time>
      </trkpt>
      <trkpt lat="48.68527" lon="-3.85561">
        <ele>4</ele>
        <time>2021-06-03T13:31:44.099Z</time>
      </trkpt>
      <trkpt lat="48.68533" lon="-3.85567">
        <ele>4</ele>
        <time>2021-06-03T13:32:03.090Z</time>
      </trkpt>
      <trkpt lat="48.68535" lon="-3.85562">
        <ele>4</ele>
        <time>2021-06-03T13:32:08.090Z</time>
      </trkpt>
      <trkpt lat="48.68539" lon="-3.85561">
        <ele>4</ele>
        <time>2021-06-03T13:32:12.100Z</time>
      </trkpt>
      <trkpt lat="48.68538" lon="-3.85554">
        <ele>4</ele>
        <time>2021-06-03T13:32:17.092Z</time>
      </trkpt>
      <trkpt lat="48.68541" lon="-3.85549">
        <ele>4</ele>
        <time>2021-06-03T13:32:21.101Z</time>
      </trkpt>
      <trkpt lat="48.68541" lon="-3.85542">
        <ele>4</ele>
        <time>2021-06-03T13:32:26.092Z</time>
      </trkpt>
      <trkpt lat="48.68542" lon="-3.85535">
        <ele>2</ele>
        <time>2021-06-03T13:32:31.100Z</time>
      </trkpt>
      <trkpt lat="48.68543" lon="-3.85528">
        <ele>2</ele>
        <time>2021-06-03T13:32:35.115Z</time>
      </trkpt>
      <trkpt lat="48.68543" lon="-3.8552">
        <ele>2</ele>
        <time>2021-06-03T13:32:39.131Z</time>
      </trkpt>
      <trkpt lat="48.68543" lon="-3.85514">
        <ele>5</ele>
        <time>2021-06-03T13:32:44.117Z</time>
      </trkpt>
      <trkpt lat="48.68542" lon="-3.85508">
        <ele>8</ele>
        <time>2021-06-03T13:32:49.093Z</time>
      </trkpt>
      <trkpt lat="48.6854" lon="-3.85502">
        <ele>8</ele>
        <time>2021-06-03T13:32:54.100Z</time>
      </trkpt>
      <trkpt lat="48.68541" lon="-3.85492">
        <ele>8</ele>
        <time>2021-06-03T13:32:59.093Z</time>
      </trkpt>
      <trkpt lat="48.68542" lon="-3.85485">
        <ele>6</ele>
        <time>2021-06-03T13:33:03.107Z</time>
      </trkpt>
      <trkpt lat="48.68543" lon="-3.85475">
        <ele>6</ele>
        <time>2021-06-03T13:33:08.095Z</time>
      </trkpt>
      <trkpt lat="48.68545" lon="-3.85468">
        <ele>6</ele>
        <time>2021-06-03T13:33:12.104Z</time>
      </trkpt>
      <trkpt lat="48.68549" lon="-3.85461">
        <ele>6</ele>
        <time>2021-06-03T13:33:17.095Z</time>
      </trkpt>
      <trkpt lat="48.6855" lon="-3.85452">
        <ele>6</ele>
        <time>2021-06-03T13:33:22.090Z</time>
      </trkpt>
      <trkpt lat="48.68551" lon="-3.85445">
        <ele>6</ele>
        <time>2021-06-03T13:33:26.092Z</time>
      </trkpt>
      <trkpt lat="48.68552" lon="-3.85436">
        <ele>6</ele>
        <time>2021-06-03T13:33:31.098Z</time>
      </trkpt>
      <trkpt lat="48.68557" lon="-3.85429">
        <ele>7</ele>
        <time>2021-06-03T13:33:36.091Z</time>
      </trkpt>
      <trkpt lat="48.6856" lon="-3.85423">
        <ele>7</ele>
        <time>2021-06-03T13:33:40.097Z</time>
      </trkpt>
      <trkpt lat="48.68565" lon="-3.85417">
        <ele>7</ele>
        <time>2021-06-03T13:33:45.081Z</time>
      </trkpt>
      <trkpt lat="48.6857" lon="-3.85413">
        <ele>6</ele>
        <time>2021-06-03T13:33:49.092Z</time>
      </trkpt>
      <trkpt lat="48.68574" lon="-3.85408">
        <ele>6</ele>
        <time>2021-06-03T13:33:53.089Z</time>
      </trkpt>
      <trkpt lat="48.68579" lon="-3.85403">
        <ele>6</ele>
        <time>2021-06-03T13:33:57.098Z</time>
      </trkpt>
      <trkpt lat="48.68581" lon="-3.85406">
        <ele>6</ele>
        <time>2021-06-03T13:34:01.113Z</time>
      </trkpt>
      <trkpt lat="48.68586" lon="-3.85407">
        <ele>6</ele>
        <time>2021-06-03T13:34:06.109Z</time>
      </trkpt>
      <trkpt lat="48.68592" lon="-3.85401">
        <ele>6</ele>
        <time>2021-06-03T13:34:11.089Z</time>
      </trkpt>
      <trkpt lat="48.68596" lon="-3.85396">
        <ele>6</ele>
        <time>2021-06-03T13:34:15.101Z</time>
      </trkpt>
      <trkpt lat="48.686" lon="-3.85388">
        <ele>4</ele>
        <time>2021-06-03T13:34:20.094Z</time>
      </trkpt>
      <trkpt lat="48.68604" lon="-3.85382">
        <ele>4</ele>
        <time>2021-06-03T13:34:24.100Z</time>
      </trkpt>
      <trkpt lat="48.68608" lon="-3.85374">
        <ele>6</ele>
        <time>2021-06-03T13:34:29.104Z</time>
      </trkpt>
      <trkpt lat="48.68613" lon="-3.85367">
        <ele>6</ele>
        <time>2021-06-03T13:34:34.110Z</time>
      </trkpt>
      <trkpt lat="48.68617" lon="-3.85361">
        <ele>6</ele>
        <time>2021-06-03T13:34:38.113Z</time>
      </trkpt>
      <trkpt lat="48.68623" lon="-3.85355">
        <ele>6</ele>
        <time>2021-06-03T13:34:43.098Z</time>
      </trkpt>
      <trkpt lat="48.68628" lon="-3.85351">
        <ele>6</ele>
        <time>2021-06-03T13:34:47.207Z</time>
      </trkpt>
      <trkpt lat="48.68634" lon="-3.85346">
        <ele>9</ele>
        <time>2021-06-03T13:34:52.112Z</time>
      </trkpt>
      <trkpt lat="48.6864" lon="-3.8534">
        <ele>9</ele>
        <time>2021-06-03T13:34:57.103Z</time>
      </trkpt>
      <trkpt lat="48.68646" lon="-3.85336">
        <ele>9</ele>
        <time>2021-06-03T13:35:02.094Z</time>
      </trkpt>
      <trkpt lat="48.6865" lon="-3.85335">
        <ele>9</ele>
        <time>2021-06-03T13:35:06.104Z</time>
      </trkpt>
      <trkpt lat="48.68655" lon="-3.85334">
        <ele>9</ele>
        <time>2021-06-03T13:35:10.115Z</time>
      </trkpt>
      <trkpt lat="48.68661" lon="-3.85332">
        <ele>9</ele>
        <time>2021-06-03T13:35:15.108Z</time>
      </trkpt>
      <trkpt lat="48.68667" lon="-3.8533">
        <ele>9</ele>
        <time>2021-06-03T13:35:20.097Z</time>
      </trkpt>
      <trkpt lat="48.68672" lon="-3.85332">
        <ele>9</ele>
        <time>2021-06-03T13:35:24.115Z</time>
      </trkpt>
      <trkpt lat="48.68685" lon="-3.85337">
        <ele>10</ele>
        <time>2021-06-03T13:36:17.086Z</time>
      </trkpt>
      <trkpt lat="48.68685" lon="-3.85336">
        <ele>10</ele>
        <time>2021-06-03T13:36:21.099Z</time>
      </trkpt>
      <trkpt lat="48.68691" lon="-3.85335">
        <ele>10</ele>
        <time>2021-06-03T13:36:25.098Z</time>
      </trkpt>
      <trkpt lat="48.68696" lon="-3.85335">
        <ele>10</ele>
        <time>2021-06-03T13:36:30.082Z</time>
      </trkpt>
      <trkpt lat="48.68699" lon="-3.85338">
        <ele>10</ele>
        <time>2021-06-03T13:36:34.096Z</time>
      </trkpt>
      <trkpt lat="48.68705" lon="-3.85342">
        <ele>10</ele>
        <time>2021-06-03T13:36:39.105Z</time>
      </trkpt>
      <trkpt lat="48.68711" lon="-3.85344">
        <ele>10</ele>
        <time>2021-06-03T13:36:44.096Z</time>
      </trkpt>
      <trkpt lat="48.68717" lon="-3.85348">
        <ele>7</ele>
        <time>2021-06-03T13:36:49.098Z</time>
      </trkpt>
      <trkpt lat="48.68722" lon="-3.85352">
        <ele>7</ele>
        <time>2021-06-03T13:36:54.096Z</time>
      </trkpt>
      <trkpt lat="48.68727" lon="-3.85357">
        <ele>7</ele>
        <time>2021-06-03T13:36:59.102Z</time>
      </trkpt>
      <trkpt lat="48.68732" lon="-3.85362">
        <ele>7</ele>
        <time>2021-06-03T13:37:04.099Z</time>
      </trkpt>
      <trkpt lat="48.68737" lon="-3.85366">
        <ele>8</ele>
        <time>2021-06-03T13:37:09.097Z</time>
      </trkpt>
      <trkpt lat="48.68741" lon="-3.8537">
        <ele>8</ele>
        <time>2021-06-03T13:37:13.098Z</time>
      </trkpt>
      <trkpt lat="48.68746" lon="-3.85375">
        <ele>5</ele>
        <time>2021-06-03T13:37:18.092Z</time>
      </trkpt>
      <trkpt lat="48.6875" lon="-3.8538">
        <ele>5</ele>
        <time>2021-06-03T13:37:22.099Z</time>
      </trkpt>
      <trkpt lat="48.68753" lon="-3.85387">
        <ele>5</ele>
        <time>2021-06-03T13:37:27.106Z</time>
      </trkpt>
      <trkpt lat="48.68757" lon="-3.85392">
        <ele>5</ele>
        <time>2021-06-03T13:37:31.104Z</time>
      </trkpt>
      <trkpt lat="48.6876" lon="-3.854">
        <ele>5</ele>
        <time>2021-06-03T13:37:36.088Z</time>
      </trkpt>
      <trkpt lat="48.68763" lon="-3.85406">
        <ele>3</ele>
        <time>2021-06-03T13:37:40.090Z</time>
      </trkpt>
      <trkpt lat="48.68768" lon="-3.85411">
        <ele>5</ele>
        <time>2021-06-03T13:37:44.102Z</time>
      </trkpt>
      <trkpt lat="48.68772" lon="-3.85414">
        <ele>5</ele>
        <time>2021-06-03T13:37:49.098Z</time>
      </trkpt>
      <trkpt lat="48.68771" lon="-3.85414">
        <ele>5</ele>
        <time>2021-06-03T13:38:03.094Z</time>
      </trkpt>
      <trkpt lat="48.68773" lon="-3.85411">
        <ele>5</ele>
        <time>2021-06-03T13:38:07.097Z</time>
      </trkpt>
      <trkpt lat="48.68778" lon="-3.85408">
        <ele>5</ele>
        <time>2021-06-03T13:38:12.084Z</time>
      </trkpt>
      <trkpt lat="48.68783" lon="-3.85406">
        <ele>5</ele>
        <time>2021-06-03T13:38:16.103Z</time>
      </trkpt>
      <trkpt lat="48.68788" lon="-3.85406">
        <ele>5</ele>
        <time>2021-06-03T13:38:21.122Z</time>
      </trkpt>
      <trkpt lat="48.68794" lon="-3.85405">
        <ele>5</ele>
        <time>2021-06-03T13:38:26.128Z</time>
      </trkpt>
      <trkpt lat="48.688" lon="-3.85406">
        <ele>5</ele>
        <time>2021-06-03T13:38:31.119Z</time>
      </trkpt>
      <trkpt lat="48.68801" lon="-3.85409">
        <ele>5</ele>
        <time>2021-06-03T13:38:36.089Z</time>
      </trkpt>
      <trkpt lat="48.68802" lon="-3.85409">
        <ele>5</ele>
        <time>2021-06-03T13:38:40.084Z</time>
      </trkpt>
      <trkpt lat="48.68809" lon="-3.85409">
        <ele>5</ele>
        <time>2021-06-03T13:38:45.092Z</time>
      </trkpt>
      <trkpt lat="48.68816" lon="-3.85411">
        <ele>5</ele>
        <time>2021-06-03T13:38:50.107Z</time>
      </trkpt>
      <trkpt lat="48.68822" lon="-3.85411">
        <ele>5</ele>
        <time>2021-06-03T13:38:55.101Z</time>
      </trkpt>
      <trkpt lat="48.68828" lon="-3.85414">
        <ele>5</ele>
        <time>2021-06-03T13:39:00.096Z</time>
      </trkpt>
      <trkpt lat="48.68833" lon="-3.85417">
        <ele>5</ele>
        <time>2021-06-03T13:39:04.099Z</time>
      </trkpt>
      <trkpt lat="48.68838" lon="-3.8542">
        <ele>5</ele>
        <time>2021-06-03T13:39:08.107Z</time>
      </trkpt>
      <trkpt lat="48.68843" lon="-3.85423">
        <ele>5</ele>
        <time>2021-06-03T13:39:13.095Z</time>
      </trkpt>
      <trkpt lat="48.68848" lon="-3.85426">
        <ele>7</ele>
        <time>2021-06-03T13:39:17.102Z</time>
      </trkpt>
      <trkpt lat="48.68851" lon="-3.85429">
        <ele>7</ele>
        <time>2021-06-03T13:39:21.107Z</time>
      </trkpt>
      <trkpt lat="48.68856" lon="-3.85433">
        <ele>5</ele>
        <time>2021-06-03T13:39:26.105Z</time>
      </trkpt>
      <trkpt lat="48.6886" lon="-3.85438">
        <ele>5</ele>
        <time>2021-06-03T13:39:31.102Z</time>
      </trkpt>
      <trkpt lat="48.68861" lon="-3.85448">
        <ele>5</ele>
        <time>2021-06-03T13:39:36.094Z</time>
      </trkpt>
      <trkpt lat="48.68864" lon="-3.85451">
        <ele>5</ele>
        <time>2021-06-03T13:39:41.093Z</time>
      </trkpt>
      <trkpt lat="48.68868" lon="-3.85452">
        <ele>5</ele>
        <time>2021-06-03T13:39:45.093Z</time>
      </trkpt>
      <trkpt lat="48.68874" lon="-3.85456">
        <ele>5</ele>
        <time>2021-06-03T13:39:50.099Z</time>
      </trkpt>
      <trkpt lat="48.68876" lon="-3.85457">
        <ele>5</ele>
        <time>2021-06-03T13:39:55.093Z</time>
      </trkpt>
      <trkpt lat="48.68876" lon="-3.85457">
        <ele>5</ele>
        <time>2021-06-03T13:40:00.095Z</time>
      </trkpt>
      <trkpt lat="48.68877" lon="-3.85457">
        <ele>5</ele>
        <time>2021-06-03T13:40:29.100Z</time>
      </trkpt>
      <trkpt lat="48.68878" lon="-3.85456">
        <ele>5</ele>
        <time>2021-06-03T13:40:34.097Z</time>
      </trkpt>
      <trkpt lat="48.68881" lon="-3.85455">
        <ele>5</ele>
        <time>2021-06-03T13:40:38.110Z</time>
      </trkpt>
      <trkpt lat="48.68882" lon="-3.85454">
        <ele>5</ele>
        <time>2021-06-03T13:40:43.098Z</time>
      </trkpt>
      <trkpt lat="48.68885" lon="-3.8545">
        <ele>5</ele>
        <time>2021-06-03T13:40:48.119Z</time>
      </trkpt>
      <trkpt lat="48.68887" lon="-3.85444">
        <ele>5</ele>
        <time>2021-06-03T13:40:53.093Z</time>
      </trkpt>
      <trkpt lat="48.68889" lon="-3.85439">
        <ele>5</ele>
        <time>2021-06-03T13:40:57.101Z</time>
      </trkpt>
      <trkpt lat="48.68891" lon="-3.85432">
        <ele>5</ele>
        <time>2021-06-03T13:41:02.116Z</time>
      </trkpt>
      <trkpt lat="48.68894" lon="-3.85426">
        <ele>6</ele>
        <time>2021-06-03T13:41:07.095Z</time>
      </trkpt>
      <trkpt lat="48.68896" lon="-3.8542">
        <ele>6</ele>
        <time>2021-06-03T13:41:12.091Z</time>
      </trkpt>
      <trkpt lat="48.68898" lon="-3.85414">
        <ele>6</ele>
        <time>2021-06-03T13:41:16.102Z</time>
      </trkpt>
      <trkpt lat="48.68899" lon="-3.85406">
        <ele>6</ele>
        <time>2021-06-03T13:41:21.097Z</time>
      </trkpt>
      <trkpt lat="48.68898" lon="-3.85399">
        <ele>7</ele>
        <time>2021-06-03T13:41:26.086Z</time>
      </trkpt>
      <trkpt lat="48.68898" lon="-3.85392">
        <ele>7</ele>
        <time>2021-06-03T13:41:30.102Z</time>
      </trkpt>
      <trkpt lat="48.68897" lon="-3.85385">
        <ele>7</ele>
        <time>2021-06-03T13:41:34.092Z</time>
      </trkpt>
      <trkpt lat="48.68897" lon="-3.85375">
        <ele>7</ele>
        <time>2021-06-03T13:41:39.105Z</time>
      </trkpt>
      <trkpt lat="48.68897" lon="-3.85366">
        <ele>8</ele>
        <time>2021-06-03T13:41:44.108Z</time>
      </trkpt>
      <trkpt lat="48.68898" lon="-3.85359">
        <ele>8</ele>
        <time>2021-06-03T13:41:48.126Z</time>
      </trkpt>
      <trkpt lat="48.68898" lon="-3.8535">
        <ele>8</ele>
        <time>2021-06-03T13:41:53.097Z</time>
      </trkpt>
      <trkpt lat="48.689" lon="-3.85343">
        <ele>8</ele>
        <time>2021-06-03T13:41:57.105Z</time>
      </trkpt>
      <trkpt lat="48.68903" lon="-3.85334">
        <ele>8</ele>
        <time>2021-06-03T13:42:02.111Z</time>
      </trkpt>
      <trkpt lat="48.68906" lon="-3.85328">
        <ele>8</ele>
        <time>2021-06-03T13:42:06.116Z</time>
      </trkpt>
      <trkpt lat="48.6891" lon="-3.85319">
        <ele>8</ele>
        <time>2021-06-03T13:42:11.101Z</time>
      </trkpt>
      <trkpt lat="48.68913" lon="-3.85313">
        <ele>8</ele>
        <time>2021-06-03T13:42:15.113Z</time>
      </trkpt>
      <trkpt lat="48.68916" lon="-3.85304">
        <ele>8</ele>
        <time>2021-06-03T13:42:20.101Z</time>
      </trkpt>
      <trkpt lat="48.68919" lon="-3.85299">
        <ele>8</ele>
        <time>2021-06-03T13:42:25.119Z</time>
      </trkpt>
      <trkpt lat="48.68921" lon="-3.85293">
        <ele>8</ele>
        <time>2021-06-03T13:42:30.096Z</time>
      </trkpt>
      <trkpt lat="48.68921" lon="-3.85288">
        <ele>8</ele>
        <time>2021-06-03T13:42:34.101Z</time>
      </trkpt>
      <trkpt lat="48.68924" lon="-3.85283">
        <ele>8</ele>
        <time>2021-06-03T13:42:39.106Z</time>
      </trkpt>
      <trkpt lat="48.68925" lon="-3.85281">
        <ele>8</ele>
        <time>2021-06-03T13:42:44.111Z</time>
      </trkpt>
      <trkpt lat="48.68927" lon="-3.85276">
        <ele>8</ele>
        <time>2021-06-03T13:42:48.117Z</time>
      </trkpt>
      <trkpt lat="48.68927" lon="-3.85267">
        <ele>8</ele>
        <time>2021-06-03T13:42:53.104Z</time>
      </trkpt>
      <trkpt lat="48.68926" lon="-3.85259">
        <ele>7</ele>
        <time>2021-06-03T13:42:57.117Z</time>
      </trkpt>
      <trkpt lat="48.68925" lon="-3.85251">
        <ele>7</ele>
        <time>2021-06-03T13:43:02.104Z</time>
      </trkpt>
      <trkpt lat="48.68926" lon="-3.85242">
        <ele>7</ele>
        <time>2021-06-03T13:43:07.101Z</time>
      </trkpt>
      <trkpt lat="48.68927" lon="-3.85236">
        <ele>6</ele>
        <time>2021-06-03T13:43:11.105Z</time>
      </trkpt>
      <trkpt lat="48.68931" lon="-3.85227">
        <ele>6</ele>
        <time>2021-06-03T13:43:16.095Z</time>
      </trkpt>
      <trkpt lat="48.68933" lon="-3.85219">
        <ele>6</ele>
        <time>2021-06-03T13:43:21.108Z</time>
      </trkpt>
      <trkpt lat="48.68936" lon="-3.85209">
        <ele>6</ele>
        <time>2021-06-03T13:43:26.097Z</time>
      </trkpt>
      <trkpt lat="48.68939" lon="-3.85202">
        <ele>7</ele>
        <time>2021-06-03T13:43:31.106Z</time>
      </trkpt>
      <trkpt lat="48.68943" lon="-3.85192">
        <ele>7</ele>
        <time>2021-06-03T13:43:36.089Z</time>
      </trkpt>
      <trkpt lat="48.68945" lon="-3.85185">
        <ele>7</ele>
        <time>2021-06-03T13:43:40.099Z</time>
      </trkpt>
      <trkpt lat="48.68946" lon="-3.85175">
        <ele>8</ele>
        <time>2021-06-03T13:43:45.123Z</time>
      </trkpt>
      <trkpt lat="48.68949" lon="-3.85167">
        <ele>8</ele>
        <time>2021-06-03T13:43:49.214Z</time>
      </trkpt>
      <trkpt lat="48.68951" lon="-3.8516">
        <ele>8</ele>
        <time>2021-06-03T13:43:54.101Z</time>
      </trkpt>
      <trkpt lat="48.68955" lon="-3.85152">
        <ele>9</ele>
        <time>2021-06-03T13:43:59.105Z</time>
      </trkpt>
      <trkpt lat="48.68957" lon="-3.85143">
        <ele>9</ele>
        <time>2021-06-03T13:44:04.095Z</time>
      </trkpt>
      <trkpt lat="48.6896" lon="-3.85137">
        <ele>10</ele>
        <time>2021-06-03T13:44:08.102Z</time>
      </trkpt>
      <trkpt lat="48.68962" lon="-3.85128">
        <ele>10</ele>
        <time>2021-06-03T13:44:13.096Z</time>
      </trkpt>
      <trkpt lat="48.68964" lon="-3.85118">
        <ele>10</ele>
        <time>2021-06-03T13:44:18.114Z</time>
      </trkpt>
      <trkpt lat="48.68966" lon="-3.8511">
        <ele>10</ele>
        <time>2021-06-03T13:44:23.104Z</time>
      </trkpt>
      <trkpt lat="48.68969" lon="-3.85104">
        <ele>10</ele>
        <time>2021-06-03T13:44:27.105Z</time>
      </trkpt>
      <trkpt lat="48.68975" lon="-3.85098">
        <ele>10</ele>
        <time>2021-06-03T13:44:32.102Z</time>
      </trkpt>
      <trkpt lat="48.68978" lon="-3.85093">
        <ele>9</ele>
        <time>2021-06-03T13:44:36.111Z</time>
      </trkpt>
      <trkpt lat="48.68983" lon="-3.85089">
        <ele>9</ele>
        <time>2021-06-03T13:44:41.101Z</time>
      </trkpt>
      <trkpt lat="48.68988" lon="-3.85084">
        <ele>8</ele>
        <time>2021-06-03T13:44:46.099Z</time>
      </trkpt>
      <trkpt lat="48.68991" lon="-3.85076">
        <ele>8</ele>
        <time>2021-06-03T13:44:51.101Z</time>
      </trkpt>
      <trkpt lat="48.68995" lon="-3.85069">
        <ele>8</ele>
        <time>2021-06-03T13:44:56.096Z</time>
      </trkpt>
      <trkpt lat="48.68997" lon="-3.85063">
        <ele>8</ele>
        <time>2021-06-03T13:45:00.103Z</time>
      </trkpt>
      <trkpt lat="48.68999" lon="-3.85055">
        <ele>8</ele>
        <time>2021-06-03T13:45:05.099Z</time>
      </trkpt>
      <trkpt lat="48.69002" lon="-3.85047">
        <ele>8</ele>
        <time>2021-06-03T13:45:10.105Z</time>
      </trkpt>
      <trkpt lat="48.69007" lon="-3.85031">
        <ele>8</ele>
        <time>2021-06-03T13:51:41.090Z</time>
      </trkpt>
      <trkpt lat="48.69007" lon="-3.85031">
        <ele>8</ele>
        <time>2021-06-03T13:51:45.097Z</time>
      </trkpt>
      <trkpt lat="48.69008" lon="-3.8503">
        <ele>8</ele>
        <time>2021-06-03T13:51:50.112Z</time>
      </trkpt>
      <trkpt lat="48.69012" lon="-3.85034">
        <ele>8</ele>
        <time>2021-06-03T13:51:55.107Z</time>
      </trkpt>
      <trkpt lat="48.69018" lon="-3.85038">
        <ele>7</ele>
        <time>2021-06-03T13:51:59.110Z</time>
      </trkpt>
      <trkpt lat="48.69023" lon="-3.85042">
        <ele>7</ele>
        <time>2021-06-03T13:52:03.112Z</time>
      </trkpt>
      <trkpt lat="48.69027" lon="-3.85047">
        <ele>7</ele>
        <time>2021-06-03T13:52:08.106Z</time>
      </trkpt>
      <trkpt lat="48.6903" lon="-3.85051">
        <ele>7</ele>
        <time>2021-06-03T13:52:12.120Z</time>
      </trkpt>
      <trkpt lat="48.69035" lon="-3.85054">
        <ele>7</ele>
        <time>2021-06-03T13:52:17.105Z</time>
      </trkpt>
      <trkpt lat="48.69041" lon="-3.85056">
        <ele>7</ele>
        <time>2021-06-03T13:52:22.112Z</time>
      </trkpt>
      <trkpt lat="48.69046" lon="-3.8506">
        <ele>7</ele>
        <time>2021-06-03T13:52:27.099Z</time>
      </trkpt>
      <trkpt lat="48.6905" lon="-3.85064">
        <ele>7</ele>
        <time>2021-06-03T13:52:31.110Z</time>
      </trkpt>
      <trkpt lat="48.69054" lon="-3.85068">
        <ele>7</ele>
        <time>2021-06-03T13:52:35.119Z</time>
      </trkpt>
      <trkpt lat="48.69059" lon="-3.85073">
        <ele>7</ele>
        <time>2021-06-03T13:52:40.126Z</time>
      </trkpt>
      <trkpt lat="48.69065" lon="-3.85075">
        <ele>7</ele>
        <time>2021-06-03T13:52:45.112Z</time>
      </trkpt>
      <trkpt lat="48.6907" lon="-3.85078">
        <ele>5</ele>
        <time>2021-06-03T13:52:50.093Z</time>
      </trkpt>
      <trkpt lat="48.69074" lon="-3.85081">
        <ele>5</ele>
        <time>2021-06-03T13:52:54.095Z</time>
      </trkpt>
      <trkpt lat="48.69078" lon="-3.85084">
        <ele>5</ele>
        <time>2021-06-03T13:52:59.108Z</time>
      </trkpt>
      <trkpt lat="48.69082" lon="-3.85087">
        <ele>5</ele>
        <time>2021-06-03T13:53:04.101Z</time>
      </trkpt>
      <trkpt lat="48.69086" lon="-3.85087">
        <ele>5</ele>
        <time>2021-06-03T13:53:08.112Z</time>
      </trkpt>
      <trkpt lat="48.6909" lon="-3.85081">
        <ele>5</ele>
        <time>2021-06-03T13:53:13.108Z</time>
      </trkpt>
      <trkpt lat="48.69095" lon="-3.85079">
        <ele>5</ele>
        <time>2021-06-03T13:53:18.116Z</time>
      </trkpt>
      <trkpt lat="48.69101" lon="-3.85079">
        <ele>4</ele>
        <time>2021-06-03T13:53:23.116Z</time>
      </trkpt>
      <trkpt lat="48.69107" lon="-3.85081">
        <ele>4</ele>
        <time>2021-06-03T13:53:28.101Z</time>
      </trkpt>
      <trkpt lat="48.69111" lon="-3.85084">
        <ele>4</ele>
        <time>2021-06-03T13:53:32.103Z</time>
      </trkpt>
      <trkpt lat="48.69112" lon="-3.85096">
        <ele>4</ele>
        <time>2021-06-03T13:53:46.122Z</time>
      </trkpt>
      <trkpt lat="48.69111" lon="-3.85101">
        <ele>4</ele>
        <time>2021-06-03T13:53:51.101Z</time>
      </trkpt>
      <trkpt lat="48.69113" lon="-3.85101">
        <ele>4</ele>
        <time>2021-06-03T13:53:56.091Z</time>
      </trkpt>
      <trkpt lat="48.69118" lon="-3.85099">
        <ele>4</ele>
        <time>2021-06-03T13:54:00.095Z</time>
      </trkpt>
      <trkpt lat="48.69123" lon="-3.85094">
        <ele>4</ele>
        <time>2021-06-03T13:54:05.100Z</time>
      </trkpt>
      <trkpt lat="48.69129" lon="-3.85089">
        <ele>4</ele>
        <time>2021-06-03T13:54:10.098Z</time>
      </trkpt>
      <trkpt lat="48.69134" lon="-3.85085">
        <ele>4</ele>
        <time>2021-06-03T13:54:14.099Z</time>
      </trkpt>
      <trkpt lat="48.6914" lon="-3.8508">
        <ele>4</ele>
        <time>2021-06-03T13:54:19.090Z</time>
      </trkpt>
      <trkpt lat="48.69146" lon="-3.85078">
        <ele>4</ele>
        <time>2021-06-03T13:54:24.103Z</time>
      </trkpt>
      <trkpt lat="48.69151" lon="-3.85073">
        <ele>4</ele>
        <time>2021-06-03T13:54:29.096Z</time>
      </trkpt>
      <trkpt lat="48.69155" lon="-3.8507">
        <ele>4</ele>
        <time>2021-06-03T13:54:33.097Z</time>
      </trkpt>
      <trkpt lat="48.6916" lon="-3.85067">
        <ele>5</ele>
        <time>2021-06-03T13:54:37.114Z</time>
      </trkpt>
      <trkpt lat="48.69164" lon="-3.85064">
        <ele>5</ele>
        <time>2021-06-03T13:54:41.167Z</time>
      </trkpt>
      <trkpt lat="48.6917" lon="-3.85061">
        <ele>5</ele>
        <time>2021-06-03T13:54:46.109Z</time>
      </trkpt>
      <trkpt lat="48.69176" lon="-3.85057">
        <ele>5</ele>
        <time>2021-06-03T13:54:51.110Z</time>
      </trkpt>
      <trkpt lat="48.6918" lon="-3.85054">
        <ele>5</ele>
        <time>2021-06-03T13:54:55.109Z</time>
      </trkpt>
      <trkpt lat="48.69186" lon="-3.8505">
        <ele>5</ele>
        <time>2021-06-03T13:55:00.100Z</time>
      </trkpt>
      <trkpt lat="48.69192" lon="-3.85047">
        <ele>5</ele>
        <time>2021-06-03T13:55:05.110Z</time>
      </trkpt>
      <trkpt lat="48.69198" lon="-3.85043">
        <ele>5</ele>
        <time>2021-06-03T13:55:10.100Z</time>
      </trkpt>
      <trkpt lat="48.69203" lon="-3.85041">
        <ele>6</ele>
        <time>2021-06-03T13:55:14.108Z</time>
      </trkpt>
      <trkpt lat="48.69208" lon="-3.85036">
        <ele>6</ele>
        <time>2021-06-03T13:55:19.099Z</time>
      </trkpt>
      <trkpt lat="48.69214" lon="-3.8503">
        <ele>4</ele>
        <time>2021-06-03T13:55:24.114Z</time>
      </trkpt>
      <trkpt lat="48.6922" lon="-3.85025">
        <ele>4</ele>
        <time>2021-06-03T13:55:29.100Z</time>
      </trkpt>
      <trkpt lat="48.69224" lon="-3.85022">
        <ele>4</ele>
        <time>2021-06-03T13:55:33.113Z</time>
      </trkpt>
      <trkpt lat="48.6923" lon="-3.85017">
        <ele>4</ele>
        <time>2021-06-03T13:55:38.102Z</time>
      </trkpt>
      <trkpt lat="48.69234" lon="-3.85014">
        <ele>5</ele>
        <time>2021-06-03T13:55:42.113Z</time>
      </trkpt>
      <trkpt lat="48.6924" lon="-3.85009">
        <ele>4</ele>
        <time>2021-06-03T13:55:47.113Z</time>
      </trkpt>
      <trkpt lat="48.69245" lon="-3.85005">
        <ele>4</ele>
        <time>2021-06-03T13:55:52.110Z</time>
      </trkpt>
      <trkpt lat="48.6925" lon="-3.85003">
        <ele>4</ele>
        <time>2021-06-03T13:55:57.108Z</time>
      </trkpt>
      <trkpt lat="48.69256" lon="-3.84999">
        <ele>4</ele>
        <time>2021-06-03T13:56:02.105Z</time>
      </trkpt>
      <trkpt lat="48.69261" lon="-3.84996">
        <ele>4</ele>
        <time>2021-06-03T13:56:07.107Z</time>
      </trkpt>
      <trkpt lat="48.69267" lon="-3.84993">
        <ele>1</ele>
        <time>2021-06-03T13:56:12.098Z</time>
      </trkpt>
      <trkpt lat="48.69272" lon="-3.84989">
        <ele>1</ele>
        <time>2021-06-03T13:56:16.112Z</time>
      </trkpt>
      <trkpt lat="48.69277" lon="-3.84984">
        <ele>3</ele>
        <time>2021-06-03T13:56:21.099Z</time>
      </trkpt>
      <trkpt lat="48.69282" lon="-3.84978">
        <ele>3</ele>
        <time>2021-06-03T13:56:26.111Z</time>
      </trkpt>
      <trkpt lat="48.69286" lon="-3.84971">
        <ele>3</ele>
        <time>2021-06-03T13:56:31.106Z</time>
      </trkpt>
      <trkpt lat="48.69288" lon="-3.84965">
        <ele>3</ele>
        <time>2021-06-03T13:56:35.122Z</time>
      </trkpt>
      <trkpt lat="48.69291" lon="-3.84955">
        <ele>6</ele>
        <time>2021-06-03T13:56:54.099Z</time>
      </trkpt>
      <trkpt lat="48.69295" lon="-3.84959">
        <ele>3</ele>
        <time>2021-06-03T13:56:58.106Z</time>
      </trkpt>
      <trkpt lat="48.693" lon="-3.84962">
        <ele>3</ele>
        <time>2021-06-03T13:57:03.092Z</time>
      </trkpt>
      <trkpt lat="48.69304" lon="-3.84966">
        <ele>3</ele>
        <time>2021-06-03T13:57:07.101Z</time>
      </trkpt>
      <trkpt lat="48.69309" lon="-3.84967">
        <ele>3</ele>
        <time>2021-06-03T13:57:12.108Z</time>
      </trkpt>
      <trkpt lat="48.69312" lon="-3.8497">
        <ele>3</ele>
        <time>2021-06-03T13:57:16.112Z</time>
      </trkpt>
      <trkpt lat="48.69318" lon="-3.84965">
        <ele>3</ele>
        <time>2021-06-03T13:57:21.104Z</time>
      </trkpt>
      <trkpt lat="48.69322" lon="-3.84961">
        <ele>6</ele>
        <time>2021-06-03T13:57:26.142Z</time>
      </trkpt>
      <trkpt lat="48.69327" lon="-3.8496">
        <ele>6</ele>
        <time>2021-06-03T13:57:31.112Z</time>
      </trkpt>
      <trkpt lat="48.69332" lon="-3.8496">
        <ele>6</ele>
        <time>2021-06-03T13:57:36.108Z</time>
      </trkpt>
      <trkpt lat="48.69337" lon="-3.84961">
        <ele>6</ele>
        <time>2021-06-03T13:57:41.109Z</time>
      </trkpt>
      <trkpt lat="48.69342" lon="-3.84965">
        <ele>6</ele>
        <time>2021-06-03T13:57:46.108Z</time>
      </trkpt>
      <trkpt lat="48.69348" lon="-3.84969">
        <ele>9</ele>
        <time>2021-06-03T13:57:51.091Z</time>
      </trkpt>
      <trkpt lat="48.69352" lon="-3.84974">
        <ele>9</ele>
        <time>2021-06-03T13:57:55.111Z</time>
      </trkpt>
      <trkpt lat="48.69354" lon="-3.84979">
        <ele>9</ele>
        <time>2021-06-03T13:58:00.094Z</time>
      </trkpt>
      <trkpt lat="48.69356" lon="-3.84983">
        <ele>9</ele>
        <time>2021-06-03T13:58:04.105Z</time>
      </trkpt>
      <trkpt lat="48.69356" lon="-3.84988">
        <ele>7</ele>
        <time>2021-06-03T13:58:08.111Z</time>
      </trkpt>
      <trkpt lat="48.69362" lon="-3.84991">
        <ele>7</ele>
        <time>2021-06-03T13:58:13.114Z</time>
      </trkpt>
      <trkpt lat="48.69368" lon="-3.84994">
        <ele>7</ele>
        <time>2021-06-03T13:58:18.107Z</time>
      </trkpt>
      <trkpt lat="48.69372" lon="-3.84996">
        <ele>7</ele>
        <time>2021-06-03T13:58:22.110Z</time>
      </trkpt>
      <trkpt lat="48.69378" lon="-3.84997">
        <ele>9</ele>
        <time>2021-06-03T13:58:27.112Z</time>
      </trkpt>
      <trkpt lat="48.69384" lon="-3.84999">
        <ele>9</ele>
        <time>2021-06-03T13:58:32.099Z</time>
      </trkpt>
      <trkpt lat="48.69389" lon="-3.85002">
        <ele>9</ele>
        <time>2021-06-03T13:58:37.100Z</time>
      </trkpt>
      <trkpt lat="48.69395" lon="-3.85004">
        <ele>9</ele>
        <time>2021-06-03T13:58:42.108Z</time>
      </trkpt>
      <trkpt lat="48.69402" lon="-3.85005">
        <ele>9</ele>
        <time>2021-06-03T13:58:47.104Z</time>
      </trkpt>
      <trkpt lat="48.69407" lon="-3.85005">
        <ele>13</ele>
        <time>2021-06-03T13:58:51.113Z</time>
      </trkpt>
      <trkpt lat="48.69413" lon="-3.85005">
        <ele>13</ele>
        <time>2021-06-03T13:58:56.105Z</time>
      </trkpt>
      <trkpt lat="48.69419" lon="-3.85006">
        <ele>13</ele>
        <time>2021-06-03T13:59:01.110Z</time>
      </trkpt>
      <trkpt lat="48.69425" lon="-3.85008">
        <ele>13</ele>
        <time>2021-06-03T13:59:06.102Z</time>
      </trkpt>
      <trkpt lat="48.69432" lon="-3.85007">
        <ele>15</ele>
        <time>2021-06-03T13:59:11.115Z</time>
      </trkpt>
      <trkpt lat="48.69439" lon="-3.85006">
        <ele>15</ele>
        <time>2021-06-03T13:59:16.099Z</time>
      </trkpt>
      <trkpt lat="48.69444" lon="-3.85005">
        <ele>15</ele>
        <time>2021-06-03T13:59:20.109Z</time>
      </trkpt>
      <trkpt lat="48.69449" lon="-3.85007">
        <ele>15</ele>
        <time>2021-06-03T13:59:25.110Z</time>
      </trkpt>
      <trkpt lat="48.69455" lon="-3.85006">
        <ele>15</ele>
        <time>2021-06-03T13:59:30.110Z</time>
      </trkpt>
      <trkpt lat="48.69461" lon="-3.85004">
        <ele>15</ele>
        <time>2021-06-03T13:59:35.104Z</time>
      </trkpt>
      <trkpt lat="48.69466" lon="-3.85003">
        <ele>15</ele>
        <time>2021-06-03T13:59:40.095Z</time>
      </trkpt>
      <trkpt lat="48.69471" lon="-3.85004">
        <ele>15</ele>
        <time>2021-06-03T13:59:44.104Z</time>
      </trkpt>
      <trkpt lat="48.69474" lon="-3.85008">
        <ele>15</ele>
        <time>2021-06-03T13:59:48.105Z</time>
      </trkpt>
      <trkpt lat="48.69478" lon="-3.85015">
        <ele>10</ele>
        <time>2021-06-03T13:59:53.105Z</time>
      </trkpt>
      <trkpt lat="48.6948" lon="-3.85023">
        <ele>10</ele>
        <time>2021-06-03T13:59:58.109Z</time>
      </trkpt>
      <trkpt lat="48.69484" lon="-3.85027">
        <ele>10</ele>
        <time>2021-06-03T14:00:03.104Z</time>
      </trkpt>
      <trkpt lat="48.69489" lon="-3.85026">
        <ele>9</ele>
        <time>2021-06-03T14:00:08.096Z</time>
      </trkpt>
      <trkpt lat="48.69492" lon="-3.85028">
        <ele>9</ele>
        <time>2021-06-03T14:00:12.106Z</time>
      </trkpt>
      <trkpt lat="48.69498" lon="-3.8503">
        <ele>9</ele>
        <time>2021-06-03T14:00:17.111Z</time>
      </trkpt>
      <trkpt lat="48.69504" lon="-3.85032">
        <ele>9</ele>
        <time>2021-06-03T14:00:22.111Z</time>
      </trkpt>
      <trkpt lat="48.69509" lon="-3.85031">
        <ele>9</ele>
        <time>2021-06-03T14:00:27.124Z</time>
      </trkpt>
      <trkpt lat="48.69514" lon="-3.8503">
        <ele>7</ele>
        <time>2021-06-03T14:00:32.097Z</time>
      </trkpt>
      <trkpt lat="48.6952" lon="-3.85029">
        <ele>7</ele>
        <time>2021-06-03T14:00:37.115Z</time>
      </trkpt>
      <trkpt lat="48.69524" lon="-3.85026">
        <ele>7</ele>
        <time>2021-06-03T14:00:42.120Z</time>
      </trkpt>
      <trkpt lat="48.6953" lon="-3.85024">
        <ele>7</ele>
        <time>2021-06-03T14:00:47.125Z</time>
      </trkpt>
      <trkpt lat="48.69535" lon="-3.85025">
        <ele>7</ele>
        <time>2021-06-03T14:00:52.112Z</time>
      </trkpt>
      <trkpt lat="48.69541" lon="-3.85024">
        <ele>7</ele>
        <time>2021-06-03T14:00:57.109Z</time>
      </trkpt>
      <trkpt lat="48.69545" lon="-3.85023">
        <ele>4</ele>
        <time>2021-06-03T14:01:02.107Z</time>
      </trkpt>
      <trkpt lat="48.69548" lon="-3.85017">
        <ele>4</ele>
        <time>2021-06-03T14:01:07.103Z</time>
      </trkpt>
      <trkpt lat="48.69553" lon="-3.85013">
        <ele>8</ele>
        <time>2021-06-03T14:01:12.102Z</time>
      </trkpt>
      <trkpt lat="48.69555" lon="-3.85006">
        <ele>8</ele>
        <time>2021-06-03T14:01:16.098Z</time>
      </trkpt>
      <trkpt lat="48.69559" lon="-3.85002">
        <ele>8</ele>
        <time>2021-06-03T14:01:21.110Z</time>
      </trkpt>
      <trkpt lat="48.6956" lon="-3.84999">
        <ele>8</ele>
        <time>2021-06-03T14:01:34.094Z</time>
      </trkpt>
      <trkpt lat="48.69556" lon="-3.85">
        <ele>8</ele>
        <time>2021-06-03T14:01:39.108Z</time>
      </trkpt>
      <trkpt lat="48.69553" lon="-3.84996">
        <ele>8</ele>
        <time>2021-06-03T14:01:44.112Z</time>
      </trkpt>
      <trkpt lat="48.69552" lon="-3.84991">
        <ele>8</ele>
        <time>2021-06-03T14:01:49.103Z</time>
      </trkpt>
      <trkpt lat="48.69551" lon="-3.84987">
        <ele>8</ele>
        <time>2021-06-03T14:01:54.100Z</time>
      </trkpt>
      <trkpt lat="48.69551" lon="-3.84984">
        <ele>8</ele>
        <time>2021-06-03T14:01:58.103Z</time>
      </trkpt>
      <trkpt lat="48.69549" lon="-3.84979">
        <ele>8</ele>
        <time>2021-06-03T14:02:03.105Z</time>
      </trkpt>
      <trkpt lat="48.69549" lon="-3.84971">
        <ele>8</ele>
        <time>2021-06-03T14:02:08.106Z</time>
      </trkpt>
      <trkpt lat="48.69546" lon="-3.84967">
        <ele>8</ele>
        <time>2021-06-03T14:02:13.086Z</time>
      </trkpt>
      <trkpt lat="48.69544" lon="-3.84961">
        <ele>8</ele>
        <time>2021-06-03T14:02:18.089Z</time>
      </trkpt>
      <trkpt lat="48.69541" lon="-3.84955">
        <ele>15</ele>
        <time>2021-06-03T14:02:22.097Z</time>
      </trkpt>
      <trkpt lat="48.69538" lon="-3.84949">
        <ele>15</ele>
        <time>2021-06-03T14:02:26.104Z</time>
      </trkpt>
      <trkpt lat="48.69535" lon="-3.8494">
        <ele>15</ele>
        <time>2021-06-03T14:02:31.098Z</time>
      </trkpt>
      <trkpt lat="48.69533" lon="-3.84932">
        <ele>15</ele>
        <time>2021-06-03T14:02:35.108Z</time>
      </trkpt>
      <trkpt lat="48.6953" lon="-3.84921">
        <ele>14</ele>
        <time>2021-06-03T14:02:40.094Z</time>
      </trkpt>
      <trkpt lat="48.69529" lon="-3.84913">
        <ele>14</ele>
        <time>2021-06-03T14:02:45.100Z</time>
      </trkpt>
      <trkpt lat="48.69529" lon="-3.84903">
        <ele>14</ele>
        <time>2021-06-03T14:02:50.097Z</time>
      </trkpt>
      <trkpt lat="48.69529" lon="-3.84896">
        <ele>14</ele>
        <time>2021-06-03T14:02:54.105Z</time>
      </trkpt>
      <trkpt lat="48.69528" lon="-3.84888">
        <ele>14</ele>
        <time>2021-06-03T14:02:59.100Z</time>
      </trkpt>
      <trkpt lat="48.69526" lon="-3.84881">
        <ele>14</ele>
        <time>2021-06-03T14:03:04.108Z</time>
      </trkpt>
      <trkpt lat="48.69526" lon="-3.84873">
        <ele>15</ele>
        <time>2021-06-03T14:03:09.096Z</time>
      </trkpt>
      <trkpt lat="48.69527" lon="-3.84871">
        <ele>15</ele>
        <time>2021-06-03T14:03:14.093Z</time>
      </trkpt>
      <trkpt lat="48.69526" lon="-3.84869">
        <ele>15</ele>
        <time>2021-06-03T14:03:19.103Z</time>
      </trkpt>
      <trkpt lat="48.69528" lon="-3.8486">
        <ele>15</ele>
        <time>2021-06-03T14:03:24.093Z</time>
      </trkpt>
      <trkpt lat="48.69531" lon="-3.84851">
        <ele>15</ele>
        <time>2021-06-03T14:03:29.093Z</time>
      </trkpt>
      <trkpt lat="48.69536" lon="-3.84845">
        <ele>20</ele>
        <time>2021-06-03T14:03:34.104Z</time>
      </trkpt>
      <trkpt lat="48.69542" lon="-3.84839">
        <ele>20</ele>
        <time>2021-06-03T14:03:39.096Z</time>
      </trkpt>
      <trkpt lat="48.69544" lon="-3.84829">
        <ele>13</ele>
        <time>2021-06-03T14:03:44.100Z</time>
      </trkpt>
      <trkpt lat="48.69545" lon="-3.84822">
        <ele>13</ele>
        <time>2021-06-03T14:03:48.105Z</time>
      </trkpt>
      <trkpt lat="48.69549" lon="-3.84815">
        <ele>18</ele>
        <time>2021-06-03T14:03:53.107Z</time>
      </trkpt>
      <trkpt lat="48.69555" lon="-3.84815">
        <ele>18</ele>
        <time>2021-06-03T14:03:58.112Z</time>
      </trkpt>
      <trkpt lat="48.69562" lon="-3.84813">
        <ele>18</ele>
        <time>2021-06-03T14:04:03.113Z</time>
      </trkpt>
      <trkpt lat="48.69564" lon="-3.84809">
        <ele>18</ele>
        <time>2021-06-03T14:04:07.100Z</time>
      </trkpt>
      <trkpt lat="48.69567" lon="-3.84802">
        <ele>18</ele>
        <time>2021-06-03T14:04:12.108Z</time>
      </trkpt>
      <trkpt lat="48.69569" lon="-3.84793">
        <ele>18</ele>
        <time>2021-06-03T14:04:17.095Z</time>
      </trkpt>
      <trkpt lat="48.69572" lon="-3.84787">
        <ele>13</ele>
        <time>2021-06-03T14:04:22.104Z</time>
      </trkpt>
      <trkpt lat="48.69574" lon="-3.84779">
        <ele>13</ele>
        <time>2021-06-03T14:04:27.116Z</time>
      </trkpt>
      <trkpt lat="48.69578" lon="-3.84773">
        <ele>13</ele>
        <time>2021-06-03T14:04:32.106Z</time>
      </trkpt>
      <trkpt lat="48.69581" lon="-3.84768">
        <ele>13</ele>
        <time>2021-06-03T14:04:37.093Z</time>
      </trkpt>
      <trkpt lat="48.69582" lon="-3.84764">
        <ele>13</ele>
        <time>2021-06-03T14:04:41.105Z</time>
      </trkpt>
      <trkpt lat="48.69581" lon="-3.84757">
        <ele>15</ele>
        <time>2021-06-03T14:04:46.086Z</time>
      </trkpt>
      <trkpt lat="48.69581" lon="-3.84755">
        <ele>15</ele>
        <time>2021-06-03T14:04:50.101Z</time>
      </trkpt>
      <trkpt lat="48.69582" lon="-3.8475">
        <ele>15</ele>
        <time>2021-06-03T14:04:55.115Z</time>
      </trkpt>
      <trkpt lat="48.69579" lon="-3.84745">
        <ele>15</ele>
        <time>2021-06-03T14:05:00.094Z</time>
      </trkpt>
      <trkpt lat="48.69577" lon="-3.84741">
        <ele>15</ele>
        <time>2021-06-03T14:05:04.100Z</time>
      </trkpt>
      <trkpt lat="48.69574" lon="-3.84737">
        <ele>15</ele>
        <time>2021-06-03T14:05:09.102Z</time>
      </trkpt>
      <trkpt lat="48.69575" lon="-3.84731">
        <ele>19</ele>
        <time>2021-06-03T14:05:13.099Z</time>
      </trkpt>
      <trkpt lat="48.69576" lon="-3.84724">
        <ele>19</ele>
        <time>2021-06-03T14:05:18.093Z</time>
      </trkpt>
      <trkpt lat="48.69577" lon="-3.8472">
        <ele>19</ele>
        <time>2021-06-03T14:05:23.095Z</time>
      </trkpt>
      <trkpt lat="48.69577" lon="-3.84714">
        <ele>19</ele>
        <time>2021-06-03T14:05:27.099Z</time>
      </trkpt>
      <trkpt lat="48.6958" lon="-3.84705">
        <ele>25</ele>
        <time>2021-06-03T14:05:32.104Z</time>
      </trkpt>
      <trkpt lat="48.69583" lon="-3.84697">
        <ele>25</ele>
        <time>2021-06-03T14:05:37.095Z</time>
      </trkpt>
      <trkpt lat="48.69587" lon="-3.84691">
        <ele>25</ele>
        <time>2021-06-03T14:05:42.091Z</time>
      </trkpt>
      <trkpt lat="48.6959" lon="-3.84686">
        <ele>25</ele>
        <time>2021-06-03T14:05:46.101Z</time>
      </trkpt>
      <trkpt lat="48.69593" lon="-3.84682">
        <ele>25</ele>
        <time>2021-06-03T14:05:50.095Z</time>
      </trkpt>
      <trkpt lat="48.69597" lon="-3.84677">
        <ele>28</ele>
        <time>2021-06-03T14:05:55.107Z</time>
      </trkpt>
      <trkpt lat="48.69601" lon="-3.84675">
        <ele>20</ele>
        <time>2021-06-03T14:05:59.116Z</time>
      </trkpt>
      <trkpt lat="48.69604" lon="-3.8467">
        <ele>20</ele>
        <time>2021-06-03T14:06:04.108Z</time>
      </trkpt>
      <trkpt lat="48.69608" lon="-3.84669">
        <ele>20</ele>
        <time>2021-06-03T14:06:09.089Z</time>
      </trkpt>
      <trkpt lat="48.69611" lon="-3.84668">
        <ele>20</ele>
        <time>2021-06-03T14:06:13.102Z</time>
      </trkpt>
      <trkpt lat="48.69616" lon="-3.8467">
        <ele>20</ele>
        <time>2021-06-03T14:06:18.088Z</time>
      </trkpt>
      <trkpt lat="48.69618" lon="-3.84665">
        <ele>20</ele>
        <time>2021-06-03T14:08:43.111Z</time>
      </trkpt>
      <trkpt lat="48.69621" lon="-3.84664">
        <ele>20</ele>
        <time>2021-06-03T14:08:48.100Z</time>
      </trkpt>
      <trkpt lat="48.69626" lon="-3.84659">
        <ele>8</ele>
        <time>2021-06-03T14:08:52.113Z</time>
      </trkpt>
      <trkpt lat="48.69633" lon="-3.84652">
        <ele>11</ele>
        <time>2021-06-03T14:08:57.110Z</time>
      </trkpt>
      <trkpt lat="48.69633" lon="-3.84647">
        <ele>11</ele>
        <time>2021-06-03T14:09:02.113Z</time>
      </trkpt>
      <trkpt lat="48.69635" lon="-3.84628">
        <ele>11</ele>
        <time>2021-06-03T14:09:43.090Z</time>
      </trkpt>
      <trkpt lat="48.69637" lon="-3.84626">
        <ele>11</ele>
        <time>2021-06-03T14:09:47.110Z</time>
      </trkpt>
      <trkpt lat="48.6964" lon="-3.84621">
        <ele>13</ele>
        <time>2021-06-03T14:09:52.095Z</time>
      </trkpt>
      <trkpt lat="48.6964" lon="-3.84616">
        <ele>13</ele>
        <time>2021-06-03T14:09:57.105Z</time>
      </trkpt>
      <trkpt lat="48.69641" lon="-3.84611">
        <ele>13</ele>
        <time>2021-06-03T14:10:01.110Z</time>
      </trkpt>
      <trkpt lat="48.69643" lon="-3.84603">
        <ele>13</ele>
        <time>2021-06-03T14:10:06.105Z</time>
      </trkpt>
      <trkpt lat="48.69642" lon="-3.84594">
        <ele>10</ele>
        <time>2021-06-03T14:10:11.109Z</time>
      </trkpt>
      <trkpt lat="48.69638" lon="-3.84587">
        <ele>10</ele>
        <time>2021-06-03T14:10:15.117Z</time>
      </trkpt>
      <trkpt lat="48.69637" lon="-3.84578">
        <ele>10</ele>
        <time>2021-06-03T14:10:20.091Z</time>
      </trkpt>
      <trkpt lat="48.69636" lon="-3.84569">
        <ele>7</ele>
        <time>2021-06-03T14:10:29.105Z</time>
      </trkpt>
      <trkpt lat="48.69637" lon="-3.84567">
        <ele>7</ele>
        <time>2021-06-03T14:10:33.109Z</time>
      </trkpt>
      <trkpt lat="48.69638" lon="-3.84565">
        <ele>7</ele>
        <time>2021-06-03T14:10:38.114Z</time>
      </trkpt>
      <trkpt lat="48.69638" lon="-3.84562">
        <ele>7</ele>
        <time>2021-06-03T14:10:42.142Z</time>
      </trkpt>
      <trkpt lat="48.69636" lon="-3.84556">
        <ele>7</ele>
        <time>2021-06-03T14:10:47.097Z</time>
      </trkpt>
      <trkpt lat="48.69634" lon="-3.84551">
        <ele>7</ele>
        <time>2021-06-03T14:10:51.102Z</time>
      </trkpt>
      <trkpt lat="48.69631" lon="-3.84544">
        <ele>7</ele>
        <time>2021-06-03T14:10:56.092Z</time>
      </trkpt>
      <trkpt lat="48.69627" lon="-3.84538">
        <ele>5</ele>
        <time>2021-06-03T14:11:01.104Z</time>
      </trkpt>
      <trkpt lat="48.69622" lon="-3.84536">
        <ele>14</ele>
        <time>2021-06-03T14:11:06.095Z</time>
      </trkpt>
      <trkpt lat="48.69619" lon="-3.84533">
        <ele>14</ele>
        <time>2021-06-03T14:11:42.108Z</time>
      </trkpt>
      <trkpt lat="48.69619" lon="-3.84532">
        <ele>14</ele>
        <time>2021-06-03T14:11:46.110Z</time>
      </trkpt>
      <trkpt lat="48.69617" lon="-3.84529">
        <ele>14</ele>
        <time>2021-06-03T14:11:51.095Z</time>
      </trkpt>
      <trkpt lat="48.69615" lon="-3.84526">
        <ele>14</ele>
        <time>2021-06-03T14:11:55.105Z</time>
      </trkpt>
      <trkpt lat="48.69613" lon="-3.84523">
        <ele>14</ele>
        <time>2021-06-03T14:12:00.108Z</time>
      </trkpt>
      <trkpt lat="48.69609" lon="-3.84515">
        <ele>14</ele>
        <time>2021-06-03T14:12:19.097Z</time>
      </trkpt>
      <trkpt lat="48.69607" lon="-3.84511">
        <ele>9</ele>
        <time>2021-06-03T14:12:24.112Z</time>
      </trkpt>
      <trkpt lat="48.69605" lon="-3.84506">
        <ele>9</ele>
        <time>2021-06-03T14:12:29.102Z</time>
      </trkpt>
      <trkpt lat="48.69602" lon="-3.84501">
        <ele>9</ele>
        <time>2021-06-03T14:12:34.108Z</time>
      </trkpt>
      <trkpt lat="48.69599" lon="-3.84498">
        <ele>9</ele>
        <time>2021-06-03T14:12:39.098Z</time>
      </trkpt>
      <trkpt lat="48.69593" lon="-3.84493">
        <ele>17</ele>
        <time>2021-06-03T14:13:07.117Z</time>
      </trkpt>
      <trkpt lat="48.69589" lon="-3.84489">
        <ele>17</ele>
        <time>2021-06-03T14:13:12.099Z</time>
      </trkpt>
      <trkpt lat="48.69584" lon="-3.84485">
        <ele>12</ele>
        <time>2021-06-03T14:13:16.094Z</time>
      </trkpt>
      <trkpt lat="48.69581" lon="-3.84478">
        <ele>12</ele>
        <time>2021-06-03T14:13:21.094Z</time>
      </trkpt>
      <trkpt lat="48.69578" lon="-3.84474">
        <ele>12</ele>
        <time>2021-06-03T14:13:25.112Z</time>
      </trkpt>
      <trkpt lat="48.69573" lon="-3.84469">
        <ele>12</ele>
        <time>2021-06-03T14:13:30.093Z</time>
      </trkpt>
      <trkpt lat="48.69572" lon="-3.84463">
        <ele>12</ele>
        <time>2021-06-03T14:13:34.108Z</time>
      </trkpt>
      <trkpt lat="48.69573" lon="-3.84456">
        <ele>5</ele>
        <time>2021-06-03T14:13:39.106Z</time>
      </trkpt>
      <trkpt lat="48.69568" lon="-3.84451">
        <ele>11</ele>
        <time>2021-06-03T14:13:44.102Z</time>
      </trkpt>
      <trkpt lat="48.69564" lon="-3.84447">
        <ele>11</ele>
        <time>2021-06-03T14:13:48.113Z</time>
      </trkpt>
      <trkpt lat="48.69559" lon="-3.84441">
        <ele>11</ele>
        <time>2021-06-03T14:13:53.106Z</time>
      </trkpt>
      <trkpt lat="48.69555" lon="-3.84435">
        <ele>11</ele>
        <time>2021-06-03T14:13:58.104Z</time>
      </trkpt>
      <trkpt lat="48.69549" lon="-3.84429">
        <ele>4</ele>
        <time>2021-06-03T14:14:03.110Z</time>
      </trkpt>
      <trkpt lat="48.69543" lon="-3.84427">
        <ele>4</ele>
        <time>2021-06-03T14:14:08.099Z</time>
      </trkpt>
      <trkpt lat="48.6954" lon="-3.84423">
        <ele>14</ele>
        <time>2021-06-03T14:14:12.108Z</time>
      </trkpt>
      <trkpt lat="48.6954" lon="-3.84412">
        <ele>14</ele>
        <time>2021-06-03T14:14:17.101Z</time>
      </trkpt>
      <trkpt lat="48.69538" lon="-3.84403">
        <ele>14</ele>
        <time>2021-06-03T14:14:22.102Z</time>
      </trkpt>
      <trkpt lat="48.69536" lon="-3.84393">
        <ele>9</ele>
        <time>2021-06-03T14:14:27.108Z</time>
      </trkpt>
      <trkpt lat="48.69535" lon="-3.84382">
        <ele>9</ele>
        <time>2021-06-03T14:14:32.106Z</time>
      </trkpt>
      <trkpt lat="48.69535" lon="-3.84374">
        <ele>7</ele>
        <time>2021-06-03T14:14:36.103Z</time>
      </trkpt>
      <trkpt lat="48.69535" lon="-3.84365">
        <ele>7</ele>
        <time>2021-06-03T14:14:41.106Z</time>
      </trkpt>
      <trkpt lat="48.69534" lon="-3.84355">
        <ele>7</ele>
        <time>2021-06-03T14:14:46.107Z</time>
      </trkpt>
      <trkpt lat="48.69532" lon="-3.84348">
        <ele>7</ele>
        <time>2021-06-03T14:14:50.101Z</time>
      </trkpt>
      <trkpt lat="48.69531" lon="-3.8434">
        <ele>6</ele>
        <time>2021-06-03T14:14:55.114Z</time>
      </trkpt>
      <trkpt lat="48.69528" lon="-3.8433">
        <ele>6</ele>
        <time>2021-06-03T14:15:00.102Z</time>
      </trkpt>
      <trkpt lat="48.69527" lon="-3.84323">
        <ele>6</ele>
        <time>2021-06-03T14:15:04.112Z</time>
      </trkpt>
      <trkpt lat="48.69529" lon="-3.84316">
        <ele>6</ele>
        <time>2021-06-03T14:15:09.115Z</time>
      </trkpt>
      <trkpt lat="48.69529" lon="-3.84308">
        <ele>6</ele>
        <time>2021-06-03T14:15:14.111Z</time>
      </trkpt>
      <trkpt lat="48.6953" lon="-3.84302">
        <ele>6</ele>
        <time>2021-06-03T14:15:18.115Z</time>
      </trkpt>
      <trkpt lat="48.69532" lon="-3.84295">
        <ele>6</ele>
        <time>2021-06-03T14:15:23.102Z</time>
      </trkpt>
      <trkpt lat="48.69534" lon="-3.8429">
        <ele>7</ele>
        <time>2021-06-03T14:15:27.114Z</time>
      </trkpt>
      <trkpt lat="48.69536" lon="-3.84282">
        <ele>7</ele>
        <time>2021-06-03T14:15:32.102Z</time>
      </trkpt>
      <trkpt lat="48.69535" lon="-3.84276">
        <ele>7</ele>
        <time>2021-06-03T14:15:37.118Z</time>
      </trkpt>
      <trkpt lat="48.69536" lon="-3.84276">
        <ele>7</ele>
        <time>2021-06-03T14:15:46.091Z</time>
      </trkpt>
      <trkpt lat="48.69536" lon="-3.84275">
        <ele>7</ele>
        <time>2021-06-03T14:15:51.105Z</time>
      </trkpt>
      <trkpt lat="48.69538" lon="-3.84273">
        <ele>7</ele>
        <time>2021-06-03T14:15:56.093Z</time>
      </trkpt>
      <trkpt lat="48.6954" lon="-3.84268">
        <ele>7</ele>
        <time>2021-06-03T14:16:01.104Z</time>
      </trkpt>
      <trkpt lat="48.69542" lon="-3.84264">
        <ele>5</ele>
        <time>2021-06-03T14:16:05.102Z</time>
      </trkpt>
      <trkpt lat="48.69546" lon="-3.84258">
        <ele>5</ele>
        <time>2021-06-03T14:16:10.116Z</time>
      </trkpt>
      <trkpt lat="48.69549" lon="-3.84252">
        <ele>5</ele>
        <time>2021-06-03T14:16:15.097Z</time>
      </trkpt>
      <trkpt lat="48.69548" lon="-3.84249">
        <ele>5</ele>
        <time>2021-06-03T14:16:19.103Z</time>
      </trkpt>
      <trkpt lat="48.69549" lon="-3.84246">
        <ele>5</ele>
        <time>2021-06-03T14:16:24.110Z</time>
      </trkpt>
      <trkpt lat="48.6955" lon="-3.84242">
        <ele>5</ele>
        <time>2021-06-03T14:16:29.091Z</time>
      </trkpt>
      <trkpt lat="48.6955" lon="-3.84238">
        <ele>5</ele>
        <time>2021-06-03T14:16:38.113Z</time>
      </trkpt>
      <trkpt lat="48.69551" lon="-3.84235">
        <ele>5</ele>
        <time>2021-06-03T14:16:43.105Z</time>
      </trkpt>
      <trkpt lat="48.69551" lon="-3.84234">
        <ele>5</ele>
        <time>2021-06-03T14:16:47.100Z</time>
      </trkpt>
      <trkpt lat="48.69553" lon="-3.84232">
        <ele>5</ele>
        <time>2021-06-03T14:16:51.116Z</time>
      </trkpt>
      <trkpt lat="48.69554" lon="-3.84227">
        <ele>5</ele>
        <time>2021-06-03T14:16:56.100Z</time>
      </trkpt>
      <trkpt lat="48.69556" lon="-3.84222">
        <ele>5</ele>
        <time>2021-06-03T14:17:01.095Z</time>
      </trkpt>
      <trkpt lat="48.69559" lon="-3.84215">
        <ele>5</ele>
        <time>2021-06-03T14:17:05.117Z</time>
      </trkpt>
      <trkpt lat="48.69562" lon="-3.8421">
        <ele>5</ele>
        <time>2021-06-03T14:17:10.107Z</time>
      </trkpt>
      <trkpt lat="48.69565" lon="-3.84206">
        <ele>5</ele>
        <time>2021-06-03T14:17:15.103Z</time>
      </trkpt>
      <trkpt lat="48.69568" lon="-3.84201">
        <ele>5</ele>
        <time>2021-06-03T14:17:20.089Z</time>
      </trkpt>
      <trkpt lat="48.6957" lon="-3.84197">
        <ele>3</ele>
        <time>2021-06-03T14:17:24.098Z</time>
      </trkpt>
      <trkpt lat="48.69572" lon="-3.84192">
        <ele>3</ele>
        <time>2021-06-03T14:17:28.102Z</time>
      </trkpt>
      <trkpt lat="48.69573" lon="-3.84186">
        <ele>3</ele>
        <time>2021-06-03T14:17:33.112Z</time>
      </trkpt>
      <trkpt lat="48.69578" lon="-3.84187">
        <ele>3</ele>
        <time>2021-06-03T14:20:40.095Z</time>
      </trkpt>
      <trkpt lat="48.69579" lon="-3.84187">
        <ele>3</ele>
        <time>2021-06-03T14:20:45.107Z</time>
      </trkpt>
      <trkpt lat="48.69581" lon="-3.84179">
        <ele>5</ele>
        <time>2021-06-03T14:20:50.110Z</time>
      </trkpt>
      <trkpt lat="48.69584" lon="-3.84171">
        <ele>5</ele>
        <time>2021-06-03T14:20:55.095Z</time>
      </trkpt>
      <trkpt lat="48.69587" lon="-3.84164">
        <ele>5</ele>
        <time>2021-06-03T14:21:00.101Z</time>
      </trkpt>
      <trkpt lat="48.69589" lon="-3.84156">
        <ele>5</ele>
        <time>2021-06-03T14:21:05.099Z</time>
      </trkpt>
      <trkpt lat="48.69591" lon="-3.84147">
        <ele>6</ele>
        <time>2021-06-03T14:21:10.088Z</time>
      </trkpt>
      <trkpt lat="48.69595" lon="-3.84139">
        <ele>6</ele>
        <time>2021-06-03T14:21:15.097Z</time>
      </trkpt>
      <trkpt lat="48.69598" lon="-3.84134">
        <ele>6</ele>
        <time>2021-06-03T14:21:19.091Z</time>
      </trkpt>
      <trkpt lat="48.696" lon="-3.84126">
        <ele>6</ele>
        <time>2021-06-03T14:21:24.094Z</time>
      </trkpt>
      <trkpt lat="48.69604" lon="-3.84121">
        <ele>7</ele>
        <time>2021-06-03T14:21:29.091Z</time>
      </trkpt>
      <trkpt lat="48.69608" lon="-3.84115">
        <ele>7</ele>
        <time>2021-06-03T14:21:34.094Z</time>
      </trkpt>
      <trkpt lat="48.69612" lon="-3.84111">
        <ele>7</ele>
        <time>2021-06-03T14:21:38.102Z</time>
      </trkpt>
      <trkpt lat="48.69617" lon="-3.84103">
        <ele>7</ele>
        <time>2021-06-03T14:21:43.090Z</time>
      </trkpt>
      <trkpt lat="48.69622" lon="-3.84096">
        <ele>7</ele>
        <time>2021-06-03T14:21:48.096Z</time>
      </trkpt>
      <trkpt lat="48.69626" lon="-3.84092">
        <ele>6</ele>
        <time>2021-06-03T14:21:52.098Z</time>
      </trkpt>
      <trkpt lat="48.69631" lon="-3.84086">
        <ele>6</ele>
        <time>2021-06-03T14:21:57.090Z</time>
      </trkpt>
      <trkpt lat="48.69635" lon="-3.84081">
        <ele>6</ele>
        <time>2021-06-03T14:22:01.097Z</time>
      </trkpt>
      <trkpt lat="48.69639" lon="-3.84075">
        <ele>6</ele>
        <time>2021-06-03T14:22:06.101Z</time>
      </trkpt>
      <trkpt lat="48.69643" lon="-3.84066">
        <ele>6</ele>
        <time>2021-06-03T14:22:11.097Z</time>
      </trkpt>
      <trkpt lat="48.69647" lon="-3.84058">
        <ele>6</ele>
        <time>2021-06-03T14:22:16.101Z</time>
      </trkpt>
      <trkpt lat="48.69652" lon="-3.84052">
        <ele>6</ele>
        <time>2021-06-03T14:22:21.105Z</time>
      </trkpt>
      <trkpt lat="48.69655" lon="-3.84045">
        <ele>4</ele>
        <time>2021-06-03T14:22:26.094Z</time>
      </trkpt>
      <trkpt lat="48.69657" lon="-3.84038">
        <ele>5</ele>
        <time>2021-06-03T14:22:30.108Z</time>
      </trkpt>
      <trkpt lat="48.69662" lon="-3.84033">
        <ele>5</ele>
        <time>2021-06-03T14:22:35.100Z</time>
      </trkpt>
      <trkpt lat="48.69667" lon="-3.84029">
        <ele>5</ele>
        <time>2021-06-03T14:22:40.101Z</time>
      </trkpt>
      <trkpt lat="48.69673" lon="-3.84026">
        <ele>5</ele>
        <time>2021-06-03T14:22:45.110Z</time>
      </trkpt>
      <trkpt lat="48.69678" lon="-3.8402">
        <ele>5</ele>
        <time>2021-06-03T14:22:50.103Z</time>
      </trkpt>
      <trkpt lat="48.69682" lon="-3.84013">
        <ele>5</ele>
        <time>2021-06-03T14:22:55.104Z</time>
      </trkpt>
      <trkpt lat="48.69687" lon="-3.84007">
        <ele>5</ele>
        <time>2021-06-03T14:23:00.113Z</time>
      </trkpt>
      <trkpt lat="48.69692" lon="-3.84002">
        <ele>5</ele>
        <time>2021-06-03T14:23:05.097Z</time>
      </trkpt>
      <trkpt lat="48.69696" lon="-3.83999">
        <ele>5</ele>
        <time>2021-06-03T14:23:09.109Z</time>
      </trkpt>
      <trkpt lat="48.69702" lon="-3.83995">
        <ele>5</ele>
        <time>2021-06-03T14:23:14.101Z</time>
      </trkpt>
      <trkpt lat="48.69706" lon="-3.83991">
        <ele>5</ele>
        <time>2021-06-03T14:23:18.116Z</time>
      </trkpt>
      <trkpt lat="48.69711" lon="-3.83987">
        <ele>4</ele>
        <time>2021-06-03T14:23:22.120Z</time>
      </trkpt>
      <trkpt lat="48.69716" lon="-3.83982">
        <ele>6</ele>
        <time>2021-06-03T14:23:27.112Z</time>
      </trkpt>
      <trkpt lat="48.69722" lon="-3.83977">
        <ele>6</ele>
        <time>2021-06-03T14:23:32.117Z</time>
      </trkpt>
      <trkpt lat="48.69728" lon="-3.83974">
        <ele>6</ele>
        <time>2021-06-03T14:23:37.102Z</time>
      </trkpt>
      <trkpt lat="48.69733" lon="-3.8397">
        <ele>6</ele>
        <time>2021-06-03T14:23:42.109Z</time>
      </trkpt>
      <trkpt lat="48.69738" lon="-3.83966">
        <ele>7</ele>
        <time>2021-06-03T14:23:47.111Z</time>
      </trkpt>
      <trkpt lat="48.69743" lon="-3.83962">
        <ele>7</ele>
        <time>2021-06-03T14:23:52.113Z</time>
      </trkpt>
      <trkpt lat="48.69745" lon="-3.83954">
        <ele>10</ele>
        <time>2021-06-03T14:23:57.101Z</time>
      </trkpt>
      <trkpt lat="48.69749" lon="-3.8395">
        <ele>10</ele>
        <time>2021-06-03T14:24:02.109Z</time>
      </trkpt>
      <trkpt lat="48.69754" lon="-3.83948">
        <ele>10</ele>
        <time>2021-06-03T14:24:07.103Z</time>
      </trkpt>
      <trkpt lat="48.69759" lon="-3.83948">
        <ele>10</ele>
        <time>2021-06-03T14:24:12.105Z</time>
      </trkpt>
      <trkpt lat="48.69765" lon="-3.83948">
        <ele>11</ele>
        <time>2021-06-03T14:24:17.100Z</time>
      </trkpt>
      <trkpt lat="48.6977" lon="-3.83945">
        <ele>11</ele>
        <time>2021-06-03T14:24:22.100Z</time>
      </trkpt>
      <trkpt lat="48.69774" lon="-3.83944">
        <ele>11</ele>
        <time>2021-06-03T14:24:27.101Z</time>
      </trkpt>
      <trkpt lat="48.69778" lon="-3.83947">
        <ele>11</ele>
        <time>2021-06-03T14:24:32.110Z</time>
      </trkpt>
      <trkpt lat="48.69782" lon="-3.83945">
        <ele>11</ele>
        <time>2021-06-03T14:24:37.103Z</time>
      </trkpt>
      <trkpt lat="48.69787" lon="-3.83946">
        <ele>11</ele>
        <time>2021-06-03T14:24:42.119Z</time>
      </trkpt>
      <trkpt lat="48.69792" lon="-3.83951">
        <ele>11</ele>
        <time>2021-06-03T14:24:47.114Z</time>
      </trkpt>
      <trkpt lat="48.69796" lon="-3.83956">
        <ele>13</ele>
        <time>2021-06-03T14:24:52.101Z</time>
      </trkpt>
      <trkpt lat="48.69798" lon="-3.83963">
        <ele>8</ele>
        <time>2021-06-03T14:24:57.110Z</time>
      </trkpt>
      <trkpt lat="48.69801" lon="-3.83971">
        <ele>8</ele>
        <time>2021-06-03T14:25:02.110Z</time>
      </trkpt>
      <trkpt lat="48.69805" lon="-3.83976">
        <ele>8</ele>
        <time>2021-06-03T14:25:07.109Z</time>
      </trkpt>
      <trkpt lat="48.6981" lon="-3.83981">
        <ele>8</ele>
        <time>2021-06-03T14:25:12.099Z</time>
      </trkpt>
      <trkpt lat="48.69814" lon="-3.83984">
        <ele>8</ele>
        <time>2021-06-03T14:25:16.110Z</time>
      </trkpt>
      <trkpt lat="48.69818" lon="-3.83989">
        <ele>5</ele>
        <time>2021-06-03T14:25:21.107Z</time>
      </trkpt>
      <trkpt lat="48.69824" lon="-3.83989">
        <ele>7</ele>
        <time>2021-06-03T14:25:26.101Z</time>
      </trkpt>
      <trkpt lat="48.69828" lon="-3.83994">
        <ele>7</ele>
        <time>2021-06-03T14:25:31.111Z</time>
      </trkpt>
      <trkpt lat="48.69831" lon="-3.84">
        <ele>7</ele>
        <time>2021-06-03T14:25:35.125Z</time>
      </trkpt>
      <trkpt lat="48.69835" lon="-3.84006">
        <ele>7</ele>
        <time>2021-06-03T14:25:40.106Z</time>
      </trkpt>
      <trkpt lat="48.69841" lon="-3.84007">
        <ele>7</ele>
        <time>2021-06-03T14:25:45.112Z</time>
      </trkpt>
      <trkpt lat="48.69847" lon="-3.84005">
        <ele>7</ele>
        <time>2021-06-03T14:25:50.113Z</time>
      </trkpt>
      <trkpt lat="48.69852" lon="-3.84004">
        <ele>11</ele>
        <time>2021-06-03T14:25:55.125Z</time>
      </trkpt>
      <trkpt lat="48.69858" lon="-3.84004">
        <ele>11</ele>
        <time>2021-06-03T14:26:00.100Z</time>
      </trkpt>
      <trkpt lat="48.69862" lon="-3.84005">
        <ele>11</ele>
        <time>2021-06-03T14:26:04.111Z</time>
      </trkpt>
      <trkpt lat="48.69868" lon="-3.84008">
        <ele>11</ele>
        <time>2021-06-03T14:26:09.098Z</time>
      </trkpt>
      <trkpt lat="48.69873" lon="-3.84008">
        <ele>11</ele>
        <time>2021-06-03T14:26:13.101Z</time>
      </trkpt>
      <trkpt lat="48.69878" lon="-3.84007">
        <ele>14</ele>
        <time>2021-06-03T14:26:17.098Z</time>
      </trkpt>
      <trkpt lat="48.69884" lon="-3.84005">
        <ele>14</ele>
        <time>2021-06-03T14:26:22.095Z</time>
      </trkpt>
      <trkpt lat="48.6989" lon="-3.84005">
        <ele>14</ele>
        <time>2021-06-03T14:26:27.101Z</time>
      </trkpt>
      <trkpt lat="48.69897" lon="-3.84002">
        <ele>14</ele>
        <time>2021-06-03T14:26:32.100Z</time>
      </trkpt>
      <trkpt lat="48.69901" lon="-3.83997">
        <ele>14</ele>
        <time>2021-06-03T14:26:37.115Z</time>
      </trkpt>
      <trkpt lat="48.699" lon="-3.83989">
        <ele>14</ele>
        <time>2021-06-03T14:26:42.112Z</time>
      </trkpt>
      <trkpt lat="48.69903" lon="-3.83973">
        <ele>21</ele>
        <time>2021-06-03T14:26:47.115Z</time>
      </trkpt>
      <trkpt lat="48.69912" lon="-3.83977">
        <ele>21</ele>
        <time>2021-06-03T14:26:52.102Z</time>
      </trkpt>
      <trkpt lat="48.69917" lon="-3.8398">
        <ele>21</ele>
        <time>2021-06-03T14:26:56.109Z</time>
      </trkpt>
      <trkpt lat="48.69922" lon="-3.83983">
        <ele>21</ele>
        <time>2021-06-03T14:27:01.123Z</time>
      </trkpt>
      <trkpt lat="48.69926" lon="-3.8398">
        <ele>21</ele>
        <time>2021-06-03T14:27:06.112Z</time>
      </trkpt>
      <trkpt lat="48.69932" lon="-3.8398">
        <ele>18</ele>
        <time>2021-06-03T14:27:11.108Z</time>
      </trkpt>
      <trkpt lat="48.69938" lon="-3.8398">
        <ele>18</ele>
        <time>2021-06-03T14:27:16.104Z</time>
      </trkpt>
      <trkpt lat="48.69942" lon="-3.8398">
        <ele>18</ele>
        <time>2021-06-03T14:27:20.112Z</time>
      </trkpt>
      <trkpt lat="48.69948" lon="-3.83982">
        <ele>18</ele>
        <time>2021-06-03T14:27:25.115Z</time>
      </trkpt>
      <trkpt lat="48.69954" lon="-3.83985">
        <ele>18</ele>
        <time>2021-06-03T14:27:30.112Z</time>
      </trkpt>
      <trkpt lat="48.69959" lon="-3.83984">
        <ele>19</ele>
        <time>2021-06-03T14:27:34.117Z</time>
      </trkpt>
      <trkpt lat="48.69964" lon="-3.83983">
        <ele>19</ele>
        <time>2021-06-03T14:27:39.111Z</time>
      </trkpt>
      <trkpt lat="48.69971" lon="-3.83981">
        <ele>19</ele>
        <time>2021-06-03T14:27:44.110Z</time>
      </trkpt>
      <trkpt lat="48.69976" lon="-3.8398">
        <ele>19</ele>
        <time>2021-06-03T14:27:49.106Z</time>
      </trkpt>
      <trkpt lat="48.69982" lon="-3.8398">
        <ele>19</ele>
        <time>2021-06-03T14:27:54.113Z</time>
      </trkpt>
      <trkpt lat="48.69987" lon="-3.83979">
        <ele>17</ele>
        <time>2021-06-03T14:27:59.110Z</time>
      </trkpt>
      <trkpt lat="48.69993" lon="-3.8398">
        <ele>17</ele>
        <time>2021-06-03T14:28:04.114Z</time>
      </trkpt>
      <trkpt lat="48.7" lon="-3.83978">
        <ele>17</ele>
        <time>2021-06-03T14:28:09.106Z</time>
      </trkpt>
      <trkpt lat="48.70005" lon="-3.83978">
        <ele>17</ele>
        <time>2021-06-03T14:28:13.112Z</time>
      </trkpt>
      <trkpt lat="48.70011" lon="-3.83977">
        <ele>17</ele>
        <time>2021-06-03T14:28:18.105Z</time>
      </trkpt>
      <trkpt lat="48.70016" lon="-3.83973">
        <ele>12</ele>
        <time>2021-06-03T14:28:23.112Z</time>
      </trkpt>
      <trkpt lat="48.70021" lon="-3.83976">
        <ele>12</ele>
        <time>2021-06-03T14:28:28.106Z</time>
      </trkpt>
      <trkpt lat="48.70026" lon="-3.83979">
        <ele>12</ele>
        <time>2021-06-03T14:28:33.113Z</time>
      </trkpt>
      <trkpt lat="48.70032" lon="-3.83978">
        <ele>12</ele>
        <time>2021-06-03T14:28:38.104Z</time>
      </trkpt>
      <trkpt lat="48.70037" lon="-3.83979">
        <ele>12</ele>
        <time>2021-06-03T14:28:42.113Z</time>
      </trkpt>
      <trkpt lat="48.70042" lon="-3.83978">
        <ele>10</ele>
        <time>2021-06-03T14:28:47.114Z</time>
      </trkpt>
      <trkpt lat="48.70048" lon="-3.83975">
        <ele>10</ele>
        <time>2021-06-03T14:28:52.104Z</time>
      </trkpt>
      <trkpt lat="48.70053" lon="-3.8397">
        <ele>10</ele>
        <time>2021-06-03T14:28:57.108Z</time>
      </trkpt>
      <trkpt lat="48.70058" lon="-3.83969">
        <ele>10</ele>
        <time>2021-06-03T14:29:02.094Z</time>
      </trkpt>
      <trkpt lat="48.70062" lon="-3.83975">
        <ele>10</ele>
        <time>2021-06-03T14:29:07.104Z</time>
      </trkpt>
      <trkpt lat="48.70061" lon="-3.83976">
        <ele>10</ele>
        <time>2021-06-03T14:29:12.109Z</time>
      </trkpt>
      <trkpt lat="48.70062" lon="-3.83969">
        <ele>10</ele>
        <time>2021-06-03T14:29:17.115Z</time>
      </trkpt>
      <trkpt lat="48.70065" lon="-3.83968">
        <ele>10</ele>
        <time>2021-06-03T14:29:21.099Z</time>
      </trkpt>
      <trkpt lat="48.7007" lon="-3.83968">
        <ele>9</ele>
        <time>2021-06-03T14:29:26.100Z</time>
      </trkpt>
      <trkpt lat="48.70075" lon="-3.83969">
        <ele>9</ele>
        <time>2021-06-03T14:29:31.099Z</time>
      </trkpt>
      <trkpt lat="48.70081" lon="-3.8397">
        <ele>9</ele>
        <time>2021-06-03T14:29:36.117Z</time>
      </trkpt>
      <trkpt lat="48.70087" lon="-3.83973">
        <ele>9</ele>
        <time>2021-06-03T14:29:41.119Z</time>
      </trkpt>
      <trkpt lat="48.70092" lon="-3.83976">
        <ele>9</ele>
        <time>2021-06-03T14:29:46.114Z</time>
      </trkpt>
      <trkpt lat="48.70097" lon="-3.83979">
        <ele>9</ele>
        <time>2021-06-03T14:29:51.109Z</time>
      </trkpt>
      <trkpt lat="48.70101" lon="-3.83982">
        <ele>9</ele>
        <time>2021-06-03T14:29:55.123Z</time>
      </trkpt>
      <trkpt lat="48.70105" lon="-3.83986">
        <ele>4</ele>
        <time>2021-06-03T14:30:00.099Z</time>
      </trkpt>
      <trkpt lat="48.70111" lon="-3.83988">
        <ele>4</ele>
        <time>2021-06-03T14:30:05.103Z</time>
      </trkpt>
      <trkpt lat="48.70116" lon="-3.83987">
        <ele>4</ele>
        <time>2021-06-03T14:30:09.113Z</time>
      </trkpt>
      <trkpt lat="48.70121" lon="-3.83983">
        <ele>9</ele>
        <time>2021-06-03T14:30:14.111Z</time>
      </trkpt>
      <trkpt lat="48.70126" lon="-3.83981">
        <ele>11</ele>
        <time>2021-06-03T14:30:18.121Z</time>
      </trkpt>
      <trkpt lat="48.70132" lon="-3.8398">
        <ele>11</ele>
        <time>2021-06-03T14:30:23.109Z</time>
      </trkpt>
      <trkpt lat="48.70137" lon="-3.83981">
        <ele>11</ele>
        <time>2021-06-03T14:30:27.121Z</time>
      </trkpt>
      <trkpt lat="48.70142" lon="-3.8398">
        <ele>11</ele>
        <time>2021-06-03T14:30:32.114Z</time>
      </trkpt>
      <trkpt lat="48.70148" lon="-3.83979">
        <ele>11</ele>
        <time>2021-06-03T14:30:37.118Z</time>
      </trkpt>
      <trkpt lat="48.70152" lon="-3.83977">
        <ele>11</ele>
        <time>2021-06-03T14:30:41.109Z</time>
      </trkpt>
      <trkpt lat="48.70158" lon="-3.83974">
        <ele>11</ele>
        <time>2021-06-03T14:30:46.112Z</time>
      </trkpt>
      <trkpt lat="48.70161" lon="-3.83971">
        <ele>11</ele>
        <time>2021-06-03T14:30:50.125Z</time>
      </trkpt>
      <trkpt lat="48.70165" lon="-3.83968">
        <ele>11</ele>
        <time>2021-06-03T14:30:55.106Z</time>
      </trkpt>
      <trkpt lat="48.70167" lon="-3.83968">
        <ele>11</ele>
        <time>2021-06-03T14:30:59.115Z</time>
      </trkpt>
      <trkpt lat="48.70168" lon="-3.83969">
        <ele>11</ele>
        <time>2021-06-03T14:32:28.101Z</time>
      </trkpt>
      <trkpt lat="48.70171" lon="-3.83969">
        <ele>11</ele>
        <time>2021-06-03T14:32:32.107Z</time>
      </trkpt>
      <trkpt lat="48.70177" lon="-3.83968">
        <ele>11</ele>
        <time>2021-06-03T14:32:37.106Z</time>
      </trkpt>
      <trkpt lat="48.70181" lon="-3.8397">
        <ele>11</ele>
        <time>2021-06-03T14:32:41.114Z</time>
      </trkpt>
      <trkpt lat="48.70186" lon="-3.83973">
        <ele>11</ele>
        <time>2021-06-03T14:32:46.110Z</time>
      </trkpt>
      <trkpt lat="48.70192" lon="-3.83975">
        <ele>11</ele>
        <time>2021-06-03T14:32:51.106Z</time>
      </trkpt>
      <trkpt lat="48.70195" lon="-3.83978">
        <ele>11</ele>
        <time>2021-06-03T14:32:55.245Z</time>
      </trkpt>
      <trkpt lat="48.70199" lon="-3.8398">
        <ele>11</ele>
        <time>2021-06-03T14:33:00.111Z</time>
      </trkpt>
      <trkpt lat="48.70202" lon="-3.83982">
        <ele>11</ele>
        <time>2021-06-03T14:33:05.124Z</time>
      </trkpt>
      <trkpt lat="48.70207" lon="-3.83987">
        <ele>7</ele>
        <time>2021-06-03T14:33:10.099Z</time>
      </trkpt>
      <trkpt lat="48.70212" lon="-3.83991">
        <ele>9</ele>
        <time>2021-06-03T14:33:15.108Z</time>
      </trkpt>
      <trkpt lat="48.70216" lon="-3.83997">
        <ele>9</ele>
        <time>2021-06-03T14:33:20.099Z</time>
      </trkpt>
      <trkpt lat="48.70222" lon="-3.84001">
        <ele>9</ele>
        <time>2021-06-03T14:33:25.110Z</time>
      </trkpt>
      <trkpt lat="48.70227" lon="-3.84004">
        <ele>9</ele>
        <time>2021-06-03T14:33:30.103Z</time>
      </trkpt>
      <trkpt lat="48.70231" lon="-3.84004">
        <ele>9</ele>
        <time>2021-06-03T14:33:34.112Z</time>
      </trkpt>
      <trkpt lat="48.70236" lon="-3.84003">
        <ele>13</ele>
        <time>2021-06-03T14:33:39.111Z</time>
      </trkpt>
      <trkpt lat="48.70241" lon="-3.84001">
        <ele>13</ele>
        <time>2021-06-03T14:33:43.114Z</time>
      </trkpt>
      <trkpt lat="48.70245" lon="-3.84">
        <ele>13</ele>
        <time>2021-06-03T14:33:47.126Z</time>
      </trkpt>
      <trkpt lat="48.70248" lon="-3.83996">
        <ele>13</ele>
        <time>2021-06-03T14:33:52.110Z</time>
      </trkpt>
      <trkpt lat="48.70253" lon="-3.83993">
        <ele>13</ele>
        <time>2021-06-03T14:33:57.096Z</time>
      </trkpt>
      <trkpt lat="48.70258" lon="-3.83992">
        <ele>13</ele>
        <time>2021-06-03T14:34:02.115Z</time>
      </trkpt>
      <trkpt lat="48.70264" lon="-3.83994">
        <ele>13</ele>
        <time>2021-06-03T14:34:07.111Z</time>
      </trkpt>
      <trkpt lat="48.70269" lon="-3.83997">
        <ele>15</ele>
        <time>2021-06-03T14:34:12.102Z</time>
      </trkpt>
      <trkpt lat="48.7027" lon="-3.84003">
        <ele>15</ele>
        <time>2021-06-03T14:34:17.106Z</time>
      </trkpt>
      <trkpt lat="48.70275" lon="-3.84003">
        <ele>15</ele>
        <time>2021-06-03T14:34:22.096Z</time>
      </trkpt>
      <trkpt lat="48.70276" lon="-3.84004">
        <ele>15</ele>
        <time>2021-06-03T14:34:26.118Z</time>
      </trkpt>
      <trkpt lat="48.70277" lon="-3.84003">
        <ele>15</ele>
        <time>2021-06-03T14:34:31.092Z</time>
      </trkpt>
      <trkpt lat="48.70282" lon="-3.84007">
        <ele>15</ele>
        <time>2021-06-03T14:34:36.096Z</time>
      </trkpt>
      <trkpt lat="48.70287" lon="-3.84011">
        <ele>15</ele>
        <time>2021-06-03T14:34:41.096Z</time>
      </trkpt>
      <trkpt lat="48.70291" lon="-3.84013">
        <ele>15</ele>
        <time>2021-06-03T14:34:45.106Z</time>
      </trkpt>
      <trkpt lat="48.70295" lon="-3.84017">
        <ele>12</ele>
        <time>2021-06-03T14:34:50.122Z</time>
      </trkpt>
      <trkpt lat="48.703" lon="-3.8402">
        <ele>12</ele>
        <time>2021-06-03T14:34:55.095Z</time>
      </trkpt>
      <trkpt lat="48.70306" lon="-3.84024">
        <ele>12</ele>
        <time>2021-06-03T14:35:00.097Z</time>
      </trkpt>
      <trkpt lat="48.70311" lon="-3.84025">
        <ele>12</ele>
        <time>2021-06-03T14:35:04.104Z</time>
      </trkpt>
      <trkpt lat="48.70315" lon="-3.84025">
        <ele>12</ele>
        <time>2021-06-03T14:35:08.092Z</time>
      </trkpt>
      <trkpt lat="48.70318" lon="-3.84028">
        <ele>12</ele>
        <time>2021-06-03T14:35:12.119Z</time>
      </trkpt>
      <trkpt lat="48.70323" lon="-3.84028">
        <ele>15</ele>
        <time>2021-06-03T14:35:17.098Z</time>
      </trkpt>
      <trkpt lat="48.70327" lon="-3.84031">
        <ele>15</ele>
        <time>2021-06-03T14:35:21.112Z</time>
      </trkpt>
      <trkpt lat="48.70332" lon="-3.84034">
        <ele>15</ele>
        <time>2021-06-03T14:35:26.103Z</time>
      </trkpt>
      <trkpt lat="48.70336" lon="-3.84035">
        <ele>15</ele>
        <time>2021-06-03T14:35:31.100Z</time>
      </trkpt>
      <trkpt lat="48.7034" lon="-3.84036">
        <ele>15</ele>
        <time>2021-06-03T14:35:35.115Z</time>
      </trkpt>
      <trkpt lat="48.70348" lon="-3.84035">
        <ele>16</ele>
        <time>2021-06-03T14:35:40.103Z</time>
      </trkpt>
      <trkpt lat="48.70355" lon="-3.84038">
        <ele>16</ele>
        <time>2021-06-03T14:35:45.112Z</time>
      </trkpt>
      <trkpt lat="48.7036" lon="-3.84038">
        <ele>16</ele>
        <time>2021-06-03T14:35:50.116Z</time>
      </trkpt>
      <trkpt lat="48.70362" lon="-3.84036">
        <ele>16</ele>
        <time>2021-06-03T14:35:55.114Z</time>
      </trkpt>
      <trkpt lat="48.70366" lon="-3.84037">
        <ele>16</ele>
        <time>2021-06-03T14:36:00.109Z</time>
      </trkpt>
      <trkpt lat="48.70372" lon="-3.84033">
        <ele>16</ele>
        <time>2021-06-03T14:36:05.122Z</time>
      </trkpt>
      <trkpt lat="48.70377" lon="-3.84042">
        <ele>9</ele>
        <time>2021-06-03T14:36:10.096Z</time>
      </trkpt>
      <trkpt lat="48.70381" lon="-3.84044">
        <ele>9</ele>
        <time>2021-06-03T14:36:14.098Z</time>
      </trkpt>
      <trkpt lat="48.70385" lon="-3.84045">
        <ele>9</ele>
        <time>2021-06-03T14:36:18.119Z</time>
      </trkpt>
      <trkpt lat="48.70391" lon="-3.84047">
        <ele>9</ele>
        <time>2021-06-03T14:36:23.112Z</time>
      </trkpt>
      <trkpt lat="48.70397" lon="-3.84049">
        <ele>9</ele>
        <time>2021-06-03T14:36:28.116Z</time>
      </trkpt>
      <trkpt lat="48.70404" lon="-3.84051">
        <ele>10</ele>
        <time>2021-06-03T14:36:33.110Z</time>
      </trkpt>
      <trkpt lat="48.7041" lon="-3.84052">
        <ele>10</ele>
        <time>2021-06-03T14:36:38.121Z</time>
      </trkpt>
      <trkpt lat="48.70417" lon="-3.84054">
        <ele>10</ele>
        <time>2021-06-03T14:36:43.108Z</time>
      </trkpt>
      <trkpt lat="48.70422" lon="-3.84055">
        <ele>10</ele>
        <time>2021-06-03T14:36:47.113Z</time>
      </trkpt>
      <trkpt lat="48.70427" lon="-3.84056">
        <ele>10</ele>
        <time>2021-06-03T14:36:51.120Z</time>
      </trkpt>
      <trkpt lat="48.70433" lon="-3.84056">
        <ele>11</ele>
        <time>2021-06-03T14:36:56.114Z</time>
      </trkpt>
      <trkpt lat="48.70438" lon="-3.84059">
        <ele>11</ele>
        <time>2021-06-03T14:37:01.116Z</time>
      </trkpt>
      <trkpt lat="48.70443" lon="-3.84062">
        <ele>11</ele>
        <time>2021-06-03T14:37:06.102Z</time>
      </trkpt>
      <trkpt lat="48.70447" lon="-3.84064">
        <ele>11</ele>
        <time>2021-06-03T14:37:10.120Z</time>
      </trkpt>
      <trkpt lat="48.70453" lon="-3.84067">
        <ele>11</ele>
        <time>2021-06-03T14:37:15.102Z</time>
      </trkpt>
      <trkpt lat="48.70457" lon="-3.84069">
        <ele>11</ele>
        <time>2021-06-03T14:37:19.125Z</time>
      </trkpt>
      <trkpt lat="48.70463" lon="-3.84072">
        <ele>9</ele>
        <time>2021-06-03T14:37:24.120Z</time>
      </trkpt>
      <trkpt lat="48.70468" lon="-3.84075">
        <ele>9</ele>
        <time>2021-06-03T14:37:29.109Z</time>
      </trkpt>
      <trkpt lat="48.70474" lon="-3.84077">
        <ele>9</ele>
        <time>2021-06-03T14:37:34.113Z</time>
      </trkpt>
      <trkpt lat="48.70478" lon="-3.8408">
        <ele>9</ele>
        <time>2021-06-03T14:37:39.108Z</time>
      </trkpt>
      <trkpt lat="48.70482" lon="-3.84083">
        <ele>9</ele>
        <time>2021-06-03T14:37:43.124Z</time>
      </trkpt>
      <trkpt lat="48.70487" lon="-3.84086">
        <ele>12</ele>
        <time>2021-06-03T14:37:48.121Z</time>
      </trkpt>
      <trkpt lat="48.70492" lon="-3.84089">
        <ele>12</ele>
        <time>2021-06-03T14:37:53.126Z</time>
      </trkpt>
      <trkpt lat="48.70497" lon="-3.84092">
        <ele>12</ele>
        <time>2021-06-03T14:37:58.130Z</time>
      </trkpt>
      <trkpt lat="48.70502" lon="-3.84095">
        <ele>12</ele>
        <time>2021-06-03T14:38:03.112Z</time>
      </trkpt>
      <trkpt lat="48.70506" lon="-3.841">
        <ele>8</ele>
        <time>2021-06-03T14:38:08.120Z</time>
      </trkpt>
      <trkpt lat="48.7051" lon="-3.84106">
        <ele>8</ele>
        <time>2021-06-03T14:38:13.105Z</time>
      </trkpt>
      <trkpt lat="48.70514" lon="-3.84111">
        <ele>12</ele>
        <time>2021-06-03T14:38:18.109Z</time>
      </trkpt>
      <trkpt lat="48.70518" lon="-3.84115">
        <ele>12</ele>
        <time>2021-06-03T14:38:23.100Z</time>
      </trkpt>
      <trkpt lat="48.70522" lon="-3.84118">
        <ele>12</ele>
        <time>2021-06-03T14:38:27.094Z</time>
      </trkpt>
      <trkpt lat="48.70524" lon="-3.84128">
        <ele>9</ele>
        <time>2021-06-03T14:38:45.096Z</time>
      </trkpt>
      <trkpt lat="48.70524" lon="-3.84129">
        <ele>9</ele>
        <time>2021-06-03T14:38:49.109Z</time>
      </trkpt>
      <trkpt lat="48.70527" lon="-3.84128">
        <ele>9</ele>
        <time>2021-06-03T14:38:53.117Z</time>
      </trkpt>
      <trkpt lat="48.70529" lon="-3.84121">
        <ele>12</ele>
        <time>2021-06-03T14:38:58.107Z</time>
      </trkpt>
      <trkpt lat="48.70528" lon="-3.84115">
        <ele>12</ele>
        <time>2021-06-03T14:39:03.108Z</time>
      </trkpt>
      <trkpt lat="48.7053" lon="-3.8411">
        <ele>12</ele>
        <time>2021-06-03T14:39:08.106Z</time>
      </trkpt>
      <trkpt lat="48.70531" lon="-3.84107">
        <ele>12</ele>
        <time>2021-06-03T14:39:13.113Z</time>
      </trkpt>
      <trkpt lat="48.7053" lon="-3.84103">
        <ele>12</ele>
        <time>2021-06-03T14:39:18.104Z</time>
      </trkpt>
      <trkpt lat="48.70531" lon="-3.841">
        <ele>12</ele>
        <time>2021-06-03T14:39:23.114Z</time>
      </trkpt>
      <trkpt lat="48.70531" lon="-3.84096">
        <ele>16</ele>
        <time>2021-06-03T14:39:27.121Z</time>
      </trkpt>
      <trkpt lat="48.70535" lon="-3.8409">
        <ele>16</ele>
        <time>2021-06-03T14:39:32.113Z</time>
      </trkpt>
      <trkpt lat="48.70538" lon="-3.84086">
        <ele>16</ele>
        <time>2021-06-03T14:39:37.104Z</time>
      </trkpt>
      <trkpt lat="48.7054" lon="-3.84081">
        <ele>16</ele>
        <time>2021-06-03T14:39:42.103Z</time>
      </trkpt>
      <trkpt lat="48.70543" lon="-3.84077">
        <ele>21</ele>
        <time>2021-06-03T14:39:46.114Z</time>
      </trkpt>
      <trkpt lat="48.70546" lon="-3.84073">
        <ele>21</ele>
        <time>2021-06-03T14:39:51.094Z</time>
      </trkpt>
      <trkpt lat="48.70549" lon="-3.84069">
        <ele>24</ele>
        <time>2021-06-03T14:39:55.112Z</time>
      </trkpt>
      <trkpt lat="48.70552" lon="-3.84065">
        <ele>24</ele>
        <time>2021-06-03T14:39:59.115Z</time>
      </trkpt>
      <trkpt lat="48.70557" lon="-3.84062">
        <ele>24</ele>
        <time>2021-06-03T14:40:04.104Z</time>
      </trkpt>
      <trkpt lat="48.7056" lon="-3.84059">
        <ele>24</ele>
        <time>2021-06-03T14:40:08.107Z</time>
      </trkpt>
      <trkpt lat="48.70564" lon="-3.8406">
        <ele>24</ele>
        <time>2021-06-03T14:40:12.128Z</time>
      </trkpt>
      <trkpt lat="48.70568" lon="-3.84067">
        <ele>24</ele>
        <time>2021-06-03T14:40:17.114Z</time>
      </trkpt>
      <trkpt lat="48.70568" lon="-3.84077">
        <ele>21</ele>
        <time>2021-06-03T14:40:22.122Z</time>
      </trkpt>
      <trkpt lat="48.70565" lon="-3.84084">
        <ele>21</ele>
        <time>2021-06-03T14:40:27.111Z</time>
      </trkpt>
      <trkpt lat="48.70562" lon="-3.84089">
        <ele>21</ele>
        <time>2021-06-03T14:40:31.116Z</time>
      </trkpt>
      <trkpt lat="48.70559" lon="-3.84095">
        <ele>21</ele>
        <time>2021-06-03T14:40:36.117Z</time>
      </trkpt>
      <trkpt lat="48.70558" lon="-3.84096">
        <ele>21</ele>
        <time>2021-06-03T14:40:41.098Z</time>
      </trkpt>
      <trkpt lat="48.70565" lon="-3.8409">
        <ele>21</ele>
        <time>2021-06-03T14:44:34.113Z</time>
      </trkpt>
      <trkpt lat="48.70565" lon="-3.84087">
        <ele>21</ele>
        <time>2021-06-03T14:44:38.105Z</time>
      </trkpt>
      <trkpt lat="48.70567" lon="-3.84083">
        <ele>21</ele>
        <time>2021-06-03T14:44:42.116Z</time>
      </trkpt>
      <trkpt lat="48.7057" lon="-3.84077">
        <ele>25</ele>
        <time>2021-06-03T14:44:47.103Z</time>
      </trkpt>
      <trkpt lat="48.7057" lon="-3.84071">
        <ele>25</ele>
        <time>2021-06-03T14:44:52.097Z</time>
      </trkpt>
      <trkpt lat="48.70568" lon="-3.84066">
        <ele>24</ele>
        <time>2021-06-03T14:44:56.103Z</time>
      </trkpt>
      <trkpt lat="48.70566" lon="-3.8406">
        <ele>24</ele>
        <time>2021-06-03T14:45:01.091Z</time>
      </trkpt>
      <trkpt lat="48.70563" lon="-3.84054">
        <ele>24</ele>
        <time>2021-06-03T14:45:05.103Z</time>
      </trkpt>
      <trkpt lat="48.7056" lon="-3.84048">
        <ele>24</ele>
        <time>2021-06-03T14:45:09.107Z</time>
      </trkpt>
      <trkpt lat="48.70555" lon="-3.84042">
        <ele>24</ele>
        <time>2021-06-03T14:45:14.097Z</time>
      </trkpt>
      <trkpt lat="48.70551" lon="-3.84038">
        <ele>25</ele>
        <time>2021-06-03T14:45:18.110Z</time>
      </trkpt>
      <trkpt lat="48.70547" lon="-3.84034">
        <ele>25</ele>
        <time>2021-06-03T14:45:23.129Z</time>
      </trkpt>
      <trkpt lat="48.70543" lon="-3.8403">
        <ele>25</ele>
        <time>2021-06-03T14:45:28.123Z</time>
      </trkpt>
      <trkpt lat="48.70538" lon="-3.84025">
        <ele>24</ele>
        <time>2021-06-03T14:45:33.096Z</time>
      </trkpt>
      <trkpt lat="48.70536" lon="-3.84018">
        <ele>24</ele>
        <time>2021-06-03T14:45:38.098Z</time>
      </trkpt>
      <trkpt lat="48.70534" lon="-3.84014">
        <ele>26</ele>
        <time>2021-06-03T14:45:42.099Z</time>
      </trkpt>
      <trkpt lat="48.70532" lon="-3.84009">
        <ele>26</ele>
        <time>2021-06-03T14:45:47.110Z</time>
      </trkpt>
      <trkpt lat="48.70529" lon="-3.84003">
        <ele>26</ele>
        <time>2021-06-03T14:45:52.097Z</time>
      </trkpt>
      <trkpt lat="48.70526" lon="-3.83998">
        <ele>26</ele>
        <time>2021-06-03T14:45:56.103Z</time>
      </trkpt>
      <trkpt lat="48.70522" lon="-3.83997">
        <ele>26</ele>
        <time>2021-06-03T14:46:01.091Z</time>
      </trkpt>
      <trkpt lat="48.7052" lon="-3.84">
        <ele>26</ele>
        <time>2021-06-03T14:46:05.113Z</time>
      </trkpt>
      <trkpt lat="48.70523" lon="-3.83998">
        <ele>26</ele>
        <time>2021-06-03T14:46:10.108Z</time>
      </trkpt>
      <trkpt lat="48.70519" lon="-3.83989">
        <ele>26</ele>
        <time>2021-06-03T14:46:15.104Z</time>
      </trkpt>
      <trkpt lat="48.70515" lon="-3.83983">
        <ele>29</ele>
        <time>2021-06-03T14:46:19.106Z</time>
      </trkpt>
      <trkpt lat="48.7051" lon="-3.83976">
        <ele>31</ele>
        <time>2021-06-03T14:46:24.100Z</time>
      </trkpt>
      <trkpt lat="48.70507" lon="-3.83968">
        <ele>31</ele>
        <time>2021-06-03T14:46:29.106Z</time>
      </trkpt>
      <trkpt lat="48.70503" lon="-3.8396">
        <ele>31</ele>
        <time>2021-06-03T14:46:34.103Z</time>
      </trkpt>
      <trkpt lat="48.705" lon="-3.83953">
        <ele>32</ele>
        <time>2021-06-03T14:46:39.097Z</time>
      </trkpt>
      <trkpt lat="48.70496" lon="-3.83948">
        <ele>32</ele>
        <time>2021-06-03T14:46:43.111Z</time>
      </trkpt>
      <trkpt lat="48.70493" lon="-3.83942">
        <ele>32</ele>
        <time>2021-06-03T14:46:48.098Z</time>
      </trkpt>
      <trkpt lat="48.70489" lon="-3.83935">
        <ele>32</ele>
        <time>2021-06-03T14:46:53.095Z</time>
      </trkpt>
      <trkpt lat="48.70487" lon="-3.8393">
        <ele>32</ele>
        <time>2021-06-03T14:46:57.108Z</time>
      </trkpt>
      <trkpt lat="48.70485" lon="-3.83925">
        <ele>34</ele>
        <time>2021-06-03T14:47:02.111Z</time>
      </trkpt>
      <trkpt lat="48.70482" lon="-3.83919">
        <ele>34</ele>
        <time>2021-06-03T14:47:06.112Z</time>
      </trkpt>
      <trkpt lat="48.7048" lon="-3.83912">
        <ele>34</ele>
        <time>2021-06-03T14:47:10.115Z</time>
      </trkpt>
      <trkpt lat="48.70483" lon="-3.83906">
        <ele>34</ele>
        <time>2021-06-03T14:47:15.108Z</time>
      </trkpt>
      <trkpt lat="48.70483" lon="-3.83903">
        <ele>34</ele>
        <time>2021-06-03T14:47:19.132Z</time>
      </trkpt>
      <trkpt lat="48.70479" lon="-3.839">
        <ele>34</ele>
        <time>2021-06-03T14:47:24.094Z</time>
      </trkpt>
      <trkpt lat="48.70475" lon="-3.83896">
        <ele>34</ele>
        <time>2021-06-03T14:47:28.114Z</time>
      </trkpt>
      <trkpt lat="48.70471" lon="-3.83891">
        <ele>34</ele>
        <time>2021-06-03T14:47:32.118Z</time>
      </trkpt>
      <trkpt lat="48.70466" lon="-3.83883">
        <ele>34</ele>
        <time>2021-06-03T14:47:37.095Z</time>
      </trkpt>
      <trkpt lat="48.70463" lon="-3.83878">
        <ele>34</ele>
        <time>2021-06-03T14:47:41.103Z</time>
      </trkpt>
      <trkpt lat="48.70457" lon="-3.83871">
        <ele>37</ele>
        <time>2021-06-03T14:47:46.100Z</time>
      </trkpt>
      <trkpt lat="48.70453" lon="-3.83865">
        <ele>37</ele>
        <time>2021-06-03T14:47:51.109Z</time>
      </trkpt>
      <trkpt lat="48.70449" lon="-3.83858">
        <ele>37</ele>
        <time>2021-06-03T14:47:56.114Z</time>
      </trkpt>
      <trkpt lat="48.70446" lon="-3.8385">
        <ele>37</ele>
        <time>2021-06-03T14:48:01.113Z</time>
      </trkpt>
      <trkpt lat="48.70443" lon="-3.83843">
        <ele>37</ele>
        <time>2021-06-03T14:48:06.116Z</time>
      </trkpt>
      <trkpt lat="48.7044" lon="-3.83835">
        <ele>37</ele>
        <time>2021-06-03T14:48:11.131Z</time>
      </trkpt>
      <trkpt lat="48.70435" lon="-3.83828">
        <ele>37</ele>
        <time>2021-06-03T14:48:16.115Z</time>
      </trkpt>
      <trkpt lat="48.70431" lon="-3.83821">
        <ele>37</ele>
        <time>2021-06-03T14:48:21.109Z</time>
      </trkpt>
      <trkpt lat="48.70427" lon="-3.83814">
        <ele>40</ele>
        <time>2021-06-03T14:48:26.111Z</time>
      </trkpt>
      <trkpt lat="48.70425" lon="-3.83808">
        <ele>40</ele>
        <time>2021-06-03T14:48:30.119Z</time>
      </trkpt>
      <trkpt lat="48.70424" lon="-3.83801">
        <ele>40</ele>
        <time>2021-06-03T14:48:35.109Z</time>
      </trkpt>
      <trkpt lat="48.70421" lon="-3.83795">
        <ele>40</ele>
        <time>2021-06-03T14:48:40.113Z</time>
      </trkpt>
      <trkpt lat="48.70417" lon="-3.83789">
        <ele>40</ele>
        <time>2021-06-03T14:48:45.115Z</time>
      </trkpt>
      <trkpt lat="48.70414" lon="-3.83782">
        <ele>40</ele>
        <time>2021-06-03T14:48:50.109Z</time>
      </trkpt>
      <trkpt lat="48.70411" lon="-3.83777">
        <ele>40</ele>
        <time>2021-06-03T14:48:54.120Z</time>
      </trkpt>
      <trkpt lat="48.70408" lon="-3.83769">
        <ele>40</ele>
        <time>2021-06-03T14:48:59.097Z</time>
      </trkpt>
      <trkpt lat="48.70406" lon="-3.83762">
        <ele>40</ele>
        <time>2021-06-03T14:49:03.112Z</time>
      </trkpt>
      <trkpt lat="48.70402" lon="-3.83755">
        <ele>43</ele>
        <time>2021-06-03T14:49:08.115Z</time>
      </trkpt>
      <trkpt lat="48.70398" lon="-3.83747">
        <ele>43</ele>
        <time>2021-06-03T14:49:13.104Z</time>
      </trkpt>
      <trkpt lat="48.70394" lon="-3.83739">
        <ele>43</ele>
        <time>2021-06-03T14:49:18.094Z</time>
      </trkpt>
      <trkpt lat="48.70391" lon="-3.83733">
        <ele>42</ele>
        <time>2021-06-03T14:49:22.110Z</time>
      </trkpt>
      <trkpt lat="48.70387" lon="-3.83726">
        <ele>42</ele>
        <time>2021-06-03T14:49:27.108Z</time>
      </trkpt>
      <trkpt lat="48.70384" lon="-3.83719">
        <ele>42</ele>
        <time>2021-06-03T14:49:32.107Z</time>
      </trkpt>
      <trkpt lat="48.70381" lon="-3.83712">
        <ele>42</ele>
        <time>2021-06-03T14:49:36.112Z</time>
      </trkpt>
      <trkpt lat="48.70378" lon="-3.83703">
        <ele>42</ele>
        <time>2021-06-03T14:49:41.109Z</time>
      </trkpt>
      <trkpt lat="48.70376" lon="-3.83696">
        <ele>42</ele>
        <time>2021-06-03T14:49:45.118Z</time>
      </trkpt>
      <trkpt lat="48.70374" lon="-3.83689">
        <ele>45</ele>
        <time>2021-06-03T14:49:50.098Z</time>
      </trkpt>
      <trkpt lat="48.70371" lon="-3.83683">
        <ele>45</ele>
        <time>2021-06-03T14:49:54.119Z</time>
      </trkpt>
      <trkpt lat="48.70367" lon="-3.83674">
        <ele>44</ele>
        <time>2021-06-03T14:49:59.112Z</time>
      </trkpt>
      <trkpt lat="48.70366" lon="-3.83665">
        <ele>44</ele>
        <time>2021-06-03T14:50:04.105Z</time>
      </trkpt>
      <trkpt lat="48.70366" lon="-3.83658">
        <ele>44</ele>
        <time>2021-06-03T14:50:08.104Z</time>
      </trkpt>
      <trkpt lat="48.70372" lon="-3.83648">
        <ele>43</ele>
        <time>2021-06-03T14:50:22.123Z</time>
      </trkpt>
      <trkpt lat="48.70373" lon="-3.83647">
        <ele>43</ele>
        <time>2021-06-03T14:50:27.104Z</time>
      </trkpt>
      <trkpt lat="48.70373" lon="-3.83646">
        <ele>43</ele>
        <time>2021-06-03T14:50:32.105Z</time>
      </trkpt>
      <trkpt lat="48.70375" lon="-3.83642">
        <ele>43</ele>
        <time>2021-06-03T14:50:36.113Z</time>
      </trkpt>
      <trkpt lat="48.70378" lon="-3.83637">
        <ele>41</ele>
        <time>2021-06-03T14:50:40.119Z</time>
      </trkpt>
      <trkpt lat="48.70381" lon="-3.83631">
        <ele>41</ele>
        <time>2021-06-03T14:50:45.108Z</time>
      </trkpt>
      <trkpt lat="48.70385" lon="-3.83626">
        <ele>41</ele>
        <time>2021-06-03T14:50:50.101Z</time>
      </trkpt>
      <trkpt lat="48.70387" lon="-3.83621">
        <ele>39</ele>
        <time>2021-06-03T14:50:54.104Z</time>
      </trkpt>
      <trkpt lat="48.7039" lon="-3.83614">
        <ele>39</ele>
        <time>2021-06-03T14:50:59.099Z</time>
      </trkpt>
      <trkpt lat="48.70391" lon="-3.83608">
        <ele>39</ele>
        <time>2021-06-03T14:51:03.115Z</time>
      </trkpt>
      <trkpt lat="48.70391" lon="-3.836">
        <ele>39</ele>
        <time>2021-06-03T14:51:08.088Z</time>
      </trkpt>
      <trkpt lat="48.70388" lon="-3.83595">
        <ele>36</ele>
        <time>2021-06-03T14:51:12.108Z</time>
      </trkpt>
      <trkpt lat="48.70385" lon="-3.83592">
        <ele>36</ele>
        <time>2021-06-03T14:51:16.111Z</time>
      </trkpt>
      <trkpt lat="48.70382" lon="-3.83588">
        <ele>36</ele>
        <time>2021-06-03T14:51:21.131Z</time>
      </trkpt>
      <trkpt lat="48.70379" lon="-3.83583">
        <ele>36</ele>
        <time>2021-06-03T14:51:26.103Z</time>
      </trkpt>
      <trkpt lat="48.70376" lon="-3.83578">
        <ele>36</ele>
        <time>2021-06-03T14:51:30.109Z</time>
      </trkpt>
      <trkpt lat="48.70373" lon="-3.83574">
        <ele>40</ele>
        <time>2021-06-03T14:51:35.111Z</time>
      </trkpt>
      <trkpt lat="48.7037" lon="-3.83569">
        <ele>39</ele>
        <time>2021-06-03T14:51:39.111Z</time>
      </trkpt>
      <trkpt lat="48.70366" lon="-3.83563">
        <ele>39</ele>
        <time>2021-06-03T14:51:44.108Z</time>
      </trkpt>
      <trkpt lat="48.70363" lon="-3.83557">
        <ele>39</ele>
        <time>2021-06-03T14:51:48.103Z</time>
      </trkpt>
      <trkpt lat="48.70361" lon="-3.83551">
        <ele>39</ele>
        <time>2021-06-03T14:51:52.107Z</time>
      </trkpt>
      <trkpt lat="48.70358" lon="-3.83542">
        <ele>38</ele>
        <time>2021-06-03T14:51:57.111Z</time>
      </trkpt>
      <trkpt lat="48.70355" lon="-3.83533">
        <ele>38</ele>
        <time>2021-06-03T14:52:02.108Z</time>
      </trkpt>
      <trkpt lat="48.70353" lon="-3.83526">
        <ele>38</ele>
        <time>2021-06-03T14:52:06.131Z</time>
      </trkpt>
      <trkpt lat="48.70349" lon="-3.83518">
        <ele>38</ele>
        <time>2021-06-03T14:52:11.116Z</time>
      </trkpt>
      <trkpt lat="48.70347" lon="-3.8351">
        <ele>39</ele>
        <time>2021-06-03T14:52:16.107Z</time>
      </trkpt>
      <trkpt lat="48.70345" lon="-3.83501">
        <ele>39</ele>
        <time>2021-06-03T14:52:21.105Z</time>
      </trkpt>
      <trkpt lat="48.70344" lon="-3.83492">
        <ele>39</ele>
        <time>2021-06-03T14:52:26.105Z</time>
      </trkpt>
      <trkpt lat="48.70344" lon="-3.83482">
        <ele>38</ele>
        <time>2021-06-03T14:52:31.128Z</time>
      </trkpt>
      <trkpt lat="48.70347" lon="-3.83473">
        <ele>38</ele>
        <time>2021-06-03T14:53:04.112Z</time>
      </trkpt>
      <trkpt lat="48.7034" lon="-3.83465">
        <ele>38</ele>
        <time>2021-06-03T14:53:09.087Z</time>
      </trkpt>
      <trkpt lat="48.70339" lon="-3.83458">
        <ele>37</ele>
        <time>2021-06-03T14:53:13.097Z</time>
      </trkpt>
      <trkpt lat="48.70337" lon="-3.83451">
        <ele>37</ele>
        <time>2021-06-03T14:53:17.105Z</time>
      </trkpt>
      <trkpt lat="48.70335" lon="-3.83443">
        <ele>37</ele>
        <time>2021-06-03T14:53:22.102Z</time>
      </trkpt>
      <trkpt lat="48.70333" lon="-3.83436">
        <ele>37</ele>
        <time>2021-06-03T14:53:26.112Z</time>
      </trkpt>
      <trkpt lat="48.7033" lon="-3.83429">
        <ele>36</ele>
        <time>2021-06-03T14:53:31.105Z</time>
      </trkpt>
      <trkpt lat="48.70326" lon="-3.8342">
        <ele>36</ele>
        <time>2021-06-03T14:53:36.114Z</time>
      </trkpt>
      <trkpt lat="48.70323" lon="-3.83412">
        <ele>36</ele>
        <time>2021-06-03T14:53:41.123Z</time>
      </trkpt>
      <trkpt lat="48.70319" lon="-3.83405">
        <ele>38</ele>
        <time>2021-06-03T14:53:46.103Z</time>
      </trkpt>
      <trkpt lat="48.70315" lon="-3.83401">
        <ele>37</ele>
        <time>2021-06-03T14:53:51.101Z</time>
      </trkpt>
      <trkpt lat="48.70314" lon="-3.83395">
        <ele>37</ele>
        <time>2021-06-03T14:53:55.108Z</time>
      </trkpt>
      <trkpt lat="48.70317" lon="-3.83388">
        <ele>37</ele>
        <time>2021-06-03T14:54:00.102Z</time>
      </trkpt>
      <trkpt lat="48.70321" lon="-3.83382">
        <ele>37</ele>
        <time>2021-06-03T14:54:05.106Z</time>
      </trkpt>
      <trkpt lat="48.70325" lon="-3.83378">
        <ele>37</ele>
        <time>2021-06-03T14:54:09.132Z</time>
      </trkpt>
      <trkpt lat="48.7033" lon="-3.83373">
        <ele>37</ele>
        <time>2021-06-03T14:54:14.112Z</time>
      </trkpt>
      <trkpt lat="48.70335" lon="-3.83367">
        <ele>37</ele>
        <time>2021-06-03T14:54:19.109Z</time>
      </trkpt>
      <trkpt lat="48.70335" lon="-3.83349">
        <ele>37</ele>
        <time>2021-06-03T14:54:46.116Z</time>
      </trkpt>
      <trkpt lat="48.70335" lon="-3.83344">
        <ele>36</ele>
        <time>2021-06-03T14:54:51.110Z</time>
      </trkpt>
      <trkpt lat="48.70336" lon="-3.83336">
        <ele>36</ele>
        <time>2021-06-03T14:54:56.120Z</time>
      </trkpt>
      <trkpt lat="48.70336" lon="-3.83327">
        <ele>36</ele>
        <time>2021-06-03T14:55:01.117Z</time>
      </trkpt>
      <trkpt lat="48.70337" lon="-3.83319">
        <ele>36</ele>
        <time>2021-06-03T14:55:06.108Z</time>
      </trkpt>
      <trkpt lat="48.70338" lon="-3.8331">
        <ele>36</ele>
        <time>2021-06-03T14:55:11.120Z</time>
      </trkpt>
      <trkpt lat="48.70339" lon="-3.83302">
        <ele>36</ele>
        <time>2021-06-03T14:55:16.121Z</time>
      </trkpt>
      <trkpt lat="48.70341" lon="-3.83293">
        <ele>36</ele>
        <time>2021-06-03T14:55:21.113Z</time>
      </trkpt>
      <trkpt lat="48.70342" lon="-3.83283">
        <ele>35</ele>
        <time>2021-06-03T14:55:26.115Z</time>
      </trkpt>
      <trkpt lat="48.70344" lon="-3.83275">
        <ele>35</ele>
        <time>2021-06-03T14:55:31.117Z</time>
      </trkpt>
      <trkpt lat="48.70347" lon="-3.83265">
        <ele>35</ele>
        <time>2021-06-03T14:55:36.115Z</time>
      </trkpt>
      <trkpt lat="48.70349" lon="-3.83257">
        <ele>36</ele>
        <time>2021-06-03T14:55:41.116Z</time>
      </trkpt>
      <trkpt lat="48.70351" lon="-3.83247">
        <ele>36</ele>
        <time>2021-06-03T14:55:46.108Z</time>
      </trkpt>
      <trkpt lat="48.70353" lon="-3.83241">
        <ele>36</ele>
        <time>2021-06-03T14:55:50.109Z</time>
      </trkpt>
      <trkpt lat="48.70355" lon="-3.83235">
        <ele>36</ele>
        <time>2021-06-03T14:55:54.117Z</time>
      </trkpt>
      <trkpt lat="48.7036" lon="-3.83228">
        <ele>36</ele>
        <time>2021-06-03T14:55:59.111Z</time>
      </trkpt>
      <trkpt lat="48.70365" lon="-3.83222">
        <ele>36</ele>
        <time>2021-06-03T14:56:04.115Z</time>
      </trkpt>
      <trkpt lat="48.70368" lon="-3.83216">
        <ele>36</ele>
        <time>2021-06-03T14:56:08.132Z</time>
      </trkpt>
      <trkpt lat="48.70372" lon="-3.83208">
        <ele>36</ele>
        <time>2021-06-03T14:56:13.117Z</time>
      </trkpt>
      <trkpt lat="48.70375" lon="-3.83201">
        <ele>36</ele>
        <time>2021-06-03T14:56:18.105Z</time>
      </trkpt>
      <trkpt lat="48.70379" lon="-3.83193">
        <ele>36</ele>
        <time>2021-06-03T14:56:23.115Z</time>
      </trkpt>
      <trkpt lat="48.70384" lon="-3.83187">
        <ele>36</ele>
        <time>2021-06-03T14:56:28.119Z</time>
      </trkpt>
      <trkpt lat="48.70389" lon="-3.83181">
        <ele>36</ele>
        <time>2021-06-03T14:56:33.120Z</time>
      </trkpt>
      <trkpt lat="48.70394" lon="-3.83176">
        <ele>34</ele>
        <time>2021-06-03T14:56:38.126Z</time>
      </trkpt>
      <trkpt lat="48.70399" lon="-3.83171">
        <ele>34</ele>
        <time>2021-06-03T14:56:43.115Z</time>
      </trkpt>
      <trkpt lat="48.70405" lon="-3.83165">
        <ele>35</ele>
        <time>2021-06-03T14:56:48.109Z</time>
      </trkpt>
      <trkpt lat="48.7041" lon="-3.83161">
        <ele>35</ele>
        <time>2021-06-03T14:56:53.103Z</time>
      </trkpt>
      <trkpt lat="48.70416" lon="-3.83156">
        <ele>35</ele>
        <time>2021-06-03T14:56:58.105Z</time>
      </trkpt>
      <trkpt lat="48.70421" lon="-3.8315">
        <ele>33</ele>
        <time>2021-06-03T14:57:03.113Z</time>
      </trkpt>
      <trkpt lat="48.70426" lon="-3.83145">
        <ele>33</ele>
        <time>2021-06-03T14:57:08.120Z</time>
      </trkpt>
      <trkpt lat="48.70431" lon="-3.8314">
        <ele>34</ele>
        <time>2021-06-03T14:57:13.105Z</time>
      </trkpt>
      <trkpt lat="48.70436" lon="-3.83134">
        <ele>34</ele>
        <time>2021-06-03T14:57:18.110Z</time>
      </trkpt>
      <trkpt lat="48.70441" lon="-3.83128">
        <ele>34</ele>
        <time>2021-06-03T14:57:23.122Z</time>
      </trkpt>
      <trkpt lat="48.70446" lon="-3.83121">
        <ele>31</ele>
        <time>2021-06-03T14:57:28.105Z</time>
      </trkpt>
      <trkpt lat="48.7045" lon="-3.83116">
        <ele>31</ele>
        <time>2021-06-03T14:57:32.107Z</time>
      </trkpt>
      <trkpt lat="48.70453" lon="-3.83111">
        <ele>31</ele>
        <time>2021-06-03T14:57:36.122Z</time>
      </trkpt>
      <trkpt lat="48.70459" lon="-3.83105">
        <ele>31</ele>
        <time>2021-06-03T14:57:41.111Z</time>
      </trkpt>
      <trkpt lat="48.70464" lon="-3.831">
        <ele>31</ele>
        <time>2021-06-03T14:57:46.120Z</time>
      </trkpt>
      <trkpt lat="48.7047" lon="-3.83098">
        <ele>31</ele>
        <time>2021-06-03T14:57:51.126Z</time>
      </trkpt>
      <trkpt lat="48.70476" lon="-3.83098">
        <ele>31</ele>
        <time>2021-06-03T14:57:56.132Z</time>
      </trkpt>
      <trkpt lat="48.70481" lon="-3.83099">
        <ele>31</ele>
        <time>2021-06-03T14:58:01.112Z</time>
      </trkpt>
      <trkpt lat="48.70488" lon="-3.831">
        <ele>31</ele>
        <time>2021-06-03T14:58:06.112Z</time>
      </trkpt>
      <trkpt lat="48.70494" lon="-3.83099">
        <ele>31</ele>
        <time>2021-06-03T14:58:11.106Z</time>
      </trkpt>
      <trkpt lat="48.70501" lon="-3.831">
        <ele>31</ele>
        <time>2021-06-03T14:58:16.112Z</time>
      </trkpt>
      <trkpt lat="48.70508" lon="-3.83099">
        <ele>31</ele>
        <time>2021-06-03T14:58:21.104Z</time>
      </trkpt>
      <trkpt lat="48.70513" lon="-3.83099">
        <ele>31</ele>
        <time>2021-06-03T14:58:25.116Z</time>
      </trkpt>
      <trkpt lat="48.70519" lon="-3.831">
        <ele>30</ele>
        <time>2021-06-03T14:58:30.101Z</time>
      </trkpt>
      <trkpt lat="48.70525" lon="-3.831">
        <ele>30</ele>
        <time>2021-06-03T14:58:34.103Z</time>
      </trkpt>
      <trkpt lat="48.70531" lon="-3.83098">
        <ele>30</ele>
        <time>2021-06-03T14:58:39.118Z</time>
      </trkpt>
      <trkpt lat="48.70537" lon="-3.83095">
        <ele>29</ele>
        <time>2021-06-03T14:58:44.106Z</time>
      </trkpt>
      <trkpt lat="48.70543" lon="-3.83092">
        <ele>25</ele>
        <time>2021-06-03T14:58:49.112Z</time>
      </trkpt>
      <trkpt lat="48.70548" lon="-3.8309">
        <ele>25</ele>
        <time>2021-06-03T14:58:53.110Z</time>
      </trkpt>
      <trkpt lat="48.70554" lon="-3.83086">
        <ele>25</ele>
        <time>2021-06-03T14:58:58.115Z</time>
      </trkpt>
      <trkpt lat="48.7056" lon="-3.83084">
        <ele>25</ele>
        <time>2021-06-03T14:59:03.097Z</time>
      </trkpt>
      <trkpt lat="48.70565" lon="-3.83087">
        <ele>25</ele>
        <time>2021-06-03T14:59:07.100Z</time>
      </trkpt>
      <trkpt lat="48.70568" lon="-3.83094">
        <ele>25</ele>
        <time>2021-06-03T14:59:12.112Z</time>
      </trkpt>
      <trkpt lat="48.7057" lon="-3.83102">
        <ele>24</ele>
        <time>2021-06-03T14:59:17.111Z</time>
      </trkpt>
      <trkpt lat="48.70569" lon="-3.83109">
        <ele>25</ele>
        <time>2021-06-03T14:59:22.093Z</time>
      </trkpt>
      <trkpt lat="48.70568" lon="-3.83117">
        <ele>25</ele>
        <time>2021-06-03T14:59:27.102Z</time>
      </trkpt>
      <trkpt lat="48.70567" lon="-3.83125">
        <ele>25</ele>
        <time>2021-06-03T14:59:31.113Z</time>
      </trkpt>
      <trkpt lat="48.70565" lon="-3.83133">
        <ele>26</ele>
        <time>2021-06-03T14:59:36.115Z</time>
      </trkpt>
      <trkpt lat="48.70562" lon="-3.83141">
        <ele>26</ele>
        <time>2021-06-03T14:59:41.112Z</time>
      </trkpt>
      <trkpt lat="48.7056" lon="-3.8315">
        <ele>26</ele>
        <time>2021-06-03T14:59:46.101Z</time>
      </trkpt>
      <trkpt lat="48.70558" lon="-3.83157">
        <ele>26</ele>
        <time>2021-06-03T14:59:50.103Z</time>
      </trkpt>
      <trkpt lat="48.70556" lon="-3.83165">
        <ele>26</ele>
        <time>2021-06-03T14:59:54.113Z</time>
      </trkpt>
      <trkpt lat="48.70554" lon="-3.83174">
        <ele>26</ele>
        <time>2021-06-03T14:59:59.094Z</time>
      </trkpt>
      <trkpt lat="48.70552" lon="-3.83181">
        <ele>27</ele>
        <time>2021-06-03T15:00:03.102Z</time>
      </trkpt>
      <trkpt lat="48.7055" lon="-3.83188">
        <ele>27</ele>
        <time>2021-06-03T15:00:07.117Z</time>
      </trkpt>
      <trkpt lat="48.70548" lon="-3.83196">
        <ele>27</ele>
        <time>2021-06-03T15:00:12.093Z</time>
      </trkpt>
      <trkpt lat="48.70549" lon="-3.83201">
        <ele>27</ele>
        <time>2021-06-03T15:00:16.105Z</time>
      </trkpt>
      <trkpt lat="48.70553" lon="-3.83207">
        <ele>27</ele>
        <time>2021-06-03T15:00:21.103Z</time>
      </trkpt>
      <trkpt lat="48.70552" lon="-3.83213">
        <ele>27</ele>
        <time>2021-06-03T15:00:25.109Z</time>
      </trkpt>
      <trkpt lat="48.70557" lon="-3.83212">
        <ele>27</ele>
        <time>2021-06-03T15:00:30.110Z</time>
      </trkpt>
    </trkseg>
  </trk>
</gpx>